<?xml version="1.0" encoding="UTF-8" standalone="no" ?>
<gpx xmlns="http://www.topografix.com/GPX/1/1" xmlns:xsi="http://www.w3.org/2001/XMLSchema-instance" xsi:schemaLocation="http://www.topografix.com/GPX/1/1 http://www.topografix.com/GPX/1/1/gpx.xsd" version="1.1" creator="VisuGPX - https://www.visugpx.com">
  <metadata>
    <name>Bauroux/Lachens </name>
    <desc><![CDATA[BAUROUX/LACHENS ]]></desc>
  </metadata>
  <trk>
    <name><![CDATA[2014-08-25T07:10:04Z]]></name>
    <trkseg>
      <trkpt lat="43.77329" lon="6.70018">
        <ele>1109.577</ele>
        <time>2014-08-25T07:10:05Z</time>
      </trkpt>
      <trkpt lat="43.77334" lon="6.70002">
        <ele>1113.09</ele>
        <time>2014-08-25T07:10:14Z</time>
      </trkpt>
      <trkpt lat="43.7734" lon="6.69982">
        <ele>1114.3</ele>
        <time>2014-08-25T07:10:20Z</time>
      </trkpt>
      <trkpt lat="43.77349" lon="6.6997">
        <ele>1114.462</ele>
        <time>2014-08-25T07:10:24Z</time>
      </trkpt>
      <trkpt lat="43.77358" lon="6.69959">
        <ele>1115.072</ele>
        <time>2014-08-25T07:10:28Z</time>
      </trkpt>
      <trkpt lat="43.77368" lon="6.6995">
        <ele>1117.439</ele>
        <time>2014-08-25T07:10:34Z</time>
      </trkpt>
      <trkpt lat="43.77378" lon="6.69931">
        <ele>1117.098</ele>
        <time>2014-08-25T07:10:41Z</time>
      </trkpt>
      <trkpt lat="43.7739" lon="6.69914">
        <ele>1116.264</ele>
        <time>2014-08-25T07:10:48Z</time>
      </trkpt>
      <trkpt lat="43.77392" lon="6.69912">
        <ele>1114.947</ele>
        <time>2014-08-25T07:10:49Z</time>
      </trkpt>
      <trkpt lat="43.77398" lon="6.69901">
        <ele>1117.818</ele>
        <time>2014-08-25T07:10:55Z</time>
      </trkpt>
      <trkpt lat="43.77412" lon="6.69888">
        <ele>1122.273</ele>
        <time>2014-08-25T07:11:03Z</time>
      </trkpt>
      <trkpt lat="43.77423" lon="6.69877">
        <ele>1121.957</ele>
        <time>2014-08-25T07:11:09Z</time>
      </trkpt>
      <trkpt lat="43.77435" lon="6.69863">
        <ele>1121.833</ele>
        <time>2014-08-25T07:11:17Z</time>
      </trkpt>
      <trkpt lat="43.77449" lon="6.69852">
        <ele>1124.11</ele>
        <time>2014-08-25T07:11:26Z</time>
      </trkpt>
      <trkpt lat="43.77459" lon="6.69842">
        <ele>1126.747</ele>
        <time>2014-08-25T07:11:33Z</time>
      </trkpt>
      <trkpt lat="43.77473" lon="6.69831">
        <ele>1128.732</ele>
        <time>2014-08-25T07:11:42Z</time>
      </trkpt>
      <trkpt lat="43.77484" lon="6.69822">
        <ele>1130.357</ele>
        <time>2014-08-25T07:11:49Z</time>
      </trkpt>
      <trkpt lat="43.77497" lon="6.69812">
        <ele>1132.923</ele>
        <time>2014-08-25T07:11:58Z</time>
      </trkpt>
      <trkpt lat="43.77504" lon="6.69807">
        <ele>1134.593</ele>
        <time>2014-08-25T07:12:03Z</time>
      </trkpt>
      <trkpt lat="43.77511" lon="6.69801">
        <ele>1135.799</ele>
        <time>2014-08-25T07:12:08Z</time>
      </trkpt>
      <trkpt lat="43.77524" lon="6.69787">
        <ele>1137.026</ele>
        <time>2014-08-25T07:12:18Z</time>
      </trkpt>
      <trkpt lat="43.77537" lon="6.69767">
        <ele>1138.324</ele>
        <time>2014-08-25T07:12:29Z</time>
      </trkpt>
      <trkpt lat="43.77546" lon="6.69758">
        <ele>1138.396</ele>
        <time>2014-08-25T07:12:35Z</time>
      </trkpt>
      <trkpt lat="43.77553" lon="6.6975">
        <ele>1140.469</ele>
        <time>2014-08-25T07:12:41Z</time>
      </trkpt>
      <trkpt lat="43.7756" lon="6.69736">
        <ele>1143.292</ele>
        <time>2014-08-25T07:12:48Z</time>
      </trkpt>
      <trkpt lat="43.77563" lon="6.69727">
        <ele>1144.969</ele>
        <time>2014-08-25T07:12:52Z</time>
      </trkpt>
      <trkpt lat="43.77568" lon="6.69714">
        <ele>1147.593</ele>
        <time>2014-08-25T07:12:59Z</time>
      </trkpt>
      <trkpt lat="43.77576" lon="6.69698">
        <ele>1149.289</ele>
        <time>2014-08-25T07:13:08Z</time>
      </trkpt>
      <trkpt lat="43.7758" lon="6.69683">
        <ele>1152.073</ele>
        <time>2014-08-25T07:13:16Z</time>
      </trkpt>
      <trkpt lat="43.7758" lon="6.69657">
        <ele>1153.791</ele>
        <time>2014-08-25T07:13:27Z</time>
      </trkpt>
      <trkpt lat="43.77577" lon="6.69648">
        <ele>1155.169</ele>
        <time>2014-08-25T07:13:32Z</time>
      </trkpt>
      <trkpt lat="43.77575" lon="6.69629">
        <ele>1156.571</ele>
        <time>2014-08-25T07:13:40Z</time>
      </trkpt>
      <trkpt lat="43.77577" lon="6.69613">
        <ele>1158.229</ele>
        <time>2014-08-25T07:13:46Z</time>
      </trkpt>
      <trkpt lat="43.77579" lon="6.69594">
        <ele>1158.888</ele>
        <time>2014-08-25T07:13:53Z</time>
      </trkpt>
      <trkpt lat="43.7758" lon="6.69578">
        <ele>1160.744</ele>
        <time>2014-08-25T07:14:00Z</time>
      </trkpt>
      <trkpt lat="43.77581" lon="6.6956">
        <ele>1162.006</ele>
        <time>2014-08-25T07:14:07Z</time>
      </trkpt>
      <trkpt lat="43.77585" lon="6.69542">
        <ele>1160.337</ele>
        <time>2014-08-25T07:14:14Z</time>
      </trkpt>
      <trkpt lat="43.7759" lon="6.69524">
        <ele>1156.674</ele>
        <time>2014-08-25T07:14:20Z</time>
      </trkpt>
      <trkpt lat="43.77595" lon="6.69495">
        <ele>1155.945</ele>
        <time>2014-08-25T07:14:28Z</time>
      </trkpt>
      <trkpt lat="43.77603" lon="6.6947">
        <ele>1157.523</ele>
        <time>2014-08-25T07:14:36Z</time>
      </trkpt>
      <trkpt lat="43.77612" lon="6.69451">
        <ele>1158.724</ele>
        <time>2014-08-25T07:14:44Z</time>
      </trkpt>
      <trkpt lat="43.7762" lon="6.69437">
        <ele>1160.838</ele>
        <time>2014-08-25T07:14:51Z</time>
      </trkpt>
      <trkpt lat="43.77624" lon="6.69425">
        <ele>1161.857</ele>
        <time>2014-08-25T07:14:56Z</time>
      </trkpt>
      <trkpt lat="43.77627" lon="6.69398">
        <ele>1161.59</ele>
        <time>2014-08-25T07:15:02Z</time>
      </trkpt>
      <trkpt lat="43.77631" lon="6.69383">
        <ele>1162.869</ele>
        <time>2014-08-25T07:15:06Z</time>
      </trkpt>
      <trkpt lat="43.77635" lon="6.69364">
        <ele>1163.456</ele>
        <time>2014-08-25T07:15:12Z</time>
      </trkpt>
      <trkpt lat="43.77632" lon="6.69348">
        <ele>1164.623</ele>
        <time>2014-08-25T07:15:17Z</time>
      </trkpt>
      <trkpt lat="43.77624" lon="6.69324">
        <ele>1164.196</ele>
        <time>2014-08-25T07:15:21Z</time>
      </trkpt>
      <trkpt lat="43.77621" lon="6.6931">
        <ele>1163.454</ele>
        <time>2014-08-25T07:15:23Z</time>
      </trkpt>
      <trkpt lat="43.77625" lon="6.69293">
        <ele>1164.512</ele>
        <time>2014-08-25T07:15:27Z</time>
      </trkpt>
      <trkpt lat="43.77631" lon="6.69282">
        <ele>1164.796</ele>
        <time>2014-08-25T07:15:31Z</time>
      </trkpt>
      <trkpt lat="43.77639" lon="6.6925">
        <ele>1165.119</ele>
        <time>2014-08-25T07:15:41Z</time>
      </trkpt>
      <trkpt lat="43.77644" lon="6.69223">
        <ele>1166.419</ele>
        <time>2014-08-25T07:15:49Z</time>
      </trkpt>
      <trkpt lat="43.77652" lon="6.69201">
        <ele>1166.792</ele>
        <time>2014-08-25T07:15:56Z</time>
      </trkpt>
      <trkpt lat="43.77661" lon="6.69171">
        <ele>1167.497</ele>
        <time>2014-08-25T07:16:05Z</time>
      </trkpt>
      <trkpt lat="43.77668" lon="6.69141">
        <ele>1167.877</ele>
        <time>2014-08-25T07:16:13Z</time>
      </trkpt>
      <trkpt lat="43.77676" lon="6.69102">
        <ele>1169.211</ele>
        <time>2014-08-25T07:16:23Z</time>
      </trkpt>
      <trkpt lat="43.77679" lon="6.69083">
        <ele>1169.054</ele>
        <time>2014-08-25T07:16:29Z</time>
      </trkpt>
      <trkpt lat="43.77673" lon="6.69063">
        <ele>1169.514</ele>
        <time>2014-08-25T07:16:35Z</time>
      </trkpt>
      <trkpt lat="43.77673" lon="6.69042">
        <ele>1170.424</ele>
        <time>2014-08-25T07:16:40Z</time>
      </trkpt>
      <trkpt lat="43.77672" lon="6.69026">
        <ele>1171.763</ele>
        <time>2014-08-25T07:16:44Z</time>
      </trkpt>
      <trkpt lat="43.77676" lon="6.69008">
        <ele>1172.919</ele>
        <time>2014-08-25T07:16:49Z</time>
      </trkpt>
      <trkpt lat="43.77677" lon="6.68985">
        <ele>1174.32</ele>
        <time>2014-08-25T07:16:56Z</time>
      </trkpt>
      <trkpt lat="43.77683" lon="6.68964">
        <ele>1175.129</ele>
        <time>2014-08-25T07:17:03Z</time>
      </trkpt>
      <trkpt lat="43.77685" lon="6.6895">
        <ele>1178.015</ele>
        <time>2014-08-25T07:17:09Z</time>
      </trkpt>
      <trkpt lat="43.77688" lon="6.68937">
        <ele>1179.738</ele>
        <time>2014-08-25T07:17:14Z</time>
      </trkpt>
      <trkpt lat="43.77692" lon="6.68922">
        <ele>1181.329</ele>
        <time>2014-08-25T07:17:21Z</time>
      </trkpt>
      <trkpt lat="43.77692" lon="6.68904">
        <ele>1183.211</ele>
        <time>2014-08-25T07:17:28Z</time>
      </trkpt>
      <trkpt lat="43.77696" lon="6.68887">
        <ele>1183.528</ele>
        <time>2014-08-25T07:17:35Z</time>
      </trkpt>
      <trkpt lat="43.77696" lon="6.6887">
        <ele>1185.107</ele>
        <time>2014-08-25T07:17:42Z</time>
      </trkpt>
      <trkpt lat="43.77695" lon="6.6885">
        <ele>1187.466</ele>
        <time>2014-08-25T07:17:50Z</time>
      </trkpt>
      <trkpt lat="43.77698" lon="6.68831">
        <ele>1188.442</ele>
        <time>2014-08-25T07:17:58Z</time>
      </trkpt>
      <trkpt lat="43.77698" lon="6.68812">
        <ele>1189.653</ele>
        <time>2014-08-25T07:18:05Z</time>
      </trkpt>
      <trkpt lat="43.77697" lon="6.6879">
        <ele>1191.559</ele>
        <time>2014-08-25T07:18:14Z</time>
      </trkpt>
      <trkpt lat="43.77693" lon="6.68775">
        <ele>1191.71</ele>
        <time>2014-08-25T07:18:20Z</time>
      </trkpt>
      <trkpt lat="43.7769" lon="6.68763">
        <ele>1191.898</ele>
        <time>2014-08-25T07:18:26Z</time>
      </trkpt>
      <trkpt lat="43.77686" lon="6.68751">
        <ele>1193.768</ele>
        <time>2014-08-25T07:18:33Z</time>
      </trkpt>
      <trkpt lat="43.77686" lon="6.68749">
        <ele>1194.099</ele>
        <time>2014-08-25T07:18:34Z</time>
      </trkpt>
      <trkpt lat="43.77686" lon="6.68728">
        <ele>1193.148</ele>
        <time>2014-08-25T07:18:43Z</time>
      </trkpt>
      <trkpt lat="43.77684" lon="6.68715">
        <ele>1195.485</ele>
        <time>2014-08-25T07:18:49Z</time>
      </trkpt>
      <trkpt lat="43.77685" lon="6.68698">
        <ele>1197.319</ele>
        <time>2014-08-25T07:18:57Z</time>
      </trkpt>
      <trkpt lat="43.77688" lon="6.68682">
        <ele>1198.142</ele>
        <time>2014-08-25T07:19:05Z</time>
      </trkpt>
      <trkpt lat="43.77689" lon="6.68675">
        <ele>1198.825</ele>
        <time>2014-08-25T07:19:09Z</time>
      </trkpt>
      <trkpt lat="43.77687" lon="6.68659">
        <ele>1201.951</ele>
        <time>2014-08-25T07:19:17Z</time>
      </trkpt>
      <trkpt lat="43.77687" lon="6.68652">
        <ele>1204.315</ele>
        <time>2014-08-25T07:19:21Z</time>
      </trkpt>
      <trkpt lat="43.77687" lon="6.6864">
        <ele>1205.503</ele>
        <time>2014-08-25T07:19:28Z</time>
      </trkpt>
      <trkpt lat="43.77688" lon="6.68627">
        <ele>1205.048</ele>
        <time>2014-08-25T07:19:34Z</time>
      </trkpt>
      <trkpt lat="43.77688" lon="6.68624">
        <ele>1204.517</ele>
        <time>2014-08-25T07:19:35Z</time>
      </trkpt>
      <trkpt lat="43.77688" lon="6.68607">
        <ele>1206.25</ele>
        <time>2014-08-25T07:19:42Z</time>
      </trkpt>
      <trkpt lat="43.77691" lon="6.68589">
        <ele>1208.414</ele>
        <time>2014-08-25T07:19:50Z</time>
      </trkpt>
      <trkpt lat="43.77689" lon="6.68574">
        <ele>1210.328</ele>
        <time>2014-08-25T07:19:57Z</time>
      </trkpt>
      <trkpt lat="43.77682" lon="6.68553">
        <ele>1211.995</ele>
        <time>2014-08-25T07:20:06Z</time>
      </trkpt>
      <trkpt lat="43.77679" lon="6.68539">
        <ele>1212.868</ele>
        <time>2014-08-25T07:20:12Z</time>
      </trkpt>
      <trkpt lat="43.77674" lon="6.68525">
        <ele>1213.332</ele>
        <time>2014-08-25T07:20:19Z</time>
      </trkpt>
      <trkpt lat="43.7767" lon="6.68507">
        <ele>1213.364</ele>
        <time>2014-08-25T07:20:27Z</time>
      </trkpt>
      <trkpt lat="43.77668" lon="6.68494">
        <ele>1213.672</ele>
        <time>2014-08-25T07:20:33Z</time>
      </trkpt>
      <trkpt lat="43.7767" lon="6.68479">
        <ele>1215.857</ele>
        <time>2014-08-25T07:20:40Z</time>
      </trkpt>
      <trkpt lat="43.77669" lon="6.68464">
        <ele>1217.637</ele>
        <time>2014-08-25T07:20:47Z</time>
      </trkpt>
      <trkpt lat="43.77674" lon="6.68443">
        <ele>1219.789</ele>
        <time>2014-08-25T07:20:56Z</time>
      </trkpt>
      <trkpt lat="43.77675" lon="6.6842">
        <ele>1219.598</ele>
        <time>2014-08-25T07:21:03Z</time>
      </trkpt>
      <trkpt lat="43.77674" lon="6.68389">
        <ele>1218.21</ele>
        <time>2014-08-25T07:21:10Z</time>
      </trkpt>
      <trkpt lat="43.7767" lon="6.68351">
        <ele>1215.729</ele>
        <time>2014-08-25T07:21:16Z</time>
      </trkpt>
      <trkpt lat="43.77663" lon="6.68318">
        <ele>1213.486</ele>
        <time>2014-08-25T07:21:21Z</time>
      </trkpt>
      <trkpt lat="43.77659" lon="6.68305">
        <ele>1212.494</ele>
        <time>2014-08-25T07:21:23Z</time>
      </trkpt>
      <trkpt lat="43.77657" lon="6.68277">
        <ele>1210.829</ele>
        <time>2014-08-25T07:21:27Z</time>
      </trkpt>
      <trkpt lat="43.77655" lon="6.68247">
        <ele>1211.451</ele>
        <time>2014-08-25T07:21:32Z</time>
      </trkpt>
      <trkpt lat="43.77655" lon="6.68232">
        <ele>1211.908</ele>
        <time>2014-08-25T07:21:39Z</time>
      </trkpt>
      <trkpt lat="43.77652" lon="6.68217">
        <ele>1214.604</ele>
        <time>2014-08-25T07:21:46Z</time>
      </trkpt>
      <trkpt lat="43.77652" lon="6.68203">
        <ele>1216.634</ele>
        <time>2014-08-25T07:21:53Z</time>
      </trkpt>
      <trkpt lat="43.77651" lon="6.68192">
        <ele>1218.439</ele>
        <time>2014-08-25T07:21:58Z</time>
      </trkpt>
      <trkpt lat="43.77651" lon="6.68175">
        <ele>1220.059</ele>
        <time>2014-08-25T07:22:05Z</time>
      </trkpt>
      <trkpt lat="43.7765" lon="6.68157">
        <ele>1223.381</ele>
        <time>2014-08-25T07:22:16Z</time>
      </trkpt>
      <trkpt lat="43.77649" lon="6.68147">
        <ele>1224.858</ele>
        <time>2014-08-25T07:22:21Z</time>
      </trkpt>
      <trkpt lat="43.77647" lon="6.6813">
        <ele>1227.164</ele>
        <time>2014-08-25T07:22:30Z</time>
      </trkpt>
      <trkpt lat="43.77647" lon="6.68117">
        <ele>1229.458</ele>
        <time>2014-08-25T07:22:37Z</time>
      </trkpt>
      <trkpt lat="43.77645" lon="6.68101">
        <ele>1232.201</ele>
        <time>2014-08-25T07:22:46Z</time>
      </trkpt>
      <trkpt lat="43.77642" lon="6.68083">
        <ele>1234.729</ele>
        <time>2014-08-25T07:22:55Z</time>
      </trkpt>
      <trkpt lat="43.77639" lon="6.68066">
        <ele>1234.324</ele>
        <time>2014-08-25T07:23:03Z</time>
      </trkpt>
      <trkpt lat="43.77637" lon="6.68051">
        <ele>1234.034</ele>
        <time>2014-08-25T07:23:10Z</time>
      </trkpt>
      <trkpt lat="43.77634" lon="6.68033">
        <ele>1235.444</ele>
        <time>2014-08-25T07:23:19Z</time>
      </trkpt>
      <trkpt lat="43.77632" lon="6.68019">
        <ele>1237.108</ele>
        <time>2014-08-25T07:23:26Z</time>
      </trkpt>
      <trkpt lat="43.77634" lon="6.68005">
        <ele>1238.966</ele>
        <time>2014-08-25T07:23:33Z</time>
      </trkpt>
      <trkpt lat="43.77635" lon="6.68003">
        <ele>1238.639</ele>
        <time>2014-08-25T07:23:37Z</time>
      </trkpt>
      <trkpt lat="43.77636" lon="6.67997">
        <ele>1238.177</ele>
        <time>2014-08-25T07:23:53Z</time>
      </trkpt>
      <trkpt lat="43.77637" lon="6.67995">
        <ele>1238.69</ele>
        <time>2014-08-25T07:23:55Z</time>
      </trkpt>
      <trkpt lat="43.77636" lon="6.67983">
        <ele>1240.039</ele>
        <time>2014-08-25T07:24:05Z</time>
      </trkpt>
      <trkpt lat="43.77636" lon="6.67976">
        <ele>1240.914</ele>
        <time>2014-08-25T07:24:10Z</time>
      </trkpt>
      <trkpt lat="43.77634" lon="6.67967">
        <ele>1244.24</ele>
        <time>2014-08-25T07:24:16Z</time>
      </trkpt>
      <trkpt lat="43.77638" lon="6.67962">
        <ele>1245.656</ele>
        <time>2014-08-25T07:24:24Z</time>
      </trkpt>
      <trkpt lat="43.77638" lon="6.67959">
        <ele>1246.594</ele>
        <time>2014-08-25T07:24:31Z</time>
      </trkpt>
      <trkpt lat="43.77638" lon="6.67955">
        <ele>1246.262</ele>
        <time>2014-08-25T07:24:36Z</time>
      </trkpt>
      <trkpt lat="43.7764" lon="6.6795">
        <ele>1247.979</ele>
        <time>2014-08-25T07:24:42Z</time>
      </trkpt>
      <trkpt lat="43.77641" lon="6.67944">
        <ele>1249.664</ele>
        <time>2014-08-25T07:24:49Z</time>
      </trkpt>
      <trkpt lat="43.77642" lon="6.67936">
        <ele>1250.048</ele>
        <time>2014-08-25T07:24:57Z</time>
      </trkpt>
      <trkpt lat="43.77641" lon="6.67933">
        <ele>1250.715</ele>
        <time>2014-08-25T07:25:00Z</time>
      </trkpt>
      <trkpt lat="43.77639" lon="6.6792">
        <ele>1251.409</ele>
        <time>2014-08-25T07:25:08Z</time>
      </trkpt>
      <trkpt lat="43.77637" lon="6.67909">
        <ele>1252.282</ele>
        <time>2014-08-25T07:25:16Z</time>
      </trkpt>
      <trkpt lat="43.77635" lon="6.679">
        <ele>1252.873</ele>
        <time>2014-08-25T07:25:24Z</time>
      </trkpt>
      <trkpt lat="43.77636" lon="6.67894">
        <ele>1253.173</ele>
        <time>2014-08-25T07:25:30Z</time>
      </trkpt>
      <trkpt lat="43.77637" lon="6.67896">
        <ele>1253.636</ele>
        <time>2014-08-25T07:25:34Z</time>
      </trkpt>
      <trkpt lat="43.77641" lon="6.679">
        <ele>1254.277</ele>
        <time>2014-08-25T07:25:43Z</time>
      </trkpt>
      <trkpt lat="43.77642" lon="6.67894">
        <ele>1254.483</ele>
        <time>2014-08-25T07:25:49Z</time>
      </trkpt>
      <trkpt lat="43.7764" lon="6.67889">
        <ele>1256.921</ele>
        <time>2014-08-25T07:25:56Z</time>
      </trkpt>
      <trkpt lat="43.7764" lon="6.6788">
        <ele>1258.384</ele>
        <time>2014-08-25T07:26:04Z</time>
      </trkpt>
      <trkpt lat="43.77642" lon="6.67876">
        <ele>1261.126</ele>
        <time>2014-08-25T07:26:12Z</time>
      </trkpt>
      <trkpt lat="43.77645" lon="6.6787">
        <ele>1261.802</ele>
        <time>2014-08-25T07:26:20Z</time>
      </trkpt>
      <trkpt lat="43.77646" lon="6.6787">
        <ele>1262.18</ele>
        <time>2014-08-25T07:26:23Z</time>
      </trkpt>
      <trkpt lat="43.77651" lon="6.67878">
        <ele>1263.778</ele>
        <time>2014-08-25T07:26:32Z</time>
      </trkpt>
      <trkpt lat="43.77655" lon="6.67882">
        <ele>1264.316</ele>
        <time>2014-08-25T07:26:39Z</time>
      </trkpt>
      <trkpt lat="43.77659" lon="6.6789">
        <ele>1264.091</ele>
        <time>2014-08-25T07:26:48Z</time>
      </trkpt>
      <trkpt lat="43.77662" lon="6.67897">
        <ele>1267.102</ele>
        <time>2014-08-25T07:26:56Z</time>
      </trkpt>
      <trkpt lat="43.77666" lon="6.67902">
        <ele>1268.37</ele>
        <time>2014-08-25T07:27:03Z</time>
      </trkpt>
      <trkpt lat="43.77668" lon="6.67903">
        <ele>1267.63</ele>
        <time>2014-08-25T07:27:07Z</time>
      </trkpt>
      <trkpt lat="43.77668" lon="6.67907">
        <ele>1267.562</ele>
        <time>2014-08-25T07:27:10Z</time>
      </trkpt>
      <trkpt lat="43.77671" lon="6.67909">
        <ele>1267.458</ele>
        <time>2014-08-25T07:27:13Z</time>
      </trkpt>
      <trkpt lat="43.77673" lon="6.67914">
        <ele>1268.117</ele>
        <time>2014-08-25T07:27:17Z</time>
      </trkpt>
      <trkpt lat="43.77678" lon="6.67922">
        <ele>1270.49</ele>
        <time>2014-08-25T07:27:26Z</time>
      </trkpt>
      <trkpt lat="43.7768" lon="6.67929">
        <ele>1273.122</ele>
        <time>2014-08-25T07:27:33Z</time>
      </trkpt>
      <trkpt lat="43.77683" lon="6.67934">
        <ele>1272.136</ele>
        <time>2014-08-25T07:27:40Z</time>
      </trkpt>
      <trkpt lat="43.77685" lon="6.6794">
        <ele>1273.431</ele>
        <time>2014-08-25T07:27:46Z</time>
      </trkpt>
      <trkpt lat="43.77686" lon="6.6795">
        <ele>1274.253</ele>
        <time>2014-08-25T07:27:55Z</time>
      </trkpt>
      <trkpt lat="43.7769" lon="6.67958">
        <ele>1270.652</ele>
        <time>2014-08-25T07:28:03Z</time>
      </trkpt>
      <trkpt lat="43.77693" lon="6.67962">
        <ele>1267.798</ele>
        <time>2014-08-25T07:28:09Z</time>
      </trkpt>
      <trkpt lat="43.77695" lon="6.67965">
        <ele>1267.411</ele>
        <time>2014-08-25T07:28:16Z</time>
      </trkpt>
      <trkpt lat="43.77697" lon="6.67963">
        <ele>1267.991</ele>
        <time>2014-08-25T07:28:22Z</time>
      </trkpt>
      <trkpt lat="43.77698" lon="6.67959">
        <ele>1274.883</ele>
        <time>2014-08-25T07:28:33Z</time>
      </trkpt>
      <trkpt lat="43.777" lon="6.67963">
        <ele>1276.63</ele>
        <time>2014-08-25T07:28:38Z</time>
      </trkpt>
      <trkpt lat="43.77703" lon="6.67969">
        <ele>1277.483</ele>
        <time>2014-08-25T07:28:46Z</time>
      </trkpt>
      <trkpt lat="43.77705" lon="6.67973">
        <ele>1277.176</ele>
        <time>2014-08-25T07:28:54Z</time>
      </trkpt>
      <trkpt lat="43.77707" lon="6.67979">
        <ele>1278.467</ele>
        <time>2014-08-25T07:29:01Z</time>
      </trkpt>
      <trkpt lat="43.77707" lon="6.67986">
        <ele>1281.922</ele>
        <time>2014-08-25T07:29:09Z</time>
      </trkpt>
      <trkpt lat="43.77708" lon="6.67993">
        <ele>1282.503</ele>
        <time>2014-08-25T07:29:17Z</time>
      </trkpt>
      <trkpt lat="43.77708" lon="6.68001">
        <ele>1286.486</ele>
        <time>2014-08-25T07:29:26Z</time>
      </trkpt>
      <trkpt lat="43.77708" lon="6.68002">
        <ele>1288.785</ele>
        <time>2014-08-25T07:29:33Z</time>
      </trkpt>
      <trkpt lat="43.77714" lon="6.6801">
        <ele>1290.413</ele>
        <time>2014-08-25T07:29:44Z</time>
      </trkpt>
      <trkpt lat="43.77722" lon="6.68014">
        <ele>1290.693</ele>
        <time>2014-08-25T07:29:53Z</time>
      </trkpt>
      <trkpt lat="43.77728" lon="6.68018">
        <ele>1291.025</ele>
        <time>2014-08-25T07:30:01Z</time>
      </trkpt>
      <trkpt lat="43.77731" lon="6.68014">
        <ele>1294.07</ele>
        <time>2014-08-25T07:30:09Z</time>
      </trkpt>
      <trkpt lat="43.77732" lon="6.68013">
        <ele>1295.133</ele>
        <time>2014-08-25T07:30:15Z</time>
      </trkpt>
      <trkpt lat="43.77732" lon="6.68013">
        <ele>1295.423</ele>
        <time>2014-08-25T07:30:16Z</time>
      </trkpt>
      <trkpt lat="43.77732" lon="6.68009">
        <ele>1296.201</ele>
        <time>2014-08-25T07:30:24Z</time>
      </trkpt>
      <trkpt lat="43.77732" lon="6.68008">
        <ele>1296.373</ele>
        <time>2014-08-25T07:30:28Z</time>
      </trkpt>
      <trkpt lat="43.77739" lon="6.68003">
        <ele>1299.245</ele>
        <time>2014-08-25T07:30:38Z</time>
      </trkpt>
      <trkpt lat="43.77741" lon="6.68002">
        <ele>1300.968</ele>
        <time>2014-08-25T07:30:44Z</time>
      </trkpt>
      <trkpt lat="43.77745" lon="6.68">
        <ele>1302.347</ele>
        <time>2014-08-25T07:30:50Z</time>
      </trkpt>
      <trkpt lat="43.77746" lon="6.68">
        <ele>1302.93</ele>
        <time>2014-08-25T07:30:52Z</time>
      </trkpt>
      <trkpt lat="43.77752" lon="6.68001">
        <ele>1303.203</ele>
        <time>2014-08-25T07:31:00Z</time>
      </trkpt>
      <trkpt lat="43.77761" lon="6.68002">
        <ele>1294.248</ele>
        <time>2014-08-25T07:31:43Z</time>
      </trkpt>
      <trkpt lat="43.77766" lon="6.67991">
        <ele>1296.788</ele>
        <time>2014-08-25T07:31:49Z</time>
      </trkpt>
      <trkpt lat="43.77781" lon="6.67984">
        <ele>1294.805</ele>
        <time>2014-08-25T07:31:56Z</time>
      </trkpt>
      <trkpt lat="43.77788" lon="6.67988">
        <ele>1294.646</ele>
        <time>2014-08-25T07:32:00Z</time>
      </trkpt>
      <trkpt lat="43.77793" lon="6.67989">
        <ele>1293.613</ele>
        <time>2014-08-25T07:32:02Z</time>
      </trkpt>
      <trkpt lat="43.77802" lon="6.67986">
        <ele>1293.353</ele>
        <time>2014-08-25T07:32:07Z</time>
      </trkpt>
      <trkpt lat="43.77808" lon="6.67992">
        <ele>1294.479</ele>
        <time>2014-08-25T07:32:13Z</time>
      </trkpt>
      <trkpt lat="43.77808" lon="6.67999">
        <ele>1294.348</ele>
        <time>2014-08-25T07:32:16Z</time>
      </trkpt>
      <trkpt lat="43.77813" lon="6.68011">
        <ele>1296.064</ele>
        <time>2014-08-25T07:32:23Z</time>
      </trkpt>
      <trkpt lat="43.77814" lon="6.68014">
        <ele>1304.047</ele>
        <time>2014-08-25T07:32:28Z</time>
      </trkpt>
      <trkpt lat="43.77814" lon="6.68014">
        <ele>1306.572</ele>
        <time>2014-08-25T07:32:29Z</time>
      </trkpt>
      <trkpt lat="43.77824" lon="6.68023">
        <ele>1315.245</ele>
        <time>2014-08-25T07:32:35Z</time>
      </trkpt>
      <trkpt lat="43.77828" lon="6.68027">
        <ele>1318.945</ele>
        <time>2014-08-25T07:32:39Z</time>
      </trkpt>
      <trkpt lat="43.77831" lon="6.6803">
        <ele>1320.258</ele>
        <time>2014-08-25T07:32:42Z</time>
      </trkpt>
      <trkpt lat="43.77836" lon="6.68034">
        <ele>1319.912</ele>
        <time>2014-08-25T07:32:45Z</time>
      </trkpt>
      <trkpt lat="43.77848" lon="6.68047">
        <ele>1317.25</ele>
        <time>2014-08-25T07:32:51Z</time>
      </trkpt>
      <trkpt lat="43.77851" lon="6.68057">
        <ele>1313.655</ele>
        <time>2014-08-25T07:32:56Z</time>
      </trkpt>
      <trkpt lat="43.77853" lon="6.68066">
        <ele>1315.479</ele>
        <time>2014-08-25T07:33:01Z</time>
      </trkpt>
      <trkpt lat="43.77858" lon="6.68073">
        <ele>1312.381</ele>
        <time>2014-08-25T07:33:04Z</time>
      </trkpt>
      <trkpt lat="43.77868" lon="6.68089">
        <ele>1308.369</ele>
        <time>2014-08-25T07:33:10Z</time>
      </trkpt>
      <trkpt lat="43.77876" lon="6.68104">
        <ele>1301.183</ele>
        <time>2014-08-25T07:33:17Z</time>
      </trkpt>
      <trkpt lat="43.77884" lon="6.68116">
        <ele>1296.913</ele>
        <time>2014-08-25T07:33:23Z</time>
      </trkpt>
      <trkpt lat="43.7789" lon="6.68129">
        <ele>1289.739</ele>
        <time>2014-08-25T07:33:29Z</time>
      </trkpt>
      <trkpt lat="43.77892" lon="6.6814">
        <ele>1292.037</ele>
        <time>2014-08-25T07:33:34Z</time>
      </trkpt>
      <trkpt lat="43.779" lon="6.68149">
        <ele>1290.084</ele>
        <time>2014-08-25T07:33:39Z</time>
      </trkpt>
      <trkpt lat="43.77912" lon="6.6816">
        <ele>1287.121</ele>
        <time>2014-08-25T07:33:44Z</time>
      </trkpt>
      <trkpt lat="43.77924" lon="6.6817">
        <ele>1291.152</ele>
        <time>2014-08-25T07:33:49Z</time>
      </trkpt>
      <trkpt lat="43.77933" lon="6.68176">
        <ele>1289.458</ele>
        <time>2014-08-25T07:33:53Z</time>
      </trkpt>
      <trkpt lat="43.77937" lon="6.6818">
        <ele>1289.461</ele>
        <time>2014-08-25T07:33:55Z</time>
      </trkpt>
      <trkpt lat="43.77943" lon="6.68184">
        <ele>1290.945</ele>
        <time>2014-08-25T07:34:00Z</time>
      </trkpt>
      <trkpt lat="43.77952" lon="6.68187">
        <ele>1294.88</ele>
        <time>2014-08-25T07:34:06Z</time>
      </trkpt>
      <trkpt lat="43.77953" lon="6.68188">
        <ele>1295.631</ele>
        <time>2014-08-25T07:34:07Z</time>
      </trkpt>
      <trkpt lat="43.77963" lon="6.68198">
        <ele>1299.558</ele>
        <time>2014-08-25T07:34:12Z</time>
      </trkpt>
      <trkpt lat="43.77964" lon="6.68206">
        <ele>1302.86</ele>
        <time>2014-08-25T07:34:15Z</time>
      </trkpt>
      <trkpt lat="43.77976" lon="6.68218">
        <ele>1304.157</ele>
        <time>2014-08-25T07:34:21Z</time>
      </trkpt>
      <trkpt lat="43.77983" lon="6.68226">
        <ele>1306.568</ele>
        <time>2014-08-25T07:34:27Z</time>
      </trkpt>
      <trkpt lat="43.77997" lon="6.6824">
        <ele>1301.336</ele>
        <time>2014-08-25T07:34:33Z</time>
      </trkpt>
      <trkpt lat="43.78003" lon="6.68249">
        <ele>1300.951</ele>
        <time>2014-08-25T07:34:38Z</time>
      </trkpt>
      <trkpt lat="43.78011" lon="6.68261">
        <ele>1302.835</ele>
        <time>2014-08-25T07:34:44Z</time>
      </trkpt>
      <trkpt lat="43.78013" lon="6.68266">
        <ele>1304.96</ele>
        <time>2014-08-25T07:34:47Z</time>
      </trkpt>
      <trkpt lat="43.78016" lon="6.68274">
        <ele>1307.632</ele>
        <time>2014-08-25T07:34:51Z</time>
      </trkpt>
      <trkpt lat="43.78018" lon="6.68284">
        <ele>1312.149</ele>
        <time>2014-08-25T07:34:57Z</time>
      </trkpt>
      <trkpt lat="43.78019" lon="6.68294">
        <ele>1315.929</ele>
        <time>2014-08-25T07:35:02Z</time>
      </trkpt>
      <trkpt lat="43.78013" lon="6.68295">
        <ele>1310.292</ele>
        <time>2014-08-25T07:35:07Z</time>
      </trkpt>
      <trkpt lat="43.78012" lon="6.68305">
        <ele>1313.095</ele>
        <time>2014-08-25T07:35:24Z</time>
      </trkpt>
      <trkpt lat="43.78011" lon="6.68307">
        <ele>1313.314</ele>
        <time>2014-08-25T07:35:28Z</time>
      </trkpt>
      <trkpt lat="43.78009" lon="6.68312">
        <ele>1310.128</ele>
        <time>2014-08-25T07:35:33Z</time>
      </trkpt>
      <trkpt lat="43.78011" lon="6.68315">
        <ele>1309.758</ele>
        <time>2014-08-25T07:35:35Z</time>
      </trkpt>
      <trkpt lat="43.78012" lon="6.68322">
        <ele>1306.885</ele>
        <time>2014-08-25T07:35:41Z</time>
      </trkpt>
      <trkpt lat="43.78012" lon="6.68323">
        <ele>1307.168</ele>
        <time>2014-08-25T07:35:42Z</time>
      </trkpt>
      <trkpt lat="43.78009" lon="6.68332">
        <ele>1310.651</ele>
        <time>2014-08-25T07:35:50Z</time>
      </trkpt>
      <trkpt lat="43.78009" lon="6.68336">
        <ele>1315.96</ele>
        <time>2014-08-25T07:35:54Z</time>
      </trkpt>
      <trkpt lat="43.78009" lon="6.68343">
        <ele>1317.567</ele>
        <time>2014-08-25T07:35:59Z</time>
      </trkpt>
      <trkpt lat="43.78006" lon="6.68345">
        <ele>1315.479</ele>
        <time>2014-08-25T07:36:02Z</time>
      </trkpt>
      <trkpt lat="43.78006" lon="6.68353">
        <ele>1319.689</ele>
        <time>2014-08-25T07:36:09Z</time>
      </trkpt>
      <trkpt lat="43.78005" lon="6.68354">
        <ele>1319.085</ele>
        <time>2014-08-25T07:36:12Z</time>
      </trkpt>
      <trkpt lat="43.78009" lon="6.68367">
        <ele>1321.101</ele>
        <time>2014-08-25T07:36:18Z</time>
      </trkpt>
      <trkpt lat="43.78012" lon="6.68376">
        <ele>1324.065</ele>
        <time>2014-08-25T07:36:22Z</time>
      </trkpt>
      <trkpt lat="43.78013" lon="6.68391">
        <ele>1327.466</ele>
        <time>2014-08-25T07:36:28Z</time>
      </trkpt>
      <trkpt lat="43.78013" lon="6.684">
        <ele>1331.291</ele>
        <time>2014-08-25T07:36:32Z</time>
      </trkpt>
      <trkpt lat="43.78013" lon="6.68409">
        <ele>1335.188</ele>
        <time>2014-08-25T07:36:36Z</time>
      </trkpt>
      <trkpt lat="43.78012" lon="6.68419">
        <ele>1337.255</ele>
        <time>2014-08-25T07:36:41Z</time>
      </trkpt>
      <trkpt lat="43.78011" lon="6.68432">
        <ele>1339.37</ele>
        <time>2014-08-25T07:36:47Z</time>
      </trkpt>
      <trkpt lat="43.78014" lon="6.68447">
        <ele>1337.694</ele>
        <time>2014-08-25T07:36:52Z</time>
      </trkpt>
      <trkpt lat="43.78013" lon="6.6846">
        <ele>1334.797</ele>
        <time>2014-08-25T07:36:57Z</time>
      </trkpt>
      <trkpt lat="43.78013" lon="6.68471">
        <ele>1334.48</ele>
        <time>2014-08-25T07:37:02Z</time>
      </trkpt>
      <trkpt lat="43.78013" lon="6.68483">
        <ele>1332.966</ele>
        <time>2014-08-25T07:37:07Z</time>
      </trkpt>
      <trkpt lat="43.78013" lon="6.68485">
        <ele>1332.174</ele>
        <time>2014-08-25T07:37:08Z</time>
      </trkpt>
      <trkpt lat="43.78013" lon="6.68496">
        <ele>1334.249</ele>
        <time>2014-08-25T07:37:15Z</time>
      </trkpt>
      <trkpt lat="43.78013" lon="6.68498">
        <ele>1339.886</ele>
        <time>2014-08-25T07:37:19Z</time>
      </trkpt>
      <trkpt lat="43.78014" lon="6.68501">
        <ele>1342.173</ele>
        <time>2014-08-25T07:37:24Z</time>
      </trkpt>
      <trkpt lat="43.78016" lon="6.68515">
        <ele>1334.775</ele>
        <time>2014-08-25T07:37:31Z</time>
      </trkpt>
      <trkpt lat="43.78018" lon="6.68527">
        <ele>1333.859</ele>
        <time>2014-08-25T07:37:37Z</time>
      </trkpt>
      <trkpt lat="43.78016" lon="6.68528">
        <ele>1334.834</ele>
        <time>2014-08-25T07:37:38Z</time>
      </trkpt>
      <trkpt lat="43.78009" lon="6.68535">
        <ele>1340.189</ele>
        <time>2014-08-25T07:37:43Z</time>
      </trkpt>
      <trkpt lat="43.78012" lon="6.68547">
        <ele>1335.615</ele>
        <time>2014-08-25T07:37:49Z</time>
      </trkpt>
      <trkpt lat="43.78014" lon="6.68557">
        <ele>1333.443</ele>
        <time>2014-08-25T07:37:55Z</time>
      </trkpt>
      <trkpt lat="43.78008" lon="6.68559">
        <ele>1343.374</ele>
        <time>2014-08-25T07:38:09Z</time>
      </trkpt>
      <trkpt lat="43.78008" lon="6.68562">
        <ele>1342.36</ele>
        <time>2014-08-25T07:38:15Z</time>
      </trkpt>
      <trkpt lat="43.78009" lon="6.68566">
        <ele>1343.679</ele>
        <time>2014-08-25T07:38:21Z</time>
      </trkpt>
      <trkpt lat="43.78013" lon="6.68571">
        <ele>1337.16</ele>
        <time>2014-08-25T07:38:34Z</time>
      </trkpt>
      <trkpt lat="43.78012" lon="6.68577">
        <ele>1339.93</ele>
        <time>2014-08-25T07:38:40Z</time>
      </trkpt>
      <trkpt lat="43.78015" lon="6.68585">
        <ele>1338.565</ele>
        <time>2014-08-25T07:38:47Z</time>
      </trkpt>
      <trkpt lat="43.78015" lon="6.68594">
        <ele>1339.633</ele>
        <time>2014-08-25T07:38:54Z</time>
      </trkpt>
      <trkpt lat="43.78017" lon="6.68599">
        <ele>1345.806</ele>
        <time>2014-08-25T07:39:00Z</time>
      </trkpt>
      <trkpt lat="43.78019" lon="6.68604">
        <ele>1341.724</ele>
        <time>2014-08-25T07:39:09Z</time>
      </trkpt>
      <trkpt lat="43.78019" lon="6.68605">
        <ele>1342.276</ele>
        <time>2014-08-25T07:39:10Z</time>
      </trkpt>
      <trkpt lat="43.78021" lon="6.6861">
        <ele>1342.427</ele>
        <time>2014-08-25T07:39:17Z</time>
      </trkpt>
      <trkpt lat="43.78025" lon="6.68617">
        <ele>1343.149</ele>
        <time>2014-08-25T07:39:25Z</time>
      </trkpt>
      <trkpt lat="43.78029" lon="6.68633">
        <ele>1345.396</ele>
        <time>2014-08-25T07:39:32Z</time>
      </trkpt>
      <trkpt lat="43.78031" lon="6.68644">
        <ele>1345.229</ele>
        <time>2014-08-25T07:39:40Z</time>
      </trkpt>
      <trkpt lat="43.7803" lon="6.68649">
        <ele>1345.531</ele>
        <time>2014-08-25T07:39:45Z</time>
      </trkpt>
      <trkpt lat="43.78033" lon="6.68654">
        <ele>1347.494</ele>
        <time>2014-08-25T07:39:51Z</time>
      </trkpt>
      <trkpt lat="43.78033" lon="6.68658">
        <ele>1348.385</ele>
        <time>2014-08-25T07:39:55Z</time>
      </trkpt>
      <trkpt lat="43.78032" lon="6.68663">
        <ele>1350.587</ele>
        <time>2014-08-25T07:39:58Z</time>
      </trkpt>
      <trkpt lat="43.78032" lon="6.68665">
        <ele>1350.865</ele>
        <time>2014-08-25T07:40:00Z</time>
      </trkpt>
      <trkpt lat="43.78032" lon="6.68681">
        <ele>1349.766</ele>
        <time>2014-08-25T07:40:09Z</time>
      </trkpt>
      <trkpt lat="43.78033" lon="6.68687">
        <ele>1346.812</ele>
        <time>2014-08-25T07:40:14Z</time>
      </trkpt>
      <trkpt lat="43.78033" lon="6.6869">
        <ele>1348.748</ele>
        <time>2014-08-25T07:40:20Z</time>
      </trkpt>
      <trkpt lat="43.78034" lon="6.68698">
        <ele>1345.297</ele>
        <time>2014-08-25T07:40:27Z</time>
      </trkpt>
      <trkpt lat="43.78034" lon="6.68698">
        <ele>1344.446</ele>
        <time>2014-08-25T07:40:28Z</time>
      </trkpt>
      <trkpt lat="43.78032" lon="6.687">
        <ele>1344.75</ele>
        <time>2014-08-25T07:40:31Z</time>
      </trkpt>
      <trkpt lat="43.78035" lon="6.68714">
        <ele>1350.667</ele>
        <time>2014-08-25T07:40:37Z</time>
      </trkpt>
      <trkpt lat="43.78036" lon="6.68725">
        <ele>1354.829</ele>
        <time>2014-08-25T07:40:43Z</time>
      </trkpt>
      <trkpt lat="43.78037" lon="6.68728">
        <ele>1358.812</ele>
        <time>2014-08-25T07:40:48Z</time>
      </trkpt>
      <trkpt lat="43.78041" lon="6.68734">
        <ele>1360.115</ele>
        <time>2014-08-25T07:40:55Z</time>
      </trkpt>
      <trkpt lat="43.78038" lon="6.68738">
        <ele>1360.372</ele>
        <time>2014-08-25T07:41:05Z</time>
      </trkpt>
      <trkpt lat="43.78035" lon="6.68746">
        <ele>1358.136</ele>
        <time>2014-08-25T07:41:13Z</time>
      </trkpt>
      <trkpt lat="43.7803" lon="6.68752">
        <ele>1355.872</ele>
        <time>2014-08-25T07:41:19Z</time>
      </trkpt>
      <trkpt lat="43.78028" lon="6.68755">
        <ele>1357.087</ele>
        <time>2014-08-25T07:41:22Z</time>
      </trkpt>
      <trkpt lat="43.7803" lon="6.68759">
        <ele>1355.329</ele>
        <time>2014-08-25T07:41:28Z</time>
      </trkpt>
      <trkpt lat="43.78031" lon="6.68763">
        <ele>1354.321</ele>
        <time>2014-08-25T07:41:35Z</time>
      </trkpt>
      <trkpt lat="43.78028" lon="6.68781">
        <ele>1357.469</ele>
        <time>2014-08-25T07:41:43Z</time>
      </trkpt>
      <trkpt lat="43.78025" lon="6.68797">
        <ele>1362.948</ele>
        <time>2014-08-25T07:41:51Z</time>
      </trkpt>
      <trkpt lat="43.78025" lon="6.68805">
        <ele>1366.723</ele>
        <time>2014-08-25T07:41:55Z</time>
      </trkpt>
      <trkpt lat="43.7803" lon="6.68819">
        <ele>1366.401</ele>
        <time>2014-08-25T07:42:01Z</time>
      </trkpt>
      <trkpt lat="43.78032" lon="6.68836">
        <ele>1367.501</ele>
        <time>2014-08-25T07:42:09Z</time>
      </trkpt>
      <trkpt lat="43.78033" lon="6.68842">
        <ele>1366.762</ele>
        <time>2014-08-25T07:42:15Z</time>
      </trkpt>
      <trkpt lat="43.7803" lon="6.68844">
        <ele>1368.788</ele>
        <time>2014-08-25T07:42:20Z</time>
      </trkpt>
      <trkpt lat="43.78027" lon="6.68848">
        <ele>1368.678</ele>
        <time>2014-08-25T07:42:26Z</time>
      </trkpt>
      <trkpt lat="43.78024" lon="6.68853">
        <ele>1368.918</ele>
        <time>2014-08-25T07:42:31Z</time>
      </trkpt>
      <trkpt lat="43.78023" lon="6.68857">
        <ele>1369.392</ele>
        <time>2014-08-25T07:42:35Z</time>
      </trkpt>
      <trkpt lat="43.78024" lon="6.68869">
        <ele>1374.089</ele>
        <time>2014-08-25T07:42:43Z</time>
      </trkpt>
      <trkpt lat="43.78023" lon="6.6888">
        <ele>1370.916</ele>
        <time>2014-08-25T07:42:52Z</time>
      </trkpt>
      <trkpt lat="43.78021" lon="6.68883">
        <ele>1371.597</ele>
        <time>2014-08-25T07:42:57Z</time>
      </trkpt>
      <trkpt lat="43.78019" lon="6.68887">
        <ele>1373.65</ele>
        <time>2014-08-25T07:43:03Z</time>
      </trkpt>
      <trkpt lat="43.78017" lon="6.6889">
        <ele>1374.902</ele>
        <time>2014-08-25T07:43:08Z</time>
      </trkpt>
      <trkpt lat="43.78016" lon="6.68897">
        <ele>1376.549</ele>
        <time>2014-08-25T07:43:17Z</time>
      </trkpt>
      <trkpt lat="43.78016" lon="6.68898">
        <ele>1377.213</ele>
        <time>2014-08-25T07:43:27Z</time>
      </trkpt>
      <trkpt lat="43.78016" lon="6.68904">
        <ele>1378.318</ele>
        <time>2014-08-25T07:43:31Z</time>
      </trkpt>
      <trkpt lat="43.78019" lon="6.68918">
        <ele>1378.799</ele>
        <time>2014-08-25T07:43:38Z</time>
      </trkpt>
      <trkpt lat="43.78018" lon="6.6893">
        <ele>1381.705</ele>
        <time>2014-08-25T07:43:43Z</time>
      </trkpt>
      <trkpt lat="43.78015" lon="6.68942">
        <ele>1381.755</ele>
        <time>2014-08-25T07:43:49Z</time>
      </trkpt>
      <trkpt lat="43.78015" lon="6.68944">
        <ele>1381.967</ele>
        <time>2014-08-25T07:43:50Z</time>
      </trkpt>
      <trkpt lat="43.78015" lon="6.68953">
        <ele>1381.843</ele>
        <time>2014-08-25T07:43:55Z</time>
      </trkpt>
      <trkpt lat="43.78015" lon="6.6896">
        <ele>1383.567</ele>
        <time>2014-08-25T07:43:58Z</time>
      </trkpt>
      <trkpt lat="43.78013" lon="6.68978">
        <ele>1386.733</ele>
        <time>2014-08-25T07:44:06Z</time>
      </trkpt>
      <trkpt lat="43.78018" lon="6.68992">
        <ele>1385.543</ele>
        <time>2014-08-25T07:44:12Z</time>
      </trkpt>
      <trkpt lat="43.78022" lon="6.69004">
        <ele>1385.192</ele>
        <time>2014-08-25T07:44:17Z</time>
      </trkpt>
      <trkpt lat="43.78025" lon="6.69022">
        <ele>1380.615</ele>
        <time>2014-08-25T07:44:24Z</time>
      </trkpt>
      <trkpt lat="43.78027" lon="6.69032">
        <ele>1381.468</ele>
        <time>2014-08-25T07:44:29Z</time>
      </trkpt>
      <trkpt lat="43.78029" lon="6.69042">
        <ele>1381.731</ele>
        <time>2014-08-25T07:44:34Z</time>
      </trkpt>
      <trkpt lat="43.78031" lon="6.69055">
        <ele>1383.284</ele>
        <time>2014-08-25T07:44:40Z</time>
      </trkpt>
      <trkpt lat="43.78036" lon="6.69071">
        <ele>1384.293</ele>
        <time>2014-08-25T07:44:47Z</time>
      </trkpt>
      <trkpt lat="43.78037" lon="6.69079">
        <ele>1383.559</ele>
        <time>2014-08-25T07:44:50Z</time>
      </trkpt>
      <trkpt lat="43.78038" lon="6.69091">
        <ele>1387.845</ele>
        <time>2014-08-25T07:44:56Z</time>
      </trkpt>
      <trkpt lat="43.78041" lon="6.69098">
        <ele>1387.511</ele>
        <time>2014-08-25T07:44:58Z</time>
      </trkpt>
      <trkpt lat="43.78042" lon="6.69104">
        <ele>1387.339</ele>
        <time>2014-08-25T07:45:00Z</time>
      </trkpt>
      <trkpt lat="43.78044" lon="6.69115">
        <ele>1389.382</ele>
        <time>2014-08-25T07:45:05Z</time>
      </trkpt>
      <trkpt lat="43.78045" lon="6.69128">
        <ele>1392.214</ele>
        <time>2014-08-25T07:45:10Z</time>
      </trkpt>
      <trkpt lat="43.78045" lon="6.69138">
        <ele>1395.438</ele>
        <time>2014-08-25T07:45:15Z</time>
      </trkpt>
      <trkpt lat="43.78046" lon="6.6915">
        <ele>1396.517</ele>
        <time>2014-08-25T07:45:20Z</time>
      </trkpt>
      <trkpt lat="43.78044" lon="6.69157">
        <ele>1398.889</ele>
        <time>2014-08-25T07:45:24Z</time>
      </trkpt>
      <trkpt lat="43.78037" lon="6.69171">
        <ele>1396.626</ele>
        <time>2014-08-25T07:45:31Z</time>
      </trkpt>
      <trkpt lat="43.78031" lon="6.69183">
        <ele>1400.912</ele>
        <time>2014-08-25T07:45:38Z</time>
      </trkpt>
      <trkpt lat="43.7803" lon="6.69185">
        <ele>1401.199</ele>
        <time>2014-08-25T07:45:40Z</time>
      </trkpt>
      <trkpt lat="43.78029" lon="6.69188">
        <ele>1402.219</ele>
        <time>2014-08-25T07:45:42Z</time>
      </trkpt>
      <trkpt lat="43.78027" lon="6.6919">
        <ele>1400.806</ele>
        <time>2014-08-25T07:45:44Z</time>
      </trkpt>
      <trkpt lat="43.78024" lon="6.69203">
        <ele>1397.512</ele>
        <time>2014-08-25T07:45:51Z</time>
      </trkpt>
      <trkpt lat="43.78026" lon="6.69211">
        <ele>1394.838</ele>
        <time>2014-08-25T07:45:55Z</time>
      </trkpt>
      <trkpt lat="43.78025" lon="6.69224">
        <ele>1392.528</ele>
        <time>2014-08-25T07:46:01Z</time>
      </trkpt>
      <trkpt lat="43.78029" lon="6.69237">
        <ele>1390.37</ele>
        <time>2014-08-25T07:46:07Z</time>
      </trkpt>
      <trkpt lat="43.7803" lon="6.69245">
        <ele>1394.306</ele>
        <time>2014-08-25T07:46:12Z</time>
      </trkpt>
      <trkpt lat="43.78033" lon="6.69258">
        <ele>1395.748</ele>
        <time>2014-08-25T07:46:18Z</time>
      </trkpt>
      <trkpt lat="43.78033" lon="6.69268">
        <ele>1393.613</ele>
        <time>2014-08-25T07:46:23Z</time>
      </trkpt>
      <trkpt lat="43.78029" lon="6.69278">
        <ele>1394.31</ele>
        <time>2014-08-25T07:46:30Z</time>
      </trkpt>
      <trkpt lat="43.78029" lon="6.69282">
        <ele>1392.537</ele>
        <time>2014-08-25T07:46:33Z</time>
      </trkpt>
      <trkpt lat="43.78027" lon="6.69292">
        <ele>1392.379</ele>
        <time>2014-08-25T07:46:39Z</time>
      </trkpt>
      <trkpt lat="43.78027" lon="6.69295">
        <ele>1392.11</ele>
        <time>2014-08-25T07:46:41Z</time>
      </trkpt>
      <trkpt lat="43.78024" lon="6.69306">
        <ele>1394.767</ele>
        <time>2014-08-25T07:46:48Z</time>
      </trkpt>
      <trkpt lat="43.78023" lon="6.69313">
        <ele>1397.997</ele>
        <time>2014-08-25T07:46:54Z</time>
      </trkpt>
      <trkpt lat="43.78023" lon="6.69315">
        <ele>1398.824</ele>
        <time>2014-08-25T07:46:56Z</time>
      </trkpt>
      <trkpt lat="43.78025" lon="6.69317">
        <ele>1397.189</ele>
        <time>2014-08-25T07:47:01Z</time>
      </trkpt>
      <trkpt lat="43.78025" lon="6.69323">
        <ele>1395.384</ele>
        <time>2014-08-25T07:47:07Z</time>
      </trkpt>
      <trkpt lat="43.78023" lon="6.69331">
        <ele>1396.499</ele>
        <time>2014-08-25T07:48:21Z</time>
      </trkpt>
      <trkpt lat="43.78027" lon="6.69341">
        <ele>1397.254</ele>
        <time>2014-08-25T07:48:26Z</time>
      </trkpt>
      <trkpt lat="43.78032" lon="6.69354">
        <ele>1399.892</ele>
        <time>2014-08-25T07:48:32Z</time>
      </trkpt>
      <trkpt lat="43.78035" lon="6.69361">
        <ele>1399.919</ele>
        <time>2014-08-25T07:48:37Z</time>
      </trkpt>
      <trkpt lat="43.78036" lon="6.69365">
        <ele>1399.178</ele>
        <time>2014-08-25T07:48:41Z</time>
      </trkpt>
      <trkpt lat="43.78036" lon="6.69367">
        <ele>1400.941</ele>
        <time>2014-08-25T07:48:44Z</time>
      </trkpt>
      <trkpt lat="43.78035" lon="6.69375">
        <ele>1402.882</ele>
        <time>2014-08-25T07:48:51Z</time>
      </trkpt>
      <trkpt lat="43.78032" lon="6.69377">
        <ele>1406.281</ele>
        <time>2014-08-25T07:48:58Z</time>
      </trkpt>
      <trkpt lat="43.78032" lon="6.6939">
        <ele>1409.658</ele>
        <time>2014-08-25T07:49:04Z</time>
      </trkpt>
      <trkpt lat="43.78033" lon="6.69395">
        <ele>1410.038</ele>
        <time>2014-08-25T07:49:06Z</time>
      </trkpt>
      <trkpt lat="43.78037" lon="6.69406">
        <ele>1414.091</ele>
        <time>2014-08-25T07:49:14Z</time>
      </trkpt>
      <trkpt lat="43.78041" lon="6.69414">
        <ele>1419.301</ele>
        <time>2014-08-25T07:49:20Z</time>
      </trkpt>
      <trkpt lat="43.78039" lon="6.69415">
        <ele>1423.16</ele>
        <time>2014-08-25T07:49:36Z</time>
      </trkpt>
      <trkpt lat="43.78036" lon="6.69418">
        <ele>1428.075</ele>
        <time>2014-08-25T07:49:45Z</time>
      </trkpt>
      <trkpt lat="43.78035" lon="6.69433">
        <ele>1430.917</ele>
        <time>2014-08-25T07:50:06Z</time>
      </trkpt>
      <trkpt lat="43.78033" lon="6.69438">
        <ele>1434.414</ele>
        <time>2014-08-25T07:50:14Z</time>
      </trkpt>
      <trkpt lat="43.78032" lon="6.69439">
        <ele>1436.164</ele>
        <time>2014-08-25T07:50:22Z</time>
      </trkpt>
      <trkpt lat="43.78029" lon="6.69448">
        <ele>1437.76</ele>
        <time>2014-08-25T07:50:32Z</time>
      </trkpt>
      <trkpt lat="43.78028" lon="6.6946">
        <ele>1436.498</ele>
        <time>2014-08-25T07:50:39Z</time>
      </trkpt>
      <trkpt lat="43.78034" lon="6.69462">
        <ele>1432.52</ele>
        <time>2014-08-25T07:50:46Z</time>
      </trkpt>
      <trkpt lat="43.78042" lon="6.69468">
        <ele>1424.84</ele>
        <time>2014-08-25T07:50:51Z</time>
      </trkpt>
      <trkpt lat="43.78045" lon="6.69475">
        <ele>1430.608</ele>
        <time>2014-08-25T07:50:57Z</time>
      </trkpt>
      <trkpt lat="43.78051" lon="6.69478">
        <ele>1425.07</ele>
        <time>2014-08-25T07:51:03Z</time>
      </trkpt>
      <trkpt lat="43.78055" lon="6.69482">
        <ele>1428.471</ele>
        <time>2014-08-25T07:51:10Z</time>
      </trkpt>
      <trkpt lat="43.78058" lon="6.69486">
        <ele>1429.43</ele>
        <time>2014-08-25T07:51:15Z</time>
      </trkpt>
      <trkpt lat="43.78059" lon="6.69492">
        <ele>1433.91</ele>
        <time>2014-08-25T07:51:22Z</time>
      </trkpt>
      <trkpt lat="43.78062" lon="6.695">
        <ele>1432.559</ele>
        <time>2014-08-25T07:51:32Z</time>
      </trkpt>
      <trkpt lat="43.78062" lon="6.69503">
        <ele>1435.273</ele>
        <time>2014-08-25T07:51:37Z</time>
      </trkpt>
      <trkpt lat="43.78063" lon="6.69507">
        <ele>1435.592</ele>
        <time>2014-08-25T07:51:43Z</time>
      </trkpt>
      <trkpt lat="43.78062" lon="6.69518">
        <ele>1445.027</ele>
        <time>2014-08-25T07:51:57Z</time>
      </trkpt>
      <trkpt lat="43.78061" lon="6.69519">
        <ele>1445.521</ele>
        <time>2014-08-25T07:52:02Z</time>
      </trkpt>
      <trkpt lat="43.78063" lon="6.69523">
        <ele>1442.689</ele>
        <time>2014-08-25T07:52:08Z</time>
      </trkpt>
      <trkpt lat="43.78062" lon="6.69527">
        <ele>1443.862</ele>
        <time>2014-08-25T07:52:12Z</time>
      </trkpt>
      <trkpt lat="43.78062" lon="6.69529">
        <ele>1445.634</ele>
        <time>2014-08-25T07:52:14Z</time>
      </trkpt>
      <trkpt lat="43.78065" lon="6.69539">
        <ele>1444.591</ele>
        <time>2014-08-25T07:52:22Z</time>
      </trkpt>
      <trkpt lat="43.78065" lon="6.69546">
        <ele>1445.95</ele>
        <time>2014-08-25T07:52:27Z</time>
      </trkpt>
      <trkpt lat="43.78064" lon="6.69551">
        <ele>1444.266</ele>
        <time>2014-08-25T07:52:32Z</time>
      </trkpt>
      <trkpt lat="43.78063" lon="6.69554">
        <ele>1441.886</ele>
        <time>2014-08-25T07:52:38Z</time>
      </trkpt>
      <trkpt lat="43.78064" lon="6.6956">
        <ele>1444.384</ele>
        <time>2014-08-25T07:52:43Z</time>
      </trkpt>
      <trkpt lat="43.78064" lon="6.69561">
        <ele>1445.986</ele>
        <time>2014-08-25T07:52:44Z</time>
      </trkpt>
      <trkpt lat="43.78063" lon="6.69567">
        <ele>1447.443</ele>
        <time>2014-08-25T07:52:51Z</time>
      </trkpt>
      <trkpt lat="43.78066" lon="6.69577">
        <ele>1446.54</ele>
        <time>2014-08-25T07:53:00Z</time>
      </trkpt>
      <trkpt lat="43.78064" lon="6.69584">
        <ele>1449.456</ele>
        <time>2014-08-25T07:53:08Z</time>
      </trkpt>
      <trkpt lat="43.78066" lon="6.69593">
        <ele>1451.092</ele>
        <time>2014-08-25T07:53:17Z</time>
      </trkpt>
      <trkpt lat="43.78069" lon="6.69598">
        <ele>1452.338</ele>
        <time>2014-08-25T07:53:26Z</time>
      </trkpt>
      <trkpt lat="43.78068" lon="6.69602">
        <ele>1453.343</ele>
        <time>2014-08-25T07:53:29Z</time>
      </trkpt>
      <trkpt lat="43.78072" lon="6.69614">
        <ele>1459.918</ele>
        <time>2014-08-25T07:53:35Z</time>
      </trkpt>
      <trkpt lat="43.78073" lon="6.69619">
        <ele>1461.042</ele>
        <time>2014-08-25T07:53:37Z</time>
      </trkpt>
      <trkpt lat="43.78075" lon="6.69625">
        <ele>1459.744</ele>
        <time>2014-08-25T07:53:41Z</time>
      </trkpt>
      <trkpt lat="43.78078" lon="6.69636">
        <ele>1461.565</ele>
        <time>2014-08-25T07:53:46Z</time>
      </trkpt>
      <trkpt lat="43.7808" lon="6.69648">
        <ele>1464.906</ele>
        <time>2014-08-25T07:53:52Z</time>
      </trkpt>
      <trkpt lat="43.7808" lon="6.69658">
        <ele>1466.427</ele>
        <time>2014-08-25T07:53:57Z</time>
      </trkpt>
      <trkpt lat="43.78081" lon="6.69669">
        <ele>1468.967</ele>
        <time>2014-08-25T07:54:02Z</time>
      </trkpt>
      <trkpt lat="43.7808" lon="6.69671">
        <ele>1468.655</ele>
        <time>2014-08-25T07:54:03Z</time>
      </trkpt>
      <trkpt lat="43.78085" lon="6.69688">
        <ele>1463.283</ele>
        <time>2014-08-25T07:54:10Z</time>
      </trkpt>
      <trkpt lat="43.78085" lon="6.69694">
        <ele>1466.502</ele>
        <time>2014-08-25T07:54:15Z</time>
      </trkpt>
      <trkpt lat="43.78083" lon="6.69703">
        <ele>1466.986</ele>
        <time>2014-08-25T07:54:25Z</time>
      </trkpt>
      <trkpt lat="43.7808" lon="6.69715">
        <ele>1465.968</ele>
        <time>2014-08-25T07:54:30Z</time>
      </trkpt>
      <trkpt lat="43.78078" lon="6.69719">
        <ele>1467.243</ele>
        <time>2014-08-25T07:54:32Z</time>
      </trkpt>
      <trkpt lat="43.78076" lon="6.69737">
        <ele>1458.749</ele>
        <time>2014-08-25T07:54:39Z</time>
      </trkpt>
      <trkpt lat="43.78078" lon="6.69745">
        <ele>1453.351</ele>
        <time>2014-08-25T07:54:43Z</time>
      </trkpt>
      <trkpt lat="43.78078" lon="6.69747">
        <ele>1448.125</ele>
        <time>2014-08-25T07:54:49Z</time>
      </trkpt>
      <trkpt lat="43.78076" lon="6.69746">
        <ele>1449.967</ele>
        <time>2014-08-25T07:54:58Z</time>
      </trkpt>
      <trkpt lat="43.78077" lon="6.69748">
        <ele>1450.565</ele>
        <time>2014-08-25T08:02:34Z</time>
      </trkpt>
      <trkpt lat="43.78079" lon="6.69748">
        <ele>1450.647</ele>
        <time>2014-08-25T08:02:47Z</time>
      </trkpt>
      <trkpt lat="43.78081" lon="6.69739">
        <ele>1449.814</ele>
        <time>2014-08-25T08:02:53Z</time>
      </trkpt>
      <trkpt lat="43.78085" lon="6.69738">
        <ele>1449.253</ele>
        <time>2014-08-25T08:02:57Z</time>
      </trkpt>
      <trkpt lat="43.78087" lon="6.69734">
        <ele>1448.182</ele>
        <time>2014-08-25T08:02:59Z</time>
      </trkpt>
      <trkpt lat="43.78091" lon="6.69726">
        <ele>1443.788</ele>
        <time>2014-08-25T08:03:04Z</time>
      </trkpt>
      <trkpt lat="43.78091" lon="6.69727">
        <ele>1444.971</ele>
        <time>2014-08-25T08:03:06Z</time>
      </trkpt>
      <trkpt lat="43.78095" lon="6.6973">
        <ele>1441.495</ele>
        <time>2014-08-25T08:03:13Z</time>
      </trkpt>
      <trkpt lat="43.78099" lon="6.69732">
        <ele>1439.168</ele>
        <time>2014-08-25T08:03:18Z</time>
      </trkpt>
      <trkpt lat="43.78099" lon="6.69722">
        <ele>1436.185</ele>
        <time>2014-08-25T08:03:23Z</time>
      </trkpt>
      <trkpt lat="43.78102" lon="6.69721">
        <ele>1434.806</ele>
        <time>2014-08-25T08:03:26Z</time>
      </trkpt>
      <trkpt lat="43.78108" lon="6.69733">
        <ele>1433.087</ele>
        <time>2014-08-25T08:03:30Z</time>
      </trkpt>
      <trkpt lat="43.78111" lon="6.69732">
        <ele>1432.038</ele>
        <time>2014-08-25T08:03:33Z</time>
      </trkpt>
      <trkpt lat="43.78112" lon="6.69728">
        <ele>1431.331</ele>
        <time>2014-08-25T08:03:37Z</time>
      </trkpt>
      <trkpt lat="43.78112" lon="6.69728">
        <ele>1430.138</ele>
        <time>2014-08-25T08:03:43Z</time>
      </trkpt>
      <trkpt lat="43.78113" lon="6.69728">
        <ele>1429.788</ele>
        <time>2014-08-25T08:03:44Z</time>
      </trkpt>
      <trkpt lat="43.78117" lon="6.69736">
        <ele>1429.051</ele>
        <time>2014-08-25T08:03:49Z</time>
      </trkpt>
      <trkpt lat="43.7812" lon="6.69726">
        <ele>1427.589</ele>
        <time>2014-08-25T08:03:54Z</time>
      </trkpt>
      <trkpt lat="43.78121" lon="6.69706">
        <ele>1424.344</ele>
        <time>2014-08-25T08:03:59Z</time>
      </trkpt>
      <trkpt lat="43.78123" lon="6.69702">
        <ele>1421.572</ele>
        <time>2014-08-25T08:04:02Z</time>
      </trkpt>
      <trkpt lat="43.78135" lon="6.69717">
        <ele>1417.448</ele>
        <time>2014-08-25T08:04:07Z</time>
      </trkpt>
      <trkpt lat="43.78141" lon="6.69724">
        <ele>1415.167</ele>
        <time>2014-08-25T08:04:10Z</time>
      </trkpt>
      <trkpt lat="43.78144" lon="6.69716">
        <ele>1410.7</ele>
        <time>2014-08-25T08:04:15Z</time>
      </trkpt>
      <trkpt lat="43.78145" lon="6.69715">
        <ele>1410.059</ele>
        <time>2014-08-25T08:04:16Z</time>
      </trkpt>
      <trkpt lat="43.78148" lon="6.6971">
        <ele>1408.846</ele>
        <time>2014-08-25T08:04:20Z</time>
      </trkpt>
      <trkpt lat="43.78153" lon="6.69718">
        <ele>1404.052</ele>
        <time>2014-08-25T08:04:27Z</time>
      </trkpt>
      <trkpt lat="43.78153" lon="6.69719">
        <ele>1404.43</ele>
        <time>2014-08-25T08:04:31Z</time>
      </trkpt>
      <trkpt lat="43.78154" lon="6.69724">
        <ele>1403.707</ele>
        <time>2014-08-25T08:04:37Z</time>
      </trkpt>
      <trkpt lat="43.78155" lon="6.69726">
        <ele>1403.232</ele>
        <time>2014-08-25T08:04:42Z</time>
      </trkpt>
      <trkpt lat="43.78154" lon="6.69724">
        <ele>1409.299</ele>
        <time>2014-08-25T08:04:55Z</time>
      </trkpt>
      <trkpt lat="43.78156" lon="6.69725">
        <ele>1409.146</ele>
        <time>2014-08-25T08:05:00Z</time>
      </trkpt>
      <trkpt lat="43.78154" lon="6.69721">
        <ele>1402.83</ele>
        <time>2014-08-25T08:05:08Z</time>
      </trkpt>
      <trkpt lat="43.78157" lon="6.6971">
        <ele>1401.222</ele>
        <time>2014-08-25T08:05:14Z</time>
      </trkpt>
      <trkpt lat="43.78159" lon="6.69708">
        <ele>1400.208</ele>
        <time>2014-08-25T08:05:19Z</time>
      </trkpt>
      <trkpt lat="43.78164" lon="6.69717">
        <ele>1399.219</ele>
        <time>2014-08-25T08:05:23Z</time>
      </trkpt>
      <trkpt lat="43.7817" lon="6.69726">
        <ele>1398.768</ele>
        <time>2014-08-25T08:05:27Z</time>
      </trkpt>
      <trkpt lat="43.78184" lon="6.69742">
        <ele>1395.196</ele>
        <time>2014-08-25T08:05:34Z</time>
      </trkpt>
      <trkpt lat="43.78191" lon="6.69753">
        <ele>1394.66</ele>
        <time>2014-08-25T08:05:38Z</time>
      </trkpt>
      <trkpt lat="43.782" lon="6.69768">
        <ele>1391.051</ele>
        <time>2014-08-25T08:05:43Z</time>
      </trkpt>
      <trkpt lat="43.78209" lon="6.69785">
        <ele>1390.407</ele>
        <time>2014-08-25T08:05:48Z</time>
      </trkpt>
      <trkpt lat="43.78216" lon="6.69803">
        <ele>1387.012</ele>
        <time>2014-08-25T08:05:52Z</time>
      </trkpt>
      <trkpt lat="43.78225" lon="6.69823">
        <ele>1380.331</ele>
        <time>2014-08-25T08:05:57Z</time>
      </trkpt>
      <trkpt lat="43.78228" lon="6.6983">
        <ele>1374.637</ele>
        <time>2014-08-25T08:06:00Z</time>
      </trkpt>
      <trkpt lat="43.78235" lon="6.69828">
        <ele>1367.996</ele>
        <time>2014-08-25T08:06:04Z</time>
      </trkpt>
      <trkpt lat="43.78237" lon="6.69822">
        <ele>1362.169</ele>
        <time>2014-08-25T08:06:09Z</time>
      </trkpt>
      <trkpt lat="43.78239" lon="6.69824">
        <ele>1360.833</ele>
        <time>2014-08-25T08:06:11Z</time>
      </trkpt>
      <trkpt lat="43.78246" lon="6.69838">
        <ele>1357.647</ele>
        <time>2014-08-25T08:06:17Z</time>
      </trkpt>
      <trkpt lat="43.7825" lon="6.69851">
        <ele>1356.223</ele>
        <time>2014-08-25T08:06:21Z</time>
      </trkpt>
      <trkpt lat="43.78252" lon="6.69859">
        <ele>1355.146</ele>
        <time>2014-08-25T08:06:24Z</time>
      </trkpt>
      <trkpt lat="43.78256" lon="6.69872">
        <ele>1353.293</ele>
        <time>2014-08-25T08:06:29Z</time>
      </trkpt>
      <trkpt lat="43.78263" lon="6.69885">
        <ele>1351.345</ele>
        <time>2014-08-25T08:06:34Z</time>
      </trkpt>
      <trkpt lat="43.78265" lon="6.69889">
        <ele>1350.894</ele>
        <time>2014-08-25T08:06:35Z</time>
      </trkpt>
      <trkpt lat="43.78272" lon="6.69907">
        <ele>1348.767</ele>
        <time>2014-08-25T08:06:41Z</time>
      </trkpt>
      <trkpt lat="43.7828" lon="6.69924">
        <ele>1349.836</ele>
        <time>2014-08-25T08:06:46Z</time>
      </trkpt>
      <trkpt lat="43.78289" lon="6.69946">
        <ele>1346.905</ele>
        <time>2014-08-25T08:06:52Z</time>
      </trkpt>
      <trkpt lat="43.78295" lon="6.6996">
        <ele>1345.113</ele>
        <time>2014-08-25T08:06:56Z</time>
      </trkpt>
      <trkpt lat="43.783" lon="6.69959">
        <ele>1341.691</ele>
        <time>2014-08-25T08:07:00Z</time>
      </trkpt>
      <trkpt lat="43.783" lon="6.69955">
        <ele>1340.481</ele>
        <time>2014-08-25T08:07:02Z</time>
      </trkpt>
      <trkpt lat="43.78302" lon="6.69948">
        <ele>1334.156</ele>
        <time>2014-08-25T08:07:08Z</time>
      </trkpt>
      <trkpt lat="43.78306" lon="6.69957">
        <ele>1331.973</ele>
        <time>2014-08-25T08:07:12Z</time>
      </trkpt>
      <trkpt lat="43.78311" lon="6.69971">
        <ele>1327.829</ele>
        <time>2014-08-25T08:07:18Z</time>
      </trkpt>
      <trkpt lat="43.78313" lon="6.69977">
        <ele>1325.776</ele>
        <time>2014-08-25T08:07:20Z</time>
      </trkpt>
      <trkpt lat="43.78319" lon="6.7">
        <ele>1322.693</ele>
        <time>2014-08-25T08:07:27Z</time>
      </trkpt>
      <trkpt lat="43.78324" lon="6.70011">
        <ele>1321.526</ele>
        <time>2014-08-25T08:07:31Z</time>
      </trkpt>
      <trkpt lat="43.78326" lon="6.70015">
        <ele>1320.277</ele>
        <time>2014-08-25T08:07:33Z</time>
      </trkpt>
      <trkpt lat="43.78329" lon="6.7001">
        <ele>1318.676</ele>
        <time>2014-08-25T08:07:38Z</time>
      </trkpt>
      <trkpt lat="43.78327" lon="6.69995">
        <ele>1316.013</ele>
        <time>2014-08-25T08:07:43Z</time>
      </trkpt>
      <trkpt lat="43.78332" lon="6.69983">
        <ele>1312.543</ele>
        <time>2014-08-25T08:07:47Z</time>
      </trkpt>
      <trkpt lat="43.78334" lon="6.69981">
        <ele>1310.88</ele>
        <time>2014-08-25T08:07:49Z</time>
      </trkpt>
      <trkpt lat="43.78342" lon="6.69994">
        <ele>1307.09</ele>
        <time>2014-08-25T08:07:54Z</time>
      </trkpt>
      <trkpt lat="43.78347" lon="6.70004">
        <ele>1307.424</ele>
        <time>2014-08-25T08:07:57Z</time>
      </trkpt>
      <trkpt lat="43.7835" lon="6.7">
        <ele>1304.549</ele>
        <time>2014-08-25T08:08:01Z</time>
      </trkpt>
      <trkpt lat="43.78351" lon="6.69992">
        <ele>1302.019</ele>
        <time>2014-08-25T08:08:04Z</time>
      </trkpt>
      <trkpt lat="43.78352" lon="6.69969">
        <ele>1296.825</ele>
        <time>2014-08-25T08:08:11Z</time>
      </trkpt>
      <trkpt lat="43.78355" lon="6.69959">
        <ele>1294.024</ele>
        <time>2014-08-25T08:08:16Z</time>
      </trkpt>
      <trkpt lat="43.78357" lon="6.69959">
        <ele>1293.711</ele>
        <time>2014-08-25T08:08:18Z</time>
      </trkpt>
      <trkpt lat="43.78365" lon="6.69974">
        <ele>1292.172</ele>
        <time>2014-08-25T08:08:23Z</time>
      </trkpt>
      <trkpt lat="43.78371" lon="6.69981">
        <ele>1291.089</ele>
        <time>2014-08-25T08:08:27Z</time>
      </trkpt>
      <trkpt lat="43.78369" lon="6.69983">
        <ele>1291.308</ele>
        <time>2014-08-25T08:08:37Z</time>
      </trkpt>
      <trkpt lat="43.78371" lon="6.69984">
        <ele>1297.393</ele>
        <time>2014-08-25T08:09:00Z</time>
      </trkpt>
      <trkpt lat="43.78372" lon="6.69984">
        <ele>1298.243</ele>
        <time>2014-08-25T08:09:04Z</time>
      </trkpt>
      <trkpt lat="43.78376" lon="6.69996">
        <ele>1296.41</ele>
        <time>2014-08-25T08:09:10Z</time>
      </trkpt>
      <trkpt lat="43.78381" lon="6.70004">
        <ele>1294.536</ele>
        <time>2014-08-25T08:09:13Z</time>
      </trkpt>
      <trkpt lat="43.78382" lon="6.70006">
        <ele>1292.827</ele>
        <time>2014-08-25T08:09:15Z</time>
      </trkpt>
      <trkpt lat="43.78385" lon="6.69999">
        <ele>1291.085</ele>
        <time>2014-08-25T08:09:21Z</time>
      </trkpt>
      <trkpt lat="43.78389" lon="6.70018">
        <ele>1286.343</ele>
        <time>2014-08-25T08:09:27Z</time>
      </trkpt>
      <trkpt lat="43.78399" lon="6.7004">
        <ele>1283.935</ele>
        <time>2014-08-25T08:09:32Z</time>
      </trkpt>
      <trkpt lat="43.78404" lon="6.70056">
        <ele>1278.557</ele>
        <time>2014-08-25T08:09:36Z</time>
      </trkpt>
      <trkpt lat="43.78412" lon="6.70069">
        <ele>1274.906</ele>
        <time>2014-08-25T08:09:40Z</time>
      </trkpt>
      <trkpt lat="43.7842" lon="6.70083">
        <ele>1272.428</ele>
        <time>2014-08-25T08:09:45Z</time>
      </trkpt>
      <trkpt lat="43.78427" lon="6.70094">
        <ele>1269.107</ele>
        <time>2014-08-25T08:09:49Z</time>
      </trkpt>
      <trkpt lat="43.7843" lon="6.70098">
        <ele>1267.947</ele>
        <time>2014-08-25T08:09:52Z</time>
      </trkpt>
      <trkpt lat="43.78433" lon="6.70094">
        <ele>1261.977</ele>
        <time>2014-08-25T08:09:58Z</time>
      </trkpt>
      <trkpt lat="43.78435" lon="6.70093">
        <ele>1260.643</ele>
        <time>2014-08-25T08:10:01Z</time>
      </trkpt>
      <trkpt lat="43.78438" lon="6.70101">
        <ele>1257.542</ele>
        <time>2014-08-25T08:10:07Z</time>
      </trkpt>
      <trkpt lat="43.78439" lon="6.70088">
        <ele>1254.01</ele>
        <time>2014-08-25T08:10:12Z</time>
      </trkpt>
      <trkpt lat="43.78439" lon="6.70083">
        <ele>1253.893</ele>
        <time>2014-08-25T08:10:13Z</time>
      </trkpt>
      <trkpt lat="43.78445" lon="6.7005">
        <ele>1250.512</ele>
        <time>2014-08-25T08:10:19Z</time>
      </trkpt>
      <trkpt lat="43.78445" lon="6.70025">
        <ele>1247.882</ele>
        <time>2014-08-25T08:10:24Z</time>
      </trkpt>
      <trkpt lat="43.78447" lon="6.69997">
        <ele>1247.107</ele>
        <time>2014-08-25T08:10:30Z</time>
      </trkpt>
      <trkpt lat="43.78452" lon="6.69972">
        <ele>1241.814</ele>
        <time>2014-08-25T08:10:35Z</time>
      </trkpt>
      <trkpt lat="43.78454" lon="6.69943">
        <ele>1236.76</ele>
        <time>2014-08-25T08:10:40Z</time>
      </trkpt>
      <trkpt lat="43.78455" lon="6.69921">
        <ele>1235.395</ele>
        <time>2014-08-25T08:10:45Z</time>
      </trkpt>
      <trkpt lat="43.78457" lon="6.69895">
        <ele>1229.35</ele>
        <time>2014-08-25T08:10:51Z</time>
      </trkpt>
      <trkpt lat="43.78456" lon="6.69872">
        <ele>1227.086</ele>
        <time>2014-08-25T08:10:56Z</time>
      </trkpt>
      <trkpt lat="43.78456" lon="6.69848">
        <ele>1224.968</ele>
        <time>2014-08-25T08:11:01Z</time>
      </trkpt>
      <trkpt lat="43.78455" lon="6.69828">
        <ele>1223.815</ele>
        <time>2014-08-25T08:11:06Z</time>
      </trkpt>
      <trkpt lat="43.78451" lon="6.69809">
        <ele>1222.476</ele>
        <time>2014-08-25T08:11:10Z</time>
      </trkpt>
      <trkpt lat="43.7845" lon="6.69789">
        <ele>1221.308</ele>
        <time>2014-08-25T08:11:15Z</time>
      </trkpt>
      <trkpt lat="43.7845" lon="6.69765">
        <ele>1222.796</ele>
        <time>2014-08-25T08:11:21Z</time>
      </trkpt>
      <trkpt lat="43.78449" lon="6.69741">
        <ele>1222.964</ele>
        <time>2014-08-25T08:11:26Z</time>
      </trkpt>
      <trkpt lat="43.78447" lon="6.6971">
        <ele>1224.237</ele>
        <time>2014-08-25T08:11:31Z</time>
      </trkpt>
      <trkpt lat="43.78448" lon="6.69679">
        <ele>1223.787</ele>
        <time>2014-08-25T08:11:36Z</time>
      </trkpt>
      <trkpt lat="43.78444" lon="6.69661">
        <ele>1223.694</ele>
        <time>2014-08-25T08:11:40Z</time>
      </trkpt>
      <trkpt lat="43.78436" lon="6.69638">
        <ele>1223.017</ele>
        <time>2014-08-25T08:11:45Z</time>
      </trkpt>
      <trkpt lat="43.78433" lon="6.69619">
        <ele>1222.163</ele>
        <time>2014-08-25T08:11:49Z</time>
      </trkpt>
      <trkpt lat="43.7843" lon="6.696">
        <ele>1222.42</ele>
        <time>2014-08-25T08:11:53Z</time>
      </trkpt>
      <trkpt lat="43.78432" lon="6.69579">
        <ele>1219.626</ele>
        <time>2014-08-25T08:11:59Z</time>
      </trkpt>
      <trkpt lat="43.78432" lon="6.69563">
        <ele>1218.396</ele>
        <time>2014-08-25T08:12:02Z</time>
      </trkpt>
      <trkpt lat="43.78432" lon="6.69552">
        <ele>1217.636</ele>
        <time>2014-08-25T08:12:04Z</time>
      </trkpt>
      <trkpt lat="43.78433" lon="6.69521">
        <ele>1214.479</ele>
        <time>2014-08-25T08:12:09Z</time>
      </trkpt>
      <trkpt lat="43.78437" lon="6.69493">
        <ele>1211.099</ele>
        <time>2014-08-25T08:12:14Z</time>
      </trkpt>
      <trkpt lat="43.78443" lon="6.69466">
        <ele>1204.091</ele>
        <time>2014-08-25T08:12:19Z</time>
      </trkpt>
      <trkpt lat="43.78445" lon="6.69457">
        <ele>1200.814</ele>
        <time>2014-08-25T08:12:21Z</time>
      </trkpt>
      <trkpt lat="43.7845" lon="6.69458">
        <ele>1197.92</ele>
        <time>2014-08-25T08:12:25Z</time>
      </trkpt>
      <trkpt lat="43.78452" lon="6.6946">
        <ele>1196.088</ele>
        <time>2014-08-25T08:12:28Z</time>
      </trkpt>
      <trkpt lat="43.78453" lon="6.6945">
        <ele>1193.369</ele>
        <time>2014-08-25T08:12:33Z</time>
      </trkpt>
      <trkpt lat="43.78451" lon="6.69444">
        <ele>1189.834</ele>
        <time>2014-08-25T08:12:58Z</time>
      </trkpt>
      <trkpt lat="43.78452" lon="6.69443">
        <ele>1190.348</ele>
        <time>2014-08-25T08:13:06Z</time>
      </trkpt>
      <trkpt lat="43.78453" lon="6.69443">
        <ele>1189.901</ele>
        <time>2014-08-25T08:13:11Z</time>
      </trkpt>
      <trkpt lat="43.78455" lon="6.6943">
        <ele>1188.243</ele>
        <time>2014-08-25T08:13:16Z</time>
      </trkpt>
      <trkpt lat="43.78457" lon="6.69412">
        <ele>1188.456</ele>
        <time>2014-08-25T08:13:19Z</time>
      </trkpt>
      <trkpt lat="43.78459" lon="6.69391">
        <ele>1187.072</ele>
        <time>2014-08-25T08:13:23Z</time>
      </trkpt>
      <trkpt lat="43.78458" lon="6.6936">
        <ele>1185.199</ele>
        <time>2014-08-25T08:13:29Z</time>
      </trkpt>
      <trkpt lat="43.78458" lon="6.69354">
        <ele>1185.279</ele>
        <time>2014-08-25T08:13:31Z</time>
      </trkpt>
      <trkpt lat="43.78461" lon="6.69353">
        <ele>1183.333</ele>
        <time>2014-08-25T08:13:35Z</time>
      </trkpt>
      <trkpt lat="43.78461" lon="6.69346">
        <ele>1181.944</ele>
        <time>2014-08-25T08:13:39Z</time>
      </trkpt>
      <trkpt lat="43.7846" lon="6.69331">
        <ele>1180.189</ele>
        <time>2014-08-25T08:13:43Z</time>
      </trkpt>
      <trkpt lat="43.78462" lon="6.69312">
        <ele>1178.019</ele>
        <time>2014-08-25T08:13:47Z</time>
      </trkpt>
      <trkpt lat="43.7846" lon="6.69285">
        <ele>1172.187</ele>
        <time>2014-08-25T08:13:52Z</time>
      </trkpt>
      <trkpt lat="43.78459" lon="6.69258">
        <ele>1170.163</ele>
        <time>2014-08-25T08:13:58Z</time>
      </trkpt>
      <trkpt lat="43.78462" lon="6.69227">
        <ele>1167.448</ele>
        <time>2014-08-25T08:14:04Z</time>
      </trkpt>
      <trkpt lat="43.78466" lon="6.69208">
        <ele>1164.394</ele>
        <time>2014-08-25T08:14:08Z</time>
      </trkpt>
      <trkpt lat="43.78465" lon="6.69186">
        <ele>1161.846</ele>
        <time>2014-08-25T08:14:12Z</time>
      </trkpt>
      <trkpt lat="43.78466" lon="6.69151">
        <ele>1160.929</ele>
        <time>2014-08-25T08:14:18Z</time>
      </trkpt>
      <trkpt lat="43.78466" lon="6.69135">
        <ele>1159.726</ele>
        <time>2014-08-25T08:14:21Z</time>
      </trkpt>
      <trkpt lat="43.78465" lon="6.69101">
        <ele>1158.172</ele>
        <time>2014-08-25T08:14:26Z</time>
      </trkpt>
      <trkpt lat="43.78466" lon="6.69094">
        <ele>1157.571</ele>
        <time>2014-08-25T08:14:27Z</time>
      </trkpt>
      <trkpt lat="43.78463" lon="6.69062">
        <ele>1155.94</ele>
        <time>2014-08-25T08:14:32Z</time>
      </trkpt>
      <trkpt lat="43.78461" lon="6.69026">
        <ele>1153.213</ele>
        <time>2014-08-25T08:14:37Z</time>
      </trkpt>
      <trkpt lat="43.78462" lon="6.69004">
        <ele>1150.386</ele>
        <time>2014-08-25T08:14:41Z</time>
      </trkpt>
      <trkpt lat="43.78466" lon="6.68965">
        <ele>1147.607</ele>
        <time>2014-08-25T08:14:48Z</time>
      </trkpt>
      <trkpt lat="43.78473" lon="6.68967">
        <ele>1146.379</ele>
        <time>2014-08-25T08:14:52Z</time>
      </trkpt>
      <trkpt lat="43.78484" lon="6.68973">
        <ele>1145.934</ele>
        <time>2014-08-25T08:14:55Z</time>
      </trkpt>
      <trkpt lat="43.78495" lon="6.68997">
        <ele>1143.407</ele>
        <time>2014-08-25T08:15:00Z</time>
      </trkpt>
      <trkpt lat="43.78499" lon="6.69004">
        <ele>1140.938</ele>
        <time>2014-08-25T08:15:03Z</time>
      </trkpt>
      <trkpt lat="43.785" lon="6.69002">
        <ele>1139.509</ele>
        <time>2014-08-25T08:15:04Z</time>
      </trkpt>
      <trkpt lat="43.7851" lon="6.68985">
        <ele>1137.286</ele>
        <time>2014-08-25T08:15:09Z</time>
      </trkpt>
      <trkpt lat="43.78511" lon="6.68981">
        <ele>1137.778</ele>
        <time>2014-08-25T08:15:10Z</time>
      </trkpt>
      <trkpt lat="43.78513" lon="6.6898">
        <ele>1137.632</ele>
        <time>2014-08-25T08:15:12Z</time>
      </trkpt>
      <trkpt lat="43.78519" lon="6.68984">
        <ele>1135.136</ele>
        <time>2014-08-25T08:15:17Z</time>
      </trkpt>
      <trkpt lat="43.78525" lon="6.68969">
        <ele>1133.277</ele>
        <time>2014-08-25T08:15:21Z</time>
      </trkpt>
      <trkpt lat="43.78526" lon="6.68963">
        <ele>1132.914</ele>
        <time>2014-08-25T08:15:24Z</time>
      </trkpt>
      <trkpt lat="43.7853" lon="6.68974">
        <ele>1134.186</ele>
        <time>2014-08-25T08:15:29Z</time>
      </trkpt>
      <trkpt lat="43.78534" lon="6.6898">
        <ele>1132.551</ele>
        <time>2014-08-25T08:15:33Z</time>
      </trkpt>
      <trkpt lat="43.78538" lon="6.68968">
        <ele>1131.704</ele>
        <time>2014-08-25T08:15:37Z</time>
      </trkpt>
      <trkpt lat="43.78542" lon="6.68957">
        <ele>1128.674</ele>
        <time>2014-08-25T08:15:41Z</time>
      </trkpt>
      <trkpt lat="43.78548" lon="6.68965">
        <ele>1124.701</ele>
        <time>2014-08-25T08:15:44Z</time>
      </trkpt>
      <trkpt lat="43.78553" lon="6.68973">
        <ele>1123.28</ele>
        <time>2014-08-25T08:15:46Z</time>
      </trkpt>
      <trkpt lat="43.78559" lon="6.68995">
        <ele>1120.189</ele>
        <time>2014-08-25T08:15:52Z</time>
      </trkpt>
      <trkpt lat="43.7856" lon="6.69003">
        <ele>1116.342</ele>
        <time>2014-08-25T08:15:56Z</time>
      </trkpt>
      <trkpt lat="43.78562" lon="6.69001">
        <ele>1113.394</ele>
        <time>2014-08-25T08:16:02Z</time>
      </trkpt>
      <trkpt lat="43.78563" lon="6.69001">
        <ele>1113.228</ele>
        <time>2014-08-25T08:16:03Z</time>
      </trkpt>
      <trkpt lat="43.7857" lon="6.69009">
        <ele>1111.831</ele>
        <time>2014-08-25T08:16:08Z</time>
      </trkpt>
      <trkpt lat="43.78583" lon="6.69025">
        <ele>1112.854</ele>
        <time>2014-08-25T08:16:14Z</time>
      </trkpt>
      <trkpt lat="43.78585" lon="6.69034">
        <ele>1113.428</ele>
        <time>2014-08-25T08:16:16Z</time>
      </trkpt>
      <trkpt lat="43.7859" lon="6.69061">
        <ele>1111.171</ele>
        <time>2014-08-25T08:16:21Z</time>
      </trkpt>
      <trkpt lat="43.78595" lon="6.69087">
        <ele>1108.695</ele>
        <time>2014-08-25T08:16:27Z</time>
      </trkpt>
      <trkpt lat="43.78598" lon="6.69101">
        <ele>1106.455</ele>
        <time>2014-08-25T08:16:29Z</time>
      </trkpt>
      <trkpt lat="43.78603" lon="6.6909">
        <ele>1104.809</ele>
        <time>2014-08-25T08:16:33Z</time>
      </trkpt>
      <trkpt lat="43.78606" lon="6.69073">
        <ele>1103.63</ele>
        <time>2014-08-25T08:16:37Z</time>
      </trkpt>
      <trkpt lat="43.78611" lon="6.69057">
        <ele>1102.418</ele>
        <time>2014-08-25T08:16:41Z</time>
      </trkpt>
      <trkpt lat="43.78614" lon="6.69052">
        <ele>1100.812</ele>
        <time>2014-08-25T08:16:44Z</time>
      </trkpt>
      <trkpt lat="43.78617" lon="6.69049">
        <ele>1099.398</ele>
        <time>2014-08-25T08:16:49Z</time>
      </trkpt>
      <trkpt lat="43.78618" lon="6.69049">
        <ele>1097.321</ele>
        <time>2014-08-25T08:16:55Z</time>
      </trkpt>
      <trkpt lat="43.78619" lon="6.69048">
        <ele>1097.247</ele>
        <time>2014-08-25T08:16:56Z</time>
      </trkpt>
      <trkpt lat="43.78621" lon="6.69042">
        <ele>1096.525</ele>
        <time>2014-08-25T08:17:02Z</time>
      </trkpt>
      <trkpt lat="43.78622" lon="6.6904">
        <ele>1096.309</ele>
        <time>2014-08-25T08:17:04Z</time>
      </trkpt>
      <trkpt lat="43.78627" lon="6.69037">
        <ele>1095.963</ele>
        <time>2014-08-25T08:17:09Z</time>
      </trkpt>
      <trkpt lat="43.78627" lon="6.69035">
        <ele>1095.323</ele>
        <time>2014-08-25T08:17:10Z</time>
      </trkpt>
      <trkpt lat="43.78632" lon="6.69013">
        <ele>1093.349</ele>
        <time>2014-08-25T08:17:15Z</time>
      </trkpt>
      <trkpt lat="43.78638" lon="6.69019">
        <ele>1089.147</ele>
        <time>2014-08-25T08:17:20Z</time>
      </trkpt>
      <trkpt lat="43.78642" lon="6.69021">
        <ele>1087.357</ele>
        <time>2014-08-25T08:17:23Z</time>
      </trkpt>
      <trkpt lat="43.78643" lon="6.69018">
        <ele>1087.254</ele>
        <time>2014-08-25T08:17:25Z</time>
      </trkpt>
      <trkpt lat="43.78648" lon="6.69001">
        <ele>1082.614</ele>
        <time>2014-08-25T08:17:30Z</time>
      </trkpt>
      <trkpt lat="43.78656" lon="6.68952">
        <ele>1078.618</ele>
        <time>2014-08-25T08:17:38Z</time>
      </trkpt>
      <trkpt lat="43.7866" lon="6.68929">
        <ele>1076.633</ele>
        <time>2014-08-25T08:17:42Z</time>
      </trkpt>
      <trkpt lat="43.78666" lon="6.68918">
        <ele>1074.448</ele>
        <time>2014-08-25T08:17:46Z</time>
      </trkpt>
      <trkpt lat="43.78665" lon="6.68905">
        <ele>1072.693</ele>
        <time>2014-08-25T08:17:50Z</time>
      </trkpt>
      <trkpt lat="43.78668" lon="6.6889">
        <ele>1071.18</ele>
        <time>2014-08-25T08:17:53Z</time>
      </trkpt>
      <trkpt lat="43.78673" lon="6.68878">
        <ele>1070.161</ele>
        <time>2014-08-25T08:17:56Z</time>
      </trkpt>
      <trkpt lat="43.78683" lon="6.68849">
        <ele>1068.16</ele>
        <time>2014-08-25T08:18:02Z</time>
      </trkpt>
      <trkpt lat="43.78687" lon="6.6882">
        <ele>1064.823</ele>
        <time>2014-08-25T08:18:07Z</time>
      </trkpt>
      <trkpt lat="43.78682" lon="6.68799">
        <ele>1060.121</ele>
        <time>2014-08-25T08:18:12Z</time>
      </trkpt>
      <trkpt lat="43.78675" lon="6.68778">
        <ele>1053.609</ele>
        <time>2014-08-25T08:18:17Z</time>
      </trkpt>
      <trkpt lat="43.78673" lon="6.68769">
        <ele>1050.297</ele>
        <time>2014-08-25T08:18:20Z</time>
      </trkpt>
      <trkpt lat="43.7867" lon="6.6876">
        <ele>1053.212</ele>
        <time>2014-08-25T08:18:26Z</time>
      </trkpt>
      <trkpt lat="43.78668" lon="6.68758">
        <ele>1054.7</ele>
        <time>2014-08-25T08:18:29Z</time>
      </trkpt>
      <trkpt lat="43.78664" lon="6.68751">
        <ele>1052.691</ele>
        <time>2014-08-25T08:18:36Z</time>
      </trkpt>
      <trkpt lat="43.7866" lon="6.68746">
        <ele>1051.216</ele>
        <time>2014-08-25T08:18:41Z</time>
      </trkpt>
      <trkpt lat="43.78657" lon="6.68744">
        <ele>1053.05</ele>
        <time>2014-08-25T08:18:46Z</time>
      </trkpt>
      <trkpt lat="43.78651" lon="6.68743">
        <ele>1052.625</ele>
        <time>2014-08-25T08:18:53Z</time>
      </trkpt>
      <trkpt lat="43.78641" lon="6.68735">
        <ele>1054.434</ele>
        <time>2014-08-25T08:18:59Z</time>
      </trkpt>
      <trkpt lat="43.78632" lon="6.68725">
        <ele>1058.797</ele>
        <time>2014-08-25T08:19:05Z</time>
      </trkpt>
      <trkpt lat="43.78622" lon="6.68714">
        <ele>1058.961</ele>
        <time>2014-08-25T08:19:11Z</time>
      </trkpt>
      <trkpt lat="43.78617" lon="6.68705">
        <ele>1059.598</ele>
        <time>2014-08-25T08:19:16Z</time>
      </trkpt>
      <trkpt lat="43.78611" lon="6.68696">
        <ele>1061.771</ele>
        <time>2014-08-25T08:19:21Z</time>
      </trkpt>
      <trkpt lat="43.78604" lon="6.68685">
        <ele>1066.867</ele>
        <time>2014-08-25T08:19:28Z</time>
      </trkpt>
      <trkpt lat="43.78601" lon="6.68683">
        <ele>1069.501</ele>
        <time>2014-08-25T08:19:46Z</time>
      </trkpt>
      <trkpt lat="43.78598" lon="6.68681">
        <ele>1068.05</ele>
        <time>2014-08-25T08:19:53Z</time>
      </trkpt>
      <trkpt lat="43.78598" lon="6.68676">
        <ele>1071.273</ele>
        <time>2014-08-25T08:20:14Z</time>
      </trkpt>
      <trkpt lat="43.78593" lon="6.68671">
        <ele>1071.775</ele>
        <time>2014-08-25T08:20:18Z</time>
      </trkpt>
      <trkpt lat="43.78588" lon="6.68661">
        <ele>1071.447</ele>
        <time>2014-08-25T08:20:25Z</time>
      </trkpt>
      <trkpt lat="43.78583" lon="6.68654">
        <ele>1071.711</ele>
        <time>2014-08-25T08:20:31Z</time>
      </trkpt>
      <trkpt lat="43.7858" lon="6.68649">
        <ele>1072.943</ele>
        <time>2014-08-25T08:20:34Z</time>
      </trkpt>
      <trkpt lat="43.78569" lon="6.68638">
        <ele>1067.971</ele>
        <time>2014-08-25T08:20:42Z</time>
      </trkpt>
      <trkpt lat="43.78563" lon="6.68633">
        <ele>1067.224</ele>
        <time>2014-08-25T08:20:46Z</time>
      </trkpt>
      <trkpt lat="43.78556" lon="6.6862">
        <ele>1069.006</ele>
        <time>2014-08-25T08:20:54Z</time>
      </trkpt>
      <trkpt lat="43.78551" lon="6.68613">
        <ele>1068.464</ele>
        <time>2014-08-25T08:20:59Z</time>
      </trkpt>
      <trkpt lat="43.78548" lon="6.68609">
        <ele>1068.484</ele>
        <time>2014-08-25T08:21:02Z</time>
      </trkpt>
      <trkpt lat="43.78544" lon="6.68601">
        <ele>1072.39</ele>
        <time>2014-08-25T08:21:07Z</time>
      </trkpt>
      <trkpt lat="43.78543" lon="6.68599">
        <ele>1074.111</ele>
        <time>2014-08-25T08:21:10Z</time>
      </trkpt>
      <trkpt lat="43.78535" lon="6.68587">
        <ele>1077.069</ele>
        <time>2014-08-25T08:21:20Z</time>
      </trkpt>
      <trkpt lat="43.78531" lon="6.68578">
        <ele>1081.791</ele>
        <time>2014-08-25T08:21:27Z</time>
      </trkpt>
      <trkpt lat="43.78531" lon="6.68577">
        <ele>1081.818</ele>
        <time>2014-08-25T08:21:28Z</time>
      </trkpt>
      <trkpt lat="43.78526" lon="6.6857">
        <ele>1082.294</ele>
        <time>2014-08-25T08:21:34Z</time>
      </trkpt>
      <trkpt lat="43.78519" lon="6.68562">
        <ele>1083.155</ele>
        <time>2014-08-25T08:21:41Z</time>
      </trkpt>
      <trkpt lat="43.78513" lon="6.68557">
        <ele>1082.653</ele>
        <time>2014-08-25T08:21:46Z</time>
      </trkpt>
      <trkpt lat="43.78509" lon="6.68553">
        <ele>1083.788</ele>
        <time>2014-08-25T08:21:52Z</time>
      </trkpt>
      <trkpt lat="43.78503" lon="6.68547">
        <ele>1090.002</ele>
        <time>2014-08-25T08:21:59Z</time>
      </trkpt>
      <trkpt lat="43.785" lon="6.68546">
        <ele>1093.356</ele>
        <time>2014-08-25T08:22:06Z</time>
      </trkpt>
      <trkpt lat="43.78497" lon="6.68546">
        <ele>1094.553</ele>
        <time>2014-08-25T08:22:13Z</time>
      </trkpt>
      <trkpt lat="43.78493" lon="6.68544">
        <ele>1095.021</ele>
        <time>2014-08-25T08:22:20Z</time>
      </trkpt>
      <trkpt lat="43.78488" lon="6.68541">
        <ele>1093.28</ele>
        <time>2014-08-25T08:22:26Z</time>
      </trkpt>
      <trkpt lat="43.78486" lon="6.68538">
        <ele>1093.542</ele>
        <time>2014-08-25T08:22:31Z</time>
      </trkpt>
      <trkpt lat="43.78481" lon="6.68534">
        <ele>1093.842</ele>
        <time>2014-08-25T08:22:39Z</time>
      </trkpt>
      <trkpt lat="43.78479" lon="6.68532">
        <ele>1094.062</ele>
        <time>2014-08-25T08:22:41Z</time>
      </trkpt>
      <trkpt lat="43.78472" lon="6.68527">
        <ele>1090.327</ele>
        <time>2014-08-25T08:22:48Z</time>
      </trkpt>
      <trkpt lat="43.78466" lon="6.68521">
        <ele>1090.46</ele>
        <time>2014-08-25T08:22:55Z</time>
      </trkpt>
      <trkpt lat="43.78463" lon="6.68518">
        <ele>1091.483</ele>
        <time>2014-08-25T08:23:01Z</time>
      </trkpt>
      <trkpt lat="43.78459" lon="6.68514">
        <ele>1092.745</ele>
        <time>2014-08-25T08:23:06Z</time>
      </trkpt>
      <trkpt lat="43.78454" lon="6.6851">
        <ele>1094.505</ele>
        <time>2014-08-25T08:23:12Z</time>
      </trkpt>
      <trkpt lat="43.78449" lon="6.68505">
        <ele>1098.307</ele>
        <time>2014-08-25T08:23:21Z</time>
      </trkpt>
      <trkpt lat="43.78448" lon="6.685">
        <ele>1100.396</ele>
        <time>2014-08-25T08:23:27Z</time>
      </trkpt>
      <trkpt lat="43.78442" lon="6.68496">
        <ele>1102.824</ele>
        <time>2014-08-25T08:23:33Z</time>
      </trkpt>
      <trkpt lat="43.78439" lon="6.68494">
        <ele>1104.083</ele>
        <time>2014-08-25T08:23:39Z</time>
      </trkpt>
      <trkpt lat="43.78434" lon="6.68492">
        <ele>1104.675</ele>
        <time>2014-08-25T08:23:46Z</time>
      </trkpt>
      <trkpt lat="43.78429" lon="6.68488">
        <ele>1103.903</ele>
        <time>2014-08-25T08:23:54Z</time>
      </trkpt>
      <trkpt lat="43.78425" lon="6.68486">
        <ele>1103.583</ele>
        <time>2014-08-25T08:23:59Z</time>
      </trkpt>
      <trkpt lat="43.78422" lon="6.68483">
        <ele>1103.684</ele>
        <time>2014-08-25T08:24:06Z</time>
      </trkpt>
      <trkpt lat="43.78417" lon="6.6848">
        <ele>1103.402</ele>
        <time>2014-08-25T08:24:12Z</time>
      </trkpt>
      <trkpt lat="43.78414" lon="6.68476">
        <ele>1104.896</ele>
        <time>2014-08-25T08:24:20Z</time>
      </trkpt>
      <trkpt lat="43.78411" lon="6.68475">
        <ele>1105.325</ele>
        <time>2014-08-25T08:24:24Z</time>
      </trkpt>
      <trkpt lat="43.78407" lon="6.68473">
        <ele>1105.956</ele>
        <time>2014-08-25T08:24:31Z</time>
      </trkpt>
      <trkpt lat="43.78402" lon="6.6847">
        <ele>1107.214</ele>
        <time>2014-08-25T08:24:38Z</time>
      </trkpt>
      <trkpt lat="43.784" lon="6.68468">
        <ele>1110.286</ele>
        <time>2014-08-25T08:24:45Z</time>
      </trkpt>
      <trkpt lat="43.78397" lon="6.68466">
        <ele>1110.094</ele>
        <time>2014-08-25T08:24:50Z</time>
      </trkpt>
      <trkpt lat="43.78393" lon="6.68465">
        <ele>1110.314</ele>
        <time>2014-08-25T08:24:56Z</time>
      </trkpt>
      <trkpt lat="43.7839" lon="6.68463">
        <ele>1112.757</ele>
        <time>2014-08-25T08:25:02Z</time>
      </trkpt>
      <trkpt lat="43.78385" lon="6.68459">
        <ele>1113.866</ele>
        <time>2014-08-25T08:25:11Z</time>
      </trkpt>
      <trkpt lat="43.78383" lon="6.68457">
        <ele>1116.976</ele>
        <time>2014-08-25T08:25:17Z</time>
      </trkpt>
      <trkpt lat="43.78382" lon="6.68457">
        <ele>1118.065</ele>
        <time>2014-08-25T08:25:23Z</time>
      </trkpt>
      <trkpt lat="43.78374" lon="6.68448">
        <ele>1129.181</ele>
        <time>2014-08-25T08:25:46Z</time>
      </trkpt>
      <trkpt lat="43.78371" lon="6.68443">
        <ele>1131.5</ele>
        <time>2014-08-25T08:25:51Z</time>
      </trkpt>
      <trkpt lat="43.78368" lon="6.68439">
        <ele>1130.455</ele>
        <time>2014-08-25T08:25:58Z</time>
      </trkpt>
      <trkpt lat="43.78362" lon="6.68438">
        <ele>1128.653</ele>
        <time>2014-08-25T08:26:05Z</time>
      </trkpt>
      <trkpt lat="43.7836" lon="6.68436">
        <ele>1129.315</ele>
        <time>2014-08-25T08:26:10Z</time>
      </trkpt>
      <trkpt lat="43.78356" lon="6.68431">
        <ele>1130.164</ele>
        <time>2014-08-25T08:26:19Z</time>
      </trkpt>
      <trkpt lat="43.7835" lon="6.68424">
        <ele>1131.174</ele>
        <time>2014-08-25T08:26:28Z</time>
      </trkpt>
      <trkpt lat="43.78345" lon="6.68417">
        <ele>1132.004</ele>
        <time>2014-08-25T08:26:36Z</time>
      </trkpt>
      <trkpt lat="43.78343" lon="6.68415">
        <ele>1132.965</ele>
        <time>2014-08-25T08:26:41Z</time>
      </trkpt>
      <trkpt lat="43.78339" lon="6.68413">
        <ele>1132.592</ele>
        <time>2014-08-25T08:26:47Z</time>
      </trkpt>
      <trkpt lat="43.78337" lon="6.6841">
        <ele>1132.413</ele>
        <time>2014-08-25T08:26:52Z</time>
      </trkpt>
      <trkpt lat="43.78333" lon="6.6841">
        <ele>1132.336</ele>
        <time>2014-08-25T08:26:59Z</time>
      </trkpt>
      <trkpt lat="43.7833" lon="6.68409">
        <ele>1133.653</ele>
        <time>2014-08-25T08:27:05Z</time>
      </trkpt>
      <trkpt lat="43.78331" lon="6.68405">
        <ele>1135.483</ele>
        <time>2014-08-25T08:27:12Z</time>
      </trkpt>
      <trkpt lat="43.78327" lon="6.68402">
        <ele>1138.439</ele>
        <time>2014-08-25T08:27:19Z</time>
      </trkpt>
      <trkpt lat="43.78323" lon="6.684">
        <ele>1138.493</ele>
        <time>2014-08-25T08:27:26Z</time>
      </trkpt>
      <trkpt lat="43.78321" lon="6.68399">
        <ele>1139.783</ele>
        <time>2014-08-25T08:27:31Z</time>
      </trkpt>
      <trkpt lat="43.78318" lon="6.68401">
        <ele>1141.286</ele>
        <time>2014-08-25T08:27:37Z</time>
      </trkpt>
      <trkpt lat="43.78314" lon="6.68401">
        <ele>1142.164</ele>
        <time>2014-08-25T08:27:43Z</time>
      </trkpt>
      <trkpt lat="43.78311" lon="6.68401">
        <ele>1142.754</ele>
        <time>2014-08-25T08:27:48Z</time>
      </trkpt>
      <trkpt lat="43.78309" lon="6.68402">
        <ele>1142.933</ele>
        <time>2014-08-25T08:27:55Z</time>
      </trkpt>
      <trkpt lat="43.78307" lon="6.68403">
        <ele>1143.571</ele>
        <time>2014-08-25T08:28:02Z</time>
      </trkpt>
      <trkpt lat="43.78303" lon="6.68404">
        <ele>1145.105</ele>
        <time>2014-08-25T08:28:07Z</time>
      </trkpt>
      <trkpt lat="43.78298" lon="6.68404">
        <ele>1145.114</ele>
        <time>2014-08-25T08:28:14Z</time>
      </trkpt>
      <trkpt lat="43.78296" lon="6.68401">
        <ele>1148.195</ele>
        <time>2014-08-25T08:28:20Z</time>
      </trkpt>
      <trkpt lat="43.78294" lon="6.684">
        <ele>1149.534</ele>
        <time>2014-08-25T08:28:23Z</time>
      </trkpt>
      <trkpt lat="43.7829" lon="6.68399">
        <ele>1150.324</ele>
        <time>2014-08-25T08:28:30Z</time>
      </trkpt>
      <trkpt lat="43.78285" lon="6.68395">
        <ele>1151.783</ele>
        <time>2014-08-25T08:28:37Z</time>
      </trkpt>
      <trkpt lat="43.78283" lon="6.68392">
        <ele>1153.114</ele>
        <time>2014-08-25T08:28:42Z</time>
      </trkpt>
      <trkpt lat="43.7828" lon="6.68389">
        <ele>1153.722</ele>
        <time>2014-08-25T08:28:48Z</time>
      </trkpt>
      <trkpt lat="43.78276" lon="6.68387">
        <ele>1156.314</ele>
        <time>2014-08-25T08:28:56Z</time>
      </trkpt>
      <trkpt lat="43.78272" lon="6.68385">
        <ele>1155.734</ele>
        <time>2014-08-25T08:29:04Z</time>
      </trkpt>
      <trkpt lat="43.78267" lon="6.68383">
        <ele>1157.775</ele>
        <time>2014-08-25T08:29:12Z</time>
      </trkpt>
      <trkpt lat="43.78264" lon="6.68381">
        <ele>1159.254</ele>
        <time>2014-08-25T08:29:18Z</time>
      </trkpt>
      <trkpt lat="43.7826" lon="6.68379">
        <ele>1162.096</ele>
        <time>2014-08-25T08:29:25Z</time>
      </trkpt>
      <trkpt lat="43.78258" lon="6.68376">
        <ele>1162.704</ele>
        <time>2014-08-25T08:29:32Z</time>
      </trkpt>
      <trkpt lat="43.78256" lon="6.68372">
        <ele>1164.924</ele>
        <time>2014-08-25T08:29:38Z</time>
      </trkpt>
      <trkpt lat="43.78252" lon="6.68371">
        <ele>1168.475</ele>
        <time>2014-08-25T08:29:45Z</time>
      </trkpt>
      <trkpt lat="43.7825" lon="6.68368">
        <ele>1171.476</ele>
        <time>2014-08-25T08:29:51Z</time>
      </trkpt>
      <trkpt lat="43.78247" lon="6.68362">
        <ele>1173.945</ele>
        <time>2014-08-25T08:29:58Z</time>
      </trkpt>
      <trkpt lat="43.78243" lon="6.68355">
        <ele>1176.335</ele>
        <time>2014-08-25T08:30:08Z</time>
      </trkpt>
      <trkpt lat="43.7824" lon="6.68351">
        <ele>1177.785</ele>
        <time>2014-08-25T08:30:15Z</time>
      </trkpt>
      <trkpt lat="43.78236" lon="6.68343">
        <ele>1177.945</ele>
        <time>2014-08-25T08:30:25Z</time>
      </trkpt>
      <trkpt lat="43.78236" lon="6.68337">
        <ele>1178.054</ele>
        <time>2014-08-25T08:30:32Z</time>
      </trkpt>
      <trkpt lat="43.78233" lon="6.68332">
        <ele>1176</ele>
        <time>2014-08-25T08:30:40Z</time>
      </trkpt>
      <trkpt lat="43.7823" lon="6.6833">
        <ele>1173.683</ele>
        <time>2014-08-25T08:30:47Z</time>
      </trkpt>
      <trkpt lat="43.7823" lon="6.68331">
        <ele>1172.373</ele>
        <time>2014-08-25T08:30:53Z</time>
      </trkpt>
      <trkpt lat="43.78228" lon="6.68331">
        <ele>1171.891</ele>
        <time>2014-08-25T08:31:01Z</time>
      </trkpt>
      <trkpt lat="43.78227" lon="6.68331">
        <ele>1172.822</ele>
        <time>2014-08-25T08:31:07Z</time>
      </trkpt>
      <trkpt lat="43.78224" lon="6.68329">
        <ele>1173.291</ele>
        <time>2014-08-25T08:31:13Z</time>
      </trkpt>
      <trkpt lat="43.78218" lon="6.68326">
        <ele>1175.684</ele>
        <time>2014-08-25T08:31:21Z</time>
      </trkpt>
      <trkpt lat="43.78213" lon="6.68322">
        <ele>1177.905</ele>
        <time>2014-08-25T08:31:29Z</time>
      </trkpt>
      <trkpt lat="43.78209" lon="6.6832">
        <ele>1180.404</ele>
        <time>2014-08-25T08:31:36Z</time>
      </trkpt>
      <trkpt lat="43.78206" lon="6.68318">
        <ele>1182.714</ele>
        <time>2014-08-25T08:31:42Z</time>
      </trkpt>
      <trkpt lat="43.78204" lon="6.68316">
        <ele>1184.124</ele>
        <time>2014-08-25T08:31:47Z</time>
      </trkpt>
      <trkpt lat="43.782" lon="6.68312">
        <ele>1185.722</ele>
        <time>2014-08-25T08:31:55Z</time>
      </trkpt>
      <trkpt lat="43.78197" lon="6.68309">
        <ele>1188.486</ele>
        <time>2014-08-25T08:32:02Z</time>
      </trkpt>
      <trkpt lat="43.78194" lon="6.68305">
        <ele>1189.885</ele>
        <time>2014-08-25T08:32:09Z</time>
      </trkpt>
      <trkpt lat="43.78193" lon="6.68302">
        <ele>1188.482</ele>
        <time>2014-08-25T08:32:15Z</time>
      </trkpt>
      <trkpt lat="43.78194" lon="6.68297">
        <ele>1185.771</ele>
        <time>2014-08-25T08:32:24Z</time>
      </trkpt>
      <trkpt lat="43.78194" lon="6.68292">
        <ele>1187.685</ele>
        <time>2014-08-25T08:32:31Z</time>
      </trkpt>
      <trkpt lat="43.78192" lon="6.68285">
        <ele>1187.552</ele>
        <time>2014-08-25T08:32:38Z</time>
      </trkpt>
      <trkpt lat="43.78189" lon="6.68281">
        <ele>1188.875</ele>
        <time>2014-08-25T08:32:44Z</time>
      </trkpt>
      <trkpt lat="43.78185" lon="6.68278">
        <ele>1187.734</ele>
        <time>2014-08-25T08:32:50Z</time>
      </trkpt>
      <trkpt lat="43.78181" lon="6.68273">
        <ele>1186.932</ele>
        <time>2014-08-25T08:32:57Z</time>
      </trkpt>
      <trkpt lat="43.78178" lon="6.68271">
        <ele>1185.799</ele>
        <time>2014-08-25T08:33:02Z</time>
      </trkpt>
      <trkpt lat="43.78174" lon="6.68267">
        <ele>1183.037</ele>
        <time>2014-08-25T08:33:09Z</time>
      </trkpt>
      <trkpt lat="43.78167" lon="6.68262">
        <ele>1181.447</ele>
        <time>2014-08-25T08:33:18Z</time>
      </trkpt>
      <trkpt lat="43.78165" lon="6.68257">
        <ele>1184.563</ele>
        <time>2014-08-25T08:33:24Z</time>
      </trkpt>
      <trkpt lat="43.78162" lon="6.68252">
        <ele>1189.377</ele>
        <time>2014-08-25T08:33:32Z</time>
      </trkpt>
      <trkpt lat="43.7816" lon="6.68249">
        <ele>1190.135</ele>
        <time>2014-08-25T08:33:38Z</time>
      </trkpt>
      <trkpt lat="43.78159" lon="6.68242">
        <ele>1195.179</ele>
        <time>2014-08-25T08:33:47Z</time>
      </trkpt>
      <trkpt lat="43.78156" lon="6.68236">
        <ele>1198.256</ele>
        <time>2014-08-25T08:33:54Z</time>
      </trkpt>
      <trkpt lat="43.78155" lon="6.6823">
        <ele>1199.525</ele>
        <time>2014-08-25T08:34:01Z</time>
      </trkpt>
      <trkpt lat="43.78147" lon="6.68227">
        <ele>1195.908</ele>
        <time>2014-08-25T08:34:09Z</time>
      </trkpt>
      <trkpt lat="43.78143" lon="6.68226">
        <ele>1190.852</ele>
        <time>2014-08-25T08:34:15Z</time>
      </trkpt>
      <trkpt lat="43.7814" lon="6.68222">
        <ele>1191.75</ele>
        <time>2014-08-25T08:34:21Z</time>
      </trkpt>
      <trkpt lat="43.78137" lon="6.68219">
        <ele>1196.506</ele>
        <time>2014-08-25T08:34:29Z</time>
      </trkpt>
      <trkpt lat="43.78134" lon="6.68216">
        <ele>1202.756</ele>
        <time>2014-08-25T08:34:37Z</time>
      </trkpt>
      <trkpt lat="43.7813" lon="6.68215">
        <ele>1200.411</ele>
        <time>2014-08-25T08:34:43Z</time>
      </trkpt>
      <trkpt lat="43.78128" lon="6.68212">
        <ele>1199.511</ele>
        <time>2014-08-25T08:34:48Z</time>
      </trkpt>
      <trkpt lat="43.78125" lon="6.68208">
        <ele>1198.78</ele>
        <time>2014-08-25T08:34:53Z</time>
      </trkpt>
      <trkpt lat="43.78119" lon="6.68205">
        <ele>1198.15</ele>
        <time>2014-08-25T08:35:00Z</time>
      </trkpt>
      <trkpt lat="43.78116" lon="6.68202">
        <ele>1199.613</ele>
        <time>2014-08-25T08:35:06Z</time>
      </trkpt>
      <trkpt lat="43.78113" lon="6.682">
        <ele>1202.306</ele>
        <time>2014-08-25T08:35:11Z</time>
      </trkpt>
      <trkpt lat="43.78112" lon="6.68196">
        <ele>1204.925</ele>
        <time>2014-08-25T08:35:17Z</time>
      </trkpt>
      <trkpt lat="43.78108" lon="6.68194">
        <ele>1206.716</ele>
        <time>2014-08-25T08:35:24Z</time>
      </trkpt>
      <trkpt lat="43.78104" lon="6.68188">
        <ele>1209.764</ele>
        <time>2014-08-25T08:35:32Z</time>
      </trkpt>
      <trkpt lat="43.78098" lon="6.68182">
        <ele>1210</ele>
        <time>2014-08-25T08:35:40Z</time>
      </trkpt>
      <trkpt lat="43.78097" lon="6.6818">
        <ele>1210.319</ele>
        <time>2014-08-25T08:35:49Z</time>
      </trkpt>
      <trkpt lat="43.78097" lon="6.68176">
        <ele>1211.182</ele>
        <time>2014-08-25T08:35:51Z</time>
      </trkpt>
      <trkpt lat="43.78094" lon="6.68169">
        <ele>1214.417</ele>
        <time>2014-08-25T08:35:56Z</time>
      </trkpt>
      <trkpt lat="43.78091" lon="6.68167">
        <ele>1215.007</ele>
        <time>2014-08-25T08:35:58Z</time>
      </trkpt>
      <trkpt lat="43.78084" lon="6.68154">
        <ele>1216.114</ele>
        <time>2014-08-25T08:36:06Z</time>
      </trkpt>
      <trkpt lat="43.78078" lon="6.6815">
        <ele>1213.659</ele>
        <time>2014-08-25T08:36:11Z</time>
      </trkpt>
      <trkpt lat="43.78074" lon="6.68145">
        <ele>1212.208</ele>
        <time>2014-08-25T08:36:16Z</time>
      </trkpt>
      <trkpt lat="43.78065" lon="6.68134">
        <ele>1215.419</ele>
        <time>2014-08-25T08:36:27Z</time>
      </trkpt>
      <trkpt lat="43.7806" lon="6.68126">
        <ele>1216.265</ele>
        <time>2014-08-25T08:36:34Z</time>
      </trkpt>
      <trkpt lat="43.78056" lon="6.68124">
        <ele>1214.979</ele>
        <time>2014-08-25T08:36:39Z</time>
      </trkpt>
      <trkpt lat="43.78051" lon="6.6812">
        <ele>1214.429</ele>
        <time>2014-08-25T08:36:47Z</time>
      </trkpt>
      <trkpt lat="43.78047" lon="6.68119">
        <ele>1216.963</ele>
        <time>2014-08-25T08:36:55Z</time>
      </trkpt>
      <trkpt lat="43.78045" lon="6.68117">
        <ele>1219.254</ele>
        <time>2014-08-25T08:37:03Z</time>
      </trkpt>
      <trkpt lat="43.78041" lon="6.68114">
        <ele>1220.103</ele>
        <time>2014-08-25T08:37:10Z</time>
      </trkpt>
      <trkpt lat="43.78037" lon="6.68113">
        <ele>1220.253</ele>
        <time>2014-08-25T08:37:16Z</time>
      </trkpt>
      <trkpt lat="43.78031" lon="6.68112">
        <ele>1224.01</ele>
        <time>2014-08-25T08:37:27Z</time>
      </trkpt>
      <trkpt lat="43.78026" lon="6.68111">
        <ele>1226.803</ele>
        <time>2014-08-25T08:37:34Z</time>
      </trkpt>
      <trkpt lat="43.78023" lon="6.68112">
        <ele>1228.274</ele>
        <time>2014-08-25T08:37:39Z</time>
      </trkpt>
      <trkpt lat="43.7802" lon="6.68116">
        <ele>1228.974</ele>
        <time>2014-08-25T08:37:46Z</time>
      </trkpt>
      <trkpt lat="43.78018" lon="6.68117">
        <ele>1229.754</ele>
        <time>2014-08-25T08:37:52Z</time>
      </trkpt>
      <trkpt lat="43.78014" lon="6.68121">
        <ele>1231.324</ele>
        <time>2014-08-25T08:37:59Z</time>
      </trkpt>
      <trkpt lat="43.78009" lon="6.68123">
        <ele>1232.243</ele>
        <time>2014-08-25T08:38:07Z</time>
      </trkpt>
      <trkpt lat="43.78004" lon="6.68127">
        <ele>1234.023</ele>
        <time>2014-08-25T08:38:17Z</time>
      </trkpt>
      <trkpt lat="43.78002" lon="6.68126">
        <ele>1234.2</ele>
        <time>2014-08-25T08:38:22Z</time>
      </trkpt>
      <trkpt lat="43.77996" lon="6.68122">
        <ele>1235.381</ele>
        <time>2014-08-25T08:38:32Z</time>
      </trkpt>
      <trkpt lat="43.77992" lon="6.6812">
        <ele>1236.501</ele>
        <time>2014-08-25T08:38:40Z</time>
      </trkpt>
      <trkpt lat="43.77989" lon="6.68118">
        <ele>1237.73</ele>
        <time>2014-08-25T08:38:46Z</time>
      </trkpt>
      <trkpt lat="43.77985" lon="6.68116">
        <ele>1238.839</ele>
        <time>2014-08-25T08:38:52Z</time>
      </trkpt>
      <trkpt lat="43.77979" lon="6.68111">
        <ele>1241.341</ele>
        <time>2014-08-25T08:39:02Z</time>
      </trkpt>
      <trkpt lat="43.77975" lon="6.68112">
        <ele>1240.39</ele>
        <time>2014-08-25T08:39:08Z</time>
      </trkpt>
      <trkpt lat="43.7797" lon="6.68111">
        <ele>1240.162</ele>
        <time>2014-08-25T08:39:16Z</time>
      </trkpt>
      <trkpt lat="43.77967" lon="6.68109">
        <ele>1240.933</ele>
        <time>2014-08-25T08:39:22Z</time>
      </trkpt>
      <trkpt lat="43.77964" lon="6.68106">
        <ele>1244.173</ele>
        <time>2014-08-25T08:39:29Z</time>
      </trkpt>
      <trkpt lat="43.77959" lon="6.68103">
        <ele>1247.022</ele>
        <time>2014-08-25T08:39:37Z</time>
      </trkpt>
      <trkpt lat="43.77955" lon="6.68101">
        <ele>1247.792</ele>
        <time>2014-08-25T08:39:43Z</time>
      </trkpt>
      <trkpt lat="43.77952" lon="6.68101">
        <ele>1250.434</ele>
        <time>2014-08-25T08:39:50Z</time>
      </trkpt>
      <trkpt lat="43.77951" lon="6.68099">
        <ele>1252.174</ele>
        <time>2014-08-25T08:39:56Z</time>
      </trkpt>
      <trkpt lat="43.77943" lon="6.68097">
        <ele>1252.65</ele>
        <time>2014-08-25T08:40:05Z</time>
      </trkpt>
      <trkpt lat="43.77938" lon="6.68094">
        <ele>1254.614</ele>
        <time>2014-08-25T08:40:13Z</time>
      </trkpt>
      <trkpt lat="43.77933" lon="6.68091">
        <ele>1258.505</ele>
        <time>2014-08-25T08:40:19Z</time>
      </trkpt>
      <trkpt lat="43.77927" lon="6.68086">
        <ele>1256.549</ele>
        <time>2014-08-25T08:40:28Z</time>
      </trkpt>
      <trkpt lat="43.77921" lon="6.68082">
        <ele>1256.469</ele>
        <time>2014-08-25T08:40:36Z</time>
      </trkpt>
      <trkpt lat="43.77915" lon="6.68076">
        <ele>1257.239</ele>
        <time>2014-08-25T08:40:45Z</time>
      </trkpt>
      <trkpt lat="43.77911" lon="6.6807">
        <ele>1259.251</ele>
        <time>2014-08-25T08:40:53Z</time>
      </trkpt>
      <trkpt lat="43.77908" lon="6.68069">
        <ele>1259.99</ele>
        <time>2014-08-25T08:40:59Z</time>
      </trkpt>
      <trkpt lat="43.77905" lon="6.68066">
        <ele>1260.691</ele>
        <time>2014-08-25T08:41:06Z</time>
      </trkpt>
      <trkpt lat="43.77902" lon="6.68063">
        <ele>1262.102</ele>
        <time>2014-08-25T08:41:12Z</time>
      </trkpt>
      <trkpt lat="43.77898" lon="6.68059">
        <ele>1263.118</ele>
        <time>2014-08-25T08:41:19Z</time>
      </trkpt>
      <trkpt lat="43.77894" lon="6.68056">
        <ele>1262.306</ele>
        <time>2014-08-25T08:41:26Z</time>
      </trkpt>
      <trkpt lat="43.77893" lon="6.68052">
        <ele>1263.027</ele>
        <time>2014-08-25T08:41:32Z</time>
      </trkpt>
      <trkpt lat="43.77893" lon="6.68051">
        <ele>1263.421</ele>
        <time>2014-08-25T08:41:42Z</time>
      </trkpt>
      <trkpt lat="43.77891" lon="6.68048">
        <ele>1264.091</ele>
        <time>2014-08-25T08:41:50Z</time>
      </trkpt>
      <trkpt lat="43.77887" lon="6.68044">
        <ele>1264.06</ele>
        <time>2014-08-25T08:42:04Z</time>
      </trkpt>
      <trkpt lat="43.77883" lon="6.68045">
        <ele>1263.714</ele>
        <time>2014-08-25T08:42:11Z</time>
      </trkpt>
      <trkpt lat="43.77882" lon="6.68042">
        <ele>1265.87</ele>
        <time>2014-08-25T08:42:17Z</time>
      </trkpt>
      <trkpt lat="43.77876" lon="6.68037">
        <ele>1264.357</ele>
        <time>2014-08-25T08:42:25Z</time>
      </trkpt>
      <trkpt lat="43.77873" lon="6.68036">
        <ele>1263.881</ele>
        <time>2014-08-25T08:42:31Z</time>
      </trkpt>
      <trkpt lat="43.77869" lon="6.6803">
        <ele>1264.4</ele>
        <time>2014-08-25T08:42:38Z</time>
      </trkpt>
      <trkpt lat="43.77864" lon="6.68026">
        <ele>1265.442</ele>
        <time>2014-08-25T08:42:46Z</time>
      </trkpt>
      <trkpt lat="43.77857" lon="6.6802">
        <ele>1267.733</ele>
        <time>2014-08-25T08:42:55Z</time>
      </trkpt>
      <trkpt lat="43.77851" lon="6.68013">
        <ele>1269.498</ele>
        <time>2014-08-25T08:43:03Z</time>
      </trkpt>
      <trkpt lat="43.77844" lon="6.68006">
        <ele>1271.855</ele>
        <time>2014-08-25T08:43:12Z</time>
      </trkpt>
      <trkpt lat="43.77839" lon="6.68003">
        <ele>1271.401</ele>
        <time>2014-08-25T08:43:19Z</time>
      </trkpt>
      <trkpt lat="43.77836" lon="6.68001">
        <ele>1274.344</ele>
        <time>2014-08-25T08:43:27Z</time>
      </trkpt>
      <trkpt lat="43.77832" lon="6.67999">
        <ele>1274.544</ele>
        <time>2014-08-25T08:43:33Z</time>
      </trkpt>
      <trkpt lat="43.77824" lon="6.67994">
        <ele>1274.979</ele>
        <time>2014-08-25T08:43:42Z</time>
      </trkpt>
      <trkpt lat="43.77816" lon="6.67988">
        <ele>1279.77</ele>
        <time>2014-08-25T08:43:54Z</time>
      </trkpt>
      <trkpt lat="43.77812" lon="6.67987">
        <ele>1280.281</ele>
        <time>2014-08-25T08:44:00Z</time>
      </trkpt>
      <trkpt lat="43.77808" lon="6.67986">
        <ele>1279.277</ele>
        <time>2014-08-25T08:44:07Z</time>
      </trkpt>
      <trkpt lat="43.77808" lon="6.67985">
        <ele>1283.26</ele>
        <time>2014-08-25T08:44:17Z</time>
      </trkpt>
      <trkpt lat="43.77806" lon="6.67986">
        <ele>1282.626</ele>
        <time>2014-08-25T08:44:25Z</time>
      </trkpt>
      <trkpt lat="43.77802" lon="6.67985">
        <ele>1284.289</ele>
        <time>2014-08-25T08:44:53Z</time>
      </trkpt>
      <trkpt lat="43.77799" lon="6.67987">
        <ele>1284.349</ele>
        <time>2014-08-25T08:44:57Z</time>
      </trkpt>
      <trkpt lat="43.77793" lon="6.67988">
        <ele>1285.448</ele>
        <time>2014-08-25T08:45:05Z</time>
      </trkpt>
      <trkpt lat="43.7779" lon="6.67988">
        <ele>1287.266</ele>
        <time>2014-08-25T08:45:13Z</time>
      </trkpt>
      <trkpt lat="43.7779" lon="6.67986">
        <ele>1289.65</ele>
        <time>2014-08-25T08:45:24Z</time>
      </trkpt>
      <trkpt lat="43.77785" lon="6.67988">
        <ele>1288.987</ele>
        <time>2014-08-25T08:50:12Z</time>
      </trkpt>
      <trkpt lat="43.77776" lon="6.67982">
        <ele>1290.452</ele>
        <time>2014-08-25T08:50:20Z</time>
      </trkpt>
      <trkpt lat="43.77766" lon="6.67981">
        <ele>1291.969</ele>
        <time>2014-08-25T08:50:29Z</time>
      </trkpt>
      <trkpt lat="43.77758" lon="6.67986">
        <ele>1294.679</ele>
        <time>2014-08-25T08:50:35Z</time>
      </trkpt>
      <trkpt lat="43.77755" lon="6.67996">
        <ele>1294.545</ele>
        <time>2014-08-25T08:50:43Z</time>
      </trkpt>
      <trkpt lat="43.77753" lon="6.67998">
        <ele>1294.188</ele>
        <time>2014-08-25T08:50:53Z</time>
      </trkpt>
      <trkpt lat="43.77753" lon="6.67998">
        <ele>1294.064</ele>
        <time>2014-08-25T08:50:54Z</time>
      </trkpt>
      <trkpt lat="43.77751" lon="6.67999">
        <ele>1293.647</ele>
        <time>2014-08-25T08:50:56Z</time>
      </trkpt>
      <trkpt lat="43.77743" lon="6.68001">
        <ele>1292.227</ele>
        <time>2014-08-25T08:51:01Z</time>
      </trkpt>
      <trkpt lat="43.77737" lon="6.68004">
        <ele>1290.51</ele>
        <time>2014-08-25T08:51:04Z</time>
      </trkpt>
      <trkpt lat="43.7773" lon="6.68017">
        <ele>1286.036</ele>
        <time>2014-08-25T08:51:10Z</time>
      </trkpt>
      <trkpt lat="43.77724" lon="6.68014">
        <ele>1284.604</ele>
        <time>2014-08-25T08:51:12Z</time>
      </trkpt>
      <trkpt lat="43.77712" lon="6.68003">
        <ele>1279.623</ele>
        <time>2014-08-25T08:51:17Z</time>
      </trkpt>
      <trkpt lat="43.77706" lon="6.6799">
        <ele>1276.21</ele>
        <time>2014-08-25T08:51:21Z</time>
      </trkpt>
      <trkpt lat="43.77703" lon="6.67976">
        <ele>1275.359</ele>
        <time>2014-08-25T08:51:26Z</time>
      </trkpt>
      <trkpt lat="43.77698" lon="6.67962">
        <ele>1274.28</ele>
        <time>2014-08-25T08:51:32Z</time>
      </trkpt>
      <trkpt lat="43.77697" lon="6.67959">
        <ele>1273.76</ele>
        <time>2014-08-25T08:51:33Z</time>
      </trkpt>
      <trkpt lat="43.77693" lon="6.6796">
        <ele>1271.468</ele>
        <time>2014-08-25T08:51:37Z</time>
      </trkpt>
      <trkpt lat="43.77691" lon="6.67966">
        <ele>1270.549</ele>
        <time>2014-08-25T08:51:41Z</time>
      </trkpt>
      <trkpt lat="43.77691" lon="6.67965">
        <ele>1270.777</ele>
        <time>2014-08-25T08:51:42Z</time>
      </trkpt>
      <trkpt lat="43.77686" lon="6.67949">
        <ele>1269.807</ele>
        <time>2014-08-25T08:51:47Z</time>
      </trkpt>
      <trkpt lat="43.77681" lon="6.67928">
        <ele>1268.269</ele>
        <time>2014-08-25T08:51:52Z</time>
      </trkpt>
      <trkpt lat="43.77671" lon="6.67917">
        <ele>1266.361</ele>
        <time>2014-08-25T08:51:56Z</time>
      </trkpt>
      <trkpt lat="43.77663" lon="6.67902">
        <ele>1265.232</ele>
        <time>2014-08-25T08:52:00Z</time>
      </trkpt>
      <trkpt lat="43.77659" lon="6.67898">
        <ele>1265.577</ele>
        <time>2014-08-25T08:52:02Z</time>
      </trkpt>
      <trkpt lat="43.77647" lon="6.67874">
        <ele>1260.006</ele>
        <time>2014-08-25T08:52:09Z</time>
      </trkpt>
      <trkpt lat="43.77643" lon="6.6787">
        <ele>1259.703</ele>
        <time>2014-08-25T08:52:11Z</time>
      </trkpt>
      <trkpt lat="43.77638" lon="6.67874">
        <ele>1255.576</ele>
        <time>2014-08-25T08:52:15Z</time>
      </trkpt>
      <trkpt lat="43.77636" lon="6.67881">
        <ele>1254.323</ele>
        <time>2014-08-25T08:52:17Z</time>
      </trkpt>
      <trkpt lat="43.77639" lon="6.67898">
        <ele>1251.508</ele>
        <time>2014-08-25T08:52:22Z</time>
      </trkpt>
      <trkpt lat="43.77633" lon="6.67894">
        <ele>1249.806</ele>
        <time>2014-08-25T08:52:26Z</time>
      </trkpt>
      <trkpt lat="43.77631" lon="6.67897">
        <ele>1247.74</ele>
        <time>2014-08-25T08:52:30Z</time>
      </trkpt>
      <trkpt lat="43.77636" lon="6.67924">
        <ele>1246.047</ele>
        <time>2014-08-25T08:52:36Z</time>
      </trkpt>
      <trkpt lat="43.77636" lon="6.6794">
        <ele>1247.249</ele>
        <time>2014-08-25T08:52:40Z</time>
      </trkpt>
      <trkpt lat="43.77633" lon="6.67946">
        <ele>1244.443</ele>
        <time>2014-08-25T08:52:44Z</time>
      </trkpt>
      <trkpt lat="43.77632" lon="6.67953">
        <ele>1243.998</ele>
        <time>2014-08-25T08:52:47Z</time>
      </trkpt>
      <trkpt lat="43.77631" lon="6.67965">
        <ele>1240.609</ele>
        <time>2014-08-25T08:52:51Z</time>
      </trkpt>
      <trkpt lat="43.77631" lon="6.67968">
        <ele>1239.774</ele>
        <time>2014-08-25T08:52:52Z</time>
      </trkpt>
      <trkpt lat="43.7763" lon="6.67997">
        <ele>1232.568</ele>
        <time>2014-08-25T08:52:59Z</time>
      </trkpt>
      <trkpt lat="43.77629" lon="6.68007">
        <ele>1230.148</ele>
        <time>2014-08-25T08:53:03Z</time>
      </trkpt>
      <trkpt lat="43.77629" lon="6.68006">
        <ele>1229.206</ele>
        <time>2014-08-25T08:53:04Z</time>
      </trkpt>
      <trkpt lat="43.77631" lon="6.68005">
        <ele>1229.008</ele>
        <time>2014-08-25T08:53:11Z</time>
      </trkpt>
      <trkpt lat="43.77629" lon="6.68003">
        <ele>1228.008</ele>
        <time>2014-08-25T08:53:15Z</time>
      </trkpt>
      <trkpt lat="43.77624" lon="6.67991">
        <ele>1227.287</ele>
        <time>2014-08-25T08:53:20Z</time>
      </trkpt>
      <trkpt lat="43.77622" lon="6.67981">
        <ele>1229.468</ele>
        <time>2014-08-25T08:53:24Z</time>
      </trkpt>
      <trkpt lat="43.77622" lon="6.67978">
        <ele>1229.593</ele>
        <time>2014-08-25T08:53:27Z</time>
      </trkpt>
      <trkpt lat="43.7762" lon="6.67973">
        <ele>1230.064</ele>
        <time>2014-08-25T08:53:31Z</time>
      </trkpt>
      <trkpt lat="43.77619" lon="6.67969">
        <ele>1229.998</ele>
        <time>2014-08-25T08:53:35Z</time>
      </trkpt>
      <trkpt lat="43.77617" lon="6.67961">
        <ele>1230.411</ele>
        <time>2014-08-25T08:53:40Z</time>
      </trkpt>
      <trkpt lat="43.77616" lon="6.67959">
        <ele>1230.265</ele>
        <time>2014-08-25T08:53:42Z</time>
      </trkpt>
      <trkpt lat="43.77614" lon="6.67954">
        <ele>1231.407</ele>
        <time>2014-08-25T08:53:48Z</time>
      </trkpt>
      <trkpt lat="43.77612" lon="6.67951">
        <ele>1230.096</ele>
        <time>2014-08-25T08:53:53Z</time>
      </trkpt>
      <trkpt lat="43.7761" lon="6.67949">
        <ele>1229.427</ele>
        <time>2014-08-25T08:54:00Z</time>
      </trkpt>
      <trkpt lat="43.77601" lon="6.67936">
        <ele>1228.414</ele>
        <time>2014-08-25T08:54:05Z</time>
      </trkpt>
      <trkpt lat="43.77592" lon="6.6792">
        <ele>1228.583</ele>
        <time>2014-08-25T08:54:10Z</time>
      </trkpt>
      <trkpt lat="43.77584" lon="6.67912">
        <ele>1227.111</ele>
        <time>2014-08-25T08:54:14Z</time>
      </trkpt>
      <trkpt lat="43.77586" lon="6.67901">
        <ele>1226.452</ele>
        <time>2014-08-25T08:54:19Z</time>
      </trkpt>
      <trkpt lat="43.77588" lon="6.67895">
        <ele>1226.735</ele>
        <time>2014-08-25T08:54:22Z</time>
      </trkpt>
      <trkpt lat="43.77584" lon="6.67866">
        <ele>1224.447</ele>
        <time>2014-08-25T08:54:29Z</time>
      </trkpt>
      <trkpt lat="43.77574" lon="6.67842">
        <ele>1219.309</ele>
        <time>2014-08-25T08:54:35Z</time>
      </trkpt>
      <trkpt lat="43.77563" lon="6.67828">
        <ele>1215.745</ele>
        <time>2014-08-25T08:54:40Z</time>
      </trkpt>
      <trkpt lat="43.7755" lon="6.67811">
        <ele>1212.94</ele>
        <time>2014-08-25T08:54:45Z</time>
      </trkpt>
      <trkpt lat="43.77539" lon="6.67802">
        <ele>1212.849</ele>
        <time>2014-08-25T08:54:49Z</time>
      </trkpt>
      <trkpt lat="43.7753" lon="6.67792">
        <ele>1211.073</ele>
        <time>2014-08-25T08:54:53Z</time>
      </trkpt>
      <trkpt lat="43.77519" lon="6.67785">
        <ele>1208.344</ele>
        <time>2014-08-25T08:54:57Z</time>
      </trkpt>
      <trkpt lat="43.77504" lon="6.67768">
        <ele>1204.427</ele>
        <time>2014-08-25T08:55:02Z</time>
      </trkpt>
      <trkpt lat="43.77499" lon="6.67766">
        <ele>1203.257</ele>
        <time>2014-08-25T08:55:03Z</time>
      </trkpt>
      <trkpt lat="43.7748" lon="6.67759">
        <ele>1201.386</ele>
        <time>2014-08-25T08:55:07Z</time>
      </trkpt>
      <trkpt lat="43.77453" lon="6.67739">
        <ele>1197.625</ele>
        <time>2014-08-25T08:55:13Z</time>
      </trkpt>
      <trkpt lat="43.77449" lon="6.67735">
        <ele>1196.863</ele>
        <time>2014-08-25T08:55:14Z</time>
      </trkpt>
      <trkpt lat="43.77435" lon="6.67721">
        <ele>1192.772</ele>
        <time>2014-08-25T08:55:18Z</time>
      </trkpt>
      <trkpt lat="43.77423" lon="6.67716">
        <ele>1190.554</ele>
        <time>2014-08-25T08:55:21Z</time>
      </trkpt>
      <trkpt lat="43.77412" lon="6.67697">
        <ele>1193.097</ele>
        <time>2014-08-25T08:55:26Z</time>
      </trkpt>
      <trkpt lat="43.77414" lon="6.6769">
        <ele>1193.725</ele>
        <time>2014-08-25T08:55:28Z</time>
      </trkpt>
      <trkpt lat="43.77418" lon="6.67674">
        <ele>1200.769</ele>
        <time>2014-08-25T08:55:34Z</time>
      </trkpt>
      <trkpt lat="43.77414" lon="6.67663">
        <ele>1200.498</ele>
        <time>2014-08-25T08:55:39Z</time>
      </trkpt>
      <trkpt lat="43.77408" lon="6.67658">
        <ele>1201.024</ele>
        <time>2014-08-25T08:55:45Z</time>
      </trkpt>
      <trkpt lat="43.77405" lon="6.67659">
        <ele>1210.377</ele>
        <time>2014-08-25T08:55:50Z</time>
      </trkpt>
      <trkpt lat="43.77403" lon="6.67658">
        <ele>1210.987</ele>
        <time>2014-08-25T08:55:56Z</time>
      </trkpt>
      <trkpt lat="43.77404" lon="6.6766">
        <ele>1212.128</ele>
        <time>2014-08-25T08:56:03Z</time>
      </trkpt>
      <trkpt lat="43.77399" lon="6.67658">
        <ele>1214.239</ele>
        <time>2014-08-25T08:56:09Z</time>
      </trkpt>
      <trkpt lat="43.77395" lon="6.67658">
        <ele>1217.335</ele>
        <time>2014-08-25T08:56:19Z</time>
      </trkpt>
      <trkpt lat="43.77386" lon="6.67666">
        <ele>1217.586</ele>
        <time>2014-08-25T08:56:24Z</time>
      </trkpt>
      <trkpt lat="43.77377" lon="6.67667">
        <ele>1216.462</ele>
        <time>2014-08-25T08:56:29Z</time>
      </trkpt>
      <trkpt lat="43.77371" lon="6.67664">
        <ele>1213.546</ele>
        <time>2014-08-25T08:56:35Z</time>
      </trkpt>
      <trkpt lat="43.77368" lon="6.67661">
        <ele>1213.221</ele>
        <time>2014-08-25T08:56:42Z</time>
      </trkpt>
      <trkpt lat="43.77361" lon="6.6766">
        <ele>1213.294</ele>
        <time>2014-08-25T08:56:55Z</time>
      </trkpt>
      <trkpt lat="43.77349" lon="6.67659">
        <ele>1211.722</ele>
        <time>2014-08-25T08:57:02Z</time>
      </trkpt>
      <trkpt lat="43.77334" lon="6.67655">
        <ele>1210.967</ele>
        <time>2014-08-25T08:57:07Z</time>
      </trkpt>
      <trkpt lat="43.77321" lon="6.67644">
        <ele>1208.282</ele>
        <time>2014-08-25T08:57:14Z</time>
      </trkpt>
      <trkpt lat="43.77314" lon="6.67635">
        <ele>1206.646</ele>
        <time>2014-08-25T08:57:20Z</time>
      </trkpt>
      <trkpt lat="43.77301" lon="6.67629">
        <ele>1205.885</ele>
        <time>2014-08-25T08:57:26Z</time>
      </trkpt>
      <trkpt lat="43.7729" lon="6.67628">
        <ele>1204.94</ele>
        <time>2014-08-25T08:57:30Z</time>
      </trkpt>
      <trkpt lat="43.77288" lon="6.67628">
        <ele>1205.901</ele>
        <time>2014-08-25T08:57:31Z</time>
      </trkpt>
      <trkpt lat="43.77274" lon="6.67622">
        <ele>1207.437</ele>
        <time>2014-08-25T08:57:37Z</time>
      </trkpt>
      <trkpt lat="43.77266" lon="6.67611">
        <ele>1202.485</ele>
        <time>2014-08-25T08:57:42Z</time>
      </trkpt>
      <trkpt lat="43.77258" lon="6.67603">
        <ele>1200.532</ele>
        <time>2014-08-25T08:57:48Z</time>
      </trkpt>
      <trkpt lat="43.77251" lon="6.67597">
        <ele>1197.089</ele>
        <time>2014-08-25T08:57:52Z</time>
      </trkpt>
      <trkpt lat="43.7724" lon="6.67583">
        <ele>1199.836</ele>
        <time>2014-08-25T08:57:58Z</time>
      </trkpt>
      <trkpt lat="43.77239" lon="6.67581">
        <ele>1199.964</ele>
        <time>2014-08-25T08:57:59Z</time>
      </trkpt>
      <trkpt lat="43.77232" lon="6.6757">
        <ele>1203.711</ele>
        <time>2014-08-25T08:58:04Z</time>
      </trkpt>
      <trkpt lat="43.77225" lon="6.67554">
        <ele>1206.706</ele>
        <time>2014-08-25T08:58:11Z</time>
      </trkpt>
      <trkpt lat="43.77216" lon="6.67533">
        <ele>1209.75</ele>
        <time>2014-08-25T08:58:17Z</time>
      </trkpt>
      <trkpt lat="43.77211" lon="6.67519">
        <ele>1210.697</ele>
        <time>2014-08-25T08:58:20Z</time>
      </trkpt>
      <trkpt lat="43.7721" lon="6.67492">
        <ele>1207.731</ele>
        <time>2014-08-25T08:58:26Z</time>
      </trkpt>
      <trkpt lat="43.7721" lon="6.67469">
        <ele>1209.06</ele>
        <time>2014-08-25T08:58:31Z</time>
      </trkpt>
      <trkpt lat="43.77211" lon="6.67451">
        <ele>1214.723</ele>
        <time>2014-08-25T08:58:37Z</time>
      </trkpt>
      <trkpt lat="43.7721" lon="6.67446">
        <ele>1217.566</ele>
        <time>2014-08-25T08:58:39Z</time>
      </trkpt>
      <trkpt lat="43.77206" lon="6.67427">
        <ele>1213.828</ele>
        <time>2014-08-25T08:58:45Z</time>
      </trkpt>
      <trkpt lat="43.77201" lon="6.67413">
        <ele>1210.606</ele>
        <time>2014-08-25T08:58:49Z</time>
      </trkpt>
      <trkpt lat="43.77199" lon="6.674">
        <ele>1205.773</ele>
        <time>2014-08-25T08:58:54Z</time>
      </trkpt>
      <trkpt lat="43.77195" lon="6.67395">
        <ele>1207.731</ele>
        <time>2014-08-25T08:58:58Z</time>
      </trkpt>
      <trkpt lat="43.77192" lon="6.67392">
        <ele>1214.617</ele>
        <time>2014-08-25T08:59:02Z</time>
      </trkpt>
      <trkpt lat="43.77188" lon="6.67383">
        <ele>1220.933</ele>
        <time>2014-08-25T08:59:07Z</time>
      </trkpt>
      <trkpt lat="43.77184" lon="6.67373">
        <ele>1225.783</ele>
        <time>2014-08-25T08:59:13Z</time>
      </trkpt>
      <trkpt lat="43.77182" lon="6.67363">
        <ele>1229.699</ele>
        <time>2014-08-25T08:59:18Z</time>
      </trkpt>
      <trkpt lat="43.77182" lon="6.67358">
        <ele>1229.869</ele>
        <time>2014-08-25T08:59:21Z</time>
      </trkpt>
      <trkpt lat="43.77182" lon="6.6735">
        <ele>1229.321</ele>
        <time>2014-08-25T08:59:24Z</time>
      </trkpt>
      <trkpt lat="43.77175" lon="6.67341">
        <ele>1229.678</ele>
        <time>2014-08-25T08:59:28Z</time>
      </trkpt>
      <trkpt lat="43.77173" lon="6.67321">
        <ele>1228.402</ele>
        <time>2014-08-25T08:59:34Z</time>
      </trkpt>
      <trkpt lat="43.77171" lon="6.67304">
        <ele>1225.62</ele>
        <time>2014-08-25T08:59:40Z</time>
      </trkpt>
      <trkpt lat="43.77167" lon="6.67285">
        <ele>1223.856</ele>
        <time>2014-08-25T08:59:47Z</time>
      </trkpt>
      <trkpt lat="43.7716" lon="6.67269">
        <ele>1221.278</ele>
        <time>2014-08-25T08:59:54Z</time>
      </trkpt>
      <trkpt lat="43.77158" lon="6.67266">
        <ele>1221.189</ele>
        <time>2014-08-25T08:59:55Z</time>
      </trkpt>
      <trkpt lat="43.77152" lon="6.67256">
        <ele>1225.775</ele>
        <time>2014-08-25T09:00:00Z</time>
      </trkpt>
      <trkpt lat="43.77142" lon="6.67235">
        <ele>1223.198</ele>
        <time>2014-08-25T09:00:06Z</time>
      </trkpt>
      <trkpt lat="43.77133" lon="6.67221">
        <ele>1219.087</ele>
        <time>2014-08-25T09:00:11Z</time>
      </trkpt>
      <trkpt lat="43.7712" lon="6.67207">
        <ele>1220.149</ele>
        <time>2014-08-25T09:00:18Z</time>
      </trkpt>
      <trkpt lat="43.77113" lon="6.67196">
        <ele>1221.709</ele>
        <time>2014-08-25T09:00:23Z</time>
      </trkpt>
      <trkpt lat="43.77105" lon="6.67181">
        <ele>1219.399</ele>
        <time>2014-08-25T09:00:29Z</time>
      </trkpt>
      <trkpt lat="43.77094" lon="6.6716">
        <ele>1218.197</ele>
        <time>2014-08-25T09:00:37Z</time>
      </trkpt>
      <trkpt lat="43.77091" lon="6.6715">
        <ele>1216.35</ele>
        <time>2014-08-25T09:00:41Z</time>
      </trkpt>
      <trkpt lat="43.77086" lon="6.67139">
        <ele>1215.478</ele>
        <time>2014-08-25T09:00:47Z</time>
      </trkpt>
      <trkpt lat="43.77079" lon="6.67113">
        <ele>1216.498</ele>
        <time>2014-08-25T09:00:55Z</time>
      </trkpt>
      <trkpt lat="43.77074" lon="6.67095">
        <ele>1214.957</ele>
        <time>2014-08-25T09:00:59Z</time>
      </trkpt>
      <trkpt lat="43.77065" lon="6.67076">
        <ele>1210.598</ele>
        <time>2014-08-25T09:01:03Z</time>
      </trkpt>
      <trkpt lat="43.77059" lon="6.67058">
        <ele>1207.871</ele>
        <time>2014-08-25T09:01:06Z</time>
      </trkpt>
      <trkpt lat="43.77045" lon="6.67022">
        <ele>1201.376</ele>
        <time>2014-08-25T09:01:12Z</time>
      </trkpt>
      <trkpt lat="43.77042" lon="6.67009">
        <ele>1199.443</ele>
        <time>2014-08-25T09:01:14Z</time>
      </trkpt>
      <trkpt lat="43.77033" lon="6.66983">
        <ele>1192.317</ele>
        <time>2014-08-25T09:01:18Z</time>
      </trkpt>
      <trkpt lat="43.77022" lon="6.6694">
        <ele>1183.564</ele>
        <time>2014-08-25T09:01:24Z</time>
      </trkpt>
      <trkpt lat="43.77018" lon="6.66913">
        <ele>1177.53</ele>
        <time>2014-08-25T09:01:28Z</time>
      </trkpt>
      <trkpt lat="43.77014" lon="6.66881">
        <ele>1170.934</ele>
        <time>2014-08-25T09:01:33Z</time>
      </trkpt>
      <trkpt lat="43.77016" lon="6.66875">
        <ele>1167.959</ele>
        <time>2014-08-25T09:01:35Z</time>
      </trkpt>
      <trkpt lat="43.77028" lon="6.66868">
        <ele>1164.033</ele>
        <time>2014-08-25T09:01:40Z</time>
      </trkpt>
      <trkpt lat="43.77029" lon="6.66864">
        <ele>1162.559</ele>
        <time>2014-08-25T09:01:41Z</time>
      </trkpt>
      <trkpt lat="43.77036" lon="6.66832">
        <ele>1153.348</ele>
        <time>2014-08-25T09:01:48Z</time>
      </trkpt>
      <trkpt lat="43.77037" lon="6.66822">
        <ele>1149.716</ele>
        <time>2014-08-25T09:01:50Z</time>
      </trkpt>
      <trkpt lat="43.77038" lon="6.66812">
        <ele>1148.612</ele>
        <time>2014-08-25T09:01:53Z</time>
      </trkpt>
      <trkpt lat="43.77041" lon="6.66787">
        <ele>1143.511</ele>
        <time>2014-08-25T09:01:58Z</time>
      </trkpt>
      <trkpt lat="43.77046" lon="6.66768">
        <ele>1144.877</ele>
        <time>2014-08-25T09:02:03Z</time>
      </trkpt>
      <trkpt lat="43.77059" lon="6.66739">
        <ele>1142.244</ele>
        <time>2014-08-25T09:02:08Z</time>
      </trkpt>
      <trkpt lat="43.77065" lon="6.66717">
        <ele>1140.454</ele>
        <time>2014-08-25T09:02:12Z</time>
      </trkpt>
      <trkpt lat="43.77075" lon="6.66694">
        <ele>1143.476</ele>
        <time>2014-08-25T09:02:16Z</time>
      </trkpt>
      <trkpt lat="43.77073" lon="6.66672">
        <ele>1144.072</ele>
        <time>2014-08-25T09:02:21Z</time>
      </trkpt>
      <trkpt lat="43.77072" lon="6.66669">
        <ele>1143.981</ele>
        <time>2014-08-25T09:02:22Z</time>
      </trkpt>
      <trkpt lat="43.77068" lon="6.66648">
        <ele>1146.671</ele>
        <time>2014-08-25T09:02:27Z</time>
      </trkpt>
      <trkpt lat="43.77065" lon="6.66626">
        <ele>1142.08</ele>
        <time>2014-08-25T09:02:32Z</time>
      </trkpt>
      <trkpt lat="43.77063" lon="6.66605">
        <ele>1138.276</ele>
        <time>2014-08-25T09:02:38Z</time>
      </trkpt>
      <trkpt lat="43.77059" lon="6.66581">
        <ele>1135.146</ele>
        <time>2014-08-25T09:02:43Z</time>
      </trkpt>
      <trkpt lat="43.77055" lon="6.66545">
        <ele>1132.138</ele>
        <time>2014-08-25T09:02:49Z</time>
      </trkpt>
      <trkpt lat="43.77054" lon="6.66521">
        <ele>1131.81</ele>
        <time>2014-08-25T09:02:54Z</time>
      </trkpt>
      <trkpt lat="43.7705" lon="6.66496">
        <ele>1129.033</ele>
        <time>2014-08-25T09:02:59Z</time>
      </trkpt>
      <trkpt lat="43.77047" lon="6.66483">
        <ele>1125.438</ele>
        <time>2014-08-25T09:03:02Z</time>
      </trkpt>
      <trkpt lat="43.7704" lon="6.66474">
        <ele>1123.182</ele>
        <time>2014-08-25T09:03:05Z</time>
      </trkpt>
      <trkpt lat="43.77041" lon="6.66452">
        <ele>1119.827</ele>
        <time>2014-08-25T09:03:10Z</time>
      </trkpt>
      <trkpt lat="43.77037" lon="6.66438">
        <ele>1115.826</ele>
        <time>2014-08-25T09:03:14Z</time>
      </trkpt>
      <trkpt lat="43.77033" lon="6.66431">
        <ele>1113.874</ele>
        <time>2014-08-25T09:03:16Z</time>
      </trkpt>
      <trkpt lat="43.77024" lon="6.66414">
        <ele>1109.967</ele>
        <time>2014-08-25T09:03:21Z</time>
      </trkpt>
      <trkpt lat="43.77013" lon="6.66395">
        <ele>1102.4</ele>
        <time>2014-08-25T09:03:27Z</time>
      </trkpt>
      <trkpt lat="43.77003" lon="6.6637">
        <ele>1097.597</ele>
        <time>2014-08-25T09:03:32Z</time>
      </trkpt>
      <trkpt lat="43.76988" lon="6.66334">
        <ele>1090.032</ele>
        <time>2014-08-25T09:03:38Z</time>
      </trkpt>
      <trkpt lat="43.76975" lon="6.66304">
        <ele>1091.4</ele>
        <time>2014-08-25T09:03:43Z</time>
      </trkpt>
      <trkpt lat="43.76975" lon="6.66301">
        <ele>1094.456</ele>
        <time>2014-08-25T09:03:49Z</time>
      </trkpt>
      <trkpt lat="43.76975" lon="6.663">
        <ele>1094.499</ele>
        <time>2014-08-25T09:03:50Z</time>
      </trkpt>
      <trkpt lat="43.76971" lon="6.66285">
        <ele>1097.528</ele>
        <time>2014-08-25T09:03:57Z</time>
      </trkpt>
      <trkpt lat="43.76968" lon="6.66265">
        <ele>1098.394</ele>
        <time>2014-08-25T09:04:02Z</time>
      </trkpt>
      <trkpt lat="43.76964" lon="6.66246">
        <ele>1098.45</ele>
        <time>2014-08-25T09:04:07Z</time>
      </trkpt>
      <trkpt lat="43.76961" lon="6.66216">
        <ele>1095.416</ele>
        <time>2014-08-25T09:04:11Z</time>
      </trkpt>
      <trkpt lat="43.76945" lon="6.66149">
        <ele>1087.374</ele>
        <time>2014-08-25T09:04:19Z</time>
      </trkpt>
      <trkpt lat="43.76936" lon="6.66133">
        <ele>1084.363</ele>
        <time>2014-08-25T09:04:23Z</time>
      </trkpt>
      <trkpt lat="43.76923" lon="6.66125">
        <ele>1082.578</ele>
        <time>2014-08-25T09:04:27Z</time>
      </trkpt>
      <trkpt lat="43.76916" lon="6.66128">
        <ele>1081.49</ele>
        <time>2014-08-25T09:04:29Z</time>
      </trkpt>
      <trkpt lat="43.7691" lon="6.66134">
        <ele>1081.219</ele>
        <time>2014-08-25T09:04:31Z</time>
      </trkpt>
      <trkpt lat="43.76891" lon="6.66138">
        <ele>1079.481</ele>
        <time>2014-08-25T09:04:36Z</time>
      </trkpt>
      <trkpt lat="43.76882" lon="6.66118">
        <ele>1079.514</ele>
        <time>2014-08-25T09:04:39Z</time>
      </trkpt>
      <trkpt lat="43.7688" lon="6.66112">
        <ele>1078.744</ele>
        <time>2014-08-25T09:04:40Z</time>
      </trkpt>
      <trkpt lat="43.76859" lon="6.66074">
        <ele>1076.413</ele>
        <time>2014-08-25T09:04:49Z</time>
      </trkpt>
      <trkpt lat="43.76853" lon="6.66067">
        <ele>1076.068</ele>
        <time>2014-08-25T09:04:51Z</time>
      </trkpt>
      <trkpt lat="43.76839" lon="6.66052">
        <ele>1076.42</ele>
        <time>2014-08-25T09:04:55Z</time>
      </trkpt>
      <trkpt lat="43.76823" lon="6.66035">
        <ele>1076.245</ele>
        <time>2014-08-25T09:04:59Z</time>
      </trkpt>
      <trkpt lat="43.76808" lon="6.66024">
        <ele>1076.453</ele>
        <time>2014-08-25T09:05:02Z</time>
      </trkpt>
      <trkpt lat="43.76779" lon="6.66004">
        <ele>1074.83</ele>
        <time>2014-08-25T09:05:08Z</time>
      </trkpt>
      <trkpt lat="43.76756" lon="6.65982">
        <ele>1072.406</ele>
        <time>2014-08-25T09:05:12Z</time>
      </trkpt>
      <trkpt lat="43.76718" lon="6.65929">
        <ele>1070.421</ele>
        <time>2014-08-25T09:05:19Z</time>
      </trkpt>
      <trkpt lat="43.76706" lon="6.65913">
        <ele>1069.362</ele>
        <time>2014-08-25T09:05:21Z</time>
      </trkpt>
      <trkpt lat="43.76668" lon="6.65888">
        <ele>1067.261</ele>
        <time>2014-08-25T09:05:26Z</time>
      </trkpt>
      <trkpt lat="43.76621" lon="6.65863">
        <ele>1063.401</ele>
        <time>2014-08-25T09:05:32Z</time>
      </trkpt>
      <trkpt lat="43.76572" lon="6.65831">
        <ele>1063.015</ele>
        <time>2014-08-25T09:05:38Z</time>
      </trkpt>
      <trkpt lat="43.7655" lon="6.65811">
        <ele>1064.323</ele>
        <time>2014-08-25T09:05:41Z</time>
      </trkpt>
      <trkpt lat="43.76524" lon="6.65776">
        <ele>1066.822</ele>
        <time>2014-08-25T09:05:46Z</time>
      </trkpt>
      <trkpt lat="43.76504" lon="6.65733">
        <ele>1064.286</ele>
        <time>2014-08-25T09:05:51Z</time>
      </trkpt>
      <trkpt lat="43.765" lon="6.65725">
        <ele>1064.263</ele>
        <time>2014-08-25T09:05:52Z</time>
      </trkpt>
      <trkpt lat="43.76493" lon="6.6569">
        <ele>1064.023</ele>
        <time>2014-08-25T09:05:56Z</time>
      </trkpt>
      <trkpt lat="43.76491" lon="6.65653">
        <ele>1061.642</ele>
        <time>2014-08-25T09:06:01Z</time>
      </trkpt>
      <trkpt lat="43.76487" lon="6.65606">
        <ele>1059.402</ele>
        <time>2014-08-25T09:06:08Z</time>
      </trkpt>
      <trkpt lat="43.76483" lon="6.65578">
        <ele>1056.492</ele>
        <time>2014-08-25T09:06:12Z</time>
      </trkpt>
      <trkpt lat="43.76478" lon="6.65541">
        <ele>1053.847</ele>
        <time>2014-08-25T09:06:18Z</time>
      </trkpt>
      <trkpt lat="43.76476" lon="6.65518">
        <ele>1052.737</ele>
        <time>2014-08-25T09:06:23Z</time>
      </trkpt>
      <trkpt lat="43.76474" lon="6.65491">
        <ele>1050.429</ele>
        <time>2014-08-25T09:06:28Z</time>
      </trkpt>
      <trkpt lat="43.76472" lon="6.65483">
        <ele>1049.151</ele>
        <time>2014-08-25T09:06:32Z</time>
      </trkpt>
      <trkpt lat="43.76471" lon="6.65483">
        <ele>1048.453</ele>
        <time>2014-08-25T09:06:33Z</time>
      </trkpt>
      <trkpt lat="43.76463" lon="6.65487">
        <ele>1046.796</ele>
        <time>2014-08-25T09:06:37Z</time>
      </trkpt>
      <trkpt lat="43.7646" lon="6.65492">
        <ele>1046.315</ele>
        <time>2014-08-25T09:06:38Z</time>
      </trkpt>
      <trkpt lat="43.76442" lon="6.65538">
        <ele>1044.445</ele>
        <time>2014-08-25T09:06:45Z</time>
      </trkpt>
      <trkpt lat="43.76411" lon="6.65602">
        <ele>1042.514</ele>
        <time>2014-08-25T09:06:54Z</time>
      </trkpt>
      <trkpt lat="43.76384" lon="6.65653">
        <ele>1042.512</ele>
        <time>2014-08-25T09:07:02Z</time>
      </trkpt>
      <trkpt lat="43.76381" lon="6.6566">
        <ele>1042.46</ele>
        <time>2014-08-25T09:07:03Z</time>
      </trkpt>
      <trkpt lat="43.76355" lon="6.65691">
        <ele>1042.046</ele>
        <time>2014-08-25T09:07:09Z</time>
      </trkpt>
      <trkpt lat="43.7634" lon="6.65706">
        <ele>1042.096</ele>
        <time>2014-08-25T09:07:13Z</time>
      </trkpt>
      <trkpt lat="43.76308" lon="6.65736">
        <ele>1043.64</ele>
        <time>2014-08-25T09:07:22Z</time>
      </trkpt>
      <trkpt lat="43.76286" lon="6.65757">
        <ele>1044.376</ele>
        <time>2014-08-25T09:07:29Z</time>
      </trkpt>
      <trkpt lat="43.76273" lon="6.65764">
        <ele>1044.713</ele>
        <time>2014-08-25T09:07:34Z</time>
      </trkpt>
      <trkpt lat="43.7626" lon="6.6577">
        <ele>1043.652</ele>
        <time>2014-08-25T09:07:38Z</time>
      </trkpt>
      <trkpt lat="43.76242" lon="6.65772">
        <ele>1041.064</ele>
        <time>2014-08-25T09:07:43Z</time>
      </trkpt>
      <trkpt lat="43.76219" lon="6.65779">
        <ele>1036.727</ele>
        <time>2014-08-25T09:07:49Z</time>
      </trkpt>
      <trkpt lat="43.762" lon="6.65786">
        <ele>1032.792</ele>
        <time>2014-08-25T09:07:54Z</time>
      </trkpt>
      <trkpt lat="43.76174" lon="6.65799">
        <ele>1028.523</ele>
        <time>2014-08-25T09:08:00Z</time>
      </trkpt>
      <trkpt lat="43.76151" lon="6.65811">
        <ele>1025.693</ele>
        <time>2014-08-25T09:08:06Z</time>
      </trkpt>
      <trkpt lat="43.76141" lon="6.65811">
        <ele>1024.494</ele>
        <time>2014-08-25T09:08:10Z</time>
      </trkpt>
      <trkpt lat="43.76131" lon="6.65812">
        <ele>1024.998</ele>
        <time>2014-08-25T09:08:16Z</time>
      </trkpt>
      <trkpt lat="43.76123" lon="6.6582">
        <ele>1027.419</ele>
        <time>2014-08-25T09:08:22Z</time>
      </trkpt>
      <trkpt lat="43.76114" lon="6.65823">
        <ele>1027.905</ele>
        <time>2014-08-25T09:08:27Z</time>
      </trkpt>
      <trkpt lat="43.76109" lon="6.65816">
        <ele>1027.061</ele>
        <time>2014-08-25T09:08:31Z</time>
      </trkpt>
      <trkpt lat="43.76101" lon="6.65808">
        <ele>1029.027</ele>
        <time>2014-08-25T09:08:36Z</time>
      </trkpt>
      <trkpt lat="43.76095" lon="6.65795">
        <ele>1033.237</ele>
        <time>2014-08-25T09:08:43Z</time>
      </trkpt>
      <trkpt lat="43.76091" lon="6.65786">
        <ele>1034.931</ele>
        <time>2014-08-25T09:08:48Z</time>
      </trkpt>
      <trkpt lat="43.76087" lon="6.6578">
        <ele>1036.613</ele>
        <time>2014-08-25T09:08:52Z</time>
      </trkpt>
      <trkpt lat="43.76082" lon="6.65771">
        <ele>1039.8</ele>
        <time>2014-08-25T09:08:58Z</time>
      </trkpt>
      <trkpt lat="43.76079" lon="6.65769">
        <ele>1040.207</ele>
        <time>2014-08-25T09:09:01Z</time>
      </trkpt>
      <trkpt lat="43.76073" lon="6.65763">
        <ele>1040.043</ele>
        <time>2014-08-25T09:09:08Z</time>
      </trkpt>
      <trkpt lat="43.7607" lon="6.65759">
        <ele>1040.892</ele>
        <time>2014-08-25T09:09:12Z</time>
      </trkpt>
      <trkpt lat="43.76067" lon="6.65754">
        <ele>1041.655</ele>
        <time>2014-08-25T09:09:19Z</time>
      </trkpt>
      <trkpt lat="43.76063" lon="6.65748">
        <ele>1041.374</ele>
        <time>2014-08-25T09:09:27Z</time>
      </trkpt>
      <trkpt lat="43.76063" lon="6.65747">
        <ele>1043.404</ele>
        <time>2014-08-25T09:09:32Z</time>
      </trkpt>
      <trkpt lat="43.76064" lon="6.65744">
        <ele>1052.34</ele>
        <time>2014-08-25T09:09:45Z</time>
      </trkpt>
      <trkpt lat="43.76063" lon="6.65742">
        <ele>1053.138</ele>
        <time>2014-08-25T09:09:49Z</time>
      </trkpt>
      <trkpt lat="43.76054" lon="6.65741">
        <ele>1058.559</ele>
        <time>2014-08-25T09:09:59Z</time>
      </trkpt>
      <trkpt lat="43.7605" lon="6.65743">
        <ele>1057.273</ele>
        <time>2014-08-25T09:10:04Z</time>
      </trkpt>
      <trkpt lat="43.76049" lon="6.65744">
        <ele>1056.576</ele>
        <time>2014-08-25T09:10:07Z</time>
      </trkpt>
      <trkpt lat="43.76042" lon="6.6575">
        <ele>1057.377</ele>
        <time>2014-08-25T09:10:15Z</time>
      </trkpt>
      <trkpt lat="43.76041" lon="6.6575">
        <ele>1055.834</ele>
        <time>2014-08-25T09:10:21Z</time>
      </trkpt>
      <trkpt lat="43.76037" lon="6.65753">
        <ele>1050.273</ele>
        <time>2014-08-25T09:11:05Z</time>
      </trkpt>
      <trkpt lat="43.76036" lon="6.65754">
        <ele>1055.054</ele>
        <time>2014-08-25T09:11:10Z</time>
      </trkpt>
      <trkpt lat="43.76033" lon="6.65756">
        <ele>1058.089</ele>
        <time>2014-08-25T09:11:14Z</time>
      </trkpt>
      <trkpt lat="43.7603" lon="6.65764">
        <ele>1064.592</ele>
        <time>2014-08-25T09:11:25Z</time>
      </trkpt>
      <trkpt lat="43.76027" lon="6.65772">
        <ele>1065.266</ele>
        <time>2014-08-25T09:11:30Z</time>
      </trkpt>
      <trkpt lat="43.76024" lon="6.65777">
        <ele>1065.092</ele>
        <time>2014-08-25T09:11:33Z</time>
      </trkpt>
      <trkpt lat="43.76024" lon="6.65787">
        <ele>1066.972</ele>
        <time>2014-08-25T09:11:40Z</time>
      </trkpt>
      <trkpt lat="43.76022" lon="6.65792">
        <ele>1070.88</ele>
        <time>2014-08-25T09:11:45Z</time>
      </trkpt>
      <trkpt lat="43.76019" lon="6.65799">
        <ele>1070.39</ele>
        <time>2014-08-25T09:11:51Z</time>
      </trkpt>
      <trkpt lat="43.76017" lon="6.65802">
        <ele>1072.292</ele>
        <time>2014-08-25T09:11:55Z</time>
      </trkpt>
      <trkpt lat="43.76013" lon="6.65805">
        <ele>1071.838</ele>
        <time>2014-08-25T09:12:00Z</time>
      </trkpt>
      <trkpt lat="43.76009" lon="6.65808">
        <ele>1072.768</ele>
        <time>2014-08-25T09:12:05Z</time>
      </trkpt>
      <trkpt lat="43.76007" lon="6.65815">
        <ele>1072.402</ele>
        <time>2014-08-25T09:12:12Z</time>
      </trkpt>
      <trkpt lat="43.76005" lon="6.65823">
        <ele>1073.918</ele>
        <time>2014-08-25T09:12:19Z</time>
      </trkpt>
      <trkpt lat="43.76004" lon="6.65832">
        <ele>1075.053</ele>
        <time>2014-08-25T09:12:26Z</time>
      </trkpt>
      <trkpt lat="43.76002" lon="6.65836">
        <ele>1076.297</ele>
        <time>2014-08-25T09:12:34Z</time>
      </trkpt>
      <trkpt lat="43.76" lon="6.65841">
        <ele>1075.22</ele>
        <time>2014-08-25T09:12:40Z</time>
      </trkpt>
      <trkpt lat="43.75998" lon="6.65846">
        <ele>1072.634</ele>
        <time>2014-08-25T09:12:46Z</time>
      </trkpt>
      <trkpt lat="43.75995" lon="6.65852">
        <ele>1070.405</ele>
        <time>2014-08-25T09:12:52Z</time>
      </trkpt>
      <trkpt lat="43.75996" lon="6.65859">
        <ele>1073.254</ele>
        <time>2014-08-25T09:13:01Z</time>
      </trkpt>
      <trkpt lat="43.75995" lon="6.65867">
        <ele>1077.285</ele>
        <time>2014-08-25T09:13:07Z</time>
      </trkpt>
      <trkpt lat="43.75994" lon="6.65871">
        <ele>1077.943</ele>
        <time>2014-08-25T09:13:11Z</time>
      </trkpt>
      <trkpt lat="43.75994" lon="6.65875">
        <ele>1078.679</ele>
        <time>2014-08-25T09:13:15Z</time>
      </trkpt>
      <trkpt lat="43.75989" lon="6.65885">
        <ele>1077.842</ele>
        <time>2014-08-25T09:13:24Z</time>
      </trkpt>
      <trkpt lat="43.75985" lon="6.65893">
        <ele>1079.109</ele>
        <time>2014-08-25T09:13:31Z</time>
      </trkpt>
      <trkpt lat="43.75984" lon="6.65895">
        <ele>1081.48</ele>
        <time>2014-08-25T09:13:34Z</time>
      </trkpt>
      <trkpt lat="43.75981" lon="6.65903">
        <ele>1083.501</ele>
        <time>2014-08-25T09:13:40Z</time>
      </trkpt>
      <trkpt lat="43.75979" lon="6.65909">
        <ele>1082.056</ele>
        <time>2014-08-25T09:13:44Z</time>
      </trkpt>
      <trkpt lat="43.75976" lon="6.65914">
        <ele>1084.181</ele>
        <time>2014-08-25T09:13:49Z</time>
      </trkpt>
      <trkpt lat="43.75976" lon="6.65924">
        <ele>1086.152</ele>
        <time>2014-08-25T09:13:54Z</time>
      </trkpt>
      <trkpt lat="43.75975" lon="6.65929">
        <ele>1086.663</ele>
        <time>2014-08-25T09:13:58Z</time>
      </trkpt>
      <trkpt lat="43.75973" lon="6.65937">
        <ele>1090.675</ele>
        <time>2014-08-25T09:14:04Z</time>
      </trkpt>
      <trkpt lat="43.75972" lon="6.65948">
        <ele>1082.51</ele>
        <time>2014-08-25T09:14:43Z</time>
      </trkpt>
      <trkpt lat="43.7597" lon="6.65953">
        <ele>1083.629</ele>
        <time>2014-08-25T09:14:49Z</time>
      </trkpt>
      <trkpt lat="43.75964" lon="6.6596">
        <ele>1084.245</ele>
        <time>2014-08-25T09:15:03Z</time>
      </trkpt>
      <trkpt lat="43.75962" lon="6.65968">
        <ele>1082.042</ele>
        <time>2014-08-25T09:15:08Z</time>
      </trkpt>
      <trkpt lat="43.75963" lon="6.65974">
        <ele>1083.986</ele>
        <time>2014-08-25T09:15:13Z</time>
      </trkpt>
      <trkpt lat="43.75963" lon="6.65981">
        <ele>1083.028</ele>
        <time>2014-08-25T09:15:18Z</time>
      </trkpt>
      <trkpt lat="43.75961" lon="6.65987">
        <ele>1083.966</ele>
        <time>2014-08-25T09:15:25Z</time>
      </trkpt>
      <trkpt lat="43.75959" lon="6.65995">
        <ele>1083.66</ele>
        <time>2014-08-25T09:15:31Z</time>
      </trkpt>
      <trkpt lat="43.75955" lon="6.65998">
        <ele>1085.722</ele>
        <time>2014-08-25T09:15:36Z</time>
      </trkpt>
      <trkpt lat="43.75949" lon="6.66005">
        <ele>1091.942</ele>
        <time>2014-08-25T09:15:49Z</time>
      </trkpt>
      <trkpt lat="43.75947" lon="6.6601">
        <ele>1092.108</ele>
        <time>2014-08-25T09:15:53Z</time>
      </trkpt>
      <trkpt lat="43.75943" lon="6.66021">
        <ele>1089.856</ele>
        <time>2014-08-25T09:16:02Z</time>
      </trkpt>
      <trkpt lat="43.7594" lon="6.66023">
        <ele>1089.529</ele>
        <time>2014-08-25T09:16:06Z</time>
      </trkpt>
      <trkpt lat="43.75936" lon="6.66024">
        <ele>1089.468</ele>
        <time>2014-08-25T09:16:11Z</time>
      </trkpt>
      <trkpt lat="43.75934" lon="6.6603">
        <ele>1094.877</ele>
        <time>2014-08-25T09:16:21Z</time>
      </trkpt>
      <trkpt lat="43.75932" lon="6.6603">
        <ele>1098.581</ele>
        <time>2014-08-25T09:16:26Z</time>
      </trkpt>
      <trkpt lat="43.75929" lon="6.66035">
        <ele>1099.887</ele>
        <time>2014-08-25T09:16:34Z</time>
      </trkpt>
      <trkpt lat="43.75924" lon="6.66043">
        <ele>1097.499</ele>
        <time>2014-08-25T09:16:43Z</time>
      </trkpt>
      <trkpt lat="43.75921" lon="6.66047">
        <ele>1099.615</ele>
        <time>2014-08-25T09:16:51Z</time>
      </trkpt>
      <trkpt lat="43.75917" lon="6.6605">
        <ele>1101.102</ele>
        <time>2014-08-25T09:16:57Z</time>
      </trkpt>
      <trkpt lat="43.75913" lon="6.66054">
        <ele>1101.762</ele>
        <time>2014-08-25T09:17:04Z</time>
      </trkpt>
      <trkpt lat="43.75909" lon="6.66061">
        <ele>1100.086</ele>
        <time>2014-08-25T09:17:13Z</time>
      </trkpt>
      <trkpt lat="43.75908" lon="6.66063">
        <ele>1102.231</ele>
        <time>2014-08-25T09:17:18Z</time>
      </trkpt>
      <trkpt lat="43.75904" lon="6.6607">
        <ele>1104.128</ele>
        <time>2014-08-25T09:17:26Z</time>
      </trkpt>
      <trkpt lat="43.75901" lon="6.66072">
        <ele>1105.341</ele>
        <time>2014-08-25T09:17:32Z</time>
      </trkpt>
      <trkpt lat="43.75899" lon="6.66071">
        <ele>1106.322</ele>
        <time>2014-08-25T09:17:37Z</time>
      </trkpt>
      <trkpt lat="43.75895" lon="6.66074">
        <ele>1105.331</ele>
        <time>2014-08-25T09:17:44Z</time>
      </trkpt>
      <trkpt lat="43.75894" lon="6.66075">
        <ele>1104.68</ele>
        <time>2014-08-25T09:17:45Z</time>
      </trkpt>
      <trkpt lat="43.7589" lon="6.66077">
        <ele>1106.571</ele>
        <time>2014-08-25T09:17:51Z</time>
      </trkpt>
      <trkpt lat="43.75887" lon="6.66079">
        <ele>1106.549</ele>
        <time>2014-08-25T09:17:57Z</time>
      </trkpt>
      <trkpt lat="43.75882" lon="6.66088">
        <ele>1107.081</ele>
        <time>2014-08-25T09:18:09Z</time>
      </trkpt>
      <trkpt lat="43.7588" lon="6.6609">
        <ele>1107.303</ele>
        <time>2014-08-25T09:18:15Z</time>
      </trkpt>
      <trkpt lat="43.75876" lon="6.66088">
        <ele>1108.426</ele>
        <time>2014-08-25T09:18:22Z</time>
      </trkpt>
      <trkpt lat="43.75873" lon="6.66095">
        <ele>1115.858</ele>
        <time>2014-08-25T09:18:36Z</time>
      </trkpt>
      <trkpt lat="43.75872" lon="6.66096">
        <ele>1120.117</ele>
        <time>2014-08-25T09:18:41Z</time>
      </trkpt>
      <trkpt lat="43.7587" lon="6.66097">
        <ele>1126.417</ele>
        <time>2014-08-25T09:18:48Z</time>
      </trkpt>
      <trkpt lat="43.75869" lon="6.66099">
        <ele>1130.288</ele>
        <time>2014-08-25T09:18:52Z</time>
      </trkpt>
      <trkpt lat="43.75869" lon="6.661">
        <ele>1131.355</ele>
        <time>2014-08-25T09:18:53Z</time>
      </trkpt>
      <trkpt lat="43.75865" lon="6.66107">
        <ele>1128.477</ele>
        <time>2014-08-25T09:19:00Z</time>
      </trkpt>
      <trkpt lat="43.75858" lon="6.66126">
        <ele>1127.316</ele>
        <time>2014-08-25T09:19:13Z</time>
      </trkpt>
      <trkpt lat="43.75852" lon="6.66134">
        <ele>1123.31</ele>
        <time>2014-08-25T09:19:25Z</time>
      </trkpt>
      <trkpt lat="43.75852" lon="6.66135">
        <ele>1122.617</ele>
        <time>2014-08-25T09:19:26Z</time>
      </trkpt>
      <trkpt lat="43.75849" lon="6.66141">
        <ele>1123.211</ele>
        <time>2014-08-25T09:19:33Z</time>
      </trkpt>
      <trkpt lat="43.75841" lon="6.66145">
        <ele>1120.357</ele>
        <time>2014-08-25T09:19:42Z</time>
      </trkpt>
      <trkpt lat="43.75839" lon="6.66149">
        <ele>1121.831</ele>
        <time>2014-08-25T09:19:48Z</time>
      </trkpt>
      <trkpt lat="43.75834" lon="6.66153">
        <ele>1123.305</ele>
        <time>2014-08-25T09:19:55Z</time>
      </trkpt>
      <trkpt lat="43.75832" lon="6.66158">
        <ele>1125.273</ele>
        <time>2014-08-25T09:20:02Z</time>
      </trkpt>
      <trkpt lat="43.75832" lon="6.66163">
        <ele>1128.994</ele>
        <time>2014-08-25T09:20:08Z</time>
      </trkpt>
      <trkpt lat="43.75832" lon="6.66165">
        <ele>1135.395</ele>
        <time>2014-08-25T09:20:17Z</time>
      </trkpt>
      <trkpt lat="43.75832" lon="6.66168">
        <ele>1137.978</ele>
        <time>2014-08-25T09:20:21Z</time>
      </trkpt>
      <trkpt lat="43.75826" lon="6.66171">
        <ele>1137.558</ele>
        <time>2014-08-25T09:20:27Z</time>
      </trkpt>
      <trkpt lat="43.75823" lon="6.66174">
        <ele>1138.669</ele>
        <time>2014-08-25T09:20:32Z</time>
      </trkpt>
      <trkpt lat="43.75816" lon="6.6618">
        <ele>1135.674</ele>
        <time>2014-08-25T09:20:40Z</time>
      </trkpt>
      <trkpt lat="43.75815" lon="6.66184">
        <ele>1135.866</ele>
        <time>2014-08-25T09:20:45Z</time>
      </trkpt>
      <trkpt lat="43.75811" lon="6.66191">
        <ele>1138.824</ele>
        <time>2014-08-25T09:20:51Z</time>
      </trkpt>
      <trkpt lat="43.75813" lon="6.662">
        <ele>1143.641</ele>
        <time>2014-08-25T09:20:57Z</time>
      </trkpt>
      <trkpt lat="43.75814" lon="6.66205">
        <ele>1147.634</ele>
        <time>2014-08-25T09:21:01Z</time>
      </trkpt>
      <trkpt lat="43.75816" lon="6.66249">
        <ele>1161.265</ele>
        <time>2014-08-25T09:21:52Z</time>
      </trkpt>
      <trkpt lat="43.75807" lon="6.6627">
        <ele>1152.965</ele>
        <time>2014-08-25T09:22:11Z</time>
      </trkpt>
      <trkpt lat="43.75806" lon="6.66277">
        <ele>1161.442</ele>
        <time>2014-08-25T09:22:22Z</time>
      </trkpt>
      <trkpt lat="43.75806" lon="6.66281">
        <ele>1162.038</ele>
        <time>2014-08-25T09:22:27Z</time>
      </trkpt>
      <trkpt lat="43.75805" lon="6.66291">
        <ele>1161.235</ele>
        <time>2014-08-25T09:22:34Z</time>
      </trkpt>
      <trkpt lat="43.75804" lon="6.66297">
        <ele>1163.171</ele>
        <time>2014-08-25T09:22:40Z</time>
      </trkpt>
      <trkpt lat="43.75805" lon="6.66304">
        <ele>1164.982</ele>
        <time>2014-08-25T09:22:47Z</time>
      </trkpt>
      <trkpt lat="43.75802" lon="6.66312">
        <ele>1163.898</ele>
        <time>2014-08-25T09:22:59Z</time>
      </trkpt>
      <trkpt lat="43.758" lon="6.66319">
        <ele>1164.757</ele>
        <time>2014-08-25T09:23:06Z</time>
      </trkpt>
      <trkpt lat="43.75796" lon="6.66328">
        <ele>1165.076</ele>
        <time>2014-08-25T09:23:13Z</time>
      </trkpt>
      <trkpt lat="43.75794" lon="6.66334">
        <ele>1163.475</ele>
        <time>2014-08-25T09:23:19Z</time>
      </trkpt>
      <trkpt lat="43.75788" lon="6.66345">
        <ele>1163.013</ele>
        <time>2014-08-25T09:23:30Z</time>
      </trkpt>
      <trkpt lat="43.75784" lon="6.66354">
        <ele>1164.775</ele>
        <time>2014-08-25T09:23:38Z</time>
      </trkpt>
      <trkpt lat="43.7578" lon="6.66361">
        <ele>1164.403</ele>
        <time>2014-08-25T09:23:46Z</time>
      </trkpt>
      <trkpt lat="43.75777" lon="6.66369">
        <ele>1166.73</ele>
        <time>2014-08-25T09:23:53Z</time>
      </trkpt>
      <trkpt lat="43.75773" lon="6.66378">
        <ele>1171.398</ele>
        <time>2014-08-25T09:24:02Z</time>
      </trkpt>
      <trkpt lat="43.75771" lon="6.66381">
        <ele>1171.536</ele>
        <time>2014-08-25T09:24:07Z</time>
      </trkpt>
      <trkpt lat="43.7577" lon="6.66384">
        <ele>1172.89</ele>
        <time>2014-08-25T09:24:13Z</time>
      </trkpt>
      <trkpt lat="43.75768" lon="6.66388">
        <ele>1173.585</ele>
        <time>2014-08-25T09:24:18Z</time>
      </trkpt>
      <trkpt lat="43.75764" lon="6.66395">
        <ele>1171.794</ele>
        <time>2014-08-25T09:24:25Z</time>
      </trkpt>
      <trkpt lat="43.75762" lon="6.66396">
        <ele>1177.086</ele>
        <time>2014-08-25T09:24:31Z</time>
      </trkpt>
      <trkpt lat="43.75758" lon="6.664">
        <ele>1179.257</ele>
        <time>2014-08-25T09:24:38Z</time>
      </trkpt>
      <trkpt lat="43.75761" lon="6.66402">
        <ele>1184.548</ele>
        <time>2014-08-25T09:24:50Z</time>
      </trkpt>
      <trkpt lat="43.75759" lon="6.66405">
        <ele>1184.841</ele>
        <time>2014-08-25T09:24:56Z</time>
      </trkpt>
      <trkpt lat="43.75749" lon="6.66415">
        <ele>1182.695</ele>
        <time>2014-08-25T09:25:04Z</time>
      </trkpt>
      <trkpt lat="43.75746" lon="6.66419">
        <ele>1183.106</ele>
        <time>2014-08-25T09:25:08Z</time>
      </trkpt>
      <trkpt lat="43.75746" lon="6.66422">
        <ele>1182.986</ele>
        <time>2014-08-25T09:25:10Z</time>
      </trkpt>
      <trkpt lat="43.75744" lon="6.66426">
        <ele>1183.198</ele>
        <time>2014-08-25T09:25:13Z</time>
      </trkpt>
      <trkpt lat="43.75738" lon="6.6643">
        <ele>1184.001</ele>
        <time>2014-08-25T09:25:18Z</time>
      </trkpt>
      <trkpt lat="43.75727" lon="6.66437">
        <ele>1183.307</ele>
        <time>2014-08-25T09:25:27Z</time>
      </trkpt>
      <trkpt lat="43.75726" lon="6.66435">
        <ele>1183.454</ele>
        <time>2014-08-25T09:25:32Z</time>
      </trkpt>
      <trkpt lat="43.75726" lon="6.6643">
        <ele>1197.431</ele>
        <time>2014-08-25T09:26:57Z</time>
      </trkpt>
      <trkpt lat="43.75722" lon="6.66429">
        <ele>1199.078</ele>
        <time>2014-08-25T09:27:03Z</time>
      </trkpt>
      <trkpt lat="43.75716" lon="6.66428">
        <ele>1198.523</ele>
        <time>2014-08-25T09:27:10Z</time>
      </trkpt>
      <trkpt lat="43.75714" lon="6.66427">
        <ele>1198.062</ele>
        <time>2014-08-25T09:27:15Z</time>
      </trkpt>
      <trkpt lat="43.75707" lon="6.66426">
        <ele>1193.337</ele>
        <time>2014-08-25T09:27:24Z</time>
      </trkpt>
      <trkpt lat="43.75706" lon="6.66425">
        <ele>1193.422</ele>
        <time>2014-08-25T09:27:29Z</time>
      </trkpt>
      <trkpt lat="43.75703" lon="6.66426">
        <ele>1194.192</ele>
        <time>2014-08-25T09:27:34Z</time>
      </trkpt>
      <trkpt lat="43.757" lon="6.66426">
        <ele>1197.66</ele>
        <time>2014-08-25T09:27:40Z</time>
      </trkpt>
      <trkpt lat="43.75698" lon="6.66425">
        <ele>1199.76</ele>
        <time>2014-08-25T09:27:45Z</time>
      </trkpt>
      <trkpt lat="43.75698" lon="6.66423">
        <ele>1200.22</ele>
        <time>2014-08-25T09:27:47Z</time>
      </trkpt>
      <trkpt lat="43.75702" lon="6.66418">
        <ele>1199.675</ele>
        <time>2014-08-25T09:27:56Z</time>
      </trkpt>
      <trkpt lat="43.75705" lon="6.66416">
        <ele>1201.45</ele>
        <time>2014-08-25T09:28:01Z</time>
      </trkpt>
      <trkpt lat="43.75703" lon="6.66412">
        <ele>1203.733</ele>
        <time>2014-08-25T09:28:06Z</time>
      </trkpt>
      <trkpt lat="43.75703" lon="6.66406">
        <ele>1202.547</ele>
        <time>2014-08-25T09:28:12Z</time>
      </trkpt>
      <trkpt lat="43.75704" lon="6.66402">
        <ele>1204.081</ele>
        <time>2014-08-25T09:28:19Z</time>
      </trkpt>
      <trkpt lat="43.75702" lon="6.66398">
        <ele>1203.739</ele>
        <time>2014-08-25T09:28:25Z</time>
      </trkpt>
      <trkpt lat="43.75702" lon="6.6639">
        <ele>1201.233</ele>
        <time>2014-08-25T09:28:31Z</time>
      </trkpt>
      <trkpt lat="43.75701" lon="6.6638">
        <ele>1203.08</ele>
        <time>2014-08-25T09:28:41Z</time>
      </trkpt>
      <trkpt lat="43.757" lon="6.66369">
        <ele>1204.677</ele>
        <time>2014-08-25T09:28:50Z</time>
      </trkpt>
      <trkpt lat="43.75697" lon="6.66361">
        <ele>1207.671</ele>
        <time>2014-08-25T09:28:59Z</time>
      </trkpt>
      <trkpt lat="43.75697" lon="6.66355">
        <ele>1209.071</ele>
        <time>2014-08-25T09:29:05Z</time>
      </trkpt>
      <trkpt lat="43.75697" lon="6.66349">
        <ele>1212.514</ele>
        <time>2014-08-25T09:29:10Z</time>
      </trkpt>
      <trkpt lat="43.75698" lon="6.66345">
        <ele>1212.622</ele>
        <time>2014-08-25T09:29:13Z</time>
      </trkpt>
      <trkpt lat="43.75699" lon="6.66338">
        <ele>1215.384</ele>
        <time>2014-08-25T09:29:19Z</time>
      </trkpt>
      <trkpt lat="43.75698" lon="6.66334">
        <ele>1218.268</ele>
        <time>2014-08-25T09:29:23Z</time>
      </trkpt>
      <trkpt lat="43.75694" lon="6.66326">
        <ele>1221.181</ele>
        <time>2014-08-25T09:29:30Z</time>
      </trkpt>
      <trkpt lat="43.75689" lon="6.66322">
        <ele>1213.075</ele>
        <time>2014-08-25T09:29:56Z</time>
      </trkpt>
      <trkpt lat="43.75692" lon="6.6631">
        <ele>1211.375</ele>
        <time>2014-08-25T09:30:01Z</time>
      </trkpt>
      <trkpt lat="43.75696" lon="6.66286">
        <ele>1208.842</ele>
        <time>2014-08-25T09:30:06Z</time>
      </trkpt>
      <trkpt lat="43.75697" lon="6.66256">
        <ele>1204.86</ele>
        <time>2014-08-25T09:30:11Z</time>
      </trkpt>
      <trkpt lat="43.75697" lon="6.66249">
        <ele>1203.978</ele>
        <time>2014-08-25T09:30:12Z</time>
      </trkpt>
      <trkpt lat="43.75709" lon="6.66201">
        <ele>1197.631</ele>
        <time>2014-08-25T09:30:18Z</time>
      </trkpt>
      <trkpt lat="43.75732" lon="6.66129">
        <ele>1188.126</ele>
        <time>2014-08-25T09:30:26Z</time>
      </trkpt>
      <trkpt lat="43.7575" lon="6.66093">
        <ele>1185.042</ele>
        <time>2014-08-25T09:30:31Z</time>
      </trkpt>
      <trkpt lat="43.7576" lon="6.66078">
        <ele>1183.626</ele>
        <time>2014-08-25T09:30:34Z</time>
      </trkpt>
      <trkpt lat="43.75768" lon="6.66071">
        <ele>1182.805</ele>
        <time>2014-08-25T09:30:36Z</time>
      </trkpt>
      <trkpt lat="43.75783" lon="6.66055">
        <ele>1180.683</ele>
        <time>2014-08-25T09:30:40Z</time>
      </trkpt>
      <trkpt lat="43.75798" lon="6.66027">
        <ele>1178.827</ele>
        <time>2014-08-25T09:30:45Z</time>
      </trkpt>
      <trkpt lat="43.75806" lon="6.66006">
        <ele>1178.342</ele>
        <time>2014-08-25T09:30:50Z</time>
      </trkpt>
      <trkpt lat="43.75809" lon="6.65984">
        <ele>1179.124</ele>
        <time>2014-08-25T09:30:55Z</time>
      </trkpt>
      <trkpt lat="43.75806" lon="6.65965">
        <ele>1179.685</ele>
        <time>2014-08-25T09:31:00Z</time>
      </trkpt>
      <trkpt lat="43.75809" lon="6.65947">
        <ele>1180.986</ele>
        <time>2014-08-25T09:31:06Z</time>
      </trkpt>
      <trkpt lat="43.75814" lon="6.65925">
        <ele>1183.978</ele>
        <time>2014-08-25T09:31:13Z</time>
      </trkpt>
      <trkpt lat="43.75812" lon="6.65911">
        <ele>1188.479</ele>
        <time>2014-08-25T09:31:19Z</time>
      </trkpt>
      <trkpt lat="43.75807" lon="6.65897">
        <ele>1195.425</ele>
        <time>2014-08-25T09:31:25Z</time>
      </trkpt>
      <trkpt lat="43.75805" lon="6.6589">
        <ele>1199.776</ele>
        <time>2014-08-25T09:31:29Z</time>
      </trkpt>
      <trkpt lat="43.75801" lon="6.65882">
        <ele>1201.73</ele>
        <time>2014-08-25T09:31:34Z</time>
      </trkpt>
      <trkpt lat="43.75801" lon="6.6588">
        <ele>1202.561</ele>
        <time>2014-08-25T09:31:35Z</time>
      </trkpt>
      <trkpt lat="43.75797" lon="6.65871">
        <ele>1204.398</ele>
        <time>2014-08-25T09:31:41Z</time>
      </trkpt>
      <trkpt lat="43.75796" lon="6.65865">
        <ele>1206.262</ele>
        <time>2014-08-25T09:31:44Z</time>
      </trkpt>
      <trkpt lat="43.75792" lon="6.65861">
        <ele>1206.89</ele>
        <time>2014-08-25T09:31:47Z</time>
      </trkpt>
      <trkpt lat="43.75789" lon="6.65849">
        <ele>1209.23</ele>
        <time>2014-08-25T09:31:54Z</time>
      </trkpt>
      <trkpt lat="43.75788" lon="6.65845">
        <ele>1210.3</ele>
        <time>2014-08-25T09:31:57Z</time>
      </trkpt>
      <trkpt lat="43.75781" lon="6.65833">
        <ele>1210.245</ele>
        <time>2014-08-25T09:32:04Z</time>
      </trkpt>
      <trkpt lat="43.75777" lon="6.6582">
        <ele>1211.096</ele>
        <time>2014-08-25T09:32:12Z</time>
      </trkpt>
      <trkpt lat="43.75771" lon="6.65807">
        <ele>1212.095</ele>
        <time>2014-08-25T09:32:20Z</time>
      </trkpt>
      <trkpt lat="43.75766" lon="6.65794">
        <ele>1213.854</ele>
        <time>2014-08-25T09:32:28Z</time>
      </trkpt>
      <trkpt lat="43.75761" lon="6.65777">
        <ele>1217.3</ele>
        <time>2014-08-25T09:32:37Z</time>
      </trkpt>
      <trkpt lat="43.75756" lon="6.65766">
        <ele>1216.072</ele>
        <time>2014-08-25T09:32:44Z</time>
      </trkpt>
      <trkpt lat="43.75755" lon="6.65765">
        <ele>1216.082</ele>
        <time>2014-08-25T09:32:45Z</time>
      </trkpt>
      <trkpt lat="43.75749" lon="6.65752">
        <ele>1217.532</ele>
        <time>2014-08-25T09:32:53Z</time>
      </trkpt>
      <trkpt lat="43.75746" lon="6.65742">
        <ele>1220.126</ele>
        <time>2014-08-25T09:32:59Z</time>
      </trkpt>
      <trkpt lat="43.75743" lon="6.65731">
        <ele>1222.861</ele>
        <time>2014-08-25T09:33:05Z</time>
      </trkpt>
      <trkpt lat="43.75738" lon="6.65719">
        <ele>1224.43</ele>
        <time>2014-08-25T09:33:11Z</time>
      </trkpt>
      <trkpt lat="43.75732" lon="6.65701">
        <ele>1224.866</ele>
        <time>2014-08-25T09:33:19Z</time>
      </trkpt>
      <trkpt lat="43.75726" lon="6.65681">
        <ele>1226.496</ele>
        <time>2014-08-25T09:33:28Z</time>
      </trkpt>
      <trkpt lat="43.75722" lon="6.65667">
        <ele>1227.297</ele>
        <time>2014-08-25T09:33:34Z</time>
      </trkpt>
      <trkpt lat="43.75713" lon="6.65651">
        <ele>1225.8</ele>
        <time>2014-08-25T09:33:41Z</time>
      </trkpt>
      <trkpt lat="43.75711" lon="6.65644">
        <ele>1226.412</ele>
        <time>2014-08-25T09:33:44Z</time>
      </trkpt>
      <trkpt lat="43.75702" lon="6.65631">
        <ele>1225.166</ele>
        <time>2014-08-25T09:33:50Z</time>
      </trkpt>
      <trkpt lat="43.75697" lon="6.65615">
        <ele>1225.299</ele>
        <time>2014-08-25T09:33:55Z</time>
      </trkpt>
      <trkpt lat="43.7569" lon="6.65591">
        <ele>1227.344</ele>
        <time>2014-08-25T09:34:02Z</time>
      </trkpt>
      <trkpt lat="43.75681" lon="6.65565">
        <ele>1224.408</ele>
        <time>2014-08-25T09:34:09Z</time>
      </trkpt>
      <trkpt lat="43.75668" lon="6.65537">
        <ele>1221.526</ele>
        <time>2014-08-25T09:34:17Z</time>
      </trkpt>
      <trkpt lat="43.75657" lon="6.6551">
        <ele>1222.192</ele>
        <time>2014-08-25T09:34:25Z</time>
      </trkpt>
      <trkpt lat="43.75646" lon="6.65478">
        <ele>1221.628</ele>
        <time>2014-08-25T09:34:33Z</time>
      </trkpt>
      <trkpt lat="43.75633" lon="6.65439">
        <ele>1220.597</ele>
        <time>2014-08-25T09:34:41Z</time>
      </trkpt>
      <trkpt lat="43.75622" lon="6.65408">
        <ele>1222</ele>
        <time>2014-08-25T09:34:47Z</time>
      </trkpt>
      <trkpt lat="43.75619" lon="6.65389">
        <ele>1223.361</ele>
        <time>2014-08-25T09:34:52Z</time>
      </trkpt>
      <trkpt lat="43.75611" lon="6.65354">
        <ele>1222.778</ele>
        <time>2014-08-25T09:35:00Z</time>
      </trkpt>
      <trkpt lat="43.75604" lon="6.65322">
        <ele>1224.471</ele>
        <time>2014-08-25T09:35:07Z</time>
      </trkpt>
      <trkpt lat="43.75597" lon="6.6529">
        <ele>1224.629</ele>
        <time>2014-08-25T09:35:16Z</time>
      </trkpt>
      <trkpt lat="43.75592" lon="6.65272">
        <ele>1225.176</ele>
        <time>2014-08-25T09:35:21Z</time>
      </trkpt>
      <trkpt lat="43.75583" lon="6.65241">
        <ele>1227.467</ele>
        <time>2014-08-25T09:35:29Z</time>
      </trkpt>
      <trkpt lat="43.75579" lon="6.65214">
        <ele>1227.396</ele>
        <time>2014-08-25T09:35:36Z</time>
      </trkpt>
      <trkpt lat="43.75571" lon="6.65187">
        <ele>1226.317</ele>
        <time>2014-08-25T09:35:44Z</time>
      </trkpt>
      <trkpt lat="43.75564" lon="6.65164">
        <ele>1225.686</ele>
        <time>2014-08-25T09:35:51Z</time>
      </trkpt>
      <trkpt lat="43.7556" lon="6.65143">
        <ele>1223.947</ele>
        <time>2014-08-25T09:35:58Z</time>
      </trkpt>
      <trkpt lat="43.75558" lon="6.6514">
        <ele>1224.6</ele>
        <time>2014-08-25T09:36:03Z</time>
      </trkpt>
      <trkpt lat="43.75557" lon="6.65135">
        <ele>1222.914</ele>
        <time>2014-08-25T09:36:07Z</time>
      </trkpt>
      <trkpt lat="43.75554" lon="6.65132">
        <ele>1214.391</ele>
        <time>2014-08-25T09:36:25Z</time>
      </trkpt>
      <trkpt lat="43.75554" lon="6.65123">
        <ele>1215.863</ele>
        <time>2014-08-25T09:36:30Z</time>
      </trkpt>
      <trkpt lat="43.75545" lon="6.65107">
        <ele>1212.848</ele>
        <time>2014-08-25T09:36:36Z</time>
      </trkpt>
      <trkpt lat="43.75543" lon="6.65102">
        <ele>1212.493</ele>
        <time>2014-08-25T09:36:37Z</time>
      </trkpt>
      <trkpt lat="43.7553" lon="6.65068">
        <ele>1211.964</ele>
        <time>2014-08-25T09:36:44Z</time>
      </trkpt>
      <trkpt lat="43.75522" lon="6.65044">
        <ele>1214.54</ele>
        <time>2014-08-25T09:36:49Z</time>
      </trkpt>
      <trkpt lat="43.75514" lon="6.65013">
        <ele>1216.559</ele>
        <time>2014-08-25T09:36:55Z</time>
      </trkpt>
      <trkpt lat="43.75507" lon="6.64992">
        <ele>1214.472</ele>
        <time>2014-08-25T09:36:59Z</time>
      </trkpt>
      <trkpt lat="43.75494" lon="6.64957">
        <ele>1211.788</ele>
        <time>2014-08-25T09:37:06Z</time>
      </trkpt>
      <trkpt lat="43.75482" lon="6.6493">
        <ele>1209.947</ele>
        <time>2014-08-25T09:37:12Z</time>
      </trkpt>
      <trkpt lat="43.75464" lon="6.64899">
        <ele>1207.456</ele>
        <time>2014-08-25T09:37:19Z</time>
      </trkpt>
      <trkpt lat="43.75444" lon="6.64874">
        <ele>1205.236</ele>
        <time>2014-08-25T09:37:26Z</time>
      </trkpt>
      <trkpt lat="43.75431" lon="6.64862">
        <ele>1205.28</ele>
        <time>2014-08-25T09:37:30Z</time>
      </trkpt>
      <trkpt lat="43.75423" lon="6.64851">
        <ele>1207.517</ele>
        <time>2014-08-25T09:37:33Z</time>
      </trkpt>
      <trkpt lat="43.75418" lon="6.64821">
        <ele>1211.345</ele>
        <time>2014-08-25T09:37:38Z</time>
      </trkpt>
      <trkpt lat="43.75411" lon="6.64797">
        <ele>1208.916</ele>
        <time>2014-08-25T09:37:43Z</time>
      </trkpt>
      <trkpt lat="43.75398" lon="6.64769">
        <ele>1205.641</ele>
        <time>2014-08-25T09:37:49Z</time>
      </trkpt>
      <trkpt lat="43.75381" lon="6.64728">
        <ele>1201.511</ele>
        <time>2014-08-25T09:37:55Z</time>
      </trkpt>
      <trkpt lat="43.7537" lon="6.64707">
        <ele>1201.196</ele>
        <time>2014-08-25T09:37:59Z</time>
      </trkpt>
      <trkpt lat="43.75356" lon="6.64669">
        <ele>1206.25</ele>
        <time>2014-08-25T09:38:07Z</time>
      </trkpt>
      <trkpt lat="43.75345" lon="6.64644">
        <ele>1205.45</ele>
        <time>2014-08-25T09:38:12Z</time>
      </trkpt>
      <trkpt lat="43.75336" lon="6.6462">
        <ele>1204.597</ele>
        <time>2014-08-25T09:38:16Z</time>
      </trkpt>
      <trkpt lat="43.75322" lon="6.64573">
        <ele>1202.851</ele>
        <time>2014-08-25T09:38:24Z</time>
      </trkpt>
      <trkpt lat="43.75318" lon="6.64543">
        <ele>1204.408</ele>
        <time>2014-08-25T09:38:30Z</time>
      </trkpt>
      <trkpt lat="43.75306" lon="6.64508">
        <ele>1199.758</ele>
        <time>2014-08-25T09:38:37Z</time>
      </trkpt>
      <trkpt lat="43.75293" lon="6.64474">
        <ele>1194.759</ele>
        <time>2014-08-25T09:38:44Z</time>
      </trkpt>
      <trkpt lat="43.75285" lon="6.64461">
        <ele>1193.912</ele>
        <time>2014-08-25T09:38:48Z</time>
      </trkpt>
      <trkpt lat="43.75275" lon="6.64447">
        <ele>1194.764</ele>
        <time>2014-08-25T09:38:53Z</time>
      </trkpt>
      <trkpt lat="43.7527" lon="6.64424">
        <ele>1196.777</ele>
        <time>2014-08-25T09:38:59Z</time>
      </trkpt>
      <trkpt lat="43.75262" lon="6.6441">
        <ele>1199.372</ele>
        <time>2014-08-25T09:39:04Z</time>
      </trkpt>
      <trkpt lat="43.75253" lon="6.64399">
        <ele>1201.321</ele>
        <time>2014-08-25T09:39:10Z</time>
      </trkpt>
      <trkpt lat="43.75246" lon="6.64384">
        <ele>1206.992</ele>
        <time>2014-08-25T09:39:16Z</time>
      </trkpt>
      <trkpt lat="43.75244" lon="6.64368">
        <ele>1212.415</ele>
        <time>2014-08-25T09:39:22Z</time>
      </trkpt>
      <trkpt lat="43.75235" lon="6.64347">
        <ele>1213.069</ele>
        <time>2014-08-25T09:39:30Z</time>
      </trkpt>
      <trkpt lat="43.75226" lon="6.64322">
        <ele>1211.161</ele>
        <time>2014-08-25T09:39:38Z</time>
      </trkpt>
      <trkpt lat="43.75217" lon="6.64307">
        <ele>1213.671</ele>
        <time>2014-08-25T09:39:45Z</time>
      </trkpt>
      <trkpt lat="43.75213" lon="6.6429">
        <ele>1214.807</ele>
        <time>2014-08-25T09:39:51Z</time>
      </trkpt>
      <trkpt lat="43.75207" lon="6.64275">
        <ele>1218.024</ele>
        <time>2014-08-25T09:39:57Z</time>
      </trkpt>
      <trkpt lat="43.75199" lon="6.64263">
        <ele>1220.034</ele>
        <time>2014-08-25T09:40:03Z</time>
      </trkpt>
      <trkpt lat="43.7519" lon="6.64244">
        <ele>1222.123</ele>
        <time>2014-08-25T09:40:11Z</time>
      </trkpt>
      <trkpt lat="43.75185" lon="6.64229">
        <ele>1225.233</ele>
        <time>2014-08-25T09:40:17Z</time>
      </trkpt>
      <trkpt lat="43.75184" lon="6.64224">
        <ele>1225.485</ele>
        <time>2014-08-25T09:40:19Z</time>
      </trkpt>
      <trkpt lat="43.75183" lon="6.64211">
        <ele>1227.176</ele>
        <time>2014-08-25T09:40:23Z</time>
      </trkpt>
      <trkpt lat="43.75181" lon="6.64202">
        <ele>1229.437</ele>
        <time>2014-08-25T09:40:27Z</time>
      </trkpt>
      <trkpt lat="43.75176" lon="6.64191">
        <ele>1228.2</ele>
        <time>2014-08-25T09:40:32Z</time>
      </trkpt>
      <trkpt lat="43.75168" lon="6.64172">
        <ele>1223.386</ele>
        <time>2014-08-25T09:40:39Z</time>
      </trkpt>
      <trkpt lat="43.75167" lon="6.64167">
        <ele>1223.317</ele>
        <time>2014-08-25T09:40:41Z</time>
      </trkpt>
      <trkpt lat="43.75161" lon="6.64155">
        <ele>1220.749</ele>
        <time>2014-08-25T09:40:46Z</time>
      </trkpt>
      <trkpt lat="43.75154" lon="6.6414">
        <ele>1222.525</ele>
        <time>2014-08-25T09:40:53Z</time>
      </trkpt>
      <trkpt lat="43.75151" lon="6.64124">
        <ele>1225.638</ele>
        <time>2014-08-25T09:41:00Z</time>
      </trkpt>
      <trkpt lat="43.75149" lon="6.64106">
        <ele>1230.86</ele>
        <time>2014-08-25T09:41:07Z</time>
      </trkpt>
      <trkpt lat="43.75144" lon="6.64093">
        <ele>1231.988</ele>
        <time>2014-08-25T09:41:13Z</time>
      </trkpt>
      <trkpt lat="43.7514" lon="6.64073">
        <ele>1235.022</ele>
        <time>2014-08-25T09:41:21Z</time>
      </trkpt>
      <trkpt lat="43.75135" lon="6.64054">
        <ele>1235.91</ele>
        <time>2014-08-25T09:41:28Z</time>
      </trkpt>
      <trkpt lat="43.75131" lon="6.64034">
        <ele>1238.179</ele>
        <time>2014-08-25T09:41:36Z</time>
      </trkpt>
      <trkpt lat="43.75131" lon="6.6402">
        <ele>1240.752</ele>
        <time>2014-08-25T09:41:42Z</time>
      </trkpt>
      <trkpt lat="43.75125" lon="6.64006">
        <ele>1239.105</ele>
        <time>2014-08-25T09:41:48Z</time>
      </trkpt>
      <trkpt lat="43.75123" lon="6.64001">
        <ele>1238.201</ele>
        <time>2014-08-25T09:41:50Z</time>
      </trkpt>
      <trkpt lat="43.75123" lon="6.63985">
        <ele>1241.236</ele>
        <time>2014-08-25T09:41:56Z</time>
      </trkpt>
      <trkpt lat="43.75121" lon="6.63962">
        <ele>1243.92</ele>
        <time>2014-08-25T09:42:04Z</time>
      </trkpt>
      <trkpt lat="43.75115" lon="6.63946">
        <ele>1242.582</ele>
        <time>2014-08-25T09:42:10Z</time>
      </trkpt>
      <trkpt lat="43.75111" lon="6.63928">
        <ele>1240.554</ele>
        <time>2014-08-25T09:42:16Z</time>
      </trkpt>
      <trkpt lat="43.75105" lon="6.63909">
        <ele>1239.599</ele>
        <time>2014-08-25T09:42:23Z</time>
      </trkpt>
      <trkpt lat="43.75106" lon="6.63894">
        <ele>1246.2</ele>
        <time>2014-08-25T09:42:29Z</time>
      </trkpt>
      <trkpt lat="43.75102" lon="6.63881">
        <ele>1244.825</ele>
        <time>2014-08-25T09:42:35Z</time>
      </trkpt>
      <trkpt lat="43.75093" lon="6.6386">
        <ele>1243.238</ele>
        <time>2014-08-25T09:42:44Z</time>
      </trkpt>
      <trkpt lat="43.7509" lon="6.63846">
        <ele>1246.438</ele>
        <time>2014-08-25T09:42:51Z</time>
      </trkpt>
      <trkpt lat="43.75086" lon="6.6383">
        <ele>1245.262</ele>
        <time>2014-08-25T09:42:57Z</time>
      </trkpt>
      <trkpt lat="43.75082" lon="6.63814">
        <ele>1244.888</ele>
        <time>2014-08-25T09:43:04Z</time>
      </trkpt>
      <trkpt lat="43.75076" lon="6.638">
        <ele>1243.134</ele>
        <time>2014-08-25T09:43:10Z</time>
      </trkpt>
      <trkpt lat="43.75066" lon="6.63778">
        <ele>1241.654</ele>
        <time>2014-08-25T09:43:20Z</time>
      </trkpt>
      <trkpt lat="43.75057" lon="6.63766">
        <ele>1242.966</ele>
        <time>2014-08-25T09:43:27Z</time>
      </trkpt>
      <trkpt lat="43.7505" lon="6.63749">
        <ele>1245.994</ele>
        <time>2014-08-25T09:43:35Z</time>
      </trkpt>
      <trkpt lat="43.75044" lon="6.63737">
        <ele>1251.115</ele>
        <time>2014-08-25T09:43:42Z</time>
      </trkpt>
      <trkpt lat="43.75043" lon="6.63734">
        <ele>1252.145</ele>
        <time>2014-08-25T09:43:44Z</time>
      </trkpt>
      <trkpt lat="43.7504" lon="6.63724">
        <ele>1257.65</ele>
        <time>2014-08-25T09:43:49Z</time>
      </trkpt>
      <trkpt lat="43.75036" lon="6.6371">
        <ele>1258.541</ele>
        <time>2014-08-25T09:43:56Z</time>
      </trkpt>
      <trkpt lat="43.75032" lon="6.637">
        <ele>1259.268</ele>
        <time>2014-08-25T09:44:01Z</time>
      </trkpt>
      <trkpt lat="43.75027" lon="6.63686">
        <ele>1256.848</ele>
        <time>2014-08-25T09:44:07Z</time>
      </trkpt>
      <trkpt lat="43.75021" lon="6.63668">
        <ele>1259.415</ele>
        <time>2014-08-25T09:44:16Z</time>
      </trkpt>
      <trkpt lat="43.75019" lon="6.63659">
        <ele>1260.081</ele>
        <time>2014-08-25T09:44:20Z</time>
      </trkpt>
      <trkpt lat="43.75018" lon="6.63642">
        <ele>1259.211</ele>
        <time>2014-08-25T09:44:26Z</time>
      </trkpt>
      <trkpt lat="43.75016" lon="6.63627">
        <ele>1259.264</ele>
        <time>2014-08-25T09:44:32Z</time>
      </trkpt>
      <trkpt lat="43.75009" lon="6.63612">
        <ele>1257.361</ele>
        <time>2014-08-25T09:44:39Z</time>
      </trkpt>
      <trkpt lat="43.75001" lon="6.63601">
        <ele>1256.872</ele>
        <time>2014-08-25T09:44:45Z</time>
      </trkpt>
      <trkpt lat="43.7499" lon="6.63586">
        <ele>1257.926</ele>
        <time>2014-08-25T09:44:53Z</time>
      </trkpt>
      <trkpt lat="43.74979" lon="6.63575">
        <ele>1258.241</ele>
        <time>2014-08-25T09:45:00Z</time>
      </trkpt>
      <trkpt lat="43.74969" lon="6.63561">
        <ele>1257.591</ele>
        <time>2014-08-25T09:45:07Z</time>
      </trkpt>
      <trkpt lat="43.74962" lon="6.63549">
        <ele>1258.883</ele>
        <time>2014-08-25T09:45:13Z</time>
      </trkpt>
      <trkpt lat="43.74956" lon="6.63537">
        <ele>1260.072</ele>
        <time>2014-08-25T09:45:19Z</time>
      </trkpt>
      <trkpt lat="43.74948" lon="6.63529">
        <ele>1262.096</ele>
        <time>2014-08-25T09:45:25Z</time>
      </trkpt>
      <trkpt lat="43.74938" lon="6.63523">
        <ele>1261.7</ele>
        <time>2014-08-25T09:45:31Z</time>
      </trkpt>
      <trkpt lat="43.74925" lon="6.63516">
        <ele>1263.252</ele>
        <time>2014-08-25T09:45:39Z</time>
      </trkpt>
      <trkpt lat="43.74915" lon="6.6351">
        <ele>1266.497</ele>
        <time>2014-08-25T09:45:46Z</time>
      </trkpt>
      <trkpt lat="43.74904" lon="6.63502">
        <ele>1266.592</ele>
        <time>2014-08-25T09:45:53Z</time>
      </trkpt>
      <trkpt lat="43.74894" lon="6.63502">
        <ele>1265.336</ele>
        <time>2014-08-25T09:45:59Z</time>
      </trkpt>
      <trkpt lat="43.74892" lon="6.63515">
        <ele>1266.018</ele>
        <time>2014-08-25T09:46:05Z</time>
      </trkpt>
      <trkpt lat="43.74898" lon="6.63521">
        <ele>1267.585</ele>
        <time>2014-08-25T09:46:09Z</time>
      </trkpt>
      <trkpt lat="43.74915" lon="6.63531">
        <ele>1265.735</ele>
        <time>2014-08-25T09:46:18Z</time>
      </trkpt>
      <trkpt lat="43.74926" lon="6.63546">
        <ele>1266.173</ele>
        <time>2014-08-25T09:46:25Z</time>
      </trkpt>
      <trkpt lat="43.74929" lon="6.63562">
        <ele>1266.85</ele>
        <time>2014-08-25T09:46:31Z</time>
      </trkpt>
      <trkpt lat="43.74927" lon="6.63579">
        <ele>1266.034</ele>
        <time>2014-08-25T09:46:36Z</time>
      </trkpt>
      <trkpt lat="43.74928" lon="6.63594">
        <ele>1269.109</ele>
        <time>2014-08-25T09:46:43Z</time>
      </trkpt>
      <trkpt lat="43.74934" lon="6.63609">
        <ele>1273.391</ele>
        <time>2014-08-25T09:46:49Z</time>
      </trkpt>
      <trkpt lat="43.74941" lon="6.63626">
        <ele>1276.673</ele>
        <time>2014-08-25T09:46:57Z</time>
      </trkpt>
      <trkpt lat="43.74946" lon="6.6364">
        <ele>1280.053</ele>
        <time>2014-08-25T09:47:04Z</time>
      </trkpt>
      <trkpt lat="43.74954" lon="6.63659">
        <ele>1280.452</ele>
        <time>2014-08-25T09:47:12Z</time>
      </trkpt>
      <trkpt lat="43.74959" lon="6.63679">
        <ele>1280.423</ele>
        <time>2014-08-25T09:47:20Z</time>
      </trkpt>
      <trkpt lat="43.74961" lon="6.63696">
        <ele>1279.565</ele>
        <time>2014-08-25T09:47:27Z</time>
      </trkpt>
      <trkpt lat="43.74962" lon="6.63714">
        <ele>1278.433</ele>
        <time>2014-08-25T09:47:34Z</time>
      </trkpt>
      <trkpt lat="43.7496" lon="6.63732">
        <ele>1278.196</ele>
        <time>2014-08-25T09:47:41Z</time>
      </trkpt>
      <trkpt lat="43.74957" lon="6.63751">
        <ele>1280.504</ele>
        <time>2014-08-25T09:47:49Z</time>
      </trkpt>
      <trkpt lat="43.74957" lon="6.63765">
        <ele>1282.657</ele>
        <time>2014-08-25T09:47:55Z</time>
      </trkpt>
      <trkpt lat="43.74959" lon="6.63786">
        <ele>1283.932</ele>
        <time>2014-08-25T09:48:03Z</time>
      </trkpt>
      <trkpt lat="43.74958" lon="6.63789">
        <ele>1285.119</ele>
        <time>2014-08-25T09:48:04Z</time>
      </trkpt>
      <trkpt lat="43.74965" lon="6.63807">
        <ele>1291.565</ele>
        <time>2014-08-25T09:48:13Z</time>
      </trkpt>
      <trkpt lat="43.74966" lon="6.63814">
        <ele>1291.465</ele>
        <time>2014-08-25T09:48:16Z</time>
      </trkpt>
      <trkpt lat="43.74967" lon="6.63838">
        <ele>1292.94</ele>
        <time>2014-08-25T09:48:25Z</time>
      </trkpt>
      <trkpt lat="43.74969" lon="6.63852">
        <ele>1292.592</ele>
        <time>2014-08-25T09:48:32Z</time>
      </trkpt>
      <trkpt lat="43.74973" lon="6.63869">
        <ele>1293.185</ele>
        <time>2014-08-25T09:48:39Z</time>
      </trkpt>
      <trkpt lat="43.74979" lon="6.63888">
        <ele>1294.519</ele>
        <time>2014-08-25T09:48:47Z</time>
      </trkpt>
      <trkpt lat="43.74989" lon="6.63911">
        <ele>1293.274</ele>
        <time>2014-08-25T09:48:56Z</time>
      </trkpt>
      <trkpt lat="43.74995" lon="6.63927">
        <ele>1294.273</ele>
        <time>2014-08-25T09:49:03Z</time>
      </trkpt>
      <trkpt lat="43.75" lon="6.63949">
        <ele>1294.869</ele>
        <time>2014-08-25T09:49:11Z</time>
      </trkpt>
      <trkpt lat="43.75004" lon="6.63969">
        <ele>1294.546</ele>
        <time>2014-08-25T09:49:18Z</time>
      </trkpt>
      <trkpt lat="43.75004" lon="6.63982">
        <ele>1295.272</ele>
        <time>2014-08-25T09:49:23Z</time>
      </trkpt>
      <trkpt lat="43.75003" lon="6.63988">
        <ele>1295.579</ele>
        <time>2014-08-25T09:49:25Z</time>
      </trkpt>
      <trkpt lat="43.74993" lon="6.63988">
        <ele>1294.887</ele>
        <time>2014-08-25T09:49:30Z</time>
      </trkpt>
      <trkpt lat="43.74991" lon="6.63978">
        <ele>1294.764</ele>
        <time>2014-08-25T09:49:33Z</time>
      </trkpt>
      <trkpt lat="43.74986" lon="6.63952">
        <ele>1291.496</ele>
        <time>2014-08-25T09:49:41Z</time>
      </trkpt>
      <trkpt lat="43.74982" lon="6.63937">
        <ele>1295.152</ele>
        <time>2014-08-25T09:49:47Z</time>
      </trkpt>
      <trkpt lat="43.74973" lon="6.63926">
        <ele>1297.548</ele>
        <time>2014-08-25T09:49:53Z</time>
      </trkpt>
      <trkpt lat="43.74966" lon="6.63913">
        <ele>1300.195</ele>
        <time>2014-08-25T09:49:59Z</time>
      </trkpt>
      <trkpt lat="43.74959" lon="6.639">
        <ele>1301.374</ele>
        <time>2014-08-25T09:50:04Z</time>
      </trkpt>
      <trkpt lat="43.74952" lon="6.63879">
        <ele>1305.792</ele>
        <time>2014-08-25T09:50:13Z</time>
      </trkpt>
      <trkpt lat="43.74944" lon="6.6386">
        <ele>1306.509</ele>
        <time>2014-08-25T09:50:21Z</time>
      </trkpt>
      <trkpt lat="43.74936" lon="6.63842">
        <ele>1309.359</ele>
        <time>2014-08-25T09:50:28Z</time>
      </trkpt>
      <trkpt lat="43.74928" lon="6.63827">
        <ele>1312.702</ele>
        <time>2014-08-25T09:50:34Z</time>
      </trkpt>
      <trkpt lat="43.74924" lon="6.63815">
        <ele>1313.329</ele>
        <time>2014-08-25T09:50:39Z</time>
      </trkpt>
      <trkpt lat="43.74919" lon="6.63801">
        <ele>1314.09</ele>
        <time>2014-08-25T09:50:44Z</time>
      </trkpt>
      <trkpt lat="43.7491" lon="6.63788">
        <ele>1313.127</ele>
        <time>2014-08-25T09:50:49Z</time>
      </trkpt>
      <trkpt lat="43.74907" lon="6.63769">
        <ele>1312.253</ele>
        <time>2014-08-25T09:50:55Z</time>
      </trkpt>
      <trkpt lat="43.74906" lon="6.63767">
        <ele>1312.142</ele>
        <time>2014-08-25T09:50:56Z</time>
      </trkpt>
      <trkpt lat="43.74899" lon="6.63757">
        <ele>1309.522</ele>
        <time>2014-08-25T09:51:00Z</time>
      </trkpt>
      <trkpt lat="43.74888" lon="6.63732">
        <ele>1311.751</ele>
        <time>2014-08-25T09:51:10Z</time>
      </trkpt>
      <trkpt lat="43.7488" lon="6.63725">
        <ele>1315.57</ele>
        <time>2014-08-25T09:51:16Z</time>
      </trkpt>
      <trkpt lat="43.74863" lon="6.63718">
        <ele>1318.089</ele>
        <time>2014-08-25T09:51:24Z</time>
      </trkpt>
      <trkpt lat="43.74858" lon="6.63717">
        <ele>1320.298</ele>
        <time>2014-08-25T09:51:27Z</time>
      </trkpt>
      <trkpt lat="43.74851" lon="6.63714">
        <ele>1320.097</ele>
        <time>2014-08-25T09:51:31Z</time>
      </trkpt>
      <trkpt lat="43.74838" lon="6.63708">
        <ele>1321.302</ele>
        <time>2014-08-25T09:51:39Z</time>
      </trkpt>
      <trkpt lat="43.74826" lon="6.63703">
        <ele>1322.886</ele>
        <time>2014-08-25T09:51:45Z</time>
      </trkpt>
      <trkpt lat="43.74818" lon="6.63696">
        <ele>1323.301</ele>
        <time>2014-08-25T09:51:51Z</time>
      </trkpt>
      <trkpt lat="43.74814" lon="6.63685">
        <ele>1329.026</ele>
        <time>2014-08-25T09:51:57Z</time>
      </trkpt>
      <trkpt lat="43.74806" lon="6.6367">
        <ele>1331.128</ele>
        <time>2014-08-25T09:52:05Z</time>
      </trkpt>
      <trkpt lat="43.74801" lon="6.63657">
        <ele>1333.174</ele>
        <time>2014-08-25T09:52:11Z</time>
      </trkpt>
      <trkpt lat="43.74795" lon="6.63643">
        <ele>1333.484</ele>
        <time>2014-08-25T09:52:17Z</time>
      </trkpt>
      <trkpt lat="43.74793" lon="6.63624">
        <ele>1332.643</ele>
        <time>2014-08-25T09:52:24Z</time>
      </trkpt>
      <trkpt lat="43.74788" lon="6.63607">
        <ele>1333.205</ele>
        <time>2014-08-25T09:52:31Z</time>
      </trkpt>
      <trkpt lat="43.74787" lon="6.63605">
        <ele>1333.531</ele>
        <time>2014-08-25T09:52:32Z</time>
      </trkpt>
      <trkpt lat="43.74777" lon="6.63605">
        <ele>1330.772</ele>
        <time>2014-08-25T09:52:36Z</time>
      </trkpt>
      <trkpt lat="43.74772" lon="6.63617">
        <ele>1328.768</ele>
        <time>2014-08-25T09:52:41Z</time>
      </trkpt>
      <trkpt lat="43.74778" lon="6.63638">
        <ele>1329.596</ele>
        <time>2014-08-25T09:52:49Z</time>
      </trkpt>
      <trkpt lat="43.74782" lon="6.63659">
        <ele>1333.203</ele>
        <time>2014-08-25T09:52:56Z</time>
      </trkpt>
      <trkpt lat="43.74783" lon="6.63679">
        <ele>1336.368</ele>
        <time>2014-08-25T09:53:03Z</time>
      </trkpt>
      <trkpt lat="43.74785" lon="6.63699">
        <ele>1336.102</ele>
        <time>2014-08-25T09:53:10Z</time>
      </trkpt>
      <trkpt lat="43.74787" lon="6.63714">
        <ele>1339.023</ele>
        <time>2014-08-25T09:53:16Z</time>
      </trkpt>
      <trkpt lat="43.74798" lon="6.63726">
        <ele>1339.094</ele>
        <time>2014-08-25T09:53:22Z</time>
      </trkpt>
      <trkpt lat="43.74808" lon="6.63732">
        <ele>1340.555</ele>
        <time>2014-08-25T09:53:27Z</time>
      </trkpt>
      <trkpt lat="43.74825" lon="6.63743">
        <ele>1337.788</ele>
        <time>2014-08-25T09:53:34Z</time>
      </trkpt>
      <trkpt lat="43.74838" lon="6.63756">
        <ele>1335.754</ele>
        <time>2014-08-25T09:53:41Z</time>
      </trkpt>
      <trkpt lat="43.74848" lon="6.63777">
        <ele>1337.522</ele>
        <time>2014-08-25T09:53:49Z</time>
      </trkpt>
      <trkpt lat="43.74852" lon="6.63796">
        <ele>1339.668</ele>
        <time>2014-08-25T09:53:56Z</time>
      </trkpt>
      <trkpt lat="43.74859" lon="6.63824">
        <ele>1339.844</ele>
        <time>2014-08-25T09:54:05Z</time>
      </trkpt>
      <trkpt lat="43.74867" lon="6.63844">
        <ele>1343.613</ele>
        <time>2014-08-25T09:54:13Z</time>
      </trkpt>
      <trkpt lat="43.74872" lon="6.63864">
        <ele>1341.977</ele>
        <time>2014-08-25T09:54:20Z</time>
      </trkpt>
      <trkpt lat="43.74873" lon="6.6388">
        <ele>1343.527</ele>
        <time>2014-08-25T09:54:26Z</time>
      </trkpt>
      <trkpt lat="43.74875" lon="6.63901">
        <ele>1346.29</ele>
        <time>2014-08-25T09:54:34Z</time>
      </trkpt>
      <trkpt lat="43.7488" lon="6.63919">
        <ele>1349.983</ele>
        <time>2014-08-25T09:54:41Z</time>
      </trkpt>
      <trkpt lat="43.74883" lon="6.63936">
        <ele>1349.536</ele>
        <time>2014-08-25T09:54:47Z</time>
      </trkpt>
      <trkpt lat="43.74884" lon="6.63944">
        <ele>1348.514</ele>
        <time>2014-08-25T09:54:50Z</time>
      </trkpt>
      <trkpt lat="43.74889" lon="6.63965">
        <ele>1351.72</ele>
        <time>2014-08-25T09:54:58Z</time>
      </trkpt>
      <trkpt lat="43.7489" lon="6.63986">
        <ele>1351.757</ele>
        <time>2014-08-25T09:55:06Z</time>
      </trkpt>
      <trkpt lat="43.74894" lon="6.64003">
        <ele>1354.128</ele>
        <time>2014-08-25T09:55:14Z</time>
      </trkpt>
      <trkpt lat="43.74898" lon="6.64024">
        <ele>1356.763</ele>
        <time>2014-08-25T09:55:22Z</time>
      </trkpt>
      <trkpt lat="43.74899" lon="6.64044">
        <ele>1354.424</ele>
        <time>2014-08-25T09:55:29Z</time>
      </trkpt>
      <trkpt lat="43.74903" lon="6.6406">
        <ele>1354.185</ele>
        <time>2014-08-25T09:55:35Z</time>
      </trkpt>
      <trkpt lat="43.74905" lon="6.6408">
        <ele>1354.639</ele>
        <time>2014-08-25T09:55:42Z</time>
      </trkpt>
      <trkpt lat="43.74906" lon="6.641">
        <ele>1357.009</ele>
        <time>2014-08-25T09:55:50Z</time>
      </trkpt>
      <trkpt lat="43.74906" lon="6.64114">
        <ele>1355.044</ele>
        <time>2014-08-25T09:55:56Z</time>
      </trkpt>
      <trkpt lat="43.74904" lon="6.64119">
        <ele>1356.315</ele>
        <time>2014-08-25T09:55:59Z</time>
      </trkpt>
      <trkpt lat="43.74906" lon="6.64141">
        <ele>1363.653</ele>
        <time>2014-08-25T09:56:08Z</time>
      </trkpt>
      <trkpt lat="43.74912" lon="6.64161">
        <ele>1365.897</ele>
        <time>2014-08-25T09:56:15Z</time>
      </trkpt>
      <trkpt lat="43.74919" lon="6.64174">
        <ele>1364.99</ele>
        <time>2014-08-25T09:56:20Z</time>
      </trkpt>
      <trkpt lat="43.74923" lon="6.64192">
        <ele>1366.015</ele>
        <time>2014-08-25T09:56:27Z</time>
      </trkpt>
      <trkpt lat="43.74933" lon="6.64211">
        <ele>1373.524</ele>
        <time>2014-08-25T09:56:35Z</time>
      </trkpt>
      <trkpt lat="43.74937" lon="6.64225">
        <ele>1374.392</ele>
        <time>2014-08-25T09:56:41Z</time>
      </trkpt>
      <trkpt lat="43.74935" lon="6.64231">
        <ele>1371.106</ele>
        <time>2014-08-25T09:56:44Z</time>
      </trkpt>
      <trkpt lat="43.74934" lon="6.64248">
        <ele>1364.991</ele>
        <time>2014-08-25T09:56:52Z</time>
      </trkpt>
      <trkpt lat="43.74939" lon="6.64264">
        <ele>1370.616</ele>
        <time>2014-08-25T09:57:00Z</time>
      </trkpt>
      <trkpt lat="43.74939" lon="6.6428">
        <ele>1369.299</ele>
        <time>2014-08-25T09:57:07Z</time>
      </trkpt>
      <trkpt lat="43.74941" lon="6.64294">
        <ele>1369.18</ele>
        <time>2014-08-25T09:57:13Z</time>
      </trkpt>
      <trkpt lat="43.7494" lon="6.64296">
        <ele>1370.035</ele>
        <time>2014-08-25T09:57:14Z</time>
      </trkpt>
      <trkpt lat="43.74945" lon="6.64306">
        <ele>1376.222</ele>
        <time>2014-08-25T09:57:19Z</time>
      </trkpt>
      <trkpt lat="43.74944" lon="6.64315">
        <ele>1377.459</ele>
        <time>2014-08-25T09:57:23Z</time>
      </trkpt>
      <trkpt lat="43.74952" lon="6.64335">
        <ele>1383.761</ele>
        <time>2014-08-25T09:57:32Z</time>
      </trkpt>
      <trkpt lat="43.74967" lon="6.64353">
        <ele>1398.852</ele>
        <time>2014-08-25T09:57:40Z</time>
      </trkpt>
      <trkpt lat="43.74968" lon="6.64365">
        <ele>1399.631</ele>
        <time>2014-08-25T09:57:46Z</time>
      </trkpt>
      <trkpt lat="43.74962" lon="6.64384">
        <ele>1388.644</ele>
        <time>2014-08-25T09:57:54Z</time>
      </trkpt>
      <trkpt lat="43.74971" lon="6.64405">
        <ele>1394.387</ele>
        <time>2014-08-25T09:58:02Z</time>
      </trkpt>
      <trkpt lat="43.74978" lon="6.6442">
        <ele>1401.567</ele>
        <time>2014-08-25T09:58:08Z</time>
      </trkpt>
      <trkpt lat="43.74979" lon="6.64423">
        <ele>1401.713</ele>
        <time>2014-08-25T09:58:09Z</time>
      </trkpt>
      <trkpt lat="43.7497" lon="6.64439">
        <ele>1388.414</ele>
        <time>2014-08-25T09:58:16Z</time>
      </trkpt>
      <trkpt lat="43.74969" lon="6.64455">
        <ele>1382.615</ele>
        <time>2014-08-25T09:58:23Z</time>
      </trkpt>
      <trkpt lat="43.74968" lon="6.6447">
        <ele>1378.498</ele>
        <time>2014-08-25T09:58:29Z</time>
      </trkpt>
      <trkpt lat="43.74972" lon="6.64487">
        <ele>1379.332</ele>
        <time>2014-08-25T09:58:35Z</time>
      </trkpt>
      <trkpt lat="43.74977" lon="6.64504">
        <ele>1385.689</ele>
        <time>2014-08-25T09:58:41Z</time>
      </trkpt>
      <trkpt lat="43.74977" lon="6.64521">
        <ele>1387.482</ele>
        <time>2014-08-25T09:58:47Z</time>
      </trkpt>
      <trkpt lat="43.74976" lon="6.64539">
        <ele>1386.342</ele>
        <time>2014-08-25T09:58:53Z</time>
      </trkpt>
      <trkpt lat="43.74975" lon="6.64557">
        <ele>1384.833</ele>
        <time>2014-08-25T09:59:00Z</time>
      </trkpt>
      <trkpt lat="43.74976" lon="6.6457">
        <ele>1386.45</ele>
        <time>2014-08-25T09:59:05Z</time>
      </trkpt>
      <trkpt lat="43.74979" lon="6.64579">
        <ele>1392.063</ele>
        <time>2014-08-25T09:59:08Z</time>
      </trkpt>
      <trkpt lat="43.74975" lon="6.64582">
        <ele>1398.142</ele>
        <time>2014-08-25T09:59:12Z</time>
      </trkpt>
      <trkpt lat="43.74972" lon="6.64576">
        <ele>1396.709</ele>
        <time>2014-08-25T09:59:14Z</time>
      </trkpt>
      <trkpt lat="43.74964" lon="6.64551">
        <ele>1384.054</ele>
        <time>2014-08-25T09:59:22Z</time>
      </trkpt>
      <trkpt lat="43.74964" lon="6.64533">
        <ele>1383.529</ele>
        <time>2014-08-25T09:59:28Z</time>
      </trkpt>
      <trkpt lat="43.74964" lon="6.64524">
        <ele>1383.666</ele>
        <time>2014-08-25T09:59:31Z</time>
      </trkpt>
      <trkpt lat="43.74963" lon="6.64501">
        <ele>1381.982</ele>
        <time>2014-08-25T09:59:38Z</time>
      </trkpt>
      <trkpt lat="43.74958" lon="6.64479">
        <ele>1381.394</ele>
        <time>2014-08-25T09:59:45Z</time>
      </trkpt>
      <trkpt lat="43.74947" lon="6.64457">
        <ele>1377.17</ele>
        <time>2014-08-25T09:59:52Z</time>
      </trkpt>
      <trkpt lat="43.74939" lon="6.6444">
        <ele>1379.769</ele>
        <time>2014-08-25T09:59:59Z</time>
      </trkpt>
      <trkpt lat="43.74937" lon="6.64424">
        <ele>1384.811</ele>
        <time>2014-08-25T10:00:06Z</time>
      </trkpt>
      <trkpt lat="43.74934" lon="6.64412">
        <ele>1388.526</ele>
        <time>2014-08-25T10:00:11Z</time>
      </trkpt>
      <trkpt lat="43.74929" lon="6.64394">
        <ele>1389.193</ele>
        <time>2014-08-25T10:00:18Z</time>
      </trkpt>
      <trkpt lat="43.74923" lon="6.64379">
        <ele>1391.833</ele>
        <time>2014-08-25T10:00:24Z</time>
      </trkpt>
      <trkpt lat="43.7492" lon="6.64368">
        <ele>1400.399</ele>
        <time>2014-08-25T10:00:30Z</time>
      </trkpt>
      <trkpt lat="43.7491" lon="6.64354">
        <ele>1402.035</ele>
        <time>2014-08-25T10:00:37Z</time>
      </trkpt>
      <trkpt lat="43.74899" lon="6.64341">
        <ele>1401.883</ele>
        <time>2014-08-25T10:00:44Z</time>
      </trkpt>
      <trkpt lat="43.74891" lon="6.64327">
        <ele>1398.815</ele>
        <time>2014-08-25T10:00:49Z</time>
      </trkpt>
      <trkpt lat="43.74885" lon="6.64315">
        <ele>1394.411</ele>
        <time>2014-08-25T10:00:53Z</time>
      </trkpt>
      <trkpt lat="43.74886" lon="6.64299">
        <ele>1395.319</ele>
        <time>2014-08-25T10:00:59Z</time>
      </trkpt>
      <trkpt lat="43.7488" lon="6.64285">
        <ele>1395.733</ele>
        <time>2014-08-25T10:01:05Z</time>
      </trkpt>
      <trkpt lat="43.74877" lon="6.64279">
        <ele>1394.11</ele>
        <time>2014-08-25T10:01:07Z</time>
      </trkpt>
      <trkpt lat="43.7487" lon="6.64271">
        <ele>1394.65</ele>
        <time>2014-08-25T10:01:11Z</time>
      </trkpt>
      <trkpt lat="43.74863" lon="6.64256">
        <ele>1397.873</ele>
        <time>2014-08-25T10:01:18Z</time>
      </trkpt>
      <trkpt lat="43.74862" lon="6.64255">
        <ele>1398.518</ele>
        <time>2014-08-25T10:01:19Z</time>
      </trkpt>
      <trkpt lat="43.74856" lon="6.64247">
        <ele>1398.852</ele>
        <time>2014-08-25T10:01:23Z</time>
      </trkpt>
      <trkpt lat="43.74847" lon="6.64236">
        <ele>1401.069</ele>
        <time>2014-08-25T10:01:30Z</time>
      </trkpt>
      <trkpt lat="43.74841" lon="6.64224">
        <ele>1403.666</ele>
        <time>2014-08-25T10:01:36Z</time>
      </trkpt>
      <trkpt lat="43.74837" lon="6.64219">
        <ele>1404.348</ele>
        <time>2014-08-25T10:01:39Z</time>
      </trkpt>
      <trkpt lat="43.7484" lon="6.64202">
        <ele>1409.259</ele>
        <time>2014-08-25T10:01:45Z</time>
      </trkpt>
      <trkpt lat="43.74838" lon="6.64191">
        <ele>1413.372</ele>
        <time>2014-08-25T10:01:50Z</time>
      </trkpt>
      <trkpt lat="43.74834" lon="6.64177">
        <ele>1417.589</ele>
        <time>2014-08-25T10:01:56Z</time>
      </trkpt>
      <trkpt lat="43.74831" lon="6.64159">
        <ele>1417.5</ele>
        <time>2014-08-25T10:02:03Z</time>
      </trkpt>
      <trkpt lat="43.74828" lon="6.6415">
        <ele>1416.57</ele>
        <time>2014-08-25T10:02:07Z</time>
      </trkpt>
      <trkpt lat="43.74817" lon="6.6413">
        <ele>1413.813</ele>
        <time>2014-08-25T10:02:15Z</time>
      </trkpt>
      <trkpt lat="43.74816" lon="6.64128">
        <ele>1413.837</ele>
        <time>2014-08-25T10:02:16Z</time>
      </trkpt>
      <trkpt lat="43.74802" lon="6.64107">
        <ele>1412.84</ele>
        <time>2014-08-25T10:02:25Z</time>
      </trkpt>
      <trkpt lat="43.74791" lon="6.64097">
        <ele>1413.322</ele>
        <time>2014-08-25T10:02:31Z</time>
      </trkpt>
      <trkpt lat="43.74779" lon="6.64088">
        <ele>1413.662</ele>
        <time>2014-08-25T10:02:38Z</time>
      </trkpt>
      <trkpt lat="43.74764" lon="6.64083">
        <ele>1414.176</ele>
        <time>2014-08-25T10:02:45Z</time>
      </trkpt>
      <trkpt lat="43.74751" lon="6.64081">
        <ele>1415.708</ele>
        <time>2014-08-25T10:02:52Z</time>
      </trkpt>
      <trkpt lat="43.7474" lon="6.64078">
        <ele>1417.795</ele>
        <time>2014-08-25T10:02:58Z</time>
      </trkpt>
      <trkpt lat="43.74728" lon="6.64079">
        <ele>1418.337</ele>
        <time>2014-08-25T10:03:04Z</time>
      </trkpt>
      <trkpt lat="43.74715" lon="6.64085">
        <ele>1420.677</ele>
        <time>2014-08-25T10:03:11Z</time>
      </trkpt>
      <trkpt lat="43.74702" lon="6.64094">
        <ele>1423.482</ele>
        <time>2014-08-25T10:03:18Z</time>
      </trkpt>
      <trkpt lat="43.74691" lon="6.641">
        <ele>1424.024</ele>
        <time>2014-08-25T10:03:24Z</time>
      </trkpt>
      <trkpt lat="43.74676" lon="6.64106">
        <ele>1424.914</ele>
        <time>2014-08-25T10:03:31Z</time>
      </trkpt>
      <trkpt lat="43.74665" lon="6.64109">
        <ele>1425.863</ele>
        <time>2014-08-25T10:03:37Z</time>
      </trkpt>
      <trkpt lat="43.74662" lon="6.64109">
        <ele>1426.765</ele>
        <time>2014-08-25T10:03:39Z</time>
      </trkpt>
      <trkpt lat="43.74657" lon="6.64108">
        <ele>1426.152</ele>
        <time>2014-08-25T10:03:43Z</time>
      </trkpt>
      <trkpt lat="43.74649" lon="6.64102">
        <ele>1426.226</ele>
        <time>2014-08-25T10:03:50Z</time>
      </trkpt>
      <trkpt lat="43.74643" lon="6.64106">
        <ele>1427.681</ele>
        <time>2014-08-25T10:03:54Z</time>
      </trkpt>
      <trkpt lat="43.74642" lon="6.64106">
        <ele>1427.214</ele>
        <time>2014-08-25T10:03:56Z</time>
      </trkpt>
      <trkpt lat="43.74634" lon="6.64103">
        <ele>1427.949</ele>
        <time>2014-08-25T10:04:03Z</time>
      </trkpt>
      <trkpt lat="43.74632" lon="6.64099">
        <ele>1427.726</ele>
        <time>2014-08-25T10:04:10Z</time>
      </trkpt>
      <trkpt lat="43.74628" lon="6.64092">
        <ele>1428.619</ele>
        <time>2014-08-25T10:06:00Z</time>
      </trkpt>
      <trkpt lat="43.74635" lon="6.64094">
        <ele>1411.183</ele>
        <time>2014-08-25T10:06:10Z</time>
      </trkpt>
      <trkpt lat="43.74645" lon="6.64097">
        <ele>1365.397</ele>
        <time>2014-08-25T10:08:57Z</time>
      </trkpt>
      <trkpt lat="43.74658" lon="6.641">
        <ele>1357.417</ele>
        <time>2014-08-25T10:09:04Z</time>
      </trkpt>
      <trkpt lat="43.74657" lon="6.641">
        <ele>1364.91</ele>
        <time>2014-08-25T10:09:10Z</time>
      </trkpt>
      <trkpt lat="43.74648" lon="6.64092">
        <ele>1425.321</ele>
        <time>2014-08-25T10:10:03Z</time>
      </trkpt>
      <trkpt lat="43.74631" lon="6.64098">
        <ele>1428.247</ele>
        <time>2014-08-25T10:13:15Z</time>
      </trkpt>
      <trkpt lat="43.74621" lon="6.64094">
        <ele>1414.193</ele>
        <time>2014-08-25T10:13:27Z</time>
      </trkpt>
      <trkpt lat="43.74605" lon="6.64089">
        <ele>1386.337</ele>
        <time>2014-08-25T10:13:47Z</time>
      </trkpt>
      <trkpt lat="43.74596" lon="6.64088">
        <ele>1376.173</ele>
        <time>2014-08-25T10:13:57Z</time>
      </trkpt>
      <trkpt lat="43.74617" lon="6.64093">
        <ele>1429.645</ele>
        <time>2014-08-25T10:17:53Z</time>
      </trkpt>
      <trkpt lat="43.74616" lon="6.64095">
        <ele>1437.445</ele>
        <time>2014-08-25T10:18:03Z</time>
      </trkpt>
      <trkpt lat="43.74636" lon="6.64098">
        <ele>1444.673</ele>
        <time>2014-08-25T10:19:04Z</time>
      </trkpt>
      <trkpt lat="43.74638" lon="6.64099">
        <ele>1409.154</ele>
        <time>2014-08-25T10:22:34Z</time>
      </trkpt>
      <trkpt lat="43.74631" lon="6.64104">
        <ele>1437.213</ele>
        <time>2014-08-25T10:24:28Z</time>
      </trkpt>
      <trkpt lat="43.7464" lon="6.64102">
        <ele>1442.413</ele>
        <time>2014-08-25T10:24:36Z</time>
      </trkpt>
      <trkpt lat="43.74642" lon="6.641">
        <ele>1442.431</ele>
        <time>2014-08-25T10:24:41Z</time>
      </trkpt>
      <trkpt lat="43.7465" lon="6.64091">
        <ele>1441.929</ele>
        <time>2014-08-25T10:24:53Z</time>
      </trkpt>
      <trkpt lat="43.74647" lon="6.64096">
        <ele>1441.058</ele>
        <time>2014-08-25T10:25:35Z</time>
      </trkpt>
      <trkpt lat="43.74644" lon="6.64094">
        <ele>1451.333</ele>
        <time>2014-08-25T10:26:07Z</time>
      </trkpt>
      <trkpt lat="43.7463" lon="6.64103">
        <ele>1450.201</ele>
        <time>2014-08-25T10:26:23Z</time>
      </trkpt>
      <trkpt lat="43.74624" lon="6.64104">
        <ele>1446.789</ele>
        <time>2014-08-25T10:26:30Z</time>
      </trkpt>
      <trkpt lat="43.74614" lon="6.64108">
        <ele>1437.659</ele>
        <time>2014-08-25T10:26:37Z</time>
      </trkpt>
      <trkpt lat="43.74615" lon="6.64107">
        <ele>1426.982</ele>
        <time>2014-08-25T10:26:44Z</time>
      </trkpt>
      <trkpt lat="43.74624" lon="6.64099">
        <ele>1431.069</ele>
        <time>2014-08-25T10:26:54Z</time>
      </trkpt>
      <trkpt lat="43.74629" lon="6.64101">
        <ele>1440.7</ele>
        <time>2014-08-25T10:27:09Z</time>
      </trkpt>
      <trkpt lat="43.74627" lon="6.64102">
        <ele>1443.16</ele>
        <time>2014-08-25T10:27:12Z</time>
      </trkpt>
      <trkpt lat="43.74628" lon="6.64106">
        <ele>1450.175</ele>
        <time>2014-08-25T10:27:19Z</time>
      </trkpt>
      <trkpt lat="43.74628" lon="6.64106">
        <ele>1451.105</ele>
        <time>2014-08-25T10:27:20Z</time>
      </trkpt>
      <trkpt lat="43.74622" lon="6.64093">
        <ele>1442.378</ele>
        <time>2014-08-25T10:27:25Z</time>
      </trkpt>
      <trkpt lat="43.74614" lon="6.64076">
        <ele>1436.227</ele>
        <time>2014-08-25T10:27:29Z</time>
      </trkpt>
      <trkpt lat="43.74606" lon="6.64068">
        <ele>1433.542</ele>
        <time>2014-08-25T10:27:34Z</time>
      </trkpt>
      <trkpt lat="43.74596" lon="6.64056">
        <ele>1430.579</ele>
        <time>2014-08-25T10:27:40Z</time>
      </trkpt>
      <trkpt lat="43.74589" lon="6.64048">
        <ele>1431.275</ele>
        <time>2014-08-25T10:27:45Z</time>
      </trkpt>
      <trkpt lat="43.74588" lon="6.64047">
        <ele>1432.126</ele>
        <time>2014-08-25T10:27:46Z</time>
      </trkpt>
      <trkpt lat="43.74576" lon="6.64042">
        <ele>1431.485</ele>
        <time>2014-08-25T10:27:51Z</time>
      </trkpt>
      <trkpt lat="43.74564" lon="6.64046">
        <ele>1431.307</ele>
        <time>2014-08-25T10:27:59Z</time>
      </trkpt>
      <trkpt lat="43.74553" lon="6.64047">
        <ele>1433.099</ele>
        <time>2014-08-25T10:28:04Z</time>
      </trkpt>
      <trkpt lat="43.74543" lon="6.64042">
        <ele>1432.616</ele>
        <time>2014-08-25T10:28:08Z</time>
      </trkpt>
      <trkpt lat="43.74537" lon="6.64035">
        <ele>1432.645</ele>
        <time>2014-08-25T10:28:12Z</time>
      </trkpt>
      <trkpt lat="43.74527" lon="6.64016">
        <ele>1431.198</ele>
        <time>2014-08-25T10:28:20Z</time>
      </trkpt>
      <trkpt lat="43.74521" lon="6.64008">
        <ele>1430.816</ele>
        <time>2014-08-25T10:28:24Z</time>
      </trkpt>
      <trkpt lat="43.74506" lon="6.64005">
        <ele>1431.608</ele>
        <time>2014-08-25T10:28:31Z</time>
      </trkpt>
      <trkpt lat="43.74495" lon="6.64008">
        <ele>1433.39</ele>
        <time>2014-08-25T10:28:37Z</time>
      </trkpt>
      <trkpt lat="43.74479" lon="6.64009">
        <ele>1432.466</ele>
        <time>2014-08-25T10:28:45Z</time>
      </trkpt>
      <trkpt lat="43.74463" lon="6.64009">
        <ele>1434.631</ele>
        <time>2014-08-25T10:28:52Z</time>
      </trkpt>
      <trkpt lat="43.7445" lon="6.64004">
        <ele>1438.805</ele>
        <time>2014-08-25T10:28:59Z</time>
      </trkpt>
      <trkpt lat="43.74446" lon="6.64002">
        <ele>1439.574</ele>
        <time>2014-08-25T10:29:01Z</time>
      </trkpt>
      <trkpt lat="43.74434" lon="6.63997">
        <ele>1440.14</ele>
        <time>2014-08-25T10:29:07Z</time>
      </trkpt>
      <trkpt lat="43.74428" lon="6.63992">
        <ele>1441.112</ele>
        <time>2014-08-25T10:29:11Z</time>
      </trkpt>
      <trkpt lat="43.74415" lon="6.63983">
        <ele>1442.754</ele>
        <time>2014-08-25T10:29:18Z</time>
      </trkpt>
      <trkpt lat="43.74403" lon="6.63974">
        <ele>1446.045</ele>
        <time>2014-08-25T10:29:25Z</time>
      </trkpt>
      <trkpt lat="43.74396" lon="6.63967">
        <ele>1444.715</ele>
        <time>2014-08-25T10:29:31Z</time>
      </trkpt>
      <trkpt lat="43.74393" lon="6.63957">
        <ele>1444.86</ele>
        <time>2014-08-25T10:29:51Z</time>
      </trkpt>
      <trkpt lat="43.74379" lon="6.63962">
        <ele>1445.634</ele>
        <time>2014-08-25T10:29:58Z</time>
      </trkpt>
      <trkpt lat="43.74362" lon="6.63973">
        <ele>1444.28</ele>
        <time>2014-08-25T10:30:03Z</time>
      </trkpt>
      <trkpt lat="43.7435" lon="6.6397">
        <ele>1442.588</ele>
        <time>2014-08-25T10:30:07Z</time>
      </trkpt>
      <trkpt lat="43.74334" lon="6.63962">
        <ele>1443.614</ele>
        <time>2014-08-25T10:30:13Z</time>
      </trkpt>
      <trkpt lat="43.74324" lon="6.63966">
        <ele>1444.605</ele>
        <time>2014-08-25T10:30:17Z</time>
      </trkpt>
      <trkpt lat="43.74306" lon="6.63977">
        <ele>1447.541</ele>
        <time>2014-08-25T10:30:24Z</time>
      </trkpt>
      <trkpt lat="43.74291" lon="6.63985">
        <ele>1452.975</ele>
        <time>2014-08-25T10:30:29Z</time>
      </trkpt>
      <trkpt lat="43.74278" lon="6.63994">
        <ele>1460.546</ele>
        <time>2014-08-25T10:30:34Z</time>
      </trkpt>
      <trkpt lat="43.74261" lon="6.64005">
        <ele>1469.324</ele>
        <time>2014-08-25T10:30:40Z</time>
      </trkpt>
      <trkpt lat="43.74247" lon="6.64018">
        <ele>1474.22</ele>
        <time>2014-08-25T10:30:45Z</time>
      </trkpt>
      <trkpt lat="43.74232" lon="6.64037">
        <ele>1477.292</ele>
        <time>2014-08-25T10:30:51Z</time>
      </trkpt>
      <trkpt lat="43.74213" lon="6.6405">
        <ele>1478.484</ele>
        <time>2014-08-25T10:30:57Z</time>
      </trkpt>
      <trkpt lat="43.74197" lon="6.64061">
        <ele>1479.351</ele>
        <time>2014-08-25T10:31:03Z</time>
      </trkpt>
      <trkpt lat="43.74181" lon="6.64067">
        <ele>1480.87</ele>
        <time>2014-08-25T10:31:08Z</time>
      </trkpt>
      <trkpt lat="43.74161" lon="6.64069">
        <ele>1481.799</ele>
        <time>2014-08-25T10:31:14Z</time>
      </trkpt>
      <trkpt lat="43.74146" lon="6.64062">
        <ele>1490.343</ele>
        <time>2014-08-25T10:31:19Z</time>
      </trkpt>
      <trkpt lat="43.74129" lon="6.6405">
        <ele>1494.093</ele>
        <time>2014-08-25T10:31:25Z</time>
      </trkpt>
      <trkpt lat="43.7412" lon="6.64043">
        <ele>1481.789</ele>
        <time>2014-08-25T10:31:31Z</time>
      </trkpt>
      <trkpt lat="43.74107" lon="6.64042">
        <ele>1468.858</ele>
        <time>2014-08-25T10:31:39Z</time>
      </trkpt>
      <trkpt lat="43.74093" lon="6.64041">
        <ele>1466.132</ele>
        <time>2014-08-25T10:31:45Z</time>
      </trkpt>
      <trkpt lat="43.74078" lon="6.6404">
        <ele>1465.146</ele>
        <time>2014-08-25T10:31:52Z</time>
      </trkpt>
      <trkpt lat="43.74067" lon="6.64037">
        <ele>1463.366</ele>
        <time>2014-08-25T10:31:57Z</time>
      </trkpt>
      <trkpt lat="43.74056" lon="6.64042">
        <ele>1464.107</ele>
        <time>2014-08-25T10:32:03Z</time>
      </trkpt>
      <trkpt lat="43.74037" lon="6.64045">
        <ele>1461.154</ele>
        <time>2014-08-25T10:32:11Z</time>
      </trkpt>
      <trkpt lat="43.74024" lon="6.64048">
        <ele>1462.409</ele>
        <time>2014-08-25T10:32:16Z</time>
      </trkpt>
      <trkpt lat="43.7401" lon="6.64051">
        <ele>1463.369</ele>
        <time>2014-08-25T10:32:21Z</time>
      </trkpt>
      <trkpt lat="43.74003" lon="6.64053">
        <ele>1464.382</ele>
        <time>2014-08-25T10:32:23Z</time>
      </trkpt>
      <trkpt lat="43.73997" lon="6.64065">
        <ele>1467.458</ele>
        <time>2014-08-25T10:32:27Z</time>
      </trkpt>
      <trkpt lat="43.74002" lon="6.64068">
        <ele>1468.058</ele>
        <time>2014-08-25T10:32:30Z</time>
      </trkpt>
      <trkpt lat="43.74017" lon="6.64061">
        <ele>1463.922</ele>
        <time>2014-08-25T10:32:36Z</time>
      </trkpt>
      <trkpt lat="43.74034" lon="6.64054">
        <ele>1461.794</ele>
        <time>2014-08-25T10:32:43Z</time>
      </trkpt>
      <trkpt lat="43.7405" lon="6.64055">
        <ele>1463.558</ele>
        <time>2014-08-25T10:32:49Z</time>
      </trkpt>
      <trkpt lat="43.74067" lon="6.64059">
        <ele>1465.063</ele>
        <time>2014-08-25T10:32:56Z</time>
      </trkpt>
      <trkpt lat="43.74086" lon="6.6407">
        <ele>1464.993</ele>
        <time>2014-08-25T10:33:04Z</time>
      </trkpt>
      <trkpt lat="43.74098" lon="6.64083">
        <ele>1471.516</ele>
        <time>2014-08-25T10:33:11Z</time>
      </trkpt>
      <trkpt lat="43.74103" lon="6.641">
        <ele>1478.895</ele>
        <time>2014-08-25T10:33:17Z</time>
      </trkpt>
      <trkpt lat="43.74099" lon="6.6412">
        <ele>1489.04</ele>
        <time>2014-08-25T10:33:23Z</time>
      </trkpt>
      <trkpt lat="43.74101" lon="6.6414">
        <ele>1492.898</ele>
        <time>2014-08-25T10:33:29Z</time>
      </trkpt>
      <trkpt lat="43.74109" lon="6.64153">
        <ele>1496.34</ele>
        <time>2014-08-25T10:33:35Z</time>
      </trkpt>
      <trkpt lat="43.74122" lon="6.64165">
        <ele>1499.655</ele>
        <time>2014-08-25T10:33:42Z</time>
      </trkpt>
      <trkpt lat="43.74136" lon="6.64176">
        <ele>1501.491</ele>
        <time>2014-08-25T10:33:49Z</time>
      </trkpt>
      <trkpt lat="43.74149" lon="6.64184">
        <ele>1502.259</ele>
        <time>2014-08-25T10:33:55Z</time>
      </trkpt>
      <trkpt lat="43.74168" lon="6.64183">
        <ele>1502.407</ele>
        <time>2014-08-25T10:34:03Z</time>
      </trkpt>
      <trkpt lat="43.74184" lon="6.64175">
        <ele>1501.995</ele>
        <time>2014-08-25T10:34:10Z</time>
      </trkpt>
      <trkpt lat="43.74196" lon="6.64171">
        <ele>1502.575</ele>
        <time>2014-08-25T10:34:16Z</time>
      </trkpt>
      <trkpt lat="43.74212" lon="6.6417">
        <ele>1502.705</ele>
        <time>2014-08-25T10:34:23Z</time>
      </trkpt>
      <trkpt lat="43.74226" lon="6.64173">
        <ele>1504.947</ele>
        <time>2014-08-25T10:34:30Z</time>
      </trkpt>
      <trkpt lat="43.74238" lon="6.64175">
        <ele>1504.756</ele>
        <time>2014-08-25T10:34:35Z</time>
      </trkpt>
      <trkpt lat="43.74253" lon="6.64174">
        <ele>1504.947</ele>
        <time>2014-08-25T10:34:42Z</time>
      </trkpt>
      <trkpt lat="43.74263" lon="6.64175">
        <ele>1508.508</ele>
        <time>2014-08-25T10:34:48Z</time>
      </trkpt>
      <trkpt lat="43.74281" lon="6.64179">
        <ele>1509.297</ele>
        <time>2014-08-25T10:34:56Z</time>
      </trkpt>
      <trkpt lat="43.74295" lon="6.64173">
        <ele>1509.586</ele>
        <time>2014-08-25T10:35:03Z</time>
      </trkpt>
      <trkpt lat="43.74309" lon="6.6417">
        <ele>1509.646</ele>
        <time>2014-08-25T10:35:10Z</time>
      </trkpt>
      <trkpt lat="43.74331" lon="6.64171">
        <ele>1502.777</ele>
        <time>2014-08-25T10:35:19Z</time>
      </trkpt>
      <trkpt lat="43.74352" lon="6.64174">
        <ele>1498.674</ele>
        <time>2014-08-25T10:35:28Z</time>
      </trkpt>
      <trkpt lat="43.74366" lon="6.64187">
        <ele>1499.181</ele>
        <time>2014-08-25T10:35:37Z</time>
      </trkpt>
      <trkpt lat="43.74372" lon="6.64199">
        <ele>1502.656</ele>
        <time>2014-08-25T10:35:44Z</time>
      </trkpt>
      <trkpt lat="43.74379" lon="6.64213">
        <ele>1506.52</ele>
        <time>2014-08-25T10:35:51Z</time>
      </trkpt>
      <trkpt lat="43.74384" lon="6.64229">
        <ele>1513.184</ele>
        <time>2014-08-25T10:35:58Z</time>
      </trkpt>
      <trkpt lat="43.74389" lon="6.64244">
        <ele>1514.028</ele>
        <time>2014-08-25T10:36:05Z</time>
      </trkpt>
      <trkpt lat="43.74391" lon="6.64268">
        <ele>1514.802</ele>
        <time>2014-08-25T10:36:14Z</time>
      </trkpt>
      <trkpt lat="43.74392" lon="6.64288">
        <ele>1513.138</ele>
        <time>2014-08-25T10:36:22Z</time>
      </trkpt>
      <trkpt lat="43.74391" lon="6.64306">
        <ele>1514.812</ele>
        <time>2014-08-25T10:36:29Z</time>
      </trkpt>
      <trkpt lat="43.74389" lon="6.64323">
        <ele>1526.991</ele>
        <time>2014-08-25T10:36:36Z</time>
      </trkpt>
      <trkpt lat="43.74391" lon="6.64339">
        <ele>1532.261</ele>
        <time>2014-08-25T10:36:43Z</time>
      </trkpt>
      <trkpt lat="43.74393" lon="6.64355">
        <ele>1540.717</ele>
        <time>2014-08-25T10:36:50Z</time>
      </trkpt>
      <trkpt lat="43.74396" lon="6.64368">
        <ele>1545.518</ele>
        <time>2014-08-25T10:36:56Z</time>
      </trkpt>
      <trkpt lat="43.74401" lon="6.64384">
        <ele>1554.522</ele>
        <time>2014-08-25T10:37:03Z</time>
      </trkpt>
      <trkpt lat="43.74406" lon="6.64396">
        <ele>1557.776</ele>
        <time>2014-08-25T10:37:09Z</time>
      </trkpt>
      <trkpt lat="43.74414" lon="6.6441">
        <ele>1561.818</ele>
        <time>2014-08-25T10:37:16Z</time>
      </trkpt>
      <trkpt lat="43.74424" lon="6.64419">
        <ele>1566.806</ele>
        <time>2014-08-25T10:37:23Z</time>
      </trkpt>
      <trkpt lat="43.74436" lon="6.64428">
        <ele>1573.065</ele>
        <time>2014-08-25T10:37:31Z</time>
      </trkpt>
      <trkpt lat="43.74446" lon="6.64437">
        <ele>1577.513</ele>
        <time>2014-08-25T10:37:38Z</time>
      </trkpt>
      <trkpt lat="43.74456" lon="6.64446">
        <ele>1581.222</ele>
        <time>2014-08-25T10:37:45Z</time>
      </trkpt>
      <trkpt lat="43.74464" lon="6.64461">
        <ele>1584.476</ele>
        <time>2014-08-25T10:37:53Z</time>
      </trkpt>
      <trkpt lat="43.7447" lon="6.64472">
        <ele>1588.82</ele>
        <time>2014-08-25T10:37:59Z</time>
      </trkpt>
      <trkpt lat="43.74477" lon="6.64487">
        <ele>1595.325</ele>
        <time>2014-08-25T10:38:07Z</time>
      </trkpt>
      <trkpt lat="43.74484" lon="6.64498">
        <ele>1595.184</ele>
        <time>2014-08-25T10:38:13Z</time>
      </trkpt>
      <trkpt lat="43.74494" lon="6.64514">
        <ele>1597.464</ele>
        <time>2014-08-25T10:38:22Z</time>
      </trkpt>
      <trkpt lat="43.74501" lon="6.64525">
        <ele>1598.794</ele>
        <time>2014-08-25T10:38:28Z</time>
      </trkpt>
      <trkpt lat="43.74508" lon="6.64536">
        <ele>1601.369</ele>
        <time>2014-08-25T10:38:34Z</time>
      </trkpt>
      <trkpt lat="43.74514" lon="6.6455">
        <ele>1604.943</ele>
        <time>2014-08-25T10:38:40Z</time>
      </trkpt>
      <trkpt lat="43.74523" lon="6.64565">
        <ele>1608.773</ele>
        <time>2014-08-25T10:38:48Z</time>
      </trkpt>
      <trkpt lat="43.74528" lon="6.64577">
        <ele>1612.634</ele>
        <time>2014-08-25T10:38:54Z</time>
      </trkpt>
      <trkpt lat="43.74538" lon="6.64599">
        <ele>1616.96</ele>
        <time>2014-08-25T10:39:04Z</time>
      </trkpt>
      <trkpt lat="43.74547" lon="6.64608">
        <ele>1615.289</ele>
        <time>2014-08-25T10:39:10Z</time>
      </trkpt>
      <trkpt lat="43.74553" lon="6.6462">
        <ele>1615.636</ele>
        <time>2014-08-25T10:39:16Z</time>
      </trkpt>
      <trkpt lat="43.74564" lon="6.64626">
        <ele>1611.171</ele>
        <time>2014-08-25T10:39:22Z</time>
      </trkpt>
      <trkpt lat="43.74579" lon="6.64638">
        <ele>1608.669</ele>
        <time>2014-08-25T10:39:31Z</time>
      </trkpt>
      <trkpt lat="43.74583" lon="6.6465">
        <ele>1608.742</ele>
        <time>2014-08-25T10:39:37Z</time>
      </trkpt>
      <trkpt lat="43.74594" lon="6.64663">
        <ele>1605.047</ele>
        <time>2014-08-25T10:39:45Z</time>
      </trkpt>
      <trkpt lat="43.74598" lon="6.64674">
        <ele>1600.703</ele>
        <time>2014-08-25T10:39:50Z</time>
      </trkpt>
      <trkpt lat="43.74607" lon="6.64689">
        <ele>1596.672</ele>
        <time>2014-08-25T10:39:57Z</time>
      </trkpt>
      <trkpt lat="43.74609" lon="6.64692">
        <ele>1596.175</ele>
        <time>2014-08-25T10:39:59Z</time>
      </trkpt>
      <trkpt lat="43.74617" lon="6.6471">
        <ele>1592.093</ele>
        <time>2014-08-25T10:40:07Z</time>
      </trkpt>
      <trkpt lat="43.74627" lon="6.64725">
        <ele>1588.105</ele>
        <time>2014-08-25T10:40:15Z</time>
      </trkpt>
      <trkpt lat="43.74639" lon="6.64739">
        <ele>1575.848</ele>
        <time>2014-08-25T10:40:22Z</time>
      </trkpt>
      <trkpt lat="43.74653" lon="6.64744">
        <ele>1556.881</ele>
        <time>2014-08-25T10:40:28Z</time>
      </trkpt>
      <trkpt lat="43.74665" lon="6.64757">
        <ele>1550.325</ele>
        <time>2014-08-25T10:40:36Z</time>
      </trkpt>
      <trkpt lat="43.74673" lon="6.64762">
        <ele>1546.961</ele>
        <time>2014-08-25T10:40:40Z</time>
      </trkpt>
      <trkpt lat="43.74683" lon="6.64773">
        <ele>1545.724</ele>
        <time>2014-08-25T10:40:48Z</time>
      </trkpt>
      <trkpt lat="43.7469" lon="6.64787">
        <ele>1547.029</ele>
        <time>2014-08-25T10:40:56Z</time>
      </trkpt>
      <trkpt lat="43.74695" lon="6.64796">
        <ele>1550.256</ele>
        <time>2014-08-25T10:41:02Z</time>
      </trkpt>
      <trkpt lat="43.74701" lon="6.64813">
        <ele>1554.28</ele>
        <time>2014-08-25T10:41:10Z</time>
      </trkpt>
      <trkpt lat="43.74704" lon="6.64831">
        <ele>1560.063</ele>
        <time>2014-08-25T10:41:18Z</time>
      </trkpt>
      <trkpt lat="43.74706" lon="6.64835">
        <ele>1560.272</ele>
        <time>2014-08-25T10:41:20Z</time>
      </trkpt>
      <trkpt lat="43.74713" lon="6.64851">
        <ele>1559.126</ele>
        <time>2014-08-25T10:41:29Z</time>
      </trkpt>
      <trkpt lat="43.74721" lon="6.64867">
        <ele>1555.99</ele>
        <time>2014-08-25T10:41:37Z</time>
      </trkpt>
      <trkpt lat="43.74725" lon="6.64875">
        <ele>1555.418</ele>
        <time>2014-08-25T10:41:41Z</time>
      </trkpt>
      <trkpt lat="43.74729" lon="6.6489">
        <ele>1558.141</ele>
        <time>2014-08-25T10:41:48Z</time>
      </trkpt>
      <trkpt lat="43.7473" lon="6.64891">
        <ele>1557.489</ele>
        <time>2014-08-25T10:41:49Z</time>
      </trkpt>
      <trkpt lat="43.74736" lon="6.64911">
        <ele>1559.273</ele>
        <time>2014-08-25T10:41:59Z</time>
      </trkpt>
      <trkpt lat="43.74741" lon="6.64926">
        <ele>1558.281</ele>
        <time>2014-08-25T10:42:07Z</time>
      </trkpt>
      <trkpt lat="43.74743" lon="6.64944">
        <ele>1559.18</ele>
        <time>2014-08-25T10:42:15Z</time>
      </trkpt>
      <trkpt lat="43.74741" lon="6.64948">
        <ele>1556.29</ele>
        <time>2014-08-25T10:42:21Z</time>
      </trkpt>
      <trkpt lat="43.74743" lon="6.64953">
        <ele>1555.778</ele>
        <time>2014-08-25T10:43:21Z</time>
      </trkpt>
      <trkpt lat="43.74747" lon="6.64962">
        <ele>1557.855</ele>
        <time>2014-08-25T10:43:27Z</time>
      </trkpt>
      <trkpt lat="43.74749" lon="6.64979">
        <ele>1562.778</ele>
        <time>2014-08-25T10:43:35Z</time>
      </trkpt>
      <trkpt lat="43.74751" lon="6.64995">
        <ele>1565.413</ele>
        <time>2014-08-25T10:43:41Z</time>
      </trkpt>
      <trkpt lat="43.74753" lon="6.65013">
        <ele>1566.87</ele>
        <time>2014-08-25T10:43:48Z</time>
      </trkpt>
      <trkpt lat="43.74758" lon="6.65036">
        <ele>1569.299</ele>
        <time>2014-08-25T10:43:57Z</time>
      </trkpt>
      <trkpt lat="43.7476" lon="6.6505">
        <ele>1571.56</ele>
        <time>2014-08-25T10:44:03Z</time>
      </trkpt>
      <trkpt lat="43.74765" lon="6.65065">
        <ele>1575.923</ele>
        <time>2014-08-25T10:44:11Z</time>
      </trkpt>
      <trkpt lat="43.74771" lon="6.65081">
        <ele>1576.686</ele>
        <time>2014-08-25T10:44:18Z</time>
      </trkpt>
      <trkpt lat="43.7478" lon="6.65098">
        <ele>1579</ele>
        <time>2014-08-25T10:44:27Z</time>
      </trkpt>
      <trkpt lat="43.74787" lon="6.65109">
        <ele>1582.075</ele>
        <time>2014-08-25T10:44:33Z</time>
      </trkpt>
      <trkpt lat="43.74798" lon="6.65122">
        <ele>1584.008</ele>
        <time>2014-08-25T10:44:40Z</time>
      </trkpt>
      <trkpt lat="43.74804" lon="6.65132">
        <ele>1585.633</ele>
        <time>2014-08-25T10:44:46Z</time>
      </trkpt>
      <trkpt lat="43.74813" lon="6.65144">
        <ele>1585.157</ele>
        <time>2014-08-25T10:44:53Z</time>
      </trkpt>
      <trkpt lat="43.74819" lon="6.65157">
        <ele>1586.078</ele>
        <time>2014-08-25T10:44:59Z</time>
      </trkpt>
      <trkpt lat="43.74821" lon="6.65158">
        <ele>1586.72</ele>
        <time>2014-08-25T10:45:00Z</time>
      </trkpt>
      <trkpt lat="43.74829" lon="6.65182">
        <ele>1587.079</ele>
        <time>2014-08-25T10:45:09Z</time>
      </trkpt>
      <trkpt lat="43.74836" lon="6.65205">
        <ele>1588.27</ele>
        <time>2014-08-25T10:45:18Z</time>
      </trkpt>
      <trkpt lat="43.74841" lon="6.65222">
        <ele>1586.578</ele>
        <time>2014-08-25T10:45:24Z</time>
      </trkpt>
      <trkpt lat="43.74844" lon="6.65233">
        <ele>1586.111</ele>
        <time>2014-08-25T10:45:28Z</time>
      </trkpt>
      <trkpt lat="43.74852" lon="6.65253">
        <ele>1586.908</ele>
        <time>2014-08-25T10:45:36Z</time>
      </trkpt>
      <trkpt lat="43.74857" lon="6.65268">
        <ele>1587.787</ele>
        <time>2014-08-25T10:45:42Z</time>
      </trkpt>
      <trkpt lat="43.74862" lon="6.65283">
        <ele>1589.679</ele>
        <time>2014-08-25T10:45:48Z</time>
      </trkpt>
      <trkpt lat="43.74868" lon="6.653">
        <ele>1592.081</ele>
        <time>2014-08-25T10:45:55Z</time>
      </trkpt>
      <trkpt lat="43.74874" lon="6.65315">
        <ele>1593.298</ele>
        <time>2014-08-25T10:46:01Z</time>
      </trkpt>
      <trkpt lat="43.74883" lon="6.65331">
        <ele>1593.679</ele>
        <time>2014-08-25T10:46:08Z</time>
      </trkpt>
      <trkpt lat="43.74892" lon="6.65349">
        <ele>1592.306</ele>
        <time>2014-08-25T10:46:15Z</time>
      </trkpt>
      <trkpt lat="43.74902" lon="6.65363">
        <ele>1592.207</ele>
        <time>2014-08-25T10:46:22Z</time>
      </trkpt>
      <trkpt lat="43.74913" lon="6.65377">
        <ele>1593.54</ele>
        <time>2014-08-25T10:46:30Z</time>
      </trkpt>
      <trkpt lat="43.74919" lon="6.65394">
        <ele>1594.682</ele>
        <time>2014-08-25T10:46:38Z</time>
      </trkpt>
      <trkpt lat="43.74925" lon="6.65411">
        <ele>1598.04</ele>
        <time>2014-08-25T10:46:46Z</time>
      </trkpt>
      <trkpt lat="43.7493" lon="6.65429">
        <ele>1599.59</ele>
        <time>2014-08-25T10:46:53Z</time>
      </trkpt>
      <trkpt lat="43.74936" lon="6.6545">
        <ele>1599.48</ele>
        <time>2014-08-25T10:47:01Z</time>
      </trkpt>
      <trkpt lat="43.74941" lon="6.65471">
        <ele>1601.481</ele>
        <time>2014-08-25T10:47:09Z</time>
      </trkpt>
      <trkpt lat="43.74947" lon="6.65487">
        <ele>1603.542</ele>
        <time>2014-08-25T10:47:16Z</time>
      </trkpt>
      <trkpt lat="43.74954" lon="6.65508">
        <ele>1604.37</ele>
        <time>2014-08-25T10:47:25Z</time>
      </trkpt>
      <trkpt lat="43.74957" lon="6.65528">
        <ele>1604.426</ele>
        <time>2014-08-25T10:47:32Z</time>
      </trkpt>
      <trkpt lat="43.7496" lon="6.65546">
        <ele>1606.215</ele>
        <time>2014-08-25T10:47:39Z</time>
      </trkpt>
      <trkpt lat="43.74963" lon="6.65569">
        <ele>1605.945</ele>
        <time>2014-08-25T10:47:47Z</time>
      </trkpt>
      <trkpt lat="43.74969" lon="6.65588">
        <ele>1607.745</ele>
        <time>2014-08-25T10:47:55Z</time>
      </trkpt>
      <trkpt lat="43.74975" lon="6.65607">
        <ele>1607.356</ele>
        <time>2014-08-25T10:48:02Z</time>
      </trkpt>
      <trkpt lat="43.74976" lon="6.65612">
        <ele>1608.433</ele>
        <time>2014-08-25T10:48:04Z</time>
      </trkpt>
      <trkpt lat="43.7497" lon="6.65619">
        <ele>1607.471</ele>
        <time>2014-08-25T10:48:09Z</time>
      </trkpt>
      <trkpt lat="43.74964" lon="6.65614">
        <ele>1607.532</ele>
        <time>2014-08-25T10:48:13Z</time>
      </trkpt>
      <trkpt lat="43.74962" lon="6.6561">
        <ele>1606.752</ele>
        <time>2014-08-25T10:48:15Z</time>
      </trkpt>
      <trkpt lat="43.74954" lon="6.65592">
        <ele>1606.954</ele>
        <time>2014-08-25T10:48:22Z</time>
      </trkpt>
      <trkpt lat="43.74947" lon="6.65571">
        <ele>1607.763</ele>
        <time>2014-08-25T10:48:28Z</time>
      </trkpt>
      <trkpt lat="43.74941" lon="6.65548">
        <ele>1607.685</ele>
        <time>2014-08-25T10:48:35Z</time>
      </trkpt>
      <trkpt lat="43.74931" lon="6.65526">
        <ele>1608.206</ele>
        <time>2014-08-25T10:48:42Z</time>
      </trkpt>
      <trkpt lat="43.74922" lon="6.65524">
        <ele>1607.583</ele>
        <time>2014-08-25T10:48:47Z</time>
      </trkpt>
      <trkpt lat="43.74919" lon="6.65526">
        <ele>1607.984</ele>
        <time>2014-08-25T10:48:49Z</time>
      </trkpt>
      <trkpt lat="43.74917" lon="6.65538">
        <ele>1607.814</ele>
        <time>2014-08-25T10:48:54Z</time>
      </trkpt>
      <trkpt lat="43.74917" lon="6.65564">
        <ele>1610.949</ele>
        <time>2014-08-25T10:49:02Z</time>
      </trkpt>
      <trkpt lat="43.74911" lon="6.65573">
        <ele>1613.208</ele>
        <time>2014-08-25T10:49:07Z</time>
      </trkpt>
      <trkpt lat="43.74904" lon="6.65571">
        <ele>1614.418</ele>
        <time>2014-08-25T10:49:10Z</time>
      </trkpt>
      <trkpt lat="43.74891" lon="6.65559">
        <ele>1615.977</ele>
        <time>2014-08-25T10:49:18Z</time>
      </trkpt>
      <trkpt lat="43.74883" lon="6.65551">
        <ele>1616.544</ele>
        <time>2014-08-25T10:49:25Z</time>
      </trkpt>
      <trkpt lat="43.74871" lon="6.65551">
        <ele>1615.368</ele>
        <time>2014-08-25T10:49:33Z</time>
      </trkpt>
      <trkpt lat="43.74857" lon="6.65554">
        <ele>1613.095</ele>
        <time>2014-08-25T10:49:42Z</time>
      </trkpt>
      <trkpt lat="43.74856" lon="6.65554">
        <ele>1613.067</ele>
        <time>2014-08-25T10:49:43Z</time>
      </trkpt>
      <trkpt lat="43.74847" lon="6.65559">
        <ele>1616.671</ele>
        <time>2014-08-25T10:49:50Z</time>
      </trkpt>
      <trkpt lat="43.74838" lon="6.6557">
        <ele>1621.477</ele>
        <time>2014-08-25T10:49:57Z</time>
      </trkpt>
      <trkpt lat="43.74831" lon="6.65582">
        <ele>1619.916</ele>
        <time>2014-08-25T10:50:04Z</time>
      </trkpt>
      <trkpt lat="43.74823" lon="6.65595">
        <ele>1622.072</ele>
        <time>2014-08-25T10:50:11Z</time>
      </trkpt>
      <trkpt lat="43.74815" lon="6.65612">
        <ele>1624.633</ele>
        <time>2014-08-25T10:50:19Z</time>
      </trkpt>
      <trkpt lat="43.7481" lon="6.65627">
        <ele>1626.005</ele>
        <time>2014-08-25T10:50:26Z</time>
      </trkpt>
      <trkpt lat="43.74808" lon="6.65636">
        <ele>1626.985</ele>
        <time>2014-08-25T10:50:30Z</time>
      </trkpt>
      <trkpt lat="43.74802" lon="6.65637">
        <ele>1628.208</ele>
        <time>2014-08-25T10:50:34Z</time>
      </trkpt>
      <trkpt lat="43.74798" lon="6.65631">
        <ele>1629.328</ele>
        <time>2014-08-25T10:50:38Z</time>
      </trkpt>
      <trkpt lat="43.74789" lon="6.65632">
        <ele>1630.118</ele>
        <time>2014-08-25T10:50:46Z</time>
      </trkpt>
      <trkpt lat="43.7478" lon="6.65639">
        <ele>1630.517</ele>
        <time>2014-08-25T10:50:54Z</time>
      </trkpt>
      <trkpt lat="43.74773" lon="6.65644">
        <ele>1631.004</ele>
        <time>2014-08-25T10:51:01Z</time>
      </trkpt>
      <trkpt lat="43.74771" lon="6.65642">
        <ele>1631.832</ele>
        <time>2014-08-25T10:51:22Z</time>
      </trkpt>
      <trkpt lat="43.7476" lon="6.65633">
        <ele>1630.024</ele>
        <time>2014-08-25T10:51:27Z</time>
      </trkpt>
      <trkpt lat="43.74756" lon="6.6562">
        <ele>1629.263</ele>
        <time>2014-08-25T10:51:29Z</time>
      </trkpt>
      <trkpt lat="43.74751" lon="6.65591">
        <ele>1628.909</ele>
        <time>2014-08-25T10:51:34Z</time>
      </trkpt>
      <trkpt lat="43.74747" lon="6.6557">
        <ele>1629.473</ele>
        <time>2014-08-25T10:51:41Z</time>
      </trkpt>
      <trkpt lat="43.74748" lon="6.65562">
        <ele>1629.634</ele>
        <time>2014-08-25T10:51:44Z</time>
      </trkpt>
      <trkpt lat="43.74741" lon="6.65557">
        <ele>1630.075</ele>
        <time>2014-08-25T10:51:49Z</time>
      </trkpt>
      <trkpt lat="43.74738" lon="6.65554">
        <ele>1630.556</ele>
        <time>2014-08-25T10:51:52Z</time>
      </trkpt>
      <trkpt lat="43.7473" lon="6.65544">
        <ele>1629.825</ele>
        <time>2014-08-25T10:52:01Z</time>
      </trkpt>
      <trkpt lat="43.74723" lon="6.65536">
        <ele>1630.164</ele>
        <time>2014-08-25T10:52:08Z</time>
      </trkpt>
      <trkpt lat="43.74718" lon="6.65532">
        <ele>1630.364</ele>
        <time>2014-08-25T10:52:12Z</time>
      </trkpt>
      <trkpt lat="43.74717" lon="6.65527">
        <ele>1630.764</ele>
        <time>2014-08-25T10:52:15Z</time>
      </trkpt>
      <trkpt lat="43.74709" lon="6.65519">
        <ele>1631.554</ele>
        <time>2014-08-25T10:52:22Z</time>
      </trkpt>
      <trkpt lat="43.74702" lon="6.65513">
        <ele>1633.126</ele>
        <time>2014-08-25T10:52:29Z</time>
      </trkpt>
      <trkpt lat="43.74702" lon="6.65513">
        <ele>1634.847</ele>
        <time>2014-08-25T10:52:34Z</time>
      </trkpt>
      <trkpt lat="43.747" lon="6.65513">
        <ele>1636.096</ele>
        <time>2014-08-25T10:52:39Z</time>
      </trkpt>
      <trkpt lat="43.74697" lon="6.65509">
        <ele>1633.819</ele>
        <time>2014-08-25T10:52:46Z</time>
      </trkpt>
      <trkpt lat="43.74692" lon="6.6551">
        <ele>1632.402</ele>
        <time>2014-08-25T10:52:55Z</time>
      </trkpt>
      <trkpt lat="43.74684" lon="6.65507">
        <ele>1633.244</ele>
        <time>2014-08-25T10:53:04Z</time>
      </trkpt>
      <trkpt lat="43.74679" lon="6.65505">
        <ele>1633.993</ele>
        <time>2014-08-25T10:53:09Z</time>
      </trkpt>
      <trkpt lat="43.74675" lon="6.65501">
        <ele>1634.062</ele>
        <time>2014-08-25T10:53:16Z</time>
      </trkpt>
      <trkpt lat="43.74671" lon="6.65496">
        <ele>1636.435</ele>
        <time>2014-08-25T10:53:26Z</time>
      </trkpt>
      <trkpt lat="43.74667" lon="6.65493">
        <ele>1636.623</ele>
        <time>2014-08-25T10:53:30Z</time>
      </trkpt>
      <trkpt lat="43.74665" lon="6.65489">
        <ele>1636.335</ele>
        <time>2014-08-25T10:53:34Z</time>
      </trkpt>
      <trkpt lat="43.74662" lon="6.65479">
        <ele>1639.305</ele>
        <time>2014-08-25T10:53:45Z</time>
      </trkpt>
      <trkpt lat="43.74661" lon="6.65472">
        <ele>1640.505</ele>
        <time>2014-08-25T10:53:52Z</time>
      </trkpt>
      <trkpt lat="43.74662" lon="6.65462">
        <ele>1643.197</ele>
        <time>2014-08-25T10:54:00Z</time>
      </trkpt>
      <trkpt lat="43.74658" lon="6.65448">
        <ele>1643.773</ele>
        <time>2014-08-25T10:54:09Z</time>
      </trkpt>
      <trkpt lat="43.7465" lon="6.65432">
        <ele>1645.763</ele>
        <time>2014-08-25T10:54:20Z</time>
      </trkpt>
      <trkpt lat="43.74644" lon="6.6542">
        <ele>1648.215</ele>
        <time>2014-08-25T10:54:30Z</time>
      </trkpt>
      <trkpt lat="43.74639" lon="6.65409">
        <ele>1651.737</ele>
        <time>2014-08-25T10:54:40Z</time>
      </trkpt>
      <trkpt lat="43.74639" lon="6.65403">
        <ele>1656.529</ele>
        <time>2014-08-25T10:54:49Z</time>
      </trkpt>
      <trkpt lat="43.74637" lon="6.65399">
        <ele>1659.587</ele>
        <time>2014-08-25T10:54:57Z</time>
      </trkpt>
      <trkpt lat="43.74634" lon="6.65392">
        <ele>1660.615</ele>
        <time>2014-08-25T10:55:06Z</time>
      </trkpt>
      <trkpt lat="43.74632" lon="6.6539">
        <ele>1661.352</ele>
        <time>2014-08-25T10:55:13Z</time>
      </trkpt>
      <trkpt lat="43.74628" lon="6.65386">
        <ele>1661.295</ele>
        <time>2014-08-25T10:55:20Z</time>
      </trkpt>
      <trkpt lat="43.74625" lon="6.6538">
        <ele>1662.296</ele>
        <time>2014-08-25T10:55:29Z</time>
      </trkpt>
      <trkpt lat="43.74623" lon="6.65377">
        <ele>1664.295</ele>
        <time>2014-08-25T10:55:35Z</time>
      </trkpt>
      <trkpt lat="43.7462" lon="6.65371">
        <ele>1666.256</ele>
        <time>2014-08-25T10:55:43Z</time>
      </trkpt>
      <trkpt lat="43.74617" lon="6.65365">
        <ele>1666.784</ele>
        <time>2014-08-25T10:55:52Z</time>
      </trkpt>
      <trkpt lat="43.74614" lon="6.65363">
        <ele>1666.556</ele>
        <time>2014-08-25T10:55:57Z</time>
      </trkpt>
      <trkpt lat="43.74609" lon="6.6536">
        <ele>1666.952</ele>
        <time>2014-08-25T10:56:05Z</time>
      </trkpt>
      <trkpt lat="43.74607" lon="6.65357">
        <ele>1667.334</ele>
        <time>2014-08-25T10:56:11Z</time>
      </trkpt>
      <trkpt lat="43.74606" lon="6.65354">
        <ele>1668.775</ele>
        <time>2014-08-25T10:56:16Z</time>
      </trkpt>
      <trkpt lat="43.74603" lon="6.65348">
        <ele>1668.821</ele>
        <time>2014-08-25T10:56:24Z</time>
      </trkpt>
      <trkpt lat="43.74597" lon="6.65346">
        <ele>1668.125</ele>
        <time>2014-08-25T10:57:30Z</time>
      </trkpt>
      <trkpt lat="43.74595" lon="6.65341">
        <ele>1670.287</ele>
        <time>2014-08-25T10:57:37Z</time>
      </trkpt>
      <trkpt lat="43.74596" lon="6.6534">
        <ele>1670.881</ele>
        <time>2014-08-25T10:57:42Z</time>
      </trkpt>
      <trkpt lat="43.74594" lon="6.65337">
        <ele>1672.315</ele>
        <time>2014-08-25T10:57:53Z</time>
      </trkpt>
      <trkpt lat="43.7459" lon="6.65331">
        <ele>1675.463</ele>
        <time>2014-08-25T10:58:03Z</time>
      </trkpt>
      <trkpt lat="43.74587" lon="6.65327">
        <ele>1677.377</ele>
        <time>2014-08-25T10:58:09Z</time>
      </trkpt>
      <trkpt lat="43.74582" lon="6.65327">
        <ele>1678.695</ele>
        <time>2014-08-25T10:58:17Z</time>
      </trkpt>
      <trkpt lat="43.74575" lon="6.65327">
        <ele>1679.203</ele>
        <time>2014-08-25T10:58:25Z</time>
      </trkpt>
      <trkpt lat="43.74572" lon="6.65328">
        <ele>1678.209</ele>
        <time>2014-08-25T10:58:29Z</time>
      </trkpt>
      <trkpt lat="43.74567" lon="6.6533">
        <ele>1679.384</ele>
        <time>2014-08-25T10:58:38Z</time>
      </trkpt>
      <trkpt lat="43.74564" lon="6.65331">
        <ele>1680.114</ele>
        <time>2014-08-25T10:58:43Z</time>
      </trkpt>
      <trkpt lat="43.74558" lon="6.65332">
        <ele>1681.936</ele>
        <time>2014-08-25T10:58:52Z</time>
      </trkpt>
      <trkpt lat="43.74556" lon="6.65332">
        <ele>1681.735</ele>
        <time>2014-08-25T10:58:54Z</time>
      </trkpt>
      <trkpt lat="43.74551" lon="6.65332">
        <ele>1681.343</ele>
        <time>2014-08-25T10:58:58Z</time>
      </trkpt>
      <trkpt lat="43.74545" lon="6.65335">
        <ele>1679.661</ele>
        <time>2014-08-25T10:59:07Z</time>
      </trkpt>
      <trkpt lat="43.74539" lon="6.65338">
        <ele>1682.887</ele>
        <time>2014-08-25T10:59:15Z</time>
      </trkpt>
      <trkpt lat="43.74531" lon="6.65341">
        <ele>1684.734</ele>
        <time>2014-08-25T10:59:24Z</time>
      </trkpt>
      <trkpt lat="43.74522" lon="6.65344">
        <ele>1685.202</ele>
        <time>2014-08-25T10:59:33Z</time>
      </trkpt>
      <trkpt lat="43.74512" lon="6.65347">
        <ele>1684.821</ele>
        <time>2014-08-25T10:59:42Z</time>
      </trkpt>
      <trkpt lat="43.74506" lon="6.65348">
        <ele>1684.83</ele>
        <time>2014-08-25T10:59:49Z</time>
      </trkpt>
      <trkpt lat="43.74505" lon="6.65347">
        <ele>1685.24</ele>
        <time>2014-08-25T10:59:55Z</time>
      </trkpt>
      <trkpt lat="43.74499" lon="6.65345">
        <ele>1685.49</ele>
        <time>2014-08-25T11:00:00Z</time>
      </trkpt>
      <trkpt lat="43.74491" lon="6.65336">
        <ele>1687.195</ele>
        <time>2014-08-25T11:00:06Z</time>
      </trkpt>
      <trkpt lat="43.74482" lon="6.65328">
        <ele>1688.592</ele>
        <time>2014-08-25T11:00:14Z</time>
      </trkpt>
      <trkpt lat="43.74475" lon="6.65326">
        <ele>1688.75</ele>
        <time>2014-08-25T11:00:19Z</time>
      </trkpt>
      <trkpt lat="43.74474" lon="6.65324">
        <ele>1689.159</ele>
        <time>2014-08-25T11:00:26Z</time>
      </trkpt>
      <trkpt lat="43.74471" lon="6.65323">
        <ele>1699.646</ele>
        <time>2014-08-25T11:07:34Z</time>
      </trkpt>
      <trkpt lat="43.74468" lon="6.65305">
        <ele>1695.698</ele>
        <time>2014-08-25T11:07:41Z</time>
      </trkpt>
      <trkpt lat="43.74466" lon="6.65286">
        <ele>1691.351</ele>
        <time>2014-08-25T11:07:46Z</time>
      </trkpt>
      <trkpt lat="43.74461" lon="6.65269">
        <ele>1687.099</ele>
        <time>2014-08-25T11:07:51Z</time>
      </trkpt>
      <trkpt lat="43.7445" lon="6.65253">
        <ele>1681.365</ele>
        <time>2014-08-25T11:07:57Z</time>
      </trkpt>
      <trkpt lat="43.74438" lon="6.65243">
        <ele>1675.805</ele>
        <time>2014-08-25T11:08:02Z</time>
      </trkpt>
      <trkpt lat="43.74435" lon="6.65225">
        <ele>1672.521</ele>
        <time>2014-08-25T11:08:08Z</time>
      </trkpt>
      <trkpt lat="43.74426" lon="6.65221">
        <ele>1668.861</ele>
        <time>2014-08-25T11:08:12Z</time>
      </trkpt>
      <trkpt lat="43.74424" lon="6.65219">
        <ele>1667.871</ele>
        <time>2014-08-25T11:08:13Z</time>
      </trkpt>
      <trkpt lat="43.74419" lon="6.65214">
        <ele>1665.29</ele>
        <time>2014-08-25T11:08:16Z</time>
      </trkpt>
      <trkpt lat="43.74418" lon="6.65199">
        <ele>1664.79</ele>
        <time>2014-08-25T11:08:22Z</time>
      </trkpt>
      <trkpt lat="43.74418" lon="6.65195">
        <ele>1664.04</ele>
        <time>2014-08-25T11:08:24Z</time>
      </trkpt>
      <trkpt lat="43.74416" lon="6.65192">
        <ele>1660.55</ele>
        <time>2014-08-25T11:08:29Z</time>
      </trkpt>
      <trkpt lat="43.74416" lon="6.65193">
        <ele>1659.055</ele>
        <time>2014-08-25T11:08:32Z</time>
      </trkpt>
      <trkpt lat="43.74412" lon="6.65195">
        <ele>1655.975</ele>
        <time>2014-08-25T11:08:38Z</time>
      </trkpt>
      <trkpt lat="43.74408" lon="6.65192">
        <ele>1653.161</ele>
        <time>2014-08-25T11:08:43Z</time>
      </trkpt>
      <trkpt lat="43.744" lon="6.6518">
        <ele>1649.594</ele>
        <time>2014-08-25T11:08:47Z</time>
      </trkpt>
      <trkpt lat="43.74378" lon="6.65157">
        <ele>1644.641</ele>
        <time>2014-08-25T11:08:52Z</time>
      </trkpt>
      <trkpt lat="43.74366" lon="6.65149">
        <ele>1643.306</ele>
        <time>2014-08-25T11:08:55Z</time>
      </trkpt>
      <trkpt lat="43.74358" lon="6.65141">
        <ele>1642.867</ele>
        <time>2014-08-25T11:09:02Z</time>
      </trkpt>
      <trkpt lat="43.74358" lon="6.6514">
        <ele>1643.228</ele>
        <time>2014-08-25T11:09:04Z</time>
      </trkpt>
      <trkpt lat="43.74356" lon="6.65137">
        <ele>1645.161</ele>
        <time>2014-08-25T11:09:11Z</time>
      </trkpt>
      <trkpt lat="43.74355" lon="6.65136">
        <ele>1645.3</ele>
        <time>2014-08-25T11:09:15Z</time>
      </trkpt>
      <trkpt lat="43.74352" lon="6.65134">
        <ele>1646.199</ele>
        <time>2014-08-25T11:09:27Z</time>
      </trkpt>
      <trkpt lat="43.7435" lon="6.65127">
        <ele>1647.52</ele>
        <time>2014-08-25T11:09:34Z</time>
      </trkpt>
      <trkpt lat="43.74347" lon="6.65122">
        <ele>1647.708</ele>
        <time>2014-08-25T11:09:40Z</time>
      </trkpt>
      <trkpt lat="43.74344" lon="6.65118">
        <ele>1649.312</ele>
        <time>2014-08-25T11:09:46Z</time>
      </trkpt>
      <trkpt lat="43.74342" lon="6.65116">
        <ele>1650.332</ele>
        <time>2014-08-25T11:09:50Z</time>
      </trkpt>
      <trkpt lat="43.74338" lon="6.65109">
        <ele>1651.563</ele>
        <time>2014-08-25T11:09:58Z</time>
      </trkpt>
      <trkpt lat="43.74336" lon="6.65104">
        <ele>1653.554</ele>
        <time>2014-08-25T11:10:04Z</time>
      </trkpt>
      <trkpt lat="43.74335" lon="6.65102">
        <ele>1653.212</ele>
        <time>2014-08-25T11:10:08Z</time>
      </trkpt>
      <trkpt lat="43.74335" lon="6.651">
        <ele>1653.141</ele>
        <time>2014-08-25T11:10:11Z</time>
      </trkpt>
      <trkpt lat="43.74332" lon="6.65093">
        <ele>1653.68</ele>
        <time>2014-08-25T11:10:19Z</time>
      </trkpt>
      <trkpt lat="43.74327" lon="6.65085">
        <ele>1653.457</ele>
        <time>2014-08-25T11:10:27Z</time>
      </trkpt>
      <trkpt lat="43.74321" lon="6.65078">
        <ele>1654.04</ele>
        <time>2014-08-25T11:10:33Z</time>
      </trkpt>
      <trkpt lat="43.74316" lon="6.65073">
        <ele>1654.078</ele>
        <time>2014-08-25T11:10:39Z</time>
      </trkpt>
      <trkpt lat="43.74317" lon="6.65072">
        <ele>1658.123</ele>
        <time>2014-08-25T11:10:47Z</time>
      </trkpt>
      <trkpt lat="43.74312" lon="6.65061">
        <ele>1658.419</ele>
        <time>2014-08-25T11:10:53Z</time>
      </trkpt>
      <trkpt lat="43.74305" lon="6.65045">
        <ele>1656.964</ele>
        <time>2014-08-25T11:10:58Z</time>
      </trkpt>
      <trkpt lat="43.74295" lon="6.65021">
        <ele>1654.495</ele>
        <time>2014-08-25T11:11:06Z</time>
      </trkpt>
      <trkpt lat="43.74289" lon="6.65003">
        <ele>1653.556</ele>
        <time>2014-08-25T11:11:13Z</time>
      </trkpt>
      <trkpt lat="43.7428" lon="6.64998">
        <ele>1653.047</ele>
        <time>2014-08-25T11:11:17Z</time>
      </trkpt>
      <trkpt lat="43.74269" lon="6.64985">
        <ele>1650.922</ele>
        <time>2014-08-25T11:11:22Z</time>
      </trkpt>
      <trkpt lat="43.74265" lon="6.64978">
        <ele>1649.91</ele>
        <time>2014-08-25T11:11:24Z</time>
      </trkpt>
      <trkpt lat="43.74256" lon="6.6497">
        <ele>1648.432</ele>
        <time>2014-08-25T11:11:28Z</time>
      </trkpt>
      <trkpt lat="43.74255" lon="6.6497">
        <ele>1644.415</ele>
        <time>2014-08-25T11:11:35Z</time>
      </trkpt>
      <trkpt lat="43.74255" lon="6.64971">
        <ele>1644.256</ele>
        <time>2014-08-25T11:11:43Z</time>
      </trkpt>
      <trkpt lat="43.74256" lon="6.64973">
        <ele>1643.537</ele>
        <time>2014-08-25T11:11:50Z</time>
      </trkpt>
      <trkpt lat="43.74256" lon="6.64973">
        <ele>1643.499</ele>
        <time>2014-08-25T11:12:05Z</time>
      </trkpt>
      <trkpt lat="43.74254" lon="6.6498">
        <ele>1644.48</ele>
        <time>2014-08-25T11:12:11Z</time>
      </trkpt>
      <trkpt lat="43.74254" lon="6.64981">
        <ele>1645.179</ele>
        <time>2014-08-25T11:12:18Z</time>
      </trkpt>
      <trkpt lat="43.74254" lon="6.64981">
        <ele>1645.259</ele>
        <time>2014-08-25T11:12:19Z</time>
      </trkpt>
      <trkpt lat="43.74246" lon="6.64972">
        <ele>1644.705</ele>
        <time>2014-08-25T11:12:25Z</time>
      </trkpt>
      <trkpt lat="43.74239" lon="6.64959">
        <ele>1643.452</ele>
        <time>2014-08-25T11:12:30Z</time>
      </trkpt>
      <trkpt lat="43.74232" lon="6.64948">
        <ele>1641.568</ele>
        <time>2014-08-25T11:12:34Z</time>
      </trkpt>
      <trkpt lat="43.7423" lon="6.64945">
        <ele>1640.877</ele>
        <time>2014-08-25T11:12:35Z</time>
      </trkpt>
      <trkpt lat="43.74217" lon="6.64926">
        <ele>1636.533</ele>
        <time>2014-08-25T11:12:41Z</time>
      </trkpt>
      <trkpt lat="43.74205" lon="6.64914">
        <ele>1634.203</ele>
        <time>2014-08-25T11:12:46Z</time>
      </trkpt>
      <trkpt lat="43.74193" lon="6.64902">
        <ele>1632.057</ele>
        <time>2014-08-25T11:12:51Z</time>
      </trkpt>
      <trkpt lat="43.74192" lon="6.64891">
        <ele>1630.236</ele>
        <time>2014-08-25T11:12:55Z</time>
      </trkpt>
      <trkpt lat="43.74192" lon="6.64886">
        <ele>1629.746</ele>
        <time>2014-08-25T11:12:57Z</time>
      </trkpt>
      <trkpt lat="43.7419" lon="6.64882">
        <ele>1629.549</ele>
        <time>2014-08-25T11:12:59Z</time>
      </trkpt>
      <trkpt lat="43.74185" lon="6.64872">
        <ele>1627.319</ele>
        <time>2014-08-25T11:13:04Z</time>
      </trkpt>
      <trkpt lat="43.74184" lon="6.64858">
        <ele>1626.079</ele>
        <time>2014-08-25T11:13:09Z</time>
      </trkpt>
      <trkpt lat="43.74173" lon="6.64854">
        <ele>1622.596</ele>
        <time>2014-08-25T11:13:13Z</time>
      </trkpt>
      <trkpt lat="43.74163" lon="6.64844">
        <ele>1618.594</ele>
        <time>2014-08-25T11:13:18Z</time>
      </trkpt>
      <trkpt lat="43.74159" lon="6.64837">
        <ele>1617.526</ele>
        <time>2014-08-25T11:13:21Z</time>
      </trkpt>
      <trkpt lat="43.74145" lon="6.64832">
        <ele>1615.175</ele>
        <time>2014-08-25T11:13:26Z</time>
      </trkpt>
      <trkpt lat="43.7413" lon="6.64824">
        <ele>1611.149</ele>
        <time>2014-08-25T11:13:30Z</time>
      </trkpt>
      <trkpt lat="43.74126" lon="6.64814">
        <ele>1608.769</ele>
        <time>2014-08-25T11:13:33Z</time>
      </trkpt>
      <trkpt lat="43.74118" lon="6.64801">
        <ele>1605.944</ele>
        <time>2014-08-25T11:13:37Z</time>
      </trkpt>
      <trkpt lat="43.74104" lon="6.64783">
        <ele>1601.978</ele>
        <time>2014-08-25T11:13:42Z</time>
      </trkpt>
      <trkpt lat="43.74098" lon="6.6478">
        <ele>1600.379</ele>
        <time>2014-08-25T11:13:44Z</time>
      </trkpt>
      <trkpt lat="43.74081" lon="6.64764">
        <ele>1594.967</ele>
        <time>2014-08-25T11:13:50Z</time>
      </trkpt>
      <trkpt lat="43.74071" lon="6.64747">
        <ele>1591.63</ele>
        <time>2014-08-25T11:13:55Z</time>
      </trkpt>
      <trkpt lat="43.74065" lon="6.64733">
        <ele>1590.154</ele>
        <time>2014-08-25T11:14:00Z</time>
      </trkpt>
      <trkpt lat="43.74052" lon="6.64719">
        <ele>1585.511</ele>
        <time>2014-08-25T11:14:05Z</time>
      </trkpt>
      <trkpt lat="43.74049" lon="6.64714">
        <ele>1583.097</ele>
        <time>2014-08-25T11:14:10Z</time>
      </trkpt>
      <trkpt lat="43.7405" lon="6.64713">
        <ele>1587.865</ele>
        <time>2014-08-25T11:14:33Z</time>
      </trkpt>
      <trkpt lat="43.74047" lon="6.64706">
        <ele>1587.934</ele>
        <time>2014-08-25T11:14:36Z</time>
      </trkpt>
      <trkpt lat="43.74036" lon="6.64701">
        <ele>1585.488</ele>
        <time>2014-08-25T11:14:41Z</time>
      </trkpt>
      <trkpt lat="43.74027" lon="6.64692">
        <ele>1582.295</ele>
        <time>2014-08-25T11:14:45Z</time>
      </trkpt>
      <trkpt lat="43.74025" lon="6.6469">
        <ele>1581.214</ele>
        <time>2014-08-25T11:14:46Z</time>
      </trkpt>
      <trkpt lat="43.74021" lon="6.64685">
        <ele>1580.304</ele>
        <time>2014-08-25T11:14:48Z</time>
      </trkpt>
      <trkpt lat="43.74021" lon="6.6467">
        <ele>1575.862</ele>
        <time>2014-08-25T11:14:54Z</time>
      </trkpt>
      <trkpt lat="43.7402" lon="6.64669">
        <ele>1574.769</ele>
        <time>2014-08-25T11:14:59Z</time>
      </trkpt>
      <trkpt lat="43.74011" lon="6.64665">
        <ele>1571.799</ele>
        <time>2014-08-25T11:15:05Z</time>
      </trkpt>
      <trkpt lat="43.7401" lon="6.64666">
        <ele>1571.902</ele>
        <time>2014-08-25T11:15:07Z</time>
      </trkpt>
      <trkpt lat="43.74002" lon="6.6466">
        <ele>1569.67</ele>
        <time>2014-08-25T11:15:12Z</time>
      </trkpt>
      <trkpt lat="43.74" lon="6.64658">
        <ele>1569.3</ele>
        <time>2014-08-25T11:15:13Z</time>
      </trkpt>
      <trkpt lat="43.73995" lon="6.64644">
        <ele>1566.012</ele>
        <time>2014-08-25T11:15:18Z</time>
      </trkpt>
      <trkpt lat="43.73988" lon="6.64628">
        <ele>1563.278</ele>
        <time>2014-08-25T11:15:21Z</time>
      </trkpt>
      <trkpt lat="43.73976" lon="6.6461">
        <ele>1560.132</ele>
        <time>2014-08-25T11:15:26Z</time>
      </trkpt>
      <trkpt lat="43.73975" lon="6.6461">
        <ele>1558.801</ele>
        <time>2014-08-25T11:15:32Z</time>
      </trkpt>
      <trkpt lat="43.73978" lon="6.64611">
        <ele>1564.462</ele>
        <time>2014-08-25T11:15:47Z</time>
      </trkpt>
      <trkpt lat="43.73973" lon="6.64601">
        <ele>1562.111</ele>
        <time>2014-08-25T11:15:52Z</time>
      </trkpt>
      <trkpt lat="43.73971" lon="6.64595">
        <ele>1560.9</ele>
        <time>2014-08-25T11:15:56Z</time>
      </trkpt>
      <trkpt lat="43.73971" lon="6.64591">
        <ele>1560.772</ele>
        <time>2014-08-25T11:16:02Z</time>
      </trkpt>
      <trkpt lat="43.73975" lon="6.64578">
        <ele>1560.382</ele>
        <time>2014-08-25T11:16:07Z</time>
      </trkpt>
      <trkpt lat="43.73983" lon="6.64569">
        <ele>1559.581</ele>
        <time>2014-08-25T11:16:11Z</time>
      </trkpt>
      <trkpt lat="43.73985" lon="6.64568">
        <ele>1559.564</ele>
        <time>2014-08-25T11:16:12Z</time>
      </trkpt>
      <trkpt lat="43.73989" lon="6.64555">
        <ele>1558.341</ele>
        <time>2014-08-25T11:16:16Z</time>
      </trkpt>
      <trkpt lat="43.73989" lon="6.64535">
        <ele>1555.475</ele>
        <time>2014-08-25T11:16:21Z</time>
      </trkpt>
      <trkpt lat="43.73994" lon="6.64523">
        <ele>1554.316</ele>
        <time>2014-08-25T11:16:24Z</time>
      </trkpt>
      <trkpt lat="43.73993" lon="6.64517">
        <ele>1553.966</ele>
        <time>2014-08-25T11:16:25Z</time>
      </trkpt>
      <trkpt lat="43.7399" lon="6.645">
        <ele>1552.433</ele>
        <time>2014-08-25T11:16:28Z</time>
      </trkpt>
      <trkpt lat="43.73994" lon="6.64475">
        <ele>1549.805</ele>
        <time>2014-08-25T11:16:33Z</time>
      </trkpt>
      <trkpt lat="43.73998" lon="6.64459">
        <ele>1546.829</ele>
        <time>2014-08-25T11:16:37Z</time>
      </trkpt>
      <trkpt lat="43.73998" lon="6.64454">
        <ele>1545.833</ele>
        <time>2014-08-25T11:16:38Z</time>
      </trkpt>
      <trkpt lat="43.73999" lon="6.64431">
        <ele>1540.037</ele>
        <time>2014-08-25T11:16:43Z</time>
      </trkpt>
      <trkpt lat="43.73993" lon="6.64403">
        <ele>1535.816</ele>
        <time>2014-08-25T11:16:47Z</time>
      </trkpt>
      <trkpt lat="43.73986" lon="6.64377">
        <ele>1532.384</ele>
        <time>2014-08-25T11:16:51Z</time>
      </trkpt>
      <trkpt lat="43.73983" lon="6.64354">
        <ele>1527.899</ele>
        <time>2014-08-25T11:16:55Z</time>
      </trkpt>
      <trkpt lat="43.73981" lon="6.64329">
        <ele>1521.799</ele>
        <time>2014-08-25T11:17:00Z</time>
      </trkpt>
      <trkpt lat="43.73983" lon="6.64316">
        <ele>1519.307</ele>
        <time>2014-08-25T11:17:02Z</time>
      </trkpt>
      <trkpt lat="43.73985" lon="6.64282">
        <ele>1515.12</ele>
        <time>2014-08-25T11:17:08Z</time>
      </trkpt>
      <trkpt lat="43.73996" lon="6.64255">
        <ele>1509.887</ele>
        <time>2014-08-25T11:17:13Z</time>
      </trkpt>
      <trkpt lat="43.74008" lon="6.6424">
        <ele>1505.385</ele>
        <time>2014-08-25T11:17:17Z</time>
      </trkpt>
      <trkpt lat="43.7401" lon="6.64238">
        <ele>1499.613</ele>
        <time>2014-08-25T11:17:20Z</time>
      </trkpt>
      <trkpt lat="43.74013" lon="6.6423">
        <ele>1496.127</ele>
        <time>2014-08-25T11:17:24Z</time>
      </trkpt>
      <trkpt lat="43.7402" lon="6.64211">
        <ele>1495.786</ele>
        <time>2014-08-25T11:17:28Z</time>
      </trkpt>
      <trkpt lat="43.74022" lon="6.64206">
        <ele>1495.939</ele>
        <time>2014-08-25T11:17:30Z</time>
      </trkpt>
      <trkpt lat="43.74028" lon="6.64185">
        <ele>1494.059</ele>
        <time>2014-08-25T11:17:35Z</time>
      </trkpt>
      <trkpt lat="43.74034" lon="6.6417">
        <ele>1492.357</ele>
        <time>2014-08-25T11:17:38Z</time>
      </trkpt>
      <trkpt lat="43.74039" lon="6.64163">
        <ele>1490.648</ele>
        <time>2014-08-25T11:17:40Z</time>
      </trkpt>
      <trkpt lat="43.7405" lon="6.64147">
        <ele>1487.806</ele>
        <time>2014-08-25T11:17:44Z</time>
      </trkpt>
      <trkpt lat="43.74058" lon="6.64138">
        <ele>1485.556</ele>
        <time>2014-08-25T11:17:47Z</time>
      </trkpt>
      <trkpt lat="43.74069" lon="6.64114">
        <ele>1484.21</ele>
        <time>2014-08-25T11:17:53Z</time>
      </trkpt>
      <trkpt lat="43.74076" lon="6.64105">
        <ele>1481.899</ele>
        <time>2014-08-25T11:17:56Z</time>
      </trkpt>
      <trkpt lat="43.7409" lon="6.64098">
        <ele>1477.425</ele>
        <time>2014-08-25T11:18:00Z</time>
      </trkpt>
      <trkpt lat="43.74107" lon="6.64098">
        <ele>1471.746</ele>
        <time>2014-08-25T11:18:06Z</time>
      </trkpt>
      <trkpt lat="43.74116" lon="6.64095">
        <ele>1467.385</ele>
        <time>2014-08-25T11:18:10Z</time>
      </trkpt>
      <trkpt lat="43.74123" lon="6.641">
        <ele>1464.143</ele>
        <time>2014-08-25T11:18:13Z</time>
      </trkpt>
      <trkpt lat="43.74136" lon="6.64091">
        <ele>1461.376</ele>
        <time>2014-08-25T11:18:18Z</time>
      </trkpt>
      <trkpt lat="43.7414" lon="6.64086">
        <ele>1461.671</ele>
        <time>2014-08-25T11:18:20Z</time>
      </trkpt>
      <trkpt lat="43.74149" lon="6.6407">
        <ele>1462.046</ele>
        <time>2014-08-25T11:18:25Z</time>
      </trkpt>
      <trkpt lat="43.74157" lon="6.64068">
        <ele>1458.839</ele>
        <time>2014-08-25T11:18:28Z</time>
      </trkpt>
      <trkpt lat="43.74164" lon="6.64068">
        <ele>1455.737</ele>
        <time>2014-08-25T11:18:32Z</time>
      </trkpt>
      <trkpt lat="43.74166" lon="6.64066">
        <ele>1452.496</ele>
        <time>2014-08-25T11:18:39Z</time>
      </trkpt>
      <trkpt lat="43.74171" lon="6.6407">
        <ele>1454.533</ele>
        <time>2014-08-25T11:18:43Z</time>
      </trkpt>
      <trkpt lat="43.74173" lon="6.64071">
        <ele>1456.557</ele>
        <time>2014-08-25T11:18:45Z</time>
      </trkpt>
      <trkpt lat="43.74167" lon="6.64062">
        <ele>1458.03</ele>
        <time>2014-08-25T11:18:50Z</time>
      </trkpt>
      <trkpt lat="43.74156" lon="6.64053">
        <ele>1458.862</ele>
        <time>2014-08-25T11:18:53Z</time>
      </trkpt>
      <trkpt lat="43.74148" lon="6.64045">
        <ele>1457.309</ele>
        <time>2014-08-25T11:18:56Z</time>
      </trkpt>
      <trkpt lat="43.7415" lon="6.64053">
        <ele>1457.509</ele>
        <time>2014-08-25T11:19:00Z</time>
      </trkpt>
      <trkpt lat="43.74153" lon="6.64057">
        <ele>1457.568</ele>
        <time>2014-08-25T11:19:01Z</time>
      </trkpt>
      <trkpt lat="43.74164" lon="6.64066">
        <ele>1458.368</ele>
        <time>2014-08-25T11:19:04Z</time>
      </trkpt>
      <trkpt lat="43.74183" lon="6.64069">
        <ele>1458.66</ele>
        <time>2014-08-25T11:19:08Z</time>
      </trkpt>
      <trkpt lat="43.74202" lon="6.64056">
        <ele>1459.969</ele>
        <time>2014-08-25T11:19:13Z</time>
      </trkpt>
      <trkpt lat="43.74216" lon="6.64047">
        <ele>1459.167</ele>
        <time>2014-08-25T11:19:17Z</time>
      </trkpt>
      <trkpt lat="43.74223" lon="6.64043">
        <ele>1461.272</ele>
        <time>2014-08-25T11:19:19Z</time>
      </trkpt>
      <trkpt lat="43.7423" lon="6.64037">
        <ele>1465.461</ele>
        <time>2014-08-25T11:19:21Z</time>
      </trkpt>
      <trkpt lat="43.74258" lon="6.64004">
        <ele>1462.126</ele>
        <time>2014-08-25T11:19:28Z</time>
      </trkpt>
      <trkpt lat="43.74285" lon="6.6398">
        <ele>1452.766</ele>
        <time>2014-08-25T11:19:34Z</time>
      </trkpt>
      <trkpt lat="43.74302" lon="6.63971">
        <ele>1449.717</ele>
        <time>2014-08-25T11:19:38Z</time>
      </trkpt>
      <trkpt lat="43.74318" lon="6.63961">
        <ele>1450.394</ele>
        <time>2014-08-25T11:19:42Z</time>
      </trkpt>
      <trkpt lat="43.7434" lon="6.63959">
        <ele>1448.037</ele>
        <time>2014-08-25T11:19:47Z</time>
      </trkpt>
      <trkpt lat="43.74344" lon="6.63962">
        <ele>1447.276</ele>
        <time>2014-08-25T11:19:48Z</time>
      </trkpt>
      <trkpt lat="43.74352" lon="6.63969">
        <ele>1447.257</ele>
        <time>2014-08-25T11:19:50Z</time>
      </trkpt>
      <trkpt lat="43.74372" lon="6.63969">
        <ele>1445.83</ele>
        <time>2014-08-25T11:19:54Z</time>
      </trkpt>
      <trkpt lat="43.74399" lon="6.6396">
        <ele>1449.66</ele>
        <time>2014-08-25T11:20:01Z</time>
      </trkpt>
      <trkpt lat="43.74407" lon="6.63958">
        <ele>1449.54</ele>
        <time>2014-08-25T11:20:05Z</time>
      </trkpt>
      <trkpt lat="43.74421" lon="6.63948">
        <ele>1449.621</ele>
        <time>2014-08-25T11:20:10Z</time>
      </trkpt>
      <trkpt lat="43.74432" lon="6.63933">
        <ele>1448.386</ele>
        <time>2014-08-25T11:20:14Z</time>
      </trkpt>
      <trkpt lat="43.74448" lon="6.63909">
        <ele>1444.225</ele>
        <time>2014-08-25T11:20:19Z</time>
      </trkpt>
      <trkpt lat="43.74461" lon="6.63896">
        <ele>1436.577</ele>
        <time>2014-08-25T11:20:23Z</time>
      </trkpt>
      <trkpt lat="43.74473" lon="6.6389">
        <ele>1431.725</ele>
        <time>2014-08-25T11:20:26Z</time>
      </trkpt>
      <trkpt lat="43.74487" lon="6.63876">
        <ele>1430.428</ele>
        <time>2014-08-25T11:20:30Z</time>
      </trkpt>
      <trkpt lat="43.74491" lon="6.6387">
        <ele>1432.686</ele>
        <time>2014-08-25T11:20:33Z</time>
      </trkpt>
      <trkpt lat="43.74501" lon="6.63871">
        <ele>1430.262</ele>
        <time>2014-08-25T11:20:40Z</time>
      </trkpt>
      <trkpt lat="43.74514" lon="6.63874">
        <ele>1425.566</ele>
        <time>2014-08-25T11:20:44Z</time>
      </trkpt>
      <trkpt lat="43.74521" lon="6.63864">
        <ele>1426.028</ele>
        <time>2014-08-25T11:20:47Z</time>
      </trkpt>
      <trkpt lat="43.74522" lon="6.63859">
        <ele>1426.238</ele>
        <time>2014-08-25T11:20:48Z</time>
      </trkpt>
      <trkpt lat="43.74517" lon="6.63824">
        <ele>1420.74</ele>
        <time>2014-08-25T11:20:54Z</time>
      </trkpt>
      <trkpt lat="43.74502" lon="6.63803">
        <ele>1414.795</ele>
        <time>2014-08-25T11:21:00Z</time>
      </trkpt>
      <trkpt lat="43.74486" lon="6.63787">
        <ele>1410.043</ele>
        <time>2014-08-25T11:21:05Z</time>
      </trkpt>
      <trkpt lat="43.74473" lon="6.63785">
        <ele>1405.852</ele>
        <time>2014-08-25T11:21:08Z</time>
      </trkpt>
      <trkpt lat="43.74457" lon="6.63785">
        <ele>1406.038</ele>
        <time>2014-08-25T11:21:11Z</time>
      </trkpt>
      <trkpt lat="43.74443" lon="6.63791">
        <ele>1406.877</ele>
        <time>2014-08-25T11:21:14Z</time>
      </trkpt>
      <trkpt lat="43.74426" lon="6.63795">
        <ele>1410.588</ele>
        <time>2014-08-25T11:21:18Z</time>
      </trkpt>
      <trkpt lat="43.74412" lon="6.63798">
        <ele>1416.201</ele>
        <time>2014-08-25T11:21:21Z</time>
      </trkpt>
      <trkpt lat="43.74383" lon="6.63804">
        <ele>1413.126</ele>
        <time>2014-08-25T11:21:26Z</time>
      </trkpt>
      <trkpt lat="43.74359" lon="6.63824">
        <ele>1406.612</ele>
        <time>2014-08-25T11:21:31Z</time>
      </trkpt>
      <trkpt lat="43.74334" lon="6.63836">
        <ele>1408.199</ele>
        <time>2014-08-25T11:21:36Z</time>
      </trkpt>
      <trkpt lat="43.74329" lon="6.63835">
        <ele>1409.182</ele>
        <time>2014-08-25T11:21:37Z</time>
      </trkpt>
      <trkpt lat="43.74284" lon="6.63819">
        <ele>1415.749</ele>
        <time>2014-08-25T11:21:44Z</time>
      </trkpt>
      <trkpt lat="43.74277" lon="6.63817">
        <ele>1415.047</ele>
        <time>2014-08-25T11:21:45Z</time>
      </trkpt>
      <trkpt lat="43.74264" lon="6.63815">
        <ele>1412.971</ele>
        <time>2014-08-25T11:21:47Z</time>
      </trkpt>
      <trkpt lat="43.74236" lon="6.63832">
        <ele>1399.755</ele>
        <time>2014-08-25T11:21:52Z</time>
      </trkpt>
      <trkpt lat="43.74231" lon="6.63835">
        <ele>1397.883</ele>
        <time>2014-08-25T11:21:53Z</time>
      </trkpt>
      <trkpt lat="43.74205" lon="6.63843">
        <ele>1401.501</ele>
        <time>2014-08-25T11:21:59Z</time>
      </trkpt>
      <trkpt lat="43.74191" lon="6.63844">
        <ele>1402.814</ele>
        <time>2014-08-25T11:22:02Z</time>
      </trkpt>
      <trkpt lat="43.74175" lon="6.63848">
        <ele>1401.361</ele>
        <time>2014-08-25T11:22:05Z</time>
      </trkpt>
      <trkpt lat="43.74153" lon="6.63844">
        <ele>1396.934</ele>
        <time>2014-08-25T11:22:09Z</time>
      </trkpt>
      <trkpt lat="43.74142" lon="6.63841">
        <ele>1394.253</ele>
        <time>2014-08-25T11:22:13Z</time>
      </trkpt>
      <trkpt lat="43.74154" lon="6.63829">
        <ele>1392.434</ele>
        <time>2014-08-25T11:22:18Z</time>
      </trkpt>
      <trkpt lat="43.74157" lon="6.63826">
        <ele>1392.163</ele>
        <time>2014-08-25T11:22:19Z</time>
      </trkpt>
      <trkpt lat="43.74157" lon="6.63812">
        <ele>1383.365</ele>
        <time>2014-08-25T11:22:24Z</time>
      </trkpt>
      <trkpt lat="43.74143" lon="6.63792">
        <ele>1365.352</ele>
        <time>2014-08-25T11:22:30Z</time>
      </trkpt>
      <trkpt lat="43.74129" lon="6.63772">
        <ele>1351.429</ele>
        <time>2014-08-25T11:22:35Z</time>
      </trkpt>
      <trkpt lat="43.74123" lon="6.63764">
        <ele>1347.574</ele>
        <time>2014-08-25T11:22:37Z</time>
      </trkpt>
      <trkpt lat="43.74127" lon="6.63759">
        <ele>1346.443</ele>
        <time>2014-08-25T11:22:41Z</time>
      </trkpt>
      <trkpt lat="43.7413" lon="6.63749">
        <ele>1343.339</ele>
        <time>2014-08-25T11:22:45Z</time>
      </trkpt>
      <trkpt lat="43.74127" lon="6.63742">
        <ele>1342.642</ele>
        <time>2014-08-25T11:22:47Z</time>
      </trkpt>
      <trkpt lat="43.74112" lon="6.6372">
        <ele>1337.558</ele>
        <time>2014-08-25T11:22:53Z</time>
      </trkpt>
      <trkpt lat="43.74096" lon="6.63707">
        <ele>1335.139</ele>
        <time>2014-08-25T11:22:58Z</time>
      </trkpt>
      <trkpt lat="43.7408" lon="6.63698">
        <ele>1335.531</ele>
        <time>2014-08-25T11:23:03Z</time>
      </trkpt>
      <trkpt lat="43.74076" lon="6.63697">
        <ele>1335.352</ele>
        <time>2014-08-25T11:23:04Z</time>
      </trkpt>
      <trkpt lat="43.74053" lon="6.63695">
        <ele>1331.65</ele>
        <time>2014-08-25T11:23:09Z</time>
      </trkpt>
      <trkpt lat="43.74029" lon="6.63686">
        <ele>1323.819</ele>
        <time>2014-08-25T11:23:13Z</time>
      </trkpt>
      <trkpt lat="43.74023" lon="6.63682">
        <ele>1323.761</ele>
        <time>2014-08-25T11:23:14Z</time>
      </trkpt>
      <trkpt lat="43.74" lon="6.63677">
        <ele>1317.074</ele>
        <time>2014-08-25T11:23:18Z</time>
      </trkpt>
      <trkpt lat="43.73987" lon="6.6366">
        <ele>1315.552</ele>
        <time>2014-08-25T11:23:24Z</time>
      </trkpt>
      <trkpt lat="43.73977" lon="6.63644">
        <ele>1306.071</ele>
        <time>2014-08-25T11:23:29Z</time>
      </trkpt>
      <trkpt lat="43.73961" lon="6.63639">
        <ele>1297.685</ele>
        <time>2014-08-25T11:23:33Z</time>
      </trkpt>
      <trkpt lat="43.73937" lon="6.63631">
        <ele>1290.602</ele>
        <time>2014-08-25T11:23:37Z</time>
      </trkpt>
      <trkpt lat="43.73921" lon="6.63625">
        <ele>1288.627</ele>
        <time>2014-08-25T11:23:40Z</time>
      </trkpt>
      <trkpt lat="43.73905" lon="6.63624">
        <ele>1285.701</ele>
        <time>2014-08-25T11:23:43Z</time>
      </trkpt>
      <trkpt lat="43.73891" lon="6.63622">
        <ele>1281.742</ele>
        <time>2014-08-25T11:23:46Z</time>
      </trkpt>
      <trkpt lat="43.73867" lon="6.6362">
        <ele>1279.671</ele>
        <time>2014-08-25T11:23:51Z</time>
      </trkpt>
      <trkpt lat="43.73862" lon="6.63619">
        <ele>1278.35</ele>
        <time>2014-08-25T11:23:52Z</time>
      </trkpt>
      <trkpt lat="43.73852" lon="6.63621">
        <ele>1276.801</ele>
        <time>2014-08-25T11:23:54Z</time>
      </trkpt>
      <trkpt lat="43.73833" lon="6.63627">
        <ele>1272.951</ele>
        <time>2014-08-25T11:23:58Z</time>
      </trkpt>
      <trkpt lat="43.7381" lon="6.63623">
        <ele>1271.488</ele>
        <time>2014-08-25T11:24:03Z</time>
      </trkpt>
      <trkpt lat="43.73791" lon="6.63621">
        <ele>1268.328</ele>
        <time>2014-08-25T11:24:07Z</time>
      </trkpt>
      <trkpt lat="43.73786" lon="6.63621">
        <ele>1265.574</ele>
        <time>2014-08-25T11:24:08Z</time>
      </trkpt>
      <trkpt lat="43.73759" lon="6.63613">
        <ele>1257.534</ele>
        <time>2014-08-25T11:24:14Z</time>
      </trkpt>
      <trkpt lat="43.73743" lon="6.63608">
        <ele>1250.929</ele>
        <time>2014-08-25T11:24:18Z</time>
      </trkpt>
      <trkpt lat="43.73738" lon="6.63605">
        <ele>1248.032</ele>
        <time>2014-08-25T11:24:21Z</time>
      </trkpt>
      <trkpt lat="43.73745" lon="6.63591">
        <ele>1252.894</ele>
        <time>2014-08-25T11:24:26Z</time>
      </trkpt>
      <trkpt lat="43.73755" lon="6.63576">
        <ele>1251.104</ele>
        <time>2014-08-25T11:24:30Z</time>
      </trkpt>
      <trkpt lat="43.73772" lon="6.63561">
        <ele>1248.681</ele>
        <time>2014-08-25T11:24:35Z</time>
      </trkpt>
      <trkpt lat="43.73781" lon="6.63553">
        <ele>1246.58</ele>
        <time>2014-08-25T11:24:38Z</time>
      </trkpt>
      <trkpt lat="43.73774" lon="6.63542">
        <ele>1242.377</ele>
        <time>2014-08-25T11:24:42Z</time>
      </trkpt>
      <trkpt lat="43.73765" lon="6.63535">
        <ele>1235.407</ele>
        <time>2014-08-25T11:24:46Z</time>
      </trkpt>
      <trkpt lat="43.73767" lon="6.63533">
        <ele>1229.599</ele>
        <time>2014-08-25T11:24:48Z</time>
      </trkpt>
      <trkpt lat="43.73779" lon="6.63522">
        <ele>1222.597</ele>
        <time>2014-08-25T11:24:53Z</time>
      </trkpt>
      <trkpt lat="43.73794" lon="6.63511">
        <ele>1211.179</ele>
        <time>2014-08-25T11:24:58Z</time>
      </trkpt>
      <trkpt lat="43.73826" lon="6.6349">
        <ele>1208.806</ele>
        <time>2014-08-25T11:25:03Z</time>
      </trkpt>
      <trkpt lat="43.73869" lon="6.63474">
        <ele>1200.83</ele>
        <time>2014-08-25T11:25:11Z</time>
      </trkpt>
      <trkpt lat="43.73884" lon="6.63467">
        <ele>1199.073</ele>
        <time>2014-08-25T11:25:14Z</time>
      </trkpt>
      <trkpt lat="43.739" lon="6.63465">
        <ele>1194.894</ele>
        <time>2014-08-25T11:25:18Z</time>
      </trkpt>
      <trkpt lat="43.73916" lon="6.63461">
        <ele>1198.42</ele>
        <time>2014-08-25T11:25:23Z</time>
      </trkpt>
      <trkpt lat="43.73921" lon="6.63458">
        <ele>1199.004</ele>
        <time>2014-08-25T11:25:25Z</time>
      </trkpt>
      <trkpt lat="43.73924" lon="6.63456">
        <ele>1200.771</ele>
        <time>2014-08-25T11:25:28Z</time>
      </trkpt>
      <trkpt lat="43.73917" lon="6.63445">
        <ele>1201.356</ele>
        <time>2014-08-25T11:25:33Z</time>
      </trkpt>
      <trkpt lat="43.73903" lon="6.63436">
        <ele>1191.23</ele>
        <time>2014-08-25T11:25:39Z</time>
      </trkpt>
      <trkpt lat="43.73902" lon="6.63434">
        <ele>1190.124</ele>
        <time>2014-08-25T11:25:44Z</time>
      </trkpt>
      <trkpt lat="43.739" lon="6.63421">
        <ele>1193.566</ele>
        <time>2014-08-25T11:26:09Z</time>
      </trkpt>
      <trkpt lat="43.73902" lon="6.6342">
        <ele>1197.919</ele>
        <time>2014-08-25T11:26:14Z</time>
      </trkpt>
      <trkpt lat="43.73896" lon="6.63412">
        <ele>1198.528</ele>
        <time>2014-08-25T11:26:19Z</time>
      </trkpt>
      <trkpt lat="43.73883" lon="6.63402">
        <ele>1196.976</ele>
        <time>2014-08-25T11:26:24Z</time>
      </trkpt>
      <trkpt lat="43.73862" lon="6.63394">
        <ele>1184.948</ele>
        <time>2014-08-25T11:26:30Z</time>
      </trkpt>
      <trkpt lat="43.73843" lon="6.63387">
        <ele>1172.206</ele>
        <time>2014-08-25T11:26:35Z</time>
      </trkpt>
      <trkpt lat="43.73827" lon="6.63374">
        <ele>1167.062</ele>
        <time>2014-08-25T11:26:40Z</time>
      </trkpt>
      <trkpt lat="43.73817" lon="6.63362">
        <ele>1163.483</ele>
        <time>2014-08-25T11:26:45Z</time>
      </trkpt>
      <trkpt lat="43.73811" lon="6.63353">
        <ele>1160.701</ele>
        <time>2014-08-25T11:26:48Z</time>
      </trkpt>
      <trkpt lat="43.73795" lon="6.63348">
        <ele>1154.583</ele>
        <time>2014-08-25T11:26:55Z</time>
      </trkpt>
      <trkpt lat="43.73794" lon="6.63347">
        <ele>1154.604</ele>
        <time>2014-08-25T11:26:56Z</time>
      </trkpt>
      <trkpt lat="43.73792" lon="6.63339">
        <ele>1152.417</ele>
        <time>2014-08-25T11:27:00Z</time>
      </trkpt>
      <trkpt lat="43.73791" lon="6.63333">
        <ele>1153.205</ele>
        <time>2014-08-25T11:27:03Z</time>
      </trkpt>
      <trkpt lat="43.73791" lon="6.63324">
        <ele>1153.07</ele>
        <time>2014-08-25T11:27:08Z</time>
      </trkpt>
      <trkpt lat="43.73792" lon="6.63322">
        <ele>1152.65</ele>
        <time>2014-08-25T11:27:10Z</time>
      </trkpt>
      <trkpt lat="43.73791" lon="6.63318">
        <ele>1152.851</ele>
        <time>2014-08-25T11:27:13Z</time>
      </trkpt>
      <trkpt lat="43.73792" lon="6.63307">
        <ele>1153.013</ele>
        <time>2014-08-25T11:27:18Z</time>
      </trkpt>
      <trkpt lat="43.73786" lon="6.63296">
        <ele>1156.175</ele>
        <time>2014-08-25T11:27:23Z</time>
      </trkpt>
      <trkpt lat="43.73778" lon="6.63289">
        <ele>1153.548</ele>
        <time>2014-08-25T11:27:28Z</time>
      </trkpt>
      <trkpt lat="43.7378" lon="6.63282">
        <ele>1155.925</ele>
        <time>2014-08-25T11:29:08Z</time>
      </trkpt>
      <trkpt lat="43.7377" lon="6.6328">
        <ele>1144.609</ele>
        <time>2014-08-25T11:29:13Z</time>
      </trkpt>
      <trkpt lat="43.73761" lon="6.63274">
        <ele>1136.478</ele>
        <time>2014-08-25T11:29:17Z</time>
      </trkpt>
      <trkpt lat="43.7376" lon="6.63264">
        <ele>1135.26</ele>
        <time>2014-08-25T11:29:21Z</time>
      </trkpt>
      <trkpt lat="43.73761" lon="6.63261">
        <ele>1132.998</ele>
        <time>2014-08-25T11:29:23Z</time>
      </trkpt>
      <trkpt lat="43.7376" lon="6.6325">
        <ele>1130.139</ele>
        <time>2014-08-25T11:29:26Z</time>
      </trkpt>
      <trkpt lat="43.73749" lon="6.63243">
        <ele>1117.91</ele>
        <time>2014-08-25T11:29:31Z</time>
      </trkpt>
      <trkpt lat="43.73747" lon="6.6324">
        <ele>1117.623</ele>
        <time>2014-08-25T11:29:32Z</time>
      </trkpt>
      <trkpt lat="43.73746" lon="6.63235">
        <ele>1115.934</ele>
        <time>2014-08-25T11:29:34Z</time>
      </trkpt>
      <trkpt lat="43.73734" lon="6.6323">
        <ele>1114.241</ele>
        <time>2014-08-25T11:29:39Z</time>
      </trkpt>
      <trkpt lat="43.73723" lon="6.63232">
        <ele>1111.101</ele>
        <time>2014-08-25T11:29:43Z</time>
      </trkpt>
      <trkpt lat="43.73714" lon="6.6323">
        <ele>1105.226</ele>
        <time>2014-08-25T11:29:47Z</time>
      </trkpt>
      <trkpt lat="43.7371" lon="6.6323">
        <ele>1103.466</ele>
        <time>2014-08-25T11:29:49Z</time>
      </trkpt>
      <trkpt lat="43.73696" lon="6.63237">
        <ele>1095.662</ele>
        <time>2014-08-25T11:29:54Z</time>
      </trkpt>
      <trkpt lat="43.73676" lon="6.63231">
        <ele>1083.729</ele>
        <time>2014-08-25T11:29:59Z</time>
      </trkpt>
      <trkpt lat="43.73665" lon="6.6323">
        <ele>1081.134</ele>
        <time>2014-08-25T11:30:02Z</time>
      </trkpt>
      <trkpt lat="43.73653" lon="6.6323">
        <ele>1076.81</ele>
        <time>2014-08-25T11:30:07Z</time>
      </trkpt>
      <trkpt lat="43.73642" lon="6.6323">
        <ele>1079.285</ele>
        <time>2014-08-25T11:30:11Z</time>
      </trkpt>
      <trkpt lat="43.73623" lon="6.63225">
        <ele>1081.577</ele>
        <time>2014-08-25T11:30:16Z</time>
      </trkpt>
      <trkpt lat="43.73599" lon="6.63231">
        <ele>1075.297</ele>
        <time>2014-08-25T11:30:20Z</time>
      </trkpt>
      <trkpt lat="43.73594" lon="6.63232">
        <ele>1077.032</ele>
        <time>2014-08-25T11:30:21Z</time>
      </trkpt>
      <trkpt lat="43.73572" lon="6.63232">
        <ele>1075.712</ele>
        <time>2014-08-25T11:30:25Z</time>
      </trkpt>
      <trkpt lat="43.73555" lon="6.6321">
        <ele>1075.715</ele>
        <time>2014-08-25T11:30:29Z</time>
      </trkpt>
      <trkpt lat="43.73552" lon="6.63202">
        <ele>1074.442</ele>
        <time>2014-08-25T11:30:30Z</time>
      </trkpt>
      <trkpt lat="43.73539" lon="6.63176">
        <ele>1063.971</ele>
        <time>2014-08-25T11:30:34Z</time>
      </trkpt>
      <trkpt lat="43.73526" lon="6.63141">
        <ele>1057.989</ele>
        <time>2014-08-25T11:30:39Z</time>
      </trkpt>
      <trkpt lat="43.73523" lon="6.63117">
        <ele>1056.906</ele>
        <time>2014-08-25T11:30:42Z</time>
      </trkpt>
      <trkpt lat="43.73511" lon="6.63087">
        <ele>1050.721</ele>
        <time>2014-08-25T11:30:46Z</time>
      </trkpt>
      <trkpt lat="43.73492" lon="6.63057">
        <ele>1041.402</ele>
        <time>2014-08-25T11:30:50Z</time>
      </trkpt>
      <trkpt lat="43.73473" lon="6.63026">
        <ele>1034.709</ele>
        <time>2014-08-25T11:30:54Z</time>
      </trkpt>
      <trkpt lat="43.73457" lon="6.63009">
        <ele>1027.755</ele>
        <time>2014-08-25T11:30:57Z</time>
      </trkpt>
      <trkpt lat="43.73441" lon="6.63007">
        <ele>1024.492</ele>
        <time>2014-08-25T11:31:00Z</time>
      </trkpt>
      <trkpt lat="43.73436" lon="6.63005">
        <ele>1023.241</ele>
        <time>2014-08-25T11:31:01Z</time>
      </trkpt>
      <trkpt lat="43.73425" lon="6.63">
        <ele>1020.189</ele>
        <time>2014-08-25T11:31:05Z</time>
      </trkpt>
      <trkpt lat="43.73418" lon="6.62984">
        <ele>1017.338</ele>
        <time>2014-08-25T11:31:10Z</time>
      </trkpt>
      <trkpt lat="43.7342" lon="6.62957">
        <ele>1021.234</ele>
        <time>2014-08-25T11:31:15Z</time>
      </trkpt>
      <trkpt lat="43.7342" lon="6.6295">
        <ele>1020.664</ele>
        <time>2014-08-25T11:31:17Z</time>
      </trkpt>
      <trkpt lat="43.73414" lon="6.62936">
        <ele>1021.161</ele>
        <time>2014-08-25T11:31:22Z</time>
      </trkpt>
      <trkpt lat="43.73403" lon="6.62927">
        <ele>1018.442</ele>
        <time>2014-08-25T11:31:28Z</time>
      </trkpt>
      <trkpt lat="43.73402" lon="6.62926">
        <ele>1018.083</ele>
        <time>2014-08-25T11:31:29Z</time>
      </trkpt>
      <trkpt lat="43.73398" lon="6.62912">
        <ele>1015.276</ele>
        <time>2014-08-25T11:31:34Z</time>
      </trkpt>
      <trkpt lat="43.73394" lon="6.62887">
        <ele>1020.037</ele>
        <time>2014-08-25T11:31:41Z</time>
      </trkpt>
      <trkpt lat="43.73392" lon="6.62867">
        <ele>1024.125</ele>
        <time>2014-08-25T11:31:46Z</time>
      </trkpt>
      <trkpt lat="43.73389" lon="6.62848">
        <ele>1025.085</ele>
        <time>2014-08-25T11:31:51Z</time>
      </trkpt>
      <trkpt lat="43.73384" lon="6.62828">
        <ele>1027.268</ele>
        <time>2014-08-25T11:31:55Z</time>
      </trkpt>
      <trkpt lat="43.73379" lon="6.62796">
        <ele>1047.703</ele>
        <time>2014-08-25T11:32:00Z</time>
      </trkpt>
      <trkpt lat="43.73376" lon="6.62785">
        <ele>1052.179</ele>
        <time>2014-08-25T11:32:03Z</time>
      </trkpt>
      <trkpt lat="43.73371" lon="6.62769">
        <ele>1056.282</ele>
        <time>2014-08-25T11:32:08Z</time>
      </trkpt>
      <trkpt lat="43.73363" lon="6.62747">
        <ele>1058.384</ele>
        <time>2014-08-25T11:32:13Z</time>
      </trkpt>
      <trkpt lat="43.73359" lon="6.62718">
        <ele>1046.361</ele>
        <time>2014-08-25T11:32:19Z</time>
      </trkpt>
      <trkpt lat="43.73359" lon="6.62714">
        <ele>1044.148</ele>
        <time>2014-08-25T11:32:20Z</time>
      </trkpt>
      <trkpt lat="43.73363" lon="6.62692">
        <ele>1036.595</ele>
        <time>2014-08-25T11:32:27Z</time>
      </trkpt>
      <trkpt lat="43.7337" lon="6.62672">
        <ele>1030.679</ele>
        <time>2014-08-25T11:32:33Z</time>
      </trkpt>
      <trkpt lat="43.73376" lon="6.62658">
        <ele>1030.537</ele>
        <time>2014-08-25T11:32:38Z</time>
      </trkpt>
      <trkpt lat="43.73385" lon="6.62647">
        <ele>1029.717</ele>
        <time>2014-08-25T11:32:43Z</time>
      </trkpt>
      <trkpt lat="43.73396" lon="6.62631">
        <ele>1027.758</ele>
        <time>2014-08-25T11:32:48Z</time>
      </trkpt>
      <trkpt lat="43.73401" lon="6.62624">
        <ele>1025.673</ele>
        <time>2014-08-25T11:32:50Z</time>
      </trkpt>
      <trkpt lat="43.73416" lon="6.62601">
        <ele>1025.108</ele>
        <time>2014-08-25T11:32:56Z</time>
      </trkpt>
      <trkpt lat="43.73419" lon="6.62592">
        <ele>1024.528</ele>
        <time>2014-08-25T11:32:59Z</time>
      </trkpt>
      <trkpt lat="43.73412" lon="6.6258">
        <ele>1021.3</ele>
        <time>2014-08-25T11:33:03Z</time>
      </trkpt>
      <trkpt lat="43.73397" lon="6.62569">
        <ele>1015.723</ele>
        <time>2014-08-25T11:33:07Z</time>
      </trkpt>
      <trkpt lat="43.73386" lon="6.62551">
        <ele>1013.865</ele>
        <time>2014-08-25T11:33:11Z</time>
      </trkpt>
      <trkpt lat="43.73379" lon="6.62523">
        <ele>1014.179</ele>
        <time>2014-08-25T11:33:15Z</time>
      </trkpt>
      <trkpt lat="43.73385" lon="6.62508">
        <ele>1012.197</ele>
        <time>2014-08-25T11:33:18Z</time>
      </trkpt>
      <trkpt lat="43.73396" lon="6.62505">
        <ele>1012.171</ele>
        <time>2014-08-25T11:33:20Z</time>
      </trkpt>
      <trkpt lat="43.73414" lon="6.62496">
        <ele>1009.475</ele>
        <time>2014-08-25T11:33:23Z</time>
      </trkpt>
      <trkpt lat="43.73425" lon="6.62476">
        <ele>1006.573</ele>
        <time>2014-08-25T11:33:27Z</time>
      </trkpt>
      <trkpt lat="43.7343" lon="6.62446">
        <ele>1003.302</ele>
        <time>2014-08-25T11:33:31Z</time>
      </trkpt>
      <trkpt lat="43.73438" lon="6.62433">
        <ele>1000.361</ele>
        <time>2014-08-25T11:33:34Z</time>
      </trkpt>
      <trkpt lat="43.73454" lon="6.62436">
        <ele>998.288</ele>
        <time>2014-08-25T11:33:37Z</time>
      </trkpt>
      <trkpt lat="43.7346" lon="6.62437">
        <ele>998.855</ele>
        <time>2014-08-25T11:33:38Z</time>
      </trkpt>
      <trkpt lat="43.73487" lon="6.62446">
        <ele>992.538</ele>
        <time>2014-08-25T11:33:42Z</time>
      </trkpt>
      <trkpt lat="43.7353" lon="6.62459">
        <ele>989.635</ele>
        <time>2014-08-25T11:33:48Z</time>
      </trkpt>
      <trkpt lat="43.73538" lon="6.62463">
        <ele>993.786</ele>
        <time>2014-08-25T11:33:51Z</time>
      </trkpt>
      <trkpt lat="43.73546" lon="6.62468">
        <ele>983.823</ele>
        <time>2014-08-25T11:33:57Z</time>
      </trkpt>
      <trkpt lat="43.73551" lon="6.62478">
        <ele>983.068</ele>
        <time>2014-08-25T11:34:02Z</time>
      </trkpt>
      <trkpt lat="43.7355" lon="6.62474">
        <ele>981.009</ele>
        <time>2014-08-25T11:34:06Z</time>
      </trkpt>
      <trkpt lat="43.73547" lon="6.62474">
        <ele>981.032</ele>
        <time>2014-08-25T11:34:08Z</time>
      </trkpt>
      <trkpt lat="43.73546" lon="6.62477">
        <ele>989.475</ele>
        <time>2014-08-25T11:34:15Z</time>
      </trkpt>
      <trkpt lat="43.73553" lon="6.62467">
        <ele>1021.681</ele>
        <time>2014-08-25T11:35:28Z</time>
      </trkpt>
      <trkpt lat="43.73555" lon="6.62465">
        <ele>1024.133</ele>
        <time>2014-08-25T11:35:39Z</time>
      </trkpt>
      <trkpt lat="43.73557" lon="6.62467">
        <ele>1011.438</ele>
        <time>2014-08-25T11:35:44Z</time>
      </trkpt>
      <trkpt lat="43.73558" lon="6.62466">
        <ele>1001.707</ele>
        <time>2014-08-25T11:35:50Z</time>
      </trkpt>
      <trkpt lat="43.73558" lon="6.62469">
        <ele>993.663</ele>
        <time>2014-08-25T11:35:58Z</time>
      </trkpt>
      <trkpt lat="43.73562" lon="6.62474">
        <ele>986.435</ele>
        <time>2014-08-25T11:36:10Z</time>
      </trkpt>
      <trkpt lat="43.73566" lon="6.62479">
        <ele>985.626</ele>
        <time>2014-08-25T11:36:15Z</time>
      </trkpt>
      <trkpt lat="43.73578" lon="6.62498">
        <ele>990.279</ele>
        <time>2014-08-25T11:36:20Z</time>
      </trkpt>
      <trkpt lat="43.73584" lon="6.6251">
        <ele>985.738</ele>
        <time>2014-08-25T11:36:25Z</time>
      </trkpt>
      <trkpt lat="43.73577" lon="6.62527">
        <ele>977.145</ele>
        <time>2014-08-25T11:36:34Z</time>
      </trkpt>
      <trkpt lat="43.73577" lon="6.6252">
        <ele>991.942</ele>
        <time>2014-08-25T11:37:33Z</time>
      </trkpt>
      <trkpt lat="43.73578" lon="6.62519">
        <ele>986.323</ele>
        <time>2014-08-25T11:37:35Z</time>
      </trkpt>
      <trkpt lat="43.73581" lon="6.62526">
        <ele>966.584</ele>
        <time>2014-08-25T11:37:42Z</time>
      </trkpt>
      <trkpt lat="43.73583" lon="6.62529">
        <ele>962.084</ele>
        <time>2014-08-25T11:37:47Z</time>
      </trkpt>
      <trkpt lat="43.73584" lon="6.62528">
        <ele>965.448</ele>
        <time>2014-08-25T11:37:54Z</time>
      </trkpt>
      <trkpt lat="43.73588" lon="6.62507">
        <ele>944.44</ele>
        <time>2014-08-25T11:38:17Z</time>
      </trkpt>
      <trkpt lat="43.73586" lon="6.62522">
        <ele>956.152</ele>
        <time>2014-08-25T11:38:23Z</time>
      </trkpt>
      <trkpt lat="43.73582" lon="6.62533">
        <ele>977.714</ele>
        <time>2014-08-25T11:38:29Z</time>
      </trkpt>
      <trkpt lat="43.73582" lon="6.62542">
        <ele>988.723</ele>
        <time>2014-08-25T11:38:34Z</time>
      </trkpt>
      <trkpt lat="43.73581" lon="6.62538">
        <ele>1006.175</ele>
        <time>2014-08-25T11:38:58Z</time>
      </trkpt>
      <trkpt lat="43.73578" lon="6.62529">
        <ele>996.367</ele>
        <time>2014-08-25T11:39:27Z</time>
      </trkpt>
      <trkpt lat="43.73585" lon="6.62515">
        <ele>987.379</ele>
        <time>2014-08-25T11:40:08Z</time>
      </trkpt>
      <trkpt lat="43.73577" lon="6.62538">
        <ele>1001.977</ele>
        <time>2014-08-25T11:40:24Z</time>
      </trkpt>
      <trkpt lat="43.73573" lon="6.62551">
        <ele>1017.469</ele>
        <time>2014-08-25T11:40:36Z</time>
      </trkpt>
      <trkpt lat="43.73571" lon="6.62552">
        <ele>1022.786</ele>
        <time>2014-08-25T11:40:40Z</time>
      </trkpt>
      <trkpt lat="43.73576" lon="6.62546">
        <ele>1027.427</ele>
        <time>2014-08-25T11:40:47Z</time>
      </trkpt>
      <trkpt lat="43.73591" lon="6.62536">
        <ele>994.21</ele>
        <time>2014-08-25T11:42:31Z</time>
      </trkpt>
      <trkpt lat="43.73593" lon="6.62537">
        <ele>1009.443</ele>
        <time>2014-08-25T11:43:04Z</time>
      </trkpt>
      <trkpt lat="43.73589" lon="6.62543">
        <ele>1014.736</ele>
        <time>2014-08-25T11:43:13Z</time>
      </trkpt>
      <trkpt lat="43.73584" lon="6.62547">
        <ele>1027.982</ele>
        <time>2014-08-25T11:43:26Z</time>
      </trkpt>
      <trkpt lat="43.73581" lon="6.62558">
        <ele>1042.954</ele>
        <time>2014-08-25T11:43:31Z</time>
      </trkpt>
      <trkpt lat="43.73581" lon="6.6256">
        <ele>1047.218</ele>
        <time>2014-08-25T11:43:32Z</time>
      </trkpt>
      <trkpt lat="43.73583" lon="6.6257">
        <ele>1055.307</ele>
        <time>2014-08-25T11:43:39Z</time>
      </trkpt>
      <trkpt lat="43.73586" lon="6.62567">
        <ele>1059.031</ele>
        <time>2014-08-25T11:43:45Z</time>
      </trkpt>
      <trkpt lat="43.7361" lon="6.62534">
        <ele>1038.622</ele>
        <time>2014-08-25T11:44:35Z</time>
      </trkpt>
      <trkpt lat="43.73599" lon="6.62537">
        <ele>1037.929</ele>
        <time>2014-08-25T11:44:40Z</time>
      </trkpt>
      <trkpt lat="43.73589" lon="6.62537">
        <ele>1038.35</ele>
        <time>2014-08-25T11:44:52Z</time>
      </trkpt>
      <trkpt lat="43.73579" lon="6.62539">
        <ele>1010.588</ele>
        <time>2014-08-25T11:45:04Z</time>
      </trkpt>
      <trkpt lat="43.73589" lon="6.62523">
        <ele>953.901</ele>
        <time>2014-08-25T11:45:48Z</time>
      </trkpt>
      <trkpt lat="43.73585" lon="6.6252">
        <ele>961.55</ele>
        <time>2014-08-25T11:45:59Z</time>
      </trkpt>
      <trkpt lat="43.73582" lon="6.62517">
        <ele>984.819</ele>
        <time>2014-08-25T11:46:07Z</time>
      </trkpt>
      <trkpt lat="43.73585" lon="6.62511">
        <ele>999.607</ele>
        <time>2014-08-25T11:46:20Z</time>
      </trkpt>
      <trkpt lat="43.73576" lon="6.62528">
        <ele>999.93</ele>
        <time>2014-08-25T11:46:46Z</time>
      </trkpt>
      <trkpt lat="43.73598" lon="6.62522">
        <ele>979.423</ele>
        <time>2014-08-25T11:48:09Z</time>
      </trkpt>
      <trkpt lat="43.73598" lon="6.6252">
        <ele>978.662</ele>
        <time>2014-08-25T11:48:10Z</time>
      </trkpt>
      <trkpt lat="43.73593" lon="6.62519">
        <ele>977.364</ele>
        <time>2014-08-25T11:48:18Z</time>
      </trkpt>
      <trkpt lat="43.73589" lon="6.62526">
        <ele>967.393</ele>
        <time>2014-08-25T11:48:29Z</time>
      </trkpt>
      <trkpt lat="43.73583" lon="6.62524">
        <ele>975.884</ele>
        <time>2014-08-25T11:48:35Z</time>
      </trkpt>
      <trkpt lat="43.73585" lon="6.62525">
        <ele>948.264</ele>
        <time>2014-08-25T11:49:16Z</time>
      </trkpt>
      <trkpt lat="43.73582" lon="6.62522">
        <ele>968.971</ele>
        <time>2014-08-25T11:49:30Z</time>
      </trkpt>
      <trkpt lat="43.7358" lon="6.62525">
        <ele>974.912</ele>
        <time>2014-08-25T11:49:37Z</time>
      </trkpt>
      <trkpt lat="43.73597" lon="6.62518">
        <ele>957.853</ele>
        <time>2014-08-25T11:51:21Z</time>
      </trkpt>
      <trkpt lat="43.73609" lon="6.62514">
        <ele>951.494</ele>
        <time>2014-08-25T11:51:38Z</time>
      </trkpt>
      <trkpt lat="43.73593" lon="6.62516">
        <ele>978.095</ele>
        <time>2014-08-25T11:51:48Z</time>
      </trkpt>
      <trkpt lat="43.73588" lon="6.6251">
        <ele>988.354</ele>
        <time>2014-08-25T11:51:58Z</time>
      </trkpt>
      <trkpt lat="43.73582" lon="6.62509">
        <ele>979.291</ele>
        <time>2014-08-25T11:52:11Z</time>
      </trkpt>
      <trkpt lat="43.73591" lon="6.62514">
        <ele>974.065</ele>
        <time>2014-08-25T11:52:17Z</time>
      </trkpt>
      <trkpt lat="43.73606" lon="6.62516">
        <ele>971.997</ele>
        <time>2014-08-25T11:52:21Z</time>
      </trkpt>
      <trkpt lat="43.73611" lon="6.62514">
        <ele>971.526</ele>
        <time>2014-08-25T11:52:22Z</time>
      </trkpt>
      <trkpt lat="43.7362" lon="6.62513">
        <ele>970.658</ele>
        <time>2014-08-25T11:52:24Z</time>
      </trkpt>
      <trkpt lat="43.73631" lon="6.62511">
        <ele>970.39</ele>
        <time>2014-08-25T11:52:26Z</time>
      </trkpt>
      <trkpt lat="43.73665" lon="6.62514">
        <ele>977.09</ele>
        <time>2014-08-25T11:52:33Z</time>
      </trkpt>
      <trkpt lat="43.73687" lon="6.62524">
        <ele>978.998</ele>
        <time>2014-08-25T11:52:39Z</time>
      </trkpt>
      <trkpt lat="43.73709" lon="6.62535">
        <ele>979.362</ele>
        <time>2014-08-25T11:52:44Z</time>
      </trkpt>
      <trkpt lat="43.73728" lon="6.62546">
        <ele>983.528</ele>
        <time>2014-08-25T11:52:49Z</time>
      </trkpt>
      <trkpt lat="43.73747" lon="6.62557">
        <ele>980.568</ele>
        <time>2014-08-25T11:52:54Z</time>
      </trkpt>
      <trkpt lat="43.73764" lon="6.62568">
        <ele>977.94</ele>
        <time>2014-08-25T11:52:59Z</time>
      </trkpt>
      <trkpt lat="43.73782" lon="6.62578">
        <ele>979.928</ele>
        <time>2014-08-25T11:53:05Z</time>
      </trkpt>
      <trkpt lat="43.73796" lon="6.62585">
        <ele>979.943</ele>
        <time>2014-08-25T11:53:11Z</time>
      </trkpt>
      <trkpt lat="43.73818" lon="6.62598">
        <ele>977.365</ele>
        <time>2014-08-25T11:53:18Z</time>
      </trkpt>
      <trkpt lat="43.7384" lon="6.62611">
        <ele>977.356</ele>
        <time>2014-08-25T11:53:25Z</time>
      </trkpt>
      <trkpt lat="43.73861" lon="6.62623">
        <ele>974.658</ele>
        <time>2014-08-25T11:53:32Z</time>
      </trkpt>
      <trkpt lat="43.73877" lon="6.62633">
        <ele>974.223</ele>
        <time>2014-08-25T11:53:38Z</time>
      </trkpt>
      <trkpt lat="43.73892" lon="6.62638">
        <ele>974.527</ele>
        <time>2014-08-25T11:53:43Z</time>
      </trkpt>
      <trkpt lat="43.73917" lon="6.62641">
        <ele>974.435</ele>
        <time>2014-08-25T11:53:51Z</time>
      </trkpt>
      <trkpt lat="43.73936" lon="6.62645">
        <ele>978.222</ele>
        <time>2014-08-25T11:53:58Z</time>
      </trkpt>
      <trkpt lat="43.7395" lon="6.62646">
        <ele>978.376</ele>
        <time>2014-08-25T11:54:03Z</time>
      </trkpt>
      <trkpt lat="43.73966" lon="6.62648">
        <ele>977.785</ele>
        <time>2014-08-25T11:54:09Z</time>
      </trkpt>
      <trkpt lat="43.73986" lon="6.62649">
        <ele>977.482</ele>
        <time>2014-08-25T11:54:17Z</time>
      </trkpt>
      <trkpt lat="43.74007" lon="6.6265">
        <ele>976.268</ele>
        <time>2014-08-25T11:54:25Z</time>
      </trkpt>
      <trkpt lat="43.74023" lon="6.62651">
        <ele>975.79</ele>
        <time>2014-08-25T11:54:31Z</time>
      </trkpt>
      <trkpt lat="43.74038" lon="6.62654">
        <ele>977.171</ele>
        <time>2014-08-25T11:54:37Z</time>
      </trkpt>
      <trkpt lat="43.74053" lon="6.62656">
        <ele>977.973</ele>
        <time>2014-08-25T11:54:42Z</time>
      </trkpt>
      <trkpt lat="43.74075" lon="6.62657">
        <ele>978.74</ele>
        <time>2014-08-25T11:54:49Z</time>
      </trkpt>
      <trkpt lat="43.74094" lon="6.62659">
        <ele>978.461</ele>
        <time>2014-08-25T11:54:55Z</time>
      </trkpt>
      <trkpt lat="43.74113" lon="6.62662">
        <ele>981.584</ele>
        <time>2014-08-25T11:55:02Z</time>
      </trkpt>
      <trkpt lat="43.74125" lon="6.62663">
        <ele>982.313</ele>
        <time>2014-08-25T11:55:07Z</time>
      </trkpt>
      <trkpt lat="43.74145" lon="6.62665">
        <ele>982.965</ele>
        <time>2014-08-25T11:55:14Z</time>
      </trkpt>
      <trkpt lat="43.74167" lon="6.62666">
        <ele>981.98</ele>
        <time>2014-08-25T11:55:20Z</time>
      </trkpt>
      <trkpt lat="43.74192" lon="6.62667">
        <ele>982.574</ele>
        <time>2014-08-25T11:55:27Z</time>
      </trkpt>
      <trkpt lat="43.74219" lon="6.6267">
        <ele>984.464</ele>
        <time>2014-08-25T11:55:35Z</time>
      </trkpt>
      <trkpt lat="43.74253" lon="6.62671">
        <ele>985.361</ele>
        <time>2014-08-25T11:55:45Z</time>
      </trkpt>
      <trkpt lat="43.74274" lon="6.62674">
        <ele>986.877</ele>
        <time>2014-08-25T11:55:52Z</time>
      </trkpt>
      <trkpt lat="43.74288" lon="6.62679">
        <ele>987.748</ele>
        <time>2014-08-25T11:55:57Z</time>
      </trkpt>
      <trkpt lat="43.74308" lon="6.62683">
        <ele>988.529</ele>
        <time>2014-08-25T11:56:03Z</time>
      </trkpt>
      <trkpt lat="43.74331" lon="6.62683">
        <ele>987.996</ele>
        <time>2014-08-25T11:56:10Z</time>
      </trkpt>
      <trkpt lat="43.74344" lon="6.62685">
        <ele>992.158</ele>
        <time>2014-08-25T11:56:15Z</time>
      </trkpt>
      <trkpt lat="43.74359" lon="6.62687">
        <ele>993.234</ele>
        <time>2014-08-25T11:56:21Z</time>
      </trkpt>
      <trkpt lat="43.74377" lon="6.6269">
        <ele>992.571</ele>
        <time>2014-08-25T11:56:27Z</time>
      </trkpt>
      <trkpt lat="43.74392" lon="6.62693">
        <ele>992.771</ele>
        <time>2014-08-25T11:56:33Z</time>
      </trkpt>
      <trkpt lat="43.74414" lon="6.62699">
        <ele>996.956</ele>
        <time>2014-08-25T11:56:42Z</time>
      </trkpt>
      <trkpt lat="43.74426" lon="6.62705">
        <ele>1000.459</ele>
        <time>2014-08-25T11:56:48Z</time>
      </trkpt>
      <trkpt lat="43.74441" lon="6.62712">
        <ele>1005.332</ele>
        <time>2014-08-25T11:56:55Z</time>
      </trkpt>
      <trkpt lat="43.74448" lon="6.62717">
        <ele>1010.966</ele>
        <time>2014-08-25T11:57:01Z</time>
      </trkpt>
      <trkpt lat="43.74457" lon="6.62727">
        <ele>1006.944</ele>
        <time>2014-08-25T11:57:07Z</time>
      </trkpt>
      <trkpt lat="43.74467" lon="6.62733">
        <ele>1008.966</ele>
        <time>2014-08-25T11:57:13Z</time>
      </trkpt>
      <trkpt lat="43.74475" lon="6.62733">
        <ele>1017.912</ele>
        <time>2014-08-25T11:57:19Z</time>
      </trkpt>
      <trkpt lat="43.74481" lon="6.62739">
        <ele>1022.565</ele>
        <time>2014-08-25T11:57:23Z</time>
      </trkpt>
      <trkpt lat="43.7449" lon="6.6275">
        <ele>1021.073</ele>
        <time>2014-08-25T11:57:29Z</time>
      </trkpt>
      <trkpt lat="43.74494" lon="6.62758">
        <ele>1019.577</ele>
        <time>2014-08-25T11:57:33Z</time>
      </trkpt>
      <trkpt lat="43.74496" lon="6.62762">
        <ele>1019.036</ele>
        <time>2014-08-25T11:57:35Z</time>
      </trkpt>
      <trkpt lat="43.74508" lon="6.62773">
        <ele>1018.514</ele>
        <time>2014-08-25T11:57:44Z</time>
      </trkpt>
      <trkpt lat="43.74521" lon="6.62779">
        <ele>1021.146</ele>
        <time>2014-08-25T11:57:52Z</time>
      </trkpt>
      <trkpt lat="43.7453" lon="6.62779">
        <ele>1022.628</ele>
        <time>2014-08-25T11:57:58Z</time>
      </trkpt>
      <trkpt lat="43.7454" lon="6.62781">
        <ele>1025.92</ele>
        <time>2014-08-25T11:58:05Z</time>
      </trkpt>
      <trkpt lat="43.74548" lon="6.62782">
        <ele>1029.203</ele>
        <time>2014-08-25T11:58:11Z</time>
      </trkpt>
      <trkpt lat="43.74559" lon="6.62785">
        <ele>1026.548</ele>
        <time>2014-08-25T11:58:19Z</time>
      </trkpt>
      <trkpt lat="43.74562" lon="6.62785">
        <ele>1027.398</ele>
        <time>2014-08-25T11:58:22Z</time>
      </trkpt>
      <trkpt lat="43.74572" lon="6.62783">
        <ele>1039.263</ele>
        <time>2014-08-25T11:58:30Z</time>
      </trkpt>
      <trkpt lat="43.74579" lon="6.62786">
        <ele>1037.954</ele>
        <time>2014-08-25T11:58:35Z</time>
      </trkpt>
      <trkpt lat="43.74591" lon="6.62793">
        <ele>1036.567</ele>
        <time>2014-08-25T11:58:42Z</time>
      </trkpt>
      <trkpt lat="43.74601" lon="6.62799">
        <ele>1034.041</ele>
        <time>2014-08-25T11:58:49Z</time>
      </trkpt>
      <trkpt lat="43.74604" lon="6.62812">
        <ele>1032.15</ele>
        <time>2014-08-25T11:58:56Z</time>
      </trkpt>
      <trkpt lat="43.74612" lon="6.62824">
        <ele>1032.13</ele>
        <time>2014-08-25T11:59:04Z</time>
      </trkpt>
      <trkpt lat="43.7462" lon="6.62835">
        <ele>1033.275</ele>
        <time>2014-08-25T11:59:12Z</time>
      </trkpt>
      <trkpt lat="43.74622" lon="6.62838">
        <ele>1033.003</ele>
        <time>2014-08-25T11:59:14Z</time>
      </trkpt>
      <trkpt lat="43.74627" lon="6.62843">
        <ele>1034.896</ele>
        <time>2014-08-25T11:59:18Z</time>
      </trkpt>
      <trkpt lat="43.74639" lon="6.6285">
        <ele>1039.462</ele>
        <time>2014-08-25T11:59:26Z</time>
      </trkpt>
      <trkpt lat="43.74647" lon="6.6286">
        <ele>1037.354</ele>
        <time>2014-08-25T11:59:32Z</time>
      </trkpt>
      <trkpt lat="43.7465" lon="6.62862">
        <ele>1037.905</ele>
        <time>2014-08-25T11:59:34Z</time>
      </trkpt>
      <trkpt lat="43.74654" lon="6.6286">
        <ele>1042.704</ele>
        <time>2014-08-25T11:59:37Z</time>
      </trkpt>
      <trkpt lat="43.74666" lon="6.62865">
        <ele>1051.471</ele>
        <time>2014-08-25T11:59:43Z</time>
      </trkpt>
      <trkpt lat="43.74672" lon="6.62866">
        <ele>1052.871</ele>
        <time>2014-08-25T11:59:48Z</time>
      </trkpt>
      <trkpt lat="43.74679" lon="6.62863">
        <ele>1067.19</ele>
        <time>2014-08-25T11:59:53Z</time>
      </trkpt>
      <trkpt lat="43.74689" lon="6.62872">
        <ele>1069.999</ele>
        <time>2014-08-25T12:00:00Z</time>
      </trkpt>
      <trkpt lat="43.74696" lon="6.62882">
        <ele>1067.986</ele>
        <time>2014-08-25T12:00:05Z</time>
      </trkpt>
      <trkpt lat="43.74699" lon="6.62887">
        <ele>1064.467</ele>
        <time>2014-08-25T12:00:08Z</time>
      </trkpt>
      <trkpt lat="43.7471" lon="6.62891">
        <ele>1061.854</ele>
        <time>2014-08-25T12:00:16Z</time>
      </trkpt>
      <trkpt lat="43.74719" lon="6.62891">
        <ele>1061.622</ele>
        <time>2014-08-25T12:00:22Z</time>
      </trkpt>
      <trkpt lat="43.74729" lon="6.62894">
        <ele>1060.653</ele>
        <time>2014-08-25T12:00:28Z</time>
      </trkpt>
      <trkpt lat="43.74742" lon="6.62892">
        <ele>1063.999</ele>
        <time>2014-08-25T12:00:36Z</time>
      </trkpt>
      <trkpt lat="43.74745" lon="6.62893">
        <ele>1064.499</ele>
        <time>2014-08-25T12:00:38Z</time>
      </trkpt>
      <trkpt lat="43.74753" lon="6.62904">
        <ele>1062.332</ele>
        <time>2014-08-25T12:00:44Z</time>
      </trkpt>
      <trkpt lat="43.74759" lon="6.62904">
        <ele>1062.494</ele>
        <time>2014-08-25T12:00:48Z</time>
      </trkpt>
      <trkpt lat="43.74769" lon="6.62907">
        <ele>1066.474</ele>
        <time>2014-08-25T12:00:56Z</time>
      </trkpt>
      <trkpt lat="43.74776" lon="6.62913">
        <ele>1065.699</ele>
        <time>2014-08-25T12:01:02Z</time>
      </trkpt>
      <trkpt lat="43.74779" lon="6.62915">
        <ele>1065.709</ele>
        <time>2014-08-25T12:01:04Z</time>
      </trkpt>
      <trkpt lat="43.74788" lon="6.62926">
        <ele>1064.155</ele>
        <time>2014-08-25T12:01:12Z</time>
      </trkpt>
      <trkpt lat="43.74799" lon="6.6293">
        <ele>1065.149</ele>
        <time>2014-08-25T12:01:20Z</time>
      </trkpt>
      <trkpt lat="43.74804" lon="6.62939">
        <ele>1065.759</ele>
        <time>2014-08-25T12:01:27Z</time>
      </trkpt>
      <trkpt lat="43.74805" lon="6.6294">
        <ele>1066.199</ele>
        <time>2014-08-25T12:01:28Z</time>
      </trkpt>
      <trkpt lat="43.74812" lon="6.62941">
        <ele>1070.597</ele>
        <time>2014-08-25T12:01:33Z</time>
      </trkpt>
      <trkpt lat="43.74822" lon="6.62946">
        <ele>1064.217</ele>
        <time>2014-08-25T12:01:40Z</time>
      </trkpt>
      <trkpt lat="43.74824" lon="6.62948">
        <ele>1064.567</ele>
        <time>2014-08-25T12:01:41Z</time>
      </trkpt>
      <trkpt lat="43.74826" lon="6.62952">
        <ele>1063.876</ele>
        <time>2014-08-25T12:01:44Z</time>
      </trkpt>
      <trkpt lat="43.74835" lon="6.62955">
        <ele>1061.454</ele>
        <time>2014-08-25T12:01:50Z</time>
      </trkpt>
      <trkpt lat="43.74842" lon="6.62965">
        <ele>1064.669</ele>
        <time>2014-08-25T12:01:57Z</time>
      </trkpt>
      <trkpt lat="43.74845" lon="6.62967">
        <ele>1065.098</ele>
        <time>2014-08-25T12:01:59Z</time>
      </trkpt>
      <trkpt lat="43.7485" lon="6.62972">
        <ele>1064.886</ele>
        <time>2014-08-25T12:02:03Z</time>
      </trkpt>
      <trkpt lat="43.74862" lon="6.62974">
        <ele>1066.456</ele>
        <time>2014-08-25T12:02:10Z</time>
      </trkpt>
      <trkpt lat="43.74872" lon="6.62977">
        <ele>1066.987</ele>
        <time>2014-08-25T12:02:16Z</time>
      </trkpt>
      <trkpt lat="43.74873" lon="6.62978">
        <ele>1067.097</ele>
        <time>2014-08-25T12:02:17Z</time>
      </trkpt>
      <trkpt lat="43.74882" lon="6.62978">
        <ele>1064.944</ele>
        <time>2014-08-25T12:02:24Z</time>
      </trkpt>
      <trkpt lat="43.74894" lon="6.6298">
        <ele>1070.179</ele>
        <time>2014-08-25T12:02:30Z</time>
      </trkpt>
      <trkpt lat="43.74903" lon="6.62977">
        <ele>1068.615</ele>
        <time>2014-08-25T12:02:36Z</time>
      </trkpt>
      <trkpt lat="43.74913" lon="6.62979">
        <ele>1068.134</ele>
        <time>2014-08-25T12:02:43Z</time>
      </trkpt>
      <trkpt lat="43.74924" lon="6.62976">
        <ele>1067.633</ele>
        <time>2014-08-25T12:02:50Z</time>
      </trkpt>
      <trkpt lat="43.74935" lon="6.62976">
        <ele>1063.528</ele>
        <time>2014-08-25T12:02:57Z</time>
      </trkpt>
      <trkpt lat="43.74951" lon="6.62981">
        <ele>1071.082</ele>
        <time>2014-08-25T12:03:04Z</time>
      </trkpt>
      <trkpt lat="43.74962" lon="6.62985">
        <ele>1068.864</ele>
        <time>2014-08-25T12:03:10Z</time>
      </trkpt>
      <trkpt lat="43.74974" lon="6.62984">
        <ele>1066.219</ele>
        <time>2014-08-25T12:03:15Z</time>
      </trkpt>
      <trkpt lat="43.74994" lon="6.62979">
        <ele>1062.909</ele>
        <time>2014-08-25T12:03:22Z</time>
      </trkpt>
      <trkpt lat="43.75022" lon="6.62971">
        <ele>1065.065</ele>
        <time>2014-08-25T12:03:30Z</time>
      </trkpt>
      <trkpt lat="43.75036" lon="6.62962">
        <ele>1067.059</ele>
        <time>2014-08-25T12:03:35Z</time>
      </trkpt>
      <trkpt lat="43.7504" lon="6.62963">
        <ele>1074.337</ele>
        <time>2014-08-25T12:03:40Z</time>
      </trkpt>
      <trkpt lat="43.75035" lon="6.62969">
        <ele>1070.924</ele>
        <time>2014-08-25T12:04:16Z</time>
      </trkpt>
      <trkpt lat="43.75044" lon="6.62965">
        <ele>1066.831</ele>
        <time>2014-08-25T12:04:21Z</time>
      </trkpt>
      <trkpt lat="43.75047" lon="6.62964">
        <ele>1065.63</ele>
        <time>2014-08-25T12:04:22Z</time>
      </trkpt>
      <trkpt lat="43.75073" lon="6.62953">
        <ele>1059.278</ele>
        <time>2014-08-25T12:04:29Z</time>
      </trkpt>
      <trkpt lat="43.75098" lon="6.62946">
        <ele>1056.197</ele>
        <time>2014-08-25T12:04:34Z</time>
      </trkpt>
      <trkpt lat="43.75119" lon="6.62942">
        <ele>1055.221</ele>
        <time>2014-08-25T12:04:39Z</time>
      </trkpt>
      <trkpt lat="43.75134" lon="6.62941">
        <ele>1053.392</ele>
        <time>2014-08-25T12:04:43Z</time>
      </trkpt>
      <trkpt lat="43.75149" lon="6.62942">
        <ele>1053.265</ele>
        <time>2014-08-25T12:04:48Z</time>
      </trkpt>
      <trkpt lat="43.75167" lon="6.62944">
        <ele>1051.084</ele>
        <time>2014-08-25T12:04:53Z</time>
      </trkpt>
      <trkpt lat="43.75181" lon="6.62946">
        <ele>1046.838</ele>
        <time>2014-08-25T12:04:58Z</time>
      </trkpt>
      <trkpt lat="43.75203" lon="6.62947">
        <ele>1048.409</ele>
        <time>2014-08-25T12:05:04Z</time>
      </trkpt>
      <trkpt lat="43.75215" lon="6.62948">
        <ele>1046.357</ele>
        <time>2014-08-25T12:05:10Z</time>
      </trkpt>
      <trkpt lat="43.75227" lon="6.62951">
        <ele>1044.292</ele>
        <time>2014-08-25T12:05:15Z</time>
      </trkpt>
      <trkpt lat="43.75231" lon="6.62953">
        <ele>1046.49</ele>
        <time>2014-08-25T12:05:20Z</time>
      </trkpt>
      <trkpt lat="43.75234" lon="6.62954">
        <ele>1048.734</ele>
        <time>2014-08-25T12:05:22Z</time>
      </trkpt>
      <trkpt lat="43.75249" lon="6.62953">
        <ele>1050.871</ele>
        <time>2014-08-25T12:05:28Z</time>
      </trkpt>
      <trkpt lat="43.75257" lon="6.62947">
        <ele>1050.643</ele>
        <time>2014-08-25T12:05:31Z</time>
      </trkpt>
      <trkpt lat="43.7527" lon="6.62955">
        <ele>1049.762</ele>
        <time>2014-08-25T12:05:36Z</time>
      </trkpt>
      <trkpt lat="43.7528" lon="6.62958">
        <ele>1050.271</ele>
        <time>2014-08-25T12:05:39Z</time>
      </trkpt>
      <trkpt lat="43.75309" lon="6.62966">
        <ele>1056.686</ele>
        <time>2014-08-25T12:05:46Z</time>
      </trkpt>
      <trkpt lat="43.75341" lon="6.62977">
        <ele>1060.199</ele>
        <time>2014-08-25T12:05:54Z</time>
      </trkpt>
      <trkpt lat="43.7535" lon="6.62983">
        <ele>1056.739</ele>
        <time>2014-08-25T12:05:57Z</time>
      </trkpt>
      <trkpt lat="43.75379" lon="6.62992">
        <ele>1052.996</ele>
        <time>2014-08-25T12:06:04Z</time>
      </trkpt>
      <trkpt lat="43.75397" lon="6.62999">
        <ele>1050.187</ele>
        <time>2014-08-25T12:06:10Z</time>
      </trkpt>
      <trkpt lat="43.75408" lon="6.62995">
        <ele>1047.706</ele>
        <time>2014-08-25T12:06:14Z</time>
      </trkpt>
      <trkpt lat="43.75425" lon="6.62989">
        <ele>1047.652</ele>
        <time>2014-08-25T12:06:20Z</time>
      </trkpt>
      <trkpt lat="43.75433" lon="6.6299">
        <ele>1047.431</ele>
        <time>2014-08-25T12:06:24Z</time>
      </trkpt>
      <trkpt lat="43.75442" lon="6.62991">
        <ele>1047.061</ele>
        <time>2014-08-25T12:06:29Z</time>
      </trkpt>
      <trkpt lat="43.75444" lon="6.62991">
        <ele>1046.53</ele>
        <time>2014-08-25T12:06:30Z</time>
      </trkpt>
      <trkpt lat="43.75461" lon="6.62984">
        <ele>1050.529</ele>
        <time>2014-08-25T12:06:36Z</time>
      </trkpt>
      <trkpt lat="43.75476" lon="6.62977">
        <ele>1053.039</ele>
        <time>2014-08-25T12:06:41Z</time>
      </trkpt>
      <trkpt lat="43.75493" lon="6.62965">
        <ele>1056.024</ele>
        <time>2014-08-25T12:06:46Z</time>
      </trkpt>
      <trkpt lat="43.75507" lon="6.62958">
        <ele>1056.443</ele>
        <time>2014-08-25T12:06:51Z</time>
      </trkpt>
      <trkpt lat="43.75526" lon="6.62953">
        <ele>1057.726</ele>
        <time>2014-08-25T12:06:58Z</time>
      </trkpt>
      <trkpt lat="43.75538" lon="6.62955">
        <ele>1059.268</ele>
        <time>2014-08-25T12:07:02Z</time>
      </trkpt>
      <trkpt lat="43.7555" lon="6.62958">
        <ele>1058.226</ele>
        <time>2014-08-25T12:07:07Z</time>
      </trkpt>
      <trkpt lat="43.75561" lon="6.62958">
        <ele>1054.375</ele>
        <time>2014-08-25T12:07:13Z</time>
      </trkpt>
      <trkpt lat="43.75565" lon="6.6296">
        <ele>1055.207</ele>
        <time>2014-08-25T12:07:15Z</time>
      </trkpt>
      <trkpt lat="43.75577" lon="6.62963">
        <ele>1057.935</ele>
        <time>2014-08-25T12:07:21Z</time>
      </trkpt>
      <trkpt lat="43.75592" lon="6.62956">
        <ele>1060.745</ele>
        <time>2014-08-25T12:07:30Z</time>
      </trkpt>
      <trkpt lat="43.75597" lon="6.6295">
        <ele>1060.289</ele>
        <time>2014-08-25T12:07:34Z</time>
      </trkpt>
      <trkpt lat="43.75609" lon="6.6295">
        <ele>1059.065</ele>
        <time>2014-08-25T12:07:40Z</time>
      </trkpt>
      <trkpt lat="43.75627" lon="6.62944">
        <ele>1056.959</ele>
        <time>2014-08-25T12:07:47Z</time>
      </trkpt>
      <trkpt lat="43.75649" lon="6.62938">
        <ele>1054.777</ele>
        <time>2014-08-25T12:07:52Z</time>
      </trkpt>
      <trkpt lat="43.75673" lon="6.6293">
        <ele>1052.739</ele>
        <time>2014-08-25T12:07:58Z</time>
      </trkpt>
      <trkpt lat="43.75707" lon="6.62917">
        <ele>1051.13</ele>
        <time>2014-08-25T12:08:05Z</time>
      </trkpt>
      <trkpt lat="43.75731" lon="6.6291">
        <ele>1049.479</ele>
        <time>2014-08-25T12:08:10Z</time>
      </trkpt>
      <trkpt lat="43.75752" lon="6.62905">
        <ele>1047.344</ele>
        <time>2014-08-25T12:08:14Z</time>
      </trkpt>
      <trkpt lat="43.75767" lon="6.62897">
        <ele>1045.523</ele>
        <time>2014-08-25T12:08:17Z</time>
      </trkpt>
      <trkpt lat="43.75781" lon="6.62887">
        <ele>1044.503</ele>
        <time>2014-08-25T12:08:20Z</time>
      </trkpt>
      <trkpt lat="43.75793" lon="6.62874">
        <ele>1043.683</ele>
        <time>2014-08-25T12:08:23Z</time>
      </trkpt>
      <trkpt lat="43.75804" lon="6.62866">
        <ele>1044.265</ele>
        <time>2014-08-25T12:08:25Z</time>
      </trkpt>
      <trkpt lat="43.75833" lon="6.62857">
        <ele>1042.953</ele>
        <time>2014-08-25T12:08:30Z</time>
      </trkpt>
      <trkpt lat="43.75862" lon="6.62843">
        <ele>1038.921</ele>
        <time>2014-08-25T12:08:35Z</time>
      </trkpt>
      <trkpt lat="43.75892" lon="6.6283">
        <ele>1037.381</ele>
        <time>2014-08-25T12:08:40Z</time>
      </trkpt>
      <trkpt lat="43.75898" lon="6.62828">
        <ele>1037.403</ele>
        <time>2014-08-25T12:08:41Z</time>
      </trkpt>
      <trkpt lat="43.75938" lon="6.62819">
        <ele>1033.84</ele>
        <time>2014-08-25T12:08:48Z</time>
      </trkpt>
      <trkpt lat="43.75963" lon="6.6281">
        <ele>1031.832</ele>
        <time>2014-08-25T12:08:53Z</time>
      </trkpt>
      <trkpt lat="43.75972" lon="6.62803">
        <ele>1030.714</ele>
        <time>2014-08-25T12:08:57Z</time>
      </trkpt>
      <trkpt lat="43.7598" lon="6.62791">
        <ele>1030.35</ele>
        <time>2014-08-25T12:09:02Z</time>
      </trkpt>
      <trkpt lat="43.75987" lon="6.62782">
        <ele>1033.35</ele>
        <time>2014-08-25T12:09:07Z</time>
      </trkpt>
      <trkpt lat="43.75994" lon="6.62782">
        <ele>1036.616</ele>
        <time>2014-08-25T12:09:11Z</time>
      </trkpt>
      <trkpt lat="43.76008" lon="6.62772">
        <ele>1037.66</ele>
        <time>2014-08-25T12:09:18Z</time>
      </trkpt>
      <trkpt lat="43.76025" lon="6.62764">
        <ele>1033.051</ele>
        <time>2014-08-25T12:09:26Z</time>
      </trkpt>
      <trkpt lat="43.76029" lon="6.62764">
        <ele>1032.7</ele>
        <time>2014-08-25T12:09:28Z</time>
      </trkpt>
      <trkpt lat="43.76043" lon="6.62758">
        <ele>1034.944</ele>
        <time>2014-08-25T12:09:34Z</time>
      </trkpt>
      <trkpt lat="43.76048" lon="6.62743">
        <ele>1036.609</ele>
        <time>2014-08-25T12:09:38Z</time>
      </trkpt>
      <trkpt lat="43.76051" lon="6.6273">
        <ele>1037.291</ele>
        <time>2014-08-25T12:09:41Z</time>
      </trkpt>
      <trkpt lat="43.76052" lon="6.62723">
        <ele>1037.699</ele>
        <time>2014-08-25T12:09:43Z</time>
      </trkpt>
      <trkpt lat="43.76067" lon="6.62705">
        <ele>1037.935</ele>
        <time>2014-08-25T12:09:49Z</time>
      </trkpt>
      <trkpt lat="43.76084" lon="6.62693">
        <ele>1038.236</ele>
        <time>2014-08-25T12:09:54Z</time>
      </trkpt>
      <trkpt lat="43.76098" lon="6.62682">
        <ele>1038.437</ele>
        <time>2014-08-25T12:09:58Z</time>
      </trkpt>
      <trkpt lat="43.7612" lon="6.62665">
        <ele>1040.051</ele>
        <time>2014-08-25T12:10:04Z</time>
      </trkpt>
      <trkpt lat="43.76129" lon="6.62674">
        <ele>1037.562</ele>
        <time>2014-08-25T12:10:10Z</time>
      </trkpt>
      <trkpt lat="43.7613" lon="6.62678">
        <ele>1034.357</ele>
        <time>2014-08-25T12:10:13Z</time>
      </trkpt>
      <trkpt lat="43.76134" lon="6.62683">
        <ele>1033.731</ele>
        <time>2014-08-25T12:10:19Z</time>
      </trkpt>
      <trkpt lat="43.76134" lon="6.62683">
        <ele>1033.872</ele>
        <time>2014-08-25T12:10:20Z</time>
      </trkpt>
      <trkpt lat="43.76129" lon="6.62689">
        <ele>1033.182</ele>
        <time>2014-08-25T12:10:25Z</time>
      </trkpt>
      <trkpt lat="43.76124" lon="6.62695">
        <ele>1034.807</ele>
        <time>2014-08-25T12:10:29Z</time>
      </trkpt>
      <trkpt lat="43.76124" lon="6.62712">
        <ele>1035.79</ele>
        <time>2014-08-25T12:10:36Z</time>
      </trkpt>
      <trkpt lat="43.76126" lon="6.62727">
        <ele>1032.905</ele>
        <time>2014-08-25T12:10:41Z</time>
      </trkpt>
      <trkpt lat="43.7613" lon="6.62755">
        <ele>1031.687</ele>
        <time>2014-08-25T12:10:48Z</time>
      </trkpt>
      <trkpt lat="43.76126" lon="6.62786">
        <ele>1033.912</ele>
        <time>2014-08-25T12:10:54Z</time>
      </trkpt>
      <trkpt lat="43.76121" lon="6.62809">
        <ele>1035.433</ele>
        <time>2014-08-25T12:10:59Z</time>
      </trkpt>
      <trkpt lat="43.76116" lon="6.62825">
        <ele>1034.57</ele>
        <time>2014-08-25T12:11:03Z</time>
      </trkpt>
      <trkpt lat="43.76114" lon="6.62827">
        <ele>1035.292</ele>
        <time>2014-08-25T12:11:04Z</time>
      </trkpt>
      <trkpt lat="43.76107" lon="6.62841">
        <ele>1037.424</ele>
        <time>2014-08-25T12:11:09Z</time>
      </trkpt>
      <trkpt lat="43.76098" lon="6.62862">
        <ele>1036.19</ele>
        <time>2014-08-25T12:11:13Z</time>
      </trkpt>
      <trkpt lat="43.76091" lon="6.62879">
        <ele>1036.691</ele>
        <time>2014-08-25T12:11:16Z</time>
      </trkpt>
      <trkpt lat="43.76077" lon="6.62899">
        <ele>1035.827</ele>
        <time>2014-08-25T12:11:20Z</time>
      </trkpt>
      <trkpt lat="43.76064" lon="6.62913">
        <ele>1036.61</ele>
        <time>2014-08-25T12:11:25Z</time>
      </trkpt>
      <trkpt lat="43.76051" lon="6.62925">
        <ele>1037.933</ele>
        <time>2014-08-25T12:11:30Z</time>
      </trkpt>
      <trkpt lat="43.76032" lon="6.62945">
        <ele>1036.759</ele>
        <time>2014-08-25T12:11:36Z</time>
      </trkpt>
      <trkpt lat="43.76016" lon="6.62969">
        <ele>1034.606</ele>
        <time>2014-08-25T12:11:42Z</time>
      </trkpt>
      <trkpt lat="43.76005" lon="6.62995">
        <ele>1031.84</ele>
        <time>2014-08-25T12:11:47Z</time>
      </trkpt>
      <trkpt lat="43.75996" lon="6.63032">
        <ele>1029.46</ele>
        <time>2014-08-25T12:11:53Z</time>
      </trkpt>
      <trkpt lat="43.75989" lon="6.63071">
        <ele>1028.405</ele>
        <time>2014-08-25T12:12:00Z</time>
      </trkpt>
      <trkpt lat="43.75981" lon="6.63094">
        <ele>1028.968</ele>
        <time>2014-08-25T12:12:05Z</time>
      </trkpt>
      <trkpt lat="43.75979" lon="6.63099">
        <ele>1029.329</ele>
        <time>2014-08-25T12:12:06Z</time>
      </trkpt>
      <trkpt lat="43.75969" lon="6.63145">
        <ele>1030.69</ele>
        <time>2014-08-25T12:12:15Z</time>
      </trkpt>
      <trkpt lat="43.75969" lon="6.63158">
        <ele>1031.28</ele>
        <time>2014-08-25T12:12:18Z</time>
      </trkpt>
      <trkpt lat="43.75962" lon="6.63177">
        <ele>1032.694</ele>
        <time>2014-08-25T12:12:23Z</time>
      </trkpt>
      <trkpt lat="43.75953" lon="6.63212">
        <ele>1032.527</ele>
        <time>2014-08-25T12:12:31Z</time>
      </trkpt>
      <trkpt lat="43.75948" lon="6.63236">
        <ele>1032.78</ele>
        <time>2014-08-25T12:12:36Z</time>
      </trkpt>
      <trkpt lat="43.75939" lon="6.63271">
        <ele>1031.929</ele>
        <time>2014-08-25T12:12:42Z</time>
      </trkpt>
      <trkpt lat="43.75932" lon="6.6329">
        <ele>1033.204</ele>
        <time>2014-08-25T12:12:46Z</time>
      </trkpt>
      <trkpt lat="43.75925" lon="6.63313">
        <ele>1035.006</ele>
        <time>2014-08-25T12:12:51Z</time>
      </trkpt>
      <trkpt lat="43.75914" lon="6.63342">
        <ele>1034.643</ele>
        <time>2014-08-25T12:12:57Z</time>
      </trkpt>
      <trkpt lat="43.75904" lon="6.63376">
        <ele>1035.141</ele>
        <time>2014-08-25T12:13:04Z</time>
      </trkpt>
      <trkpt lat="43.75894" lon="6.6341">
        <ele>1034.86</ele>
        <time>2014-08-25T12:13:11Z</time>
      </trkpt>
      <trkpt lat="43.75885" lon="6.63437">
        <ele>1035.312</ele>
        <time>2014-08-25T12:13:17Z</time>
      </trkpt>
      <trkpt lat="43.7587" lon="6.63466">
        <ele>1036.038</ele>
        <time>2014-08-25T12:13:24Z</time>
      </trkpt>
      <trkpt lat="43.75848" lon="6.63494">
        <ele>1035.727</ele>
        <time>2014-08-25T12:13:32Z</time>
      </trkpt>
      <trkpt lat="43.75832" lon="6.63515">
        <ele>1037.119</ele>
        <time>2014-08-25T12:13:38Z</time>
      </trkpt>
      <trkpt lat="43.75819" lon="6.6355">
        <ele>1036.808</ele>
        <time>2014-08-25T12:13:45Z</time>
      </trkpt>
      <trkpt lat="43.75803" lon="6.63568">
        <ele>1037.482</ele>
        <time>2014-08-25T12:13:51Z</time>
      </trkpt>
      <trkpt lat="43.75788" lon="6.63577">
        <ele>1037.931</ele>
        <time>2014-08-25T12:13:56Z</time>
      </trkpt>
      <trkpt lat="43.75791" lon="6.63589">
        <ele>1037.962</ele>
        <time>2014-08-25T12:14:00Z</time>
      </trkpt>
      <trkpt lat="43.75798" lon="6.63597">
        <ele>1038.49</ele>
        <time>2014-08-25T12:14:03Z</time>
      </trkpt>
      <trkpt lat="43.75805" lon="6.6362">
        <ele>1038.105</ele>
        <time>2014-08-25T12:14:07Z</time>
      </trkpt>
      <trkpt lat="43.75807" lon="6.63632">
        <ele>1038.657</ele>
        <time>2014-08-25T12:14:09Z</time>
      </trkpt>
      <trkpt lat="43.75818" lon="6.63664">
        <ele>1038.578</ele>
        <time>2014-08-25T12:14:16Z</time>
      </trkpt>
      <trkpt lat="43.7582" lon="6.63674">
        <ele>1037.797</ele>
        <time>2014-08-25T12:14:18Z</time>
      </trkpt>
      <trkpt lat="43.75825" lon="6.63699">
        <ele>1038.592</ele>
        <time>2014-08-25T12:14:23Z</time>
      </trkpt>
      <trkpt lat="43.75824" lon="6.63721">
        <ele>1038.854</ele>
        <time>2014-08-25T12:14:27Z</time>
      </trkpt>
      <trkpt lat="43.7582" lon="6.63763">
        <ele>1037.873</ele>
        <time>2014-08-25T12:14:34Z</time>
      </trkpt>
      <trkpt lat="43.7582" lon="6.63781">
        <ele>1036.508</ele>
        <time>2014-08-25T12:14:37Z</time>
      </trkpt>
      <trkpt lat="43.75817" lon="6.63807">
        <ele>1035.979</ele>
        <time>2014-08-25T12:14:41Z</time>
      </trkpt>
      <trkpt lat="43.75813" lon="6.63856">
        <ele>1033.945</ele>
        <time>2014-08-25T12:14:48Z</time>
      </trkpt>
      <trkpt lat="43.75812" lon="6.63876">
        <ele>1032.372</ele>
        <time>2014-08-25T12:14:51Z</time>
      </trkpt>
      <trkpt lat="43.75815" lon="6.63914">
        <ele>1031.826</ele>
        <time>2014-08-25T12:14:57Z</time>
      </trkpt>
      <trkpt lat="43.75823" lon="6.63949">
        <ele>1032.287</ele>
        <time>2014-08-25T12:15:03Z</time>
      </trkpt>
      <trkpt lat="43.75839" lon="6.64004">
        <ele>1033.478</ele>
        <time>2014-08-25T12:15:12Z</time>
      </trkpt>
      <trkpt lat="43.7584" lon="6.6401">
        <ele>1033.177</ele>
        <time>2014-08-25T12:15:13Z</time>
      </trkpt>
      <trkpt lat="43.75844" lon="6.64055">
        <ele>1032.027</ele>
        <time>2014-08-25T12:15:20Z</time>
      </trkpt>
      <trkpt lat="43.75845" lon="6.64112">
        <ele>1031.854</ele>
        <time>2014-08-25T12:15:29Z</time>
      </trkpt>
      <trkpt lat="43.75845" lon="6.64142">
        <ele>1031.466</ele>
        <time>2014-08-25T12:15:34Z</time>
      </trkpt>
      <trkpt lat="43.75845" lon="6.64154">
        <ele>1030.825</ele>
        <time>2014-08-25T12:15:36Z</time>
      </trkpt>
      <trkpt lat="43.7585" lon="6.64197">
        <ele>1031.588</ele>
        <time>2014-08-25T12:15:43Z</time>
      </trkpt>
      <trkpt lat="43.75856" lon="6.64245">
        <ele>1031.581</ele>
        <time>2014-08-25T12:15:51Z</time>
      </trkpt>
      <trkpt lat="43.75848" lon="6.64265">
        <ele>1031.262</ele>
        <time>2014-08-25T12:15:55Z</time>
      </trkpt>
      <trkpt lat="43.75817" lon="6.64291">
        <ele>1032.033</ele>
        <time>2014-08-25T12:16:04Z</time>
      </trkpt>
      <trkpt lat="43.75797" lon="6.64309">
        <ele>1032.393</ele>
        <time>2014-08-25T12:16:10Z</time>
      </trkpt>
      <trkpt lat="43.75798" lon="6.64329">
        <ele>1032.212</ele>
        <time>2014-08-25T12:16:14Z</time>
      </trkpt>
      <trkpt lat="43.75817" lon="6.64371">
        <ele>1032.619</ele>
        <time>2014-08-25T12:16:22Z</time>
      </trkpt>
      <trkpt lat="43.75836" lon="6.64427">
        <ele>1032.78</ele>
        <time>2014-08-25T12:16:32Z</time>
      </trkpt>
      <trkpt lat="43.75847" lon="6.64474">
        <ele>1031.936</ele>
        <time>2014-08-25T12:16:40Z</time>
      </trkpt>
      <trkpt lat="43.75858" lon="6.64526">
        <ele>1030.675</ele>
        <time>2014-08-25T12:16:48Z</time>
      </trkpt>
      <trkpt lat="43.75864" lon="6.64546">
        <ele>1030.296</ele>
        <time>2014-08-25T12:16:51Z</time>
      </trkpt>
      <trkpt lat="43.75877" lon="6.6457">
        <ele>1030.689</ele>
        <time>2014-08-25T12:16:55Z</time>
      </trkpt>
      <trkpt lat="43.75889" lon="6.64597">
        <ele>1031.13</ele>
        <time>2014-08-25T12:17:00Z</time>
      </trkpt>
      <trkpt lat="43.75902" lon="6.6465">
        <ele>1030.579</ele>
        <time>2014-08-25T12:17:09Z</time>
      </trkpt>
      <trkpt lat="43.75911" lon="6.64705">
        <ele>1031.109</ele>
        <time>2014-08-25T12:17:18Z</time>
      </trkpt>
      <trkpt lat="43.75916" lon="6.64775">
        <ele>1032.553</ele>
        <time>2014-08-25T12:17:30Z</time>
      </trkpt>
      <trkpt lat="43.75923" lon="6.64806">
        <ele>1034.204</ele>
        <time>2014-08-25T12:17:36Z</time>
      </trkpt>
      <trkpt lat="43.75932" lon="6.64834">
        <ele>1035.397</ele>
        <time>2014-08-25T12:17:42Z</time>
      </trkpt>
      <trkpt lat="43.75941" lon="6.64868">
        <ele>1035.144</ele>
        <time>2014-08-25T12:17:49Z</time>
      </trkpt>
      <trkpt lat="43.75946" lon="6.64885">
        <ele>1035.633</ele>
        <time>2014-08-25T12:17:53Z</time>
      </trkpt>
      <trkpt lat="43.75949" lon="6.64903">
        <ele>1038.623</ele>
        <time>2014-08-25T12:17:59Z</time>
      </trkpt>
      <trkpt lat="43.7595" lon="6.64909">
        <ele>1039.363</ele>
        <time>2014-08-25T12:18:01Z</time>
      </trkpt>
      <trkpt lat="43.75955" lon="6.64928">
        <ele>1040.03</ele>
        <time>2014-08-25T12:18:07Z</time>
      </trkpt>
      <trkpt lat="43.75961" lon="6.64952">
        <ele>1041.717</ele>
        <time>2014-08-25T12:18:14Z</time>
      </trkpt>
      <trkpt lat="43.75968" lon="6.64978">
        <ele>1041.884</ele>
        <time>2014-08-25T12:18:21Z</time>
      </trkpt>
      <trkpt lat="43.75976" lon="6.65006">
        <ele>1043.679</ele>
        <time>2014-08-25T12:18:29Z</time>
      </trkpt>
      <trkpt lat="43.75983" lon="6.65036">
        <ele>1044.194</ele>
        <time>2014-08-25T12:18:37Z</time>
      </trkpt>
      <trkpt lat="43.7599" lon="6.65065">
        <ele>1043.95</ele>
        <time>2014-08-25T12:18:44Z</time>
      </trkpt>
      <trkpt lat="43.75997" lon="6.65094">
        <ele>1043.252</ele>
        <time>2014-08-25T12:18:51Z</time>
      </trkpt>
      <trkpt lat="43.76001" lon="6.65125">
        <ele>1042.531</ele>
        <time>2014-08-25T12:18:57Z</time>
      </trkpt>
      <trkpt lat="43.76005" lon="6.65163">
        <ele>1040.615</ele>
        <time>2014-08-25T12:19:03Z</time>
      </trkpt>
      <trkpt lat="43.76019" lon="6.65213">
        <ele>1038.917</ele>
        <time>2014-08-25T12:19:11Z</time>
      </trkpt>
      <trkpt lat="43.76031" lon="6.65249">
        <ele>1037.288</ele>
        <time>2014-08-25T12:19:18Z</time>
      </trkpt>
      <trkpt lat="43.76044" lon="6.6528">
        <ele>1036.038</ele>
        <time>2014-08-25T12:19:25Z</time>
      </trkpt>
      <trkpt lat="43.76052" lon="6.65304">
        <ele>1036.189</ele>
        <time>2014-08-25T12:19:29Z</time>
      </trkpt>
      <trkpt lat="43.76061" lon="6.65324">
        <ele>1034.989</ele>
        <time>2014-08-25T12:19:33Z</time>
      </trkpt>
      <trkpt lat="43.76063" lon="6.65354">
        <ele>1034.388</ele>
        <time>2014-08-25T12:19:39Z</time>
      </trkpt>
      <trkpt lat="43.7606" lon="6.6536">
        <ele>1033.616</ele>
        <time>2014-08-25T12:19:41Z</time>
      </trkpt>
      <trkpt lat="43.76059" lon="6.65385">
        <ele>1033.471</ele>
        <time>2014-08-25T12:19:47Z</time>
      </trkpt>
      <trkpt lat="43.76063" lon="6.6541">
        <ele>1036.175</ele>
        <time>2014-08-25T12:19:54Z</time>
      </trkpt>
      <trkpt lat="43.76064" lon="6.65426">
        <ele>1036.154</ele>
        <time>2014-08-25T12:19:59Z</time>
      </trkpt>
      <trkpt lat="43.76074" lon="6.65446">
        <ele>1037.263</ele>
        <time>2014-08-25T12:20:06Z</time>
      </trkpt>
      <trkpt lat="43.76088" lon="6.65462">
        <ele>1038.426</ele>
        <time>2014-08-25T12:20:12Z</time>
      </trkpt>
      <trkpt lat="43.76104" lon="6.65475">
        <ele>1039.155</ele>
        <time>2014-08-25T12:20:18Z</time>
      </trkpt>
      <trkpt lat="43.76126" lon="6.65476">
        <ele>1041.497</ele>
        <time>2014-08-25T12:20:25Z</time>
      </trkpt>
      <trkpt lat="43.76141" lon="6.65481">
        <ele>1042.437</ele>
        <time>2014-08-25T12:20:30Z</time>
      </trkpt>
      <trkpt lat="43.76145" lon="6.6549">
        <ele>1043.681</ele>
        <time>2014-08-25T12:20:34Z</time>
      </trkpt>
      <trkpt lat="43.76146" lon="6.65495">
        <ele>1045.552</ele>
        <time>2014-08-25T12:20:37Z</time>
      </trkpt>
      <trkpt lat="43.76151" lon="6.65505">
        <ele>1048.795</ele>
        <time>2014-08-25T12:20:43Z</time>
      </trkpt>
      <trkpt lat="43.76151" lon="6.65512">
        <ele>1049.643</ele>
        <time>2014-08-25T12:20:46Z</time>
      </trkpt>
      <trkpt lat="43.76157" lon="6.65532">
        <ele>1047.65</ele>
        <time>2014-08-25T12:20:54Z</time>
      </trkpt>
      <trkpt lat="43.76161" lon="6.65552">
        <ele>1046.099</ele>
        <time>2014-08-25T12:21:02Z</time>
      </trkpt>
      <trkpt lat="43.76165" lon="6.65573">
        <ele>1045.653</ele>
        <time>2014-08-25T12:21:09Z</time>
      </trkpt>
      <trkpt lat="43.76167" lon="6.65589">
        <ele>1045.952</ele>
        <time>2014-08-25T12:21:14Z</time>
      </trkpt>
      <trkpt lat="43.76178" lon="6.65593">
        <ele>1045.601</ele>
        <time>2014-08-25T12:21:18Z</time>
      </trkpt>
      <trkpt lat="43.76201" lon="6.65594">
        <ele>1044.902</ele>
        <time>2014-08-25T12:21:26Z</time>
      </trkpt>
      <trkpt lat="43.76221" lon="6.65596">
        <ele>1045.314</ele>
        <time>2014-08-25T12:21:33Z</time>
      </trkpt>
      <trkpt lat="43.76224" lon="6.65581">
        <ele>1045.074</ele>
        <time>2014-08-25T12:21:38Z</time>
      </trkpt>
      <trkpt lat="43.76225" lon="6.65552">
        <ele>1042.591</ele>
        <time>2014-08-25T12:21:45Z</time>
      </trkpt>
      <trkpt lat="43.76226" lon="6.65527">
        <ele>1040.429</ele>
        <time>2014-08-25T12:21:51Z</time>
      </trkpt>
      <trkpt lat="43.76237" lon="6.65521">
        <ele>1039.352</ele>
        <time>2014-08-25T12:21:55Z</time>
      </trkpt>
      <trkpt lat="43.7624" lon="6.65524">
        <ele>1039.443</ele>
        <time>2014-08-25T12:21:56Z</time>
      </trkpt>
      <trkpt lat="43.76253" lon="6.65545">
        <ele>1040.556</ele>
        <time>2014-08-25T12:22:03Z</time>
      </trkpt>
      <trkpt lat="43.76268" lon="6.65558">
        <ele>1040.006</ele>
        <time>2014-08-25T12:22:09Z</time>
      </trkpt>
      <trkpt lat="43.76287" lon="6.65571">
        <ele>1040.166</ele>
        <time>2014-08-25T12:22:16Z</time>
      </trkpt>
      <trkpt lat="43.76299" lon="6.65578">
        <ele>1041.056</ele>
        <time>2014-08-25T12:22:21Z</time>
      </trkpt>
      <trkpt lat="43.76317" lon="6.65593">
        <ele>1040.455</ele>
        <time>2014-08-25T12:22:27Z</time>
      </trkpt>
      <trkpt lat="43.76332" lon="6.65608">
        <ele>1041.908</ele>
        <time>2014-08-25T12:22:33Z</time>
      </trkpt>
      <trkpt lat="43.76347" lon="6.65635">
        <ele>1044.639</ele>
        <time>2014-08-25T12:22:41Z</time>
      </trkpt>
      <trkpt lat="43.76347" lon="6.65654">
        <ele>1046.54</ele>
        <time>2014-08-25T12:22:46Z</time>
      </trkpt>
      <trkpt lat="43.76338" lon="6.65674">
        <ele>1047.649</ele>
        <time>2014-08-25T12:22:52Z</time>
      </trkpt>
      <trkpt lat="43.76331" lon="6.65695">
        <ele>1049.909</ele>
        <time>2014-08-25T12:22:59Z</time>
      </trkpt>
      <trkpt lat="43.76326" lon="6.65711">
        <ele>1052.804</ele>
        <time>2014-08-25T12:23:05Z</time>
      </trkpt>
      <trkpt lat="43.76323" lon="6.65718">
        <ele>1055.223</ele>
        <time>2014-08-25T12:23:10Z</time>
      </trkpt>
      <trkpt lat="43.76329" lon="6.65724">
        <ele>1057.294</ele>
        <time>2014-08-25T12:23:14Z</time>
      </trkpt>
      <trkpt lat="43.76335" lon="6.65722">
        <ele>1057.714</ele>
        <time>2014-08-25T12:23:16Z</time>
      </trkpt>
      <trkpt lat="43.76361" lon="6.65704">
        <ele>1053.301</ele>
        <time>2014-08-25T12:23:24Z</time>
      </trkpt>
      <trkpt lat="43.76377" lon="6.65684">
        <ele>1051.449</ele>
        <time>2014-08-25T12:23:31Z</time>
      </trkpt>
      <trkpt lat="43.76393" lon="6.65656">
        <ele>1051.163</ele>
        <time>2014-08-25T12:23:39Z</time>
      </trkpt>
      <trkpt lat="43.76408" lon="6.65627">
        <ele>1050.071</ele>
        <time>2014-08-25T12:23:46Z</time>
      </trkpt>
      <trkpt lat="43.76432" lon="6.65579">
        <ele>1048.122</ele>
        <time>2014-08-25T12:23:57Z</time>
      </trkpt>
      <trkpt lat="43.76445" lon="6.6555">
        <ele>1047.152</ele>
        <time>2014-08-25T12:24:04Z</time>
      </trkpt>
      <trkpt lat="43.76456" lon="6.65522">
        <ele>1047.957</ele>
        <time>2014-08-25T12:24:11Z</time>
      </trkpt>
      <trkpt lat="43.76467" lon="6.65496">
        <ele>1050.99</ele>
        <time>2014-08-25T12:24:19Z</time>
      </trkpt>
      <trkpt lat="43.76469" lon="6.65491">
        <ele>1051.711</ele>
        <time>2014-08-25T12:24:21Z</time>
      </trkpt>
      <trkpt lat="43.76472" lon="6.65491">
        <ele>1052.471</ele>
        <time>2014-08-25T12:24:23Z</time>
      </trkpt>
      <trkpt lat="43.76474" lon="6.655">
        <ele>1052.43</ele>
        <time>2014-08-25T12:24:28Z</time>
      </trkpt>
      <trkpt lat="43.76475" lon="6.65501">
        <ele>1059.776</ele>
        <time>2014-08-25T12:24:34Z</time>
      </trkpt>
      <trkpt lat="43.76479" lon="6.65508">
        <ele>1066.863</ele>
        <time>2014-08-25T12:24:45Z</time>
      </trkpt>
      <trkpt lat="43.7648" lon="6.65527">
        <ele>1069.343</ele>
        <time>2014-08-25T12:24:51Z</time>
      </trkpt>
      <trkpt lat="43.76479" lon="6.65546">
        <ele>1069.992</ele>
        <time>2014-08-25T12:24:58Z</time>
      </trkpt>
      <trkpt lat="43.76481" lon="6.65564">
        <ele>1069.719</ele>
        <time>2014-08-25T12:25:04Z</time>
      </trkpt>
      <trkpt lat="43.76483" lon="6.65586">
        <ele>1069.216</ele>
        <time>2014-08-25T12:25:11Z</time>
      </trkpt>
      <trkpt lat="43.76486" lon="6.65609">
        <ele>1068.634</ele>
        <time>2014-08-25T12:25:18Z</time>
      </trkpt>
      <trkpt lat="43.76486" lon="6.65629">
        <ele>1067.664</ele>
        <time>2014-08-25T12:25:24Z</time>
      </trkpt>
      <trkpt lat="43.76489" lon="6.65648">
        <ele>1066.233</ele>
        <time>2014-08-25T12:25:30Z</time>
      </trkpt>
      <trkpt lat="43.76492" lon="6.65668">
        <ele>1065.544</ele>
        <time>2014-08-25T12:25:36Z</time>
      </trkpt>
      <trkpt lat="43.76494" lon="6.65691">
        <ele>1066.2</ele>
        <time>2014-08-25T12:25:42Z</time>
      </trkpt>
      <trkpt lat="43.76496" lon="6.65709">
        <ele>1066.399</ele>
        <time>2014-08-25T12:25:47Z</time>
      </trkpt>
      <trkpt lat="43.76504" lon="6.65729">
        <ele>1070.915</ele>
        <time>2014-08-25T12:25:54Z</time>
      </trkpt>
      <trkpt lat="43.76515" lon="6.65747">
        <ele>1071.704</ele>
        <time>2014-08-25T12:26:00Z</time>
      </trkpt>
      <trkpt lat="43.76526" lon="6.65769">
        <ele>1070</ele>
        <time>2014-08-25T12:26:07Z</time>
      </trkpt>
      <trkpt lat="43.76535" lon="6.65785">
        <ele>1069.869</ele>
        <time>2014-08-25T12:26:13Z</time>
      </trkpt>
      <trkpt lat="43.76545" lon="6.65802">
        <ele>1069.518</ele>
        <time>2014-08-25T12:26:19Z</time>
      </trkpt>
      <trkpt lat="43.76555" lon="6.65817">
        <ele>1070.189</ele>
        <time>2014-08-25T12:26:25Z</time>
      </trkpt>
      <trkpt lat="43.76563" lon="6.65828">
        <ele>1071.429</ele>
        <time>2014-08-25T12:26:30Z</time>
      </trkpt>
      <trkpt lat="43.76579" lon="6.65838">
        <ele>1069.803</ele>
        <time>2014-08-25T12:26:37Z</time>
      </trkpt>
      <trkpt lat="43.76593" lon="6.65849">
        <ele>1067.59</ele>
        <time>2014-08-25T12:26:43Z</time>
      </trkpt>
      <trkpt lat="43.76608" lon="6.6586">
        <ele>1069.144</ele>
        <time>2014-08-25T12:26:50Z</time>
      </trkpt>
      <trkpt lat="43.76616" lon="6.65868">
        <ele>1072.322</ele>
        <time>2014-08-25T12:26:55Z</time>
      </trkpt>
      <trkpt lat="43.76628" lon="6.65876">
        <ele>1073.351</ele>
        <time>2014-08-25T12:27:01Z</time>
      </trkpt>
      <trkpt lat="43.76636" lon="6.65883">
        <ele>1077.487</ele>
        <time>2014-08-25T12:27:07Z</time>
      </trkpt>
      <trkpt lat="43.7664" lon="6.65884">
        <ele>1078.676</ele>
        <time>2014-08-25T12:27:09Z</time>
      </trkpt>
      <trkpt lat="43.76653" lon="6.65892">
        <ele>1076.428</ele>
        <time>2014-08-25T12:27:15Z</time>
      </trkpt>
      <trkpt lat="43.76658" lon="6.65894">
        <ele>1074.675</ele>
        <time>2014-08-25T12:27:17Z</time>
      </trkpt>
      <trkpt lat="43.76678" lon="6.65901">
        <ele>1070.26</ele>
        <time>2014-08-25T12:27:25Z</time>
      </trkpt>
      <trkpt lat="43.76693" lon="6.65906">
        <ele>1068.92</ele>
        <time>2014-08-25T12:27:32Z</time>
      </trkpt>
      <trkpt lat="43.76708" lon="6.65918">
        <ele>1069.764</ele>
        <time>2014-08-25T12:27:40Z</time>
      </trkpt>
      <trkpt lat="43.76717" lon="6.65928">
        <ele>1071.439</ele>
        <time>2014-08-25T12:27:46Z</time>
      </trkpt>
      <trkpt lat="43.76727" lon="6.6594">
        <ele>1073.963</ele>
        <time>2014-08-25T12:27:53Z</time>
      </trkpt>
      <trkpt lat="43.76736" lon="6.65957">
        <ele>1080.37</ele>
        <time>2014-08-25T12:28:01Z</time>
      </trkpt>
      <trkpt lat="43.76743" lon="6.65969">
        <ele>1082.377</ele>
        <time>2014-08-25T12:28:07Z</time>
      </trkpt>
      <trkpt lat="43.76753" lon="6.65981">
        <ele>1083.302</ele>
        <time>2014-08-25T12:28:13Z</time>
      </trkpt>
      <trkpt lat="43.76769" lon="6.65995">
        <ele>1083.292</ele>
        <time>2014-08-25T12:28:21Z</time>
      </trkpt>
      <trkpt lat="43.76778" lon="6.66005">
        <ele>1082.801</ele>
        <time>2014-08-25T12:28:26Z</time>
      </trkpt>
      <trkpt lat="43.76785" lon="6.66014">
        <ele>1085.374</ele>
        <time>2014-08-25T12:28:31Z</time>
      </trkpt>
      <trkpt lat="43.76795" lon="6.66024">
        <ele>1085.321</ele>
        <time>2014-08-25T12:28:37Z</time>
      </trkpt>
      <trkpt lat="43.76805" lon="6.66028">
        <ele>1084.159</ele>
        <time>2014-08-25T12:28:42Z</time>
      </trkpt>
      <trkpt lat="43.76818" lon="6.66035">
        <ele>1083.979</ele>
        <time>2014-08-25T12:28:48Z</time>
      </trkpt>
      <trkpt lat="43.76828" lon="6.66046">
        <ele>1086.612</ele>
        <time>2014-08-25T12:28:54Z</time>
      </trkpt>
      <trkpt lat="43.76842" lon="6.6606">
        <ele>1091.254</ele>
        <time>2014-08-25T12:29:02Z</time>
      </trkpt>
      <trkpt lat="43.76852" lon="6.6607">
        <ele>1090.39</ele>
        <time>2014-08-25T12:29:07Z</time>
      </trkpt>
      <trkpt lat="43.76856" lon="6.66074">
        <ele>1090.739</ele>
        <time>2014-08-25T12:29:10Z</time>
      </trkpt>
      <trkpt lat="43.76863" lon="6.66085">
        <ele>1093.294</ele>
        <time>2014-08-25T12:29:16Z</time>
      </trkpt>
      <trkpt lat="43.76876" lon="6.66108">
        <ele>1092.286</ele>
        <time>2014-08-25T12:29:23Z</time>
      </trkpt>
      <trkpt lat="43.76888" lon="6.66136">
        <ele>1089.674</ele>
        <time>2014-08-25T12:29:28Z</time>
      </trkpt>
      <trkpt lat="43.76893" lon="6.66146">
        <ele>1089.904</ele>
        <time>2014-08-25T12:29:31Z</time>
      </trkpt>
      <trkpt lat="43.76905" lon="6.66144">
        <ele>1087.653</ele>
        <time>2014-08-25T12:29:36Z</time>
      </trkpt>
      <trkpt lat="43.76912" lon="6.6614">
        <ele>1090.11</ele>
        <time>2014-08-25T12:29:40Z</time>
      </trkpt>
      <trkpt lat="43.76921" lon="6.66131">
        <ele>1093.033</ele>
        <time>2014-08-25T12:29:48Z</time>
      </trkpt>
      <trkpt lat="43.76926" lon="6.66133">
        <ele>1095.087</ele>
        <time>2014-08-25T12:29:52Z</time>
      </trkpt>
      <trkpt lat="43.76935" lon="6.66138">
        <ele>1097.538</ele>
        <time>2014-08-25T12:29:58Z</time>
      </trkpt>
      <trkpt lat="43.76936" lon="6.6614">
        <ele>1097.868</ele>
        <time>2014-08-25T12:29:59Z</time>
      </trkpt>
      <trkpt lat="43.76942" lon="6.66153">
        <ele>1099.573</ele>
        <time>2014-08-25T12:30:04Z</time>
      </trkpt>
      <trkpt lat="43.76943" lon="6.6617">
        <ele>1104.454</ele>
        <time>2014-08-25T12:30:13Z</time>
      </trkpt>
      <trkpt lat="43.76948" lon="6.66187">
        <ele>1106.883</ele>
        <time>2014-08-25T12:30:21Z</time>
      </trkpt>
      <trkpt lat="43.76952" lon="6.66205">
        <ele>1108.291</ele>
        <time>2014-08-25T12:30:30Z</time>
      </trkpt>
      <trkpt lat="43.76955" lon="6.66221">
        <ele>1110.953</ele>
        <time>2014-08-25T12:30:38Z</time>
      </trkpt>
      <trkpt lat="43.76958" lon="6.66241">
        <ele>1113.39</ele>
        <time>2014-08-25T12:30:48Z</time>
      </trkpt>
      <trkpt lat="43.76961" lon="6.6626">
        <ele>1115.521</ele>
        <time>2014-08-25T12:30:57Z</time>
      </trkpt>
      <trkpt lat="43.76964" lon="6.66274">
        <ele>1113.908</ele>
        <time>2014-08-25T12:31:03Z</time>
      </trkpt>
      <trkpt lat="43.76967" lon="6.66288">
        <ele>1113.64</ele>
        <time>2014-08-25T12:31:10Z</time>
      </trkpt>
      <trkpt lat="43.76973" lon="6.66307">
        <ele>1114.818</ele>
        <time>2014-08-25T12:31:17Z</time>
      </trkpt>
      <trkpt lat="43.7698" lon="6.66323">
        <ele>1116.172</ele>
        <time>2014-08-25T12:31:23Z</time>
      </trkpt>
      <trkpt lat="43.76981" lon="6.66328">
        <ele>1117.595</ele>
        <time>2014-08-25T12:31:26Z</time>
      </trkpt>
      <trkpt lat="43.76988" lon="6.66344">
        <ele>1120.898</ele>
        <time>2014-08-25T12:31:35Z</time>
      </trkpt>
      <trkpt lat="43.76991" lon="6.66349">
        <ele>1121.203</ele>
        <time>2014-08-25T12:31:40Z</time>
      </trkpt>
      <trkpt lat="43.76994" lon="6.66353">
        <ele>1108.968</ele>
        <time>2014-08-25T12:32:20Z</time>
      </trkpt>
      <trkpt lat="43.76997" lon="6.6636">
        <ele>1110.922</ele>
        <time>2014-08-25T12:32:26Z</time>
      </trkpt>
      <trkpt lat="43.77" lon="6.66366">
        <ele>1113.393</ele>
        <time>2014-08-25T12:32:31Z</time>
      </trkpt>
      <trkpt lat="43.77001" lon="6.66375">
        <ele>1114.941</ele>
        <time>2014-08-25T12:32:38Z</time>
      </trkpt>
      <trkpt lat="43.77003" lon="6.66384">
        <ele>1116.461</ele>
        <time>2014-08-25T12:32:46Z</time>
      </trkpt>
      <trkpt lat="43.77005" lon="6.66393">
        <ele>1117.952</ele>
        <time>2014-08-25T12:32:55Z</time>
      </trkpt>
      <trkpt lat="43.7701" lon="6.66402">
        <ele>1114.243</ele>
        <time>2014-08-25T12:33:06Z</time>
      </trkpt>
      <trkpt lat="43.77013" lon="6.66406">
        <ele>1117.11</ele>
        <time>2014-08-25T12:33:13Z</time>
      </trkpt>
      <trkpt lat="43.77016" lon="6.66411">
        <ele>1121.256</ele>
        <time>2014-08-25T12:33:20Z</time>
      </trkpt>
      <trkpt lat="43.77019" lon="6.66418">
        <ele>1124.671</ele>
        <time>2014-08-25T12:33:31Z</time>
      </trkpt>
      <trkpt lat="43.77022" lon="6.66422">
        <ele>1125.453</ele>
        <time>2014-08-25T12:33:36Z</time>
      </trkpt>
      <trkpt lat="43.77025" lon="6.66424">
        <ele>1125.189</ele>
        <time>2014-08-25T12:33:40Z</time>
      </trkpt>
      <trkpt lat="43.77025" lon="6.66426">
        <ele>1129.318</ele>
        <time>2014-08-25T12:33:48Z</time>
      </trkpt>
      <trkpt lat="43.77028" lon="6.6643">
        <ele>1131.984</ele>
        <time>2014-08-25T12:33:55Z</time>
      </trkpt>
      <trkpt lat="43.77029" lon="6.66433">
        <ele>1131.599</ele>
        <time>2014-08-25T12:34:05Z</time>
      </trkpt>
      <trkpt lat="43.77033" lon="6.66437">
        <ele>1131.647</ele>
        <time>2014-08-25T12:34:11Z</time>
      </trkpt>
      <trkpt lat="43.77037" lon="6.66447">
        <ele>1131.447</ele>
        <time>2014-08-25T12:34:18Z</time>
      </trkpt>
      <trkpt lat="43.77038" lon="6.66452">
        <ele>1131.928</ele>
        <time>2014-08-25T12:34:22Z</time>
      </trkpt>
      <trkpt lat="43.77037" lon="6.66459">
        <ele>1133.91</ele>
        <time>2014-08-25T12:34:30Z</time>
      </trkpt>
      <trkpt lat="43.77035" lon="6.66464">
        <ele>1135.019</ele>
        <time>2014-08-25T12:34:36Z</time>
      </trkpt>
      <trkpt lat="43.77037" lon="6.6647">
        <ele>1135.859</ele>
        <time>2014-08-25T12:34:43Z</time>
      </trkpt>
      <trkpt lat="43.77038" lon="6.66474">
        <ele>1135.318</ele>
        <time>2014-08-25T12:34:48Z</time>
      </trkpt>
      <trkpt lat="43.77041" lon="6.66477">
        <ele>1136.928</ele>
        <time>2014-08-25T12:34:55Z</time>
      </trkpt>
      <trkpt lat="43.77043" lon="6.66479">
        <ele>1136.686</ele>
        <time>2014-08-25T12:35:01Z</time>
      </trkpt>
      <trkpt lat="43.77046" lon="6.66484">
        <ele>1140.048</ele>
        <time>2014-08-25T12:35:12Z</time>
      </trkpt>
      <trkpt lat="43.77046" lon="6.66486">
        <ele>1140.068</ele>
        <time>2014-08-25T12:35:17Z</time>
      </trkpt>
      <trkpt lat="43.77048" lon="6.66494">
        <ele>1139.677</ele>
        <time>2014-08-25T12:35:26Z</time>
      </trkpt>
      <trkpt lat="43.77047" lon="6.66497">
        <ele>1139.647</ele>
        <time>2014-08-25T12:35:29Z</time>
      </trkpt>
      <trkpt lat="43.77048" lon="6.66503">
        <ele>1139.888</ele>
        <time>2014-08-25T12:35:35Z</time>
      </trkpt>
      <trkpt lat="43.77051" lon="6.66508">
        <ele>1140.39</ele>
        <time>2014-08-25T12:35:42Z</time>
      </trkpt>
      <trkpt lat="43.77052" lon="6.66514">
        <ele>1140.047</ele>
        <time>2014-08-25T12:35:47Z</time>
      </trkpt>
      <trkpt lat="43.77053" lon="6.66528">
        <ele>1139.968</ele>
        <time>2014-08-25T12:35:57Z</time>
      </trkpt>
      <trkpt lat="43.77055" lon="6.66539">
        <ele>1139.646</ele>
        <time>2014-08-25T12:36:05Z</time>
      </trkpt>
      <trkpt lat="43.77056" lon="6.6655">
        <ele>1140.87</ele>
        <time>2014-08-25T12:36:14Z</time>
      </trkpt>
      <trkpt lat="43.77058" lon="6.66562">
        <ele>1142.379</ele>
        <time>2014-08-25T12:36:23Z</time>
      </trkpt>
      <trkpt lat="43.7706" lon="6.66573">
        <ele>1142.688</ele>
        <time>2014-08-25T12:36:33Z</time>
      </trkpt>
      <trkpt lat="43.7706" lon="6.66577">
        <ele>1143.058</ele>
        <time>2014-08-25T12:36:36Z</time>
      </trkpt>
      <trkpt lat="43.77061" lon="6.66584">
        <ele>1144.271</ele>
        <time>2014-08-25T12:36:42Z</time>
      </trkpt>
      <trkpt lat="43.77063" lon="6.66595">
        <ele>1145.709</ele>
        <time>2014-08-25T12:36:52Z</time>
      </trkpt>
      <trkpt lat="43.77065" lon="6.66603">
        <ele>1146.429</ele>
        <time>2014-08-25T12:37:00Z</time>
      </trkpt>
      <trkpt lat="43.77067" lon="6.6661">
        <ele>1146.466</ele>
        <time>2014-08-25T12:37:08Z</time>
      </trkpt>
      <trkpt lat="43.77068" lon="6.66616">
        <ele>1147.107</ele>
        <time>2014-08-25T12:37:14Z</time>
      </trkpt>
      <trkpt lat="43.77069" lon="6.66624">
        <ele>1148.258</ele>
        <time>2014-08-25T12:37:22Z</time>
      </trkpt>
      <trkpt lat="43.77069" lon="6.66632">
        <ele>1149.88</ele>
        <time>2014-08-25T12:37:31Z</time>
      </trkpt>
      <trkpt lat="43.7707" lon="6.66638">
        <ele>1151.14</ele>
        <time>2014-08-25T12:37:38Z</time>
      </trkpt>
      <trkpt lat="43.77071" lon="6.66644">
        <ele>1152.268</ele>
        <time>2014-08-25T12:37:46Z</time>
      </trkpt>
      <trkpt lat="43.77069" lon="6.66647">
        <ele>1157.971</ele>
        <time>2014-08-25T12:37:51Z</time>
      </trkpt>
      <trkpt lat="43.77068" lon="6.66651">
        <ele>1161.539</ele>
        <time>2014-08-25T12:37:56Z</time>
      </trkpt>
      <trkpt lat="43.77069" lon="6.66656">
        <ele>1160.392</ele>
        <time>2014-08-25T12:37:59Z</time>
      </trkpt>
      <trkpt lat="43.77073" lon="6.66664">
        <ele>1156.742</ele>
        <time>2014-08-25T12:38:08Z</time>
      </trkpt>
      <trkpt lat="43.77075" lon="6.66669">
        <ele>1157.448</ele>
        <time>2014-08-25T12:38:14Z</time>
      </trkpt>
      <trkpt lat="43.77074" lon="6.66673">
        <ele>1161.293</ele>
        <time>2014-08-25T12:38:21Z</time>
      </trkpt>
      <trkpt lat="43.77074" lon="6.66677">
        <ele>1164.848</ele>
        <time>2014-08-25T12:38:27Z</time>
      </trkpt>
      <trkpt lat="43.77072" lon="6.66686">
        <ele>1166.943</ele>
        <time>2014-08-25T12:38:35Z</time>
      </trkpt>
      <trkpt lat="43.77072" lon="6.66691">
        <ele>1169.215</ele>
        <time>2014-08-25T12:38:41Z</time>
      </trkpt>
      <trkpt lat="43.77071" lon="6.66698">
        <ele>1170.835</ele>
        <time>2014-08-25T12:38:47Z</time>
      </trkpt>
      <trkpt lat="43.7707" lon="6.66704">
        <ele>1174.78</ele>
        <time>2014-08-25T12:38:53Z</time>
      </trkpt>
      <trkpt lat="43.77069" lon="6.6671">
        <ele>1175.716</ele>
        <time>2014-08-25T12:38:58Z</time>
      </trkpt>
      <trkpt lat="43.77069" lon="6.66711">
        <ele>1175.505</ele>
        <time>2014-08-25T12:38:59Z</time>
      </trkpt>
      <trkpt lat="43.77068" lon="6.66715">
        <ele>1175.995</ele>
        <time>2014-08-25T12:39:02Z</time>
      </trkpt>
      <trkpt lat="43.77067" lon="6.66717">
        <ele>1175.691</ele>
        <time>2014-08-25T12:39:07Z</time>
      </trkpt>
      <trkpt lat="43.77062" lon="6.66715">
        <ele>1183.883</ele>
        <time>2014-08-25T12:39:16Z</time>
      </trkpt>
      <trkpt lat="43.77063" lon="6.66716">
        <ele>1183.581</ele>
        <time>2014-08-25T12:39:17Z</time>
      </trkpt>
      <trkpt lat="43.77059" lon="6.66723">
        <ele>1185.287</ele>
        <time>2014-08-25T12:39:25Z</time>
      </trkpt>
      <trkpt lat="43.77053" lon="6.66726">
        <ele>1188.279</ele>
        <time>2014-08-25T12:39:32Z</time>
      </trkpt>
      <trkpt lat="43.77048" lon="6.66731">
        <ele>1195.544</ele>
        <time>2014-08-25T12:39:39Z</time>
      </trkpt>
      <trkpt lat="43.77045" lon="6.66734">
        <ele>1195.784</ele>
        <time>2014-08-25T12:39:45Z</time>
      </trkpt>
      <trkpt lat="43.77044" lon="6.66743">
        <ele>1191.606</ele>
        <time>2014-08-25T12:39:50Z</time>
      </trkpt>
      <trkpt lat="43.77043" lon="6.6675">
        <ele>1189.587</ele>
        <time>2014-08-25T12:39:55Z</time>
      </trkpt>
      <trkpt lat="43.77043" lon="6.66756">
        <ele>1190.597</ele>
        <time>2014-08-25T12:39:59Z</time>
      </trkpt>
      <trkpt lat="43.77042" lon="6.66769">
        <ele>1188.405</ele>
        <time>2014-08-25T12:40:07Z</time>
      </trkpt>
      <trkpt lat="43.7704" lon="6.66774">
        <ele>1193.367</ele>
        <time>2014-08-25T12:40:14Z</time>
      </trkpt>
      <trkpt lat="43.77039" lon="6.66781">
        <ele>1194.264</ele>
        <time>2014-08-25T12:40:20Z</time>
      </trkpt>
      <trkpt lat="43.77039" lon="6.66789">
        <ele>1194.143</ele>
        <time>2014-08-25T12:40:25Z</time>
      </trkpt>
      <trkpt lat="43.7704" lon="6.66795">
        <ele>1193.099</ele>
        <time>2014-08-25T12:40:30Z</time>
      </trkpt>
      <trkpt lat="43.77037" lon="6.668">
        <ele>1197.269</ele>
        <time>2014-08-25T12:40:35Z</time>
      </trkpt>
      <trkpt lat="43.77036" lon="6.66807">
        <ele>1198.929</ele>
        <time>2014-08-25T12:40:43Z</time>
      </trkpt>
      <trkpt lat="43.77034" lon="6.66812">
        <ele>1203</ele>
        <time>2014-08-25T12:40:50Z</time>
      </trkpt>
      <trkpt lat="43.77035" lon="6.66821">
        <ele>1201.031</ele>
        <time>2014-08-25T12:40:55Z</time>
      </trkpt>
      <trkpt lat="43.77038" lon="6.66827">
        <ele>1198.005</ele>
        <time>2014-08-25T12:40:59Z</time>
      </trkpt>
      <trkpt lat="43.77042" lon="6.6684">
        <ele>1194.724</ele>
        <time>2014-08-25T12:41:07Z</time>
      </trkpt>
      <trkpt lat="43.77044" lon="6.66846">
        <ele>1195.24</ele>
        <time>2014-08-25T12:41:12Z</time>
      </trkpt>
      <trkpt lat="43.77043" lon="6.66852">
        <ele>1196.542</ele>
        <time>2014-08-25T12:41:18Z</time>
      </trkpt>
      <trkpt lat="43.7704" lon="6.66855">
        <ele>1199.406</ele>
        <time>2014-08-25T12:41:23Z</time>
      </trkpt>
      <trkpt lat="43.77038" lon="6.66859">
        <ele>1201.116</ele>
        <time>2014-08-25T12:41:29Z</time>
      </trkpt>
      <trkpt lat="43.77035" lon="6.66862">
        <ele>1200.558</ele>
        <time>2014-08-25T12:41:35Z</time>
      </trkpt>
      <trkpt lat="43.7703" lon="6.66863">
        <ele>1203.315</ele>
        <time>2014-08-25T12:41:40Z</time>
      </trkpt>
      <trkpt lat="43.77025" lon="6.66864">
        <ele>1204.084</ele>
        <time>2014-08-25T12:41:46Z</time>
      </trkpt>
      <trkpt lat="43.77024" lon="6.66865">
        <ele>1203.622</ele>
        <time>2014-08-25T12:41:48Z</time>
      </trkpt>
      <trkpt lat="43.7702" lon="6.6687">
        <ele>1204.333</ele>
        <time>2014-08-25T12:41:54Z</time>
      </trkpt>
      <trkpt lat="43.77022" lon="6.66876">
        <ele>1200.372</ele>
        <time>2014-08-25T12:41:59Z</time>
      </trkpt>
      <trkpt lat="43.7702" lon="6.66877">
        <ele>1201.715</ele>
        <time>2014-08-25T12:42:08Z</time>
      </trkpt>
      <trkpt lat="43.77017" lon="6.66885">
        <ele>1200.077</ele>
        <time>2014-08-25T12:43:07Z</time>
      </trkpt>
      <trkpt lat="43.77017" lon="6.66894">
        <ele>1199.759</ele>
        <time>2014-08-25T12:43:13Z</time>
      </trkpt>
      <trkpt lat="43.77015" lon="6.66902">
        <ele>1201.492</ele>
        <time>2014-08-25T12:43:20Z</time>
      </trkpt>
      <trkpt lat="43.77019" lon="6.66909">
        <ele>1200.891</ele>
        <time>2014-08-25T12:43:26Z</time>
      </trkpt>
      <trkpt lat="43.7702" lon="6.66916">
        <ele>1202.483</ele>
        <time>2014-08-25T12:43:32Z</time>
      </trkpt>
      <trkpt lat="43.77018" lon="6.66923">
        <ele>1207.698</ele>
        <time>2014-08-25T12:43:39Z</time>
      </trkpt>
      <trkpt lat="43.77023" lon="6.66928">
        <ele>1208.584</ele>
        <time>2014-08-25T12:43:43Z</time>
      </trkpt>
      <trkpt lat="43.77024" lon="6.66934">
        <ele>1206.599</ele>
        <time>2014-08-25T12:43:49Z</time>
      </trkpt>
      <trkpt lat="43.77028" lon="6.66942">
        <ele>1208.158</ele>
        <time>2014-08-25T12:43:55Z</time>
      </trkpt>
      <trkpt lat="43.77027" lon="6.66946">
        <ele>1211.393</ele>
        <time>2014-08-25T12:44:00Z</time>
      </trkpt>
      <trkpt lat="43.77028" lon="6.66955">
        <ele>1212.49</ele>
        <time>2014-08-25T12:44:06Z</time>
      </trkpt>
      <trkpt lat="43.77028" lon="6.66959">
        <ele>1212.802</ele>
        <time>2014-08-25T12:44:11Z</time>
      </trkpt>
      <trkpt lat="43.7703" lon="6.66966">
        <ele>1211.568</ele>
        <time>2014-08-25T12:44:16Z</time>
      </trkpt>
      <trkpt lat="43.77029" lon="6.66976">
        <ele>1215.91</ele>
        <time>2014-08-25T12:44:24Z</time>
      </trkpt>
      <trkpt lat="43.7703" lon="6.66985">
        <ele>1218.886</ele>
        <time>2014-08-25T12:44:33Z</time>
      </trkpt>
      <trkpt lat="43.77032" lon="6.66993">
        <ele>1221.957</ele>
        <time>2014-08-25T12:44:40Z</time>
      </trkpt>
      <trkpt lat="43.77033" lon="6.67">
        <ele>1220.672</ele>
        <time>2014-08-25T12:44:45Z</time>
      </trkpt>
      <trkpt lat="43.77038" lon="6.67008">
        <ele>1218.738</ele>
        <time>2014-08-25T12:44:52Z</time>
      </trkpt>
      <trkpt lat="43.7704" lon="6.67013">
        <ele>1220.182</ele>
        <time>2014-08-25T12:44:57Z</time>
      </trkpt>
      <trkpt lat="43.77037" lon="6.67012">
        <ele>1230.697</ele>
        <time>2014-08-25T12:45:05Z</time>
      </trkpt>
      <trkpt lat="43.77039" lon="6.67022">
        <ele>1232.011</ele>
        <time>2014-08-25T12:45:13Z</time>
      </trkpt>
      <trkpt lat="43.77041" lon="6.67031">
        <ele>1232.595</ele>
        <time>2014-08-25T12:45:21Z</time>
      </trkpt>
      <trkpt lat="43.77047" lon="6.67041">
        <ele>1228.694</ele>
        <time>2014-08-25T12:45:27Z</time>
      </trkpt>
      <trkpt lat="43.77052" lon="6.67048">
        <ele>1223.286</ele>
        <time>2014-08-25T12:45:33Z</time>
      </trkpt>
      <trkpt lat="43.77053" lon="6.67055">
        <ele>1224.188</ele>
        <time>2014-08-25T12:45:39Z</time>
      </trkpt>
      <trkpt lat="43.77054" lon="6.67062">
        <ele>1228.004</ele>
        <time>2014-08-25T12:45:47Z</time>
      </trkpt>
      <trkpt lat="43.77055" lon="6.67067">
        <ele>1229.684</ele>
        <time>2014-08-25T12:45:53Z</time>
      </trkpt>
      <trkpt lat="43.77056" lon="6.67074">
        <ele>1226.988</ele>
        <time>2014-08-25T12:45:58Z</time>
      </trkpt>
      <trkpt lat="43.7706" lon="6.67081">
        <ele>1225.267</ele>
        <time>2014-08-25T12:46:05Z</time>
      </trkpt>
      <trkpt lat="43.77068" lon="6.67086">
        <ele>1221.675</ele>
        <time>2014-08-25T12:46:13Z</time>
      </trkpt>
      <trkpt lat="43.77068" lon="6.67093">
        <ele>1223.529</ele>
        <time>2014-08-25T12:46:18Z</time>
      </trkpt>
      <trkpt lat="43.77068" lon="6.67094">
        <ele>1224.101</ele>
        <time>2014-08-25T12:46:19Z</time>
      </trkpt>
      <trkpt lat="43.7707" lon="6.67098">
        <ele>1225.573</ele>
        <time>2014-08-25T12:46:26Z</time>
      </trkpt>
      <trkpt lat="43.77072" lon="6.67108">
        <ele>1231.291</ele>
        <time>2014-08-25T12:46:34Z</time>
      </trkpt>
      <trkpt lat="43.77075" lon="6.67119">
        <ele>1231.346</ele>
        <time>2014-08-25T12:46:43Z</time>
      </trkpt>
      <trkpt lat="43.77077" lon="6.67134">
        <ele>1235.05</ele>
        <time>2014-08-25T12:46:50Z</time>
      </trkpt>
      <trkpt lat="43.77079" lon="6.67141">
        <ele>1236.068</ele>
        <time>2014-08-25T12:46:54Z</time>
      </trkpt>
      <trkpt lat="43.77082" lon="6.67148">
        <ele>1237.414</ele>
        <time>2014-08-25T12:46:59Z</time>
      </trkpt>
      <trkpt lat="43.77087" lon="6.67154">
        <ele>1231.118</ele>
        <time>2014-08-25T12:47:06Z</time>
      </trkpt>
      <trkpt lat="43.7709" lon="6.67158">
        <ele>1217.699</ele>
        <time>2014-08-25T12:49:19Z</time>
      </trkpt>
      <trkpt lat="43.77092" lon="6.67155">
        <ele>1210.481</ele>
        <time>2014-08-25T12:49:30Z</time>
      </trkpt>
      <trkpt lat="43.77095" lon="6.67165">
        <ele>1215.214</ele>
        <time>2014-08-25T12:49:36Z</time>
      </trkpt>
      <trkpt lat="43.77106" lon="6.67181">
        <ele>1217.975</ele>
        <time>2014-08-25T12:49:41Z</time>
      </trkpt>
      <trkpt lat="43.7712" lon="6.672">
        <ele>1220.364</ele>
        <time>2014-08-25T12:49:48Z</time>
      </trkpt>
      <trkpt lat="43.7713" lon="6.67211">
        <ele>1222.295</ele>
        <time>2014-08-25T12:49:54Z</time>
      </trkpt>
      <trkpt lat="43.77138" lon="6.67224">
        <ele>1224.599</ele>
        <time>2014-08-25T12:49:59Z</time>
      </trkpt>
      <trkpt lat="43.77146" lon="6.67237">
        <ele>1226.738</ele>
        <time>2014-08-25T12:50:04Z</time>
      </trkpt>
      <trkpt lat="43.77153" lon="6.67251">
        <ele>1226.623</ele>
        <time>2014-08-25T12:50:09Z</time>
      </trkpt>
      <trkpt lat="43.77155" lon="6.67254">
        <ele>1226.1</ele>
        <time>2014-08-25T12:50:10Z</time>
      </trkpt>
      <trkpt lat="43.77163" lon="6.6727">
        <ele>1223.994</ele>
        <time>2014-08-25T12:50:15Z</time>
      </trkpt>
      <trkpt lat="43.77168" lon="6.67292">
        <ele>1225.935</ele>
        <time>2014-08-25T12:50:21Z</time>
      </trkpt>
      <trkpt lat="43.77176" lon="6.67316">
        <ele>1227.407</ele>
        <time>2014-08-25T12:50:26Z</time>
      </trkpt>
      <trkpt lat="43.77185" lon="6.67334">
        <ele>1221.614</ele>
        <time>2014-08-25T12:50:30Z</time>
      </trkpt>
      <trkpt lat="43.77191" lon="6.67361">
        <ele>1216.736</ele>
        <time>2014-08-25T12:50:35Z</time>
      </trkpt>
      <trkpt lat="43.77197" lon="6.67397">
        <ele>1214.168</ele>
        <time>2014-08-25T12:50:41Z</time>
      </trkpt>
      <trkpt lat="43.77199" lon="6.67402">
        <ele>1213.444</ele>
        <time>2014-08-25T12:50:42Z</time>
      </trkpt>
      <trkpt lat="43.77211" lon="6.67424">
        <ele>1211.769</ele>
        <time>2014-08-25T12:50:47Z</time>
      </trkpt>
      <trkpt lat="43.77213" lon="6.67446">
        <ele>1214.861</ele>
        <time>2014-08-25T12:50:52Z</time>
      </trkpt>
      <trkpt lat="43.77208" lon="6.67467">
        <ele>1217.494</ele>
        <time>2014-08-25T12:50:56Z</time>
      </trkpt>
      <trkpt lat="43.77208" lon="6.67493">
        <ele>1214.145</ele>
        <time>2014-08-25T12:51:01Z</time>
      </trkpt>
      <trkpt lat="43.77209" lon="6.67506">
        <ele>1216.492</ele>
        <time>2014-08-25T12:51:04Z</time>
      </trkpt>
      <trkpt lat="43.77212" lon="6.67526">
        <ele>1217.427</ele>
        <time>2014-08-25T12:51:09Z</time>
      </trkpt>
      <trkpt lat="43.77215" lon="6.67529">
        <ele>1216.605</ele>
        <time>2014-08-25T12:51:10Z</time>
      </trkpt>
      <trkpt lat="43.77222" lon="6.67548">
        <ele>1219.403</ele>
        <time>2014-08-25T12:51:17Z</time>
      </trkpt>
      <trkpt lat="43.77233" lon="6.67576">
        <ele>1217.056</ele>
        <time>2014-08-25T12:51:23Z</time>
      </trkpt>
      <trkpt lat="43.77244" lon="6.67594">
        <ele>1217.427</ele>
        <time>2014-08-25T12:51:27Z</time>
      </trkpt>
      <trkpt lat="43.77252" lon="6.67599">
        <ele>1214.231</ele>
        <time>2014-08-25T12:51:30Z</time>
      </trkpt>
      <trkpt lat="43.77259" lon="6.67609">
        <ele>1216.577</ele>
        <time>2014-08-25T12:51:35Z</time>
      </trkpt>
      <trkpt lat="43.77272" lon="6.67619">
        <ele>1214.918</ele>
        <time>2014-08-25T12:51:41Z</time>
      </trkpt>
      <trkpt lat="43.77279" lon="6.67621">
        <ele>1213.195</ele>
        <time>2014-08-25T12:51:44Z</time>
      </trkpt>
      <trkpt lat="43.77298" lon="6.6763">
        <ele>1213.119</ele>
        <time>2014-08-25T12:51:49Z</time>
      </trkpt>
      <trkpt lat="43.77304" lon="6.67634">
        <ele>1215.353</ele>
        <time>2014-08-25T12:51:52Z</time>
      </trkpt>
      <trkpt lat="43.77313" lon="6.67638">
        <ele>1216.132</ele>
        <time>2014-08-25T12:51:58Z</time>
      </trkpt>
      <trkpt lat="43.7732" lon="6.67643">
        <ele>1215.581</ele>
        <time>2014-08-25T12:52:00Z</time>
      </trkpt>
      <trkpt lat="43.77349" lon="6.67652">
        <ele>1210.964</ele>
        <time>2014-08-25T12:52:07Z</time>
      </trkpt>
      <trkpt lat="43.77362" lon="6.67652">
        <ele>1204.774</ele>
        <time>2014-08-25T12:52:12Z</time>
      </trkpt>
      <trkpt lat="43.77377" lon="6.67653">
        <ele>1200.03</ele>
        <time>2014-08-25T12:52:16Z</time>
      </trkpt>
      <trkpt lat="43.77388" lon="6.67645">
        <ele>1197.521</ele>
        <time>2014-08-25T12:52:19Z</time>
      </trkpt>
      <trkpt lat="43.77392" lon="6.67643">
        <ele>1196.711</ele>
        <time>2014-08-25T12:52:20Z</time>
      </trkpt>
      <trkpt lat="43.77405" lon="6.67643">
        <ele>1191.517</ele>
        <time>2014-08-25T12:52:25Z</time>
      </trkpt>
      <trkpt lat="43.77406" lon="6.67644">
        <ele>1190.838</ele>
        <time>2014-08-25T12:52:31Z</time>
      </trkpt>
      <trkpt lat="43.77409" lon="6.67646">
        <ele>1195.118</ele>
        <time>2014-08-25T12:53:01Z</time>
      </trkpt>
      <trkpt lat="43.77413" lon="6.6765">
        <ele>1193.349</ele>
        <time>2014-08-25T12:53:07Z</time>
      </trkpt>
      <trkpt lat="43.77417" lon="6.67667">
        <ele>1203.849</ele>
        <time>2014-08-25T12:53:13Z</time>
      </trkpt>
      <trkpt lat="43.77413" lon="6.67695">
        <ele>1204.953</ele>
        <time>2014-08-25T12:53:19Z</time>
      </trkpt>
      <trkpt lat="43.77418" lon="6.67708">
        <ele>1206.673</ele>
        <time>2014-08-25T12:53:23Z</time>
      </trkpt>
      <trkpt lat="43.77435" lon="6.67719">
        <ele>1203.566</ele>
        <time>2014-08-25T12:53:30Z</time>
      </trkpt>
      <trkpt lat="43.77443" lon="6.67732">
        <ele>1209.355</ele>
        <time>2014-08-25T12:53:36Z</time>
      </trkpt>
      <trkpt lat="43.77451" lon="6.67739">
        <ele>1208.618</ele>
        <time>2014-08-25T12:53:41Z</time>
      </trkpt>
      <trkpt lat="43.77457" lon="6.67741">
        <ele>1208.606</ele>
        <time>2014-08-25T12:53:45Z</time>
      </trkpt>
      <trkpt lat="43.77465" lon="6.67744">
        <ele>1207.763</ele>
        <time>2014-08-25T12:53:51Z</time>
      </trkpt>
      <trkpt lat="43.77475" lon="6.6775">
        <ele>1208.846</ele>
        <time>2014-08-25T12:53:58Z</time>
      </trkpt>
      <trkpt lat="43.77485" lon="6.67754">
        <ele>1207.711</ele>
        <time>2014-08-25T12:54:05Z</time>
      </trkpt>
      <trkpt lat="43.77495" lon="6.67758">
        <ele>1206.51</ele>
        <time>2014-08-25T12:54:11Z</time>
      </trkpt>
      <trkpt lat="43.77506" lon="6.67763">
        <ele>1206.26</ele>
        <time>2014-08-25T12:54:19Z</time>
      </trkpt>
      <trkpt lat="43.77514" lon="6.67772">
        <ele>1205.39</ele>
        <time>2014-08-25T12:54:26Z</time>
      </trkpt>
      <trkpt lat="43.77519" lon="6.67779">
        <ele>1209.016</ele>
        <time>2014-08-25T12:54:32Z</time>
      </trkpt>
      <trkpt lat="43.7752" lon="6.67781">
        <ele>1210.465</ele>
        <time>2014-08-25T12:54:39Z</time>
      </trkpt>
      <trkpt lat="43.77524" lon="6.67782">
        <ele>1210.92</ele>
        <time>2014-08-25T12:54:48Z</time>
      </trkpt>
      <trkpt lat="43.77524" lon="6.67784">
        <ele>1212.733</ele>
        <time>2014-08-25T12:54:53Z</time>
      </trkpt>
      <trkpt lat="43.77528" lon="6.67789">
        <ele>1215.282</ele>
        <time>2014-08-25T12:55:04Z</time>
      </trkpt>
      <trkpt lat="43.77534" lon="6.67793">
        <ele>1213.543</ele>
        <time>2014-08-25T12:55:12Z</time>
      </trkpt>
      <trkpt lat="43.77539" lon="6.678">
        <ele>1213.512</ele>
        <time>2014-08-25T12:55:19Z</time>
      </trkpt>
      <trkpt lat="43.77542" lon="6.67803">
        <ele>1214.176</ele>
        <time>2014-08-25T12:55:24Z</time>
      </trkpt>
      <trkpt lat="43.77547" lon="6.67807">
        <ele>1215.995</ele>
        <time>2014-08-25T12:55:31Z</time>
      </trkpt>
      <trkpt lat="43.77548" lon="6.67808">
        <ele>1215.744</ele>
        <time>2014-08-25T12:55:33Z</time>
      </trkpt>
      <trkpt lat="43.77553" lon="6.67811">
        <ele>1215.842</ele>
        <time>2014-08-25T12:55:40Z</time>
      </trkpt>
      <trkpt lat="43.77556" lon="6.6782">
        <ele>1216.681</ele>
        <time>2014-08-25T12:55:49Z</time>
      </trkpt>
      <trkpt lat="43.77558" lon="6.67823">
        <ele>1216.881</ele>
        <time>2014-08-25T12:55:55Z</time>
      </trkpt>
      <trkpt lat="43.77563" lon="6.6783">
        <ele>1217.503</ele>
        <time>2014-08-25T12:56:04Z</time>
      </trkpt>
      <trkpt lat="43.77566" lon="6.67834">
        <ele>1220.989</ele>
        <time>2014-08-25T12:56:11Z</time>
      </trkpt>
      <trkpt lat="43.7757" lon="6.6784">
        <ele>1222.474</ele>
        <time>2014-08-25T12:56:20Z</time>
      </trkpt>
      <trkpt lat="43.77576" lon="6.67848">
        <ele>1220.488</ele>
        <time>2014-08-25T12:56:30Z</time>
      </trkpt>
      <trkpt lat="43.7758" lon="6.67855">
        <ele>1220.43</ele>
        <time>2014-08-25T12:56:38Z</time>
      </trkpt>
      <trkpt lat="43.77583" lon="6.67859">
        <ele>1223.163</ele>
        <time>2014-08-25T12:56:45Z</time>
      </trkpt>
      <trkpt lat="43.77586" lon="6.67863">
        <ele>1224.492</ele>
        <time>2014-08-25T12:56:53Z</time>
      </trkpt>
      <trkpt lat="43.77588" lon="6.67868">
        <ele>1227.044</ele>
        <time>2014-08-25T12:56:59Z</time>
      </trkpt>
      <trkpt lat="43.77589" lon="6.67879">
        <ele>1227.343</ele>
        <time>2014-08-25T12:57:08Z</time>
      </trkpt>
      <trkpt lat="43.77588" lon="6.67888">
        <ele>1229.407</ele>
        <time>2014-08-25T12:57:15Z</time>
      </trkpt>
      <trkpt lat="43.77586" lon="6.67896">
        <ele>1228.791</ele>
        <time>2014-08-25T12:57:22Z</time>
      </trkpt>
      <trkpt lat="43.77586" lon="6.67898">
        <ele>1226.707</ele>
        <time>2014-08-25T12:57:24Z</time>
      </trkpt>
      <trkpt lat="43.77583" lon="6.67903">
        <ele>1225.168</ele>
        <time>2014-08-25T12:57:30Z</time>
      </trkpt>
      <trkpt lat="43.77582" lon="6.67905">
        <ele>1226.159</ele>
        <time>2014-08-25T12:57:36Z</time>
      </trkpt>
      <trkpt lat="43.77581" lon="6.67906">
        <ele>1232.084</ele>
        <time>2014-08-25T12:58:25Z</time>
      </trkpt>
      <trkpt lat="43.77587" lon="6.67912">
        <ele>1233.172</ele>
        <time>2014-08-25T12:58:29Z</time>
      </trkpt>
      <trkpt lat="43.77593" lon="6.6792">
        <ele>1235.624</ele>
        <time>2014-08-25T12:58:33Z</time>
      </trkpt>
      <trkpt lat="43.776" lon="6.67934">
        <ele>1239.208</ele>
        <time>2014-08-25T12:58:38Z</time>
      </trkpt>
      <trkpt lat="43.77609" lon="6.67944">
        <ele>1238.936</ele>
        <time>2014-08-25T12:58:45Z</time>
      </trkpt>
      <trkpt lat="43.77611" lon="6.67949">
        <ele>1239.344</ele>
        <time>2014-08-25T12:58:51Z</time>
      </trkpt>
      <trkpt lat="43.77612" lon="6.67949">
        <ele>1239.064</ele>
        <time>2014-08-25T12:58:52Z</time>
      </trkpt>
      <trkpt lat="43.77613" lon="6.67953">
        <ele>1239.175</ele>
        <time>2014-08-25T12:58:55Z</time>
      </trkpt>
      <trkpt lat="43.77615" lon="6.67959">
        <ele>1237.711</ele>
        <time>2014-08-25T12:59:00Z</time>
      </trkpt>
      <trkpt lat="43.77615" lon="6.67967">
        <ele>1241.309</ele>
        <time>2014-08-25T12:59:08Z</time>
      </trkpt>
      <trkpt lat="43.77618" lon="6.67972">
        <ele>1238.991</ele>
        <time>2014-08-25T12:59:13Z</time>
      </trkpt>
      <trkpt lat="43.77618" lon="6.67981">
        <ele>1238.239</ele>
        <time>2014-08-25T12:59:19Z</time>
      </trkpt>
      <trkpt lat="43.7762" lon="6.67994">
        <ele>1239.292</ele>
        <time>2014-08-25T12:59:23Z</time>
      </trkpt>
      <trkpt lat="43.77622" lon="6.67999">
        <ele>1241.167</ele>
        <time>2014-08-25T12:59:26Z</time>
      </trkpt>
      <trkpt lat="43.77625" lon="6.68016">
        <ele>1240.063</ele>
        <time>2014-08-25T12:59:32Z</time>
      </trkpt>
      <trkpt lat="43.77628" lon="6.68035">
        <ele>1236.275</ele>
        <time>2014-08-25T12:59:37Z</time>
      </trkpt>
      <trkpt lat="43.77628" lon="6.68047">
        <ele>1238.832</ele>
        <time>2014-08-25T12:59:43Z</time>
      </trkpt>
      <trkpt lat="43.77632" lon="6.68062">
        <ele>1236.225</ele>
        <time>2014-08-25T12:59:49Z</time>
      </trkpt>
      <trkpt lat="43.77633" lon="6.68068">
        <ele>1236.616</ele>
        <time>2014-08-25T12:59:50Z</time>
      </trkpt>
      <trkpt lat="43.77638" lon="6.68114">
        <ele>1233.589</ele>
        <time>2014-08-25T12:59:56Z</time>
      </trkpt>
      <trkpt lat="43.77638" lon="6.68149">
        <ele>1233.019</ele>
        <time>2014-08-25T13:00:00Z</time>
      </trkpt>
      <trkpt lat="43.77639" lon="6.68194">
        <ele>1230.454</ele>
        <time>2014-08-25T13:00:05Z</time>
      </trkpt>
      <trkpt lat="43.77645" lon="6.68228">
        <ele>1224.592</ele>
        <time>2014-08-25T13:00:10Z</time>
      </trkpt>
      <trkpt lat="43.77645" lon="6.68261">
        <ele>1221.473</ele>
        <time>2014-08-25T13:00:14Z</time>
      </trkpt>
      <trkpt lat="43.77649" lon="6.68292">
        <ele>1217.27</ele>
        <time>2014-08-25T13:00:18Z</time>
      </trkpt>
      <trkpt lat="43.77653" lon="6.68309">
        <ele>1215.222</ele>
        <time>2014-08-25T13:00:21Z</time>
      </trkpt>
      <trkpt lat="43.7766" lon="6.68336">
        <ele>1214.774</ele>
        <time>2014-08-25T13:00:29Z</time>
      </trkpt>
      <trkpt lat="43.77663" lon="6.68356">
        <ele>1215.87</ele>
        <time>2014-08-25T13:00:36Z</time>
      </trkpt>
      <trkpt lat="43.77664" lon="6.68384">
        <ele>1221.23</ele>
        <time>2014-08-25T13:00:45Z</time>
      </trkpt>
      <trkpt lat="43.77662" lon="6.68404">
        <ele>1228.306</ele>
        <time>2014-08-25T13:00:52Z</time>
      </trkpt>
      <trkpt lat="43.7766" lon="6.6842">
        <ele>1231.794</ele>
        <time>2014-08-25T13:00:58Z</time>
      </trkpt>
      <trkpt lat="43.7766" lon="6.68444">
        <ele>1228.344</ele>
        <time>2014-08-25T13:01:05Z</time>
      </trkpt>
      <trkpt lat="43.77659" lon="6.68465">
        <ele>1224.344</ele>
        <time>2014-08-25T13:01:09Z</time>
      </trkpt>
      <trkpt lat="43.77659" lon="6.68501">
        <ele>1219.981</ele>
        <time>2014-08-25T13:01:14Z</time>
      </trkpt>
      <trkpt lat="43.7767" lon="6.68541">
        <ele>1217.5</ele>
        <time>2014-08-25T13:01:19Z</time>
      </trkpt>
      <trkpt lat="43.77676" lon="6.68592">
        <ele>1215.217</ele>
        <time>2014-08-25T13:01:25Z</time>
      </trkpt>
      <trkpt lat="43.77679" lon="6.68643">
        <ele>1207.454</ele>
        <time>2014-08-25T13:01:31Z</time>
      </trkpt>
      <trkpt lat="43.77679" lon="6.6865">
        <ele>1206.081</ele>
        <time>2014-08-25T13:01:32Z</time>
      </trkpt>
      <trkpt lat="43.77676" lon="6.68693">
        <ele>1201.366</ele>
        <time>2014-08-25T13:01:37Z</time>
      </trkpt>
      <trkpt lat="43.77677" lon="6.68728">
        <ele>1200.112</ele>
        <time>2014-08-25T13:01:41Z</time>
      </trkpt>
      <trkpt lat="43.77678" lon="6.68742">
        <ele>1200.428</ele>
        <time>2014-08-25T13:01:43Z</time>
      </trkpt>
      <trkpt lat="43.77683" lon="6.68765">
        <ele>1197.258</ele>
        <time>2014-08-25T13:01:47Z</time>
      </trkpt>
      <trkpt lat="43.77689" lon="6.68801">
        <ele>1196.814</ele>
        <time>2014-08-25T13:01:53Z</time>
      </trkpt>
      <trkpt lat="43.7769" lon="6.68839">
        <ele>1191.067</ele>
        <time>2014-08-25T13:01:58Z</time>
      </trkpt>
      <trkpt lat="43.7769" lon="6.68887">
        <ele>1185.973</ele>
        <time>2014-08-25T13:02:03Z</time>
      </trkpt>
      <trkpt lat="43.77688" lon="6.68904">
        <ele>1183.912</ele>
        <time>2014-08-25T13:02:05Z</time>
      </trkpt>
      <trkpt lat="43.77685" lon="6.68936">
        <ele>1182.316</ele>
        <time>2014-08-25T13:02:10Z</time>
      </trkpt>
      <trkpt lat="43.77682" lon="6.6895">
        <ele>1181.086</ele>
        <time>2014-08-25T13:02:12Z</time>
      </trkpt>
      <trkpt lat="43.77674" lon="6.68985">
        <ele>1175.891</ele>
        <time>2014-08-25T13:02:17Z</time>
      </trkpt>
      <trkpt lat="43.77674" lon="6.68992">
        <ele>1174.931</ele>
        <time>2014-08-25T13:02:18Z</time>
      </trkpt>
      <trkpt lat="43.77669" lon="6.69039">
        <ele>1171.908</ele>
        <time>2014-08-25T13:02:24Z</time>
      </trkpt>
      <trkpt lat="43.77669" lon="6.69046">
        <ele>1172.279</ele>
        <time>2014-08-25T13:02:25Z</time>
      </trkpt>
      <trkpt lat="43.77669" lon="6.69058">
        <ele>1172.101</ele>
        <time>2014-08-25T13:02:27Z</time>
      </trkpt>
      <trkpt lat="43.77676" lon="6.69086">
        <ele>1170.774</ele>
        <time>2014-08-25T13:02:32Z</time>
      </trkpt>
      <trkpt lat="43.77675" lon="6.69116">
        <ele>1166.161</ele>
        <time>2014-08-25T13:02:36Z</time>
      </trkpt>
      <trkpt lat="43.77659" lon="6.69185">
        <ele>1164.226</ele>
        <time>2014-08-25T13:02:45Z</time>
      </trkpt>
      <trkpt lat="43.77642" lon="6.69228">
        <ele>1162.594</ele>
        <time>2014-08-25T13:02:51Z</time>
      </trkpt>
      <trkpt lat="43.77635" lon="6.69264">
        <ele>1164.14</ele>
        <time>2014-08-25T13:02:57Z</time>
      </trkpt>
      <trkpt lat="43.77634" lon="6.69279">
        <ele>1162.897</ele>
        <time>2014-08-25T13:02:59Z</time>
      </trkpt>
      <trkpt lat="43.77623" lon="6.69305">
        <ele>1160.902</ele>
        <time>2014-08-25T13:03:03Z</time>
      </trkpt>
      <trkpt lat="43.77622" lon="6.69318">
        <ele>1161.208</ele>
        <time>2014-08-25T13:03:05Z</time>
      </trkpt>
      <trkpt lat="43.77629" lon="6.69346">
        <ele>1163.898</ele>
        <time>2014-08-25T13:03:11Z</time>
      </trkpt>
      <trkpt lat="43.77633" lon="6.69366">
        <ele>1165.746</ele>
        <time>2014-08-25T13:03:16Z</time>
      </trkpt>
      <trkpt lat="43.77625" lon="6.69399">
        <ele>1164.123</ele>
        <time>2014-08-25T13:03:22Z</time>
      </trkpt>
      <trkpt lat="43.77625" lon="6.6942">
        <ele>1163.252</ele>
        <time>2014-08-25T13:03:26Z</time>
      </trkpt>
      <trkpt lat="43.77624" lon="6.69424">
        <ele>1163.402</ele>
        <time>2014-08-25T13:03:27Z</time>
      </trkpt>
      <trkpt lat="43.77616" lon="6.69446">
        <ele>1162.117</ele>
        <time>2014-08-25T13:03:33Z</time>
      </trkpt>
      <trkpt lat="43.77601" lon="6.69472">
        <ele>1161.443</ele>
        <time>2014-08-25T13:03:37Z</time>
      </trkpt>
      <trkpt lat="43.77591" lon="6.69492">
        <ele>1163.136</ele>
        <time>2014-08-25T13:03:39Z</time>
      </trkpt>
      <trkpt lat="43.77581" lon="6.69546">
        <ele>1163.873</ele>
        <time>2014-08-25T13:03:44Z</time>
      </trkpt>
      <trkpt lat="43.77572" lon="6.69605">
        <ele>1169.123</ele>
        <time>2014-08-25T13:03:49Z</time>
      </trkpt>
      <trkpt lat="43.7757" lon="6.69616">
        <ele>1169.854</ele>
        <time>2014-08-25T13:03:50Z</time>
      </trkpt>
      <trkpt lat="43.77573" lon="6.6967">
        <ele>1164.691</ele>
        <time>2014-08-25T13:03:55Z</time>
      </trkpt>
      <trkpt lat="43.77573" lon="6.69699">
        <ele>1157.958</ele>
        <time>2014-08-25T13:03:58Z</time>
      </trkpt>
      <trkpt lat="43.77568" lon="6.69712">
        <ele>1155.705</ele>
        <time>2014-08-25T13:04:00Z</time>
      </trkpt>
      <trkpt lat="43.77552" lon="6.69745">
        <ele>1152.07</ele>
        <time>2014-08-25T13:04:05Z</time>
      </trkpt>
      <trkpt lat="43.77537" lon="6.69773">
        <ele>1145.824</ele>
        <time>2014-08-25T13:04:09Z</time>
      </trkpt>
      <trkpt lat="43.77524" lon="6.69809">
        <ele>1140.985</ele>
        <time>2014-08-25T13:04:14Z</time>
      </trkpt>
      <trkpt lat="43.7752" lon="6.69826">
        <ele>1140.679</ele>
        <time>2014-08-25T13:04:18Z</time>
      </trkpt>
      <trkpt lat="43.77512" lon="6.69859">
        <ele>1142.931</ele>
        <time>2014-08-25T13:04:25Z</time>
      </trkpt>
      <trkpt lat="43.77505" lon="6.69877">
        <ele>1145.247</ele>
        <time>2014-08-25T13:04:30Z</time>
      </trkpt>
      <trkpt lat="43.77504" lon="6.69883">
        <ele>1145.136</ele>
        <time>2014-08-25T13:04:32Z</time>
      </trkpt>
      <trkpt lat="43.77502" lon="6.69909">
        <ele>1143.988</ele>
        <time>2014-08-25T13:04:38Z</time>
      </trkpt>
      <trkpt lat="43.77496" lon="6.69929">
        <ele>1152.161</ele>
        <time>2014-08-25T13:04:43Z</time>
      </trkpt>
      <trkpt lat="43.77491" lon="6.69948">
        <ele>1162.397</ele>
        <time>2014-08-25T13:04:48Z</time>
      </trkpt>
      <trkpt lat="43.77489" lon="6.69971">
        <ele>1166.129</ele>
        <time>2014-08-25T13:04:53Z</time>
      </trkpt>
      <trkpt lat="43.7749" lon="6.70006">
        <ele>1158.982</ele>
        <time>2014-08-25T13:04:59Z</time>
      </trkpt>
      <trkpt lat="43.77484" lon="6.70028">
        <ele>1160.638</ele>
        <time>2014-08-25T13:05:04Z</time>
      </trkpt>
      <trkpt lat="43.77481" lon="6.70045">
        <ele>1157.862</ele>
        <time>2014-08-25T13:05:08Z</time>
      </trkpt>
      <trkpt lat="43.7748" lon="6.70067">
        <ele>1159.884</ele>
        <time>2014-08-25T13:05:13Z</time>
      </trkpt>
      <trkpt lat="43.77484" lon="6.70085">
        <ele>1155.116</ele>
        <time>2014-08-25T13:05:17Z</time>
      </trkpt>
      <trkpt lat="43.77486" lon="6.70107">
        <ele>1153.954</ele>
        <time>2014-08-25T13:05:22Z</time>
      </trkpt>
      <trkpt lat="43.77485" lon="6.70141">
        <ele>1151.79</ele>
        <time>2014-08-25T13:05:29Z</time>
      </trkpt>
      <trkpt lat="43.77483" lon="6.70166">
        <ele>1152.976</ele>
        <time>2014-08-25T13:05:35Z</time>
      </trkpt>
      <trkpt lat="43.7748" lon="6.70192">
        <ele>1153.879</ele>
        <time>2014-08-25T13:05:41Z</time>
      </trkpt>
      <trkpt lat="43.77479" lon="6.70211">
        <ele>1155.44</ele>
        <time>2014-08-25T13:05:46Z</time>
      </trkpt>
      <trkpt lat="43.77477" lon="6.70231">
        <ele>1155.813</ele>
        <time>2014-08-25T13:05:51Z</time>
      </trkpt>
      <trkpt lat="43.77474" lon="6.70258">
        <ele>1155.271</ele>
        <time>2014-08-25T13:05:57Z</time>
      </trkpt>
      <trkpt lat="43.77469" lon="6.70283">
        <ele>1154.135</ele>
        <time>2014-08-25T13:06:04Z</time>
      </trkpt>
      <trkpt lat="43.77468" lon="6.70294">
        <ele>1152.213</ele>
        <time>2014-08-25T13:06:08Z</time>
      </trkpt>
      <trkpt lat="43.77464" lon="6.70301">
        <ele>1153.014</ele>
        <time>2014-08-25T13:06:11Z</time>
      </trkpt>
      <trkpt lat="43.7746" lon="6.70311">
        <ele>1154.527</ele>
        <time>2014-08-25T13:06:16Z</time>
      </trkpt>
      <trkpt lat="43.77453" lon="6.7033">
        <ele>1157.481</ele>
        <time>2014-08-25T13:06:23Z</time>
      </trkpt>
      <trkpt lat="43.77455" lon="6.70353">
        <ele>1144.939</ele>
        <time>2014-08-25T13:06:29Z</time>
      </trkpt>
      <trkpt lat="43.77446" lon="6.70374">
        <ele>1142.037</ele>
        <time>2014-08-25T13:06:35Z</time>
      </trkpt>
      <trkpt lat="43.77437" lon="6.70391">
        <ele>1142.492</ele>
        <time>2014-08-25T13:06:39Z</time>
      </trkpt>
      <trkpt lat="43.77428" lon="6.70403">
        <ele>1137.233</ele>
        <time>2014-08-25T13:06:44Z</time>
      </trkpt>
      <trkpt lat="43.77424" lon="6.7039">
        <ele>1136.485</ele>
        <time>2014-08-25T13:06:47Z</time>
      </trkpt>
      <trkpt lat="43.77417" lon="6.70379">
        <ele>1137.669</ele>
        <time>2014-08-25T13:06:50Z</time>
      </trkpt>
      <trkpt lat="43.77409" lon="6.70388">
        <ele>1136.83</ele>
        <time>2014-08-25T13:06:53Z</time>
      </trkpt>
      <trkpt lat="43.77406" lon="6.70387">
        <ele>1136.059</ele>
        <time>2014-08-25T13:06:56Z</time>
      </trkpt>
      <trkpt lat="43.77408" lon="6.70375">
        <ele>1134.826</ele>
        <time>2014-08-25T13:06:58Z</time>
      </trkpt>
      <trkpt lat="43.77402" lon="6.70348">
        <ele>1131.348</ele>
        <time>2014-08-25T13:07:04Z</time>
      </trkpt>
      <trkpt lat="43.77386" lon="6.70367">
        <ele>1133.998</ele>
        <time>2014-08-25T13:07:07Z</time>
      </trkpt>
      <trkpt lat="43.77385" lon="6.70391">
        <ele>1134.569</ele>
        <time>2014-08-25T13:07:10Z</time>
      </trkpt>
      <trkpt lat="43.77384" lon="6.70398">
        <ele>1133.767</ele>
        <time>2014-08-25T13:07:11Z</time>
      </trkpt>
      <trkpt lat="43.77383" lon="6.70408">
        <ele>1132.153</ele>
        <time>2014-08-25T13:07:13Z</time>
      </trkpt>
      <trkpt lat="43.77382" lon="6.7041">
        <ele>1132.486</ele>
        <time>2014-08-25T13:07:15Z</time>
      </trkpt>
      <trkpt lat="43.77383" lon="6.70386">
        <ele>1131.947</ele>
        <time>2014-08-25T13:07:20Z</time>
      </trkpt>
      <trkpt lat="43.77386" lon="6.70359">
        <ele>1132.686</ele>
        <time>2014-08-25T13:07:26Z</time>
      </trkpt>
      <trkpt lat="43.77384" lon="6.70324">
        <ele>1126.395</ele>
        <time>2014-08-25T13:07:32Z</time>
      </trkpt>
      <trkpt lat="43.77387" lon="6.70282">
        <ele>1121.04</ele>
        <time>2014-08-25T13:07:38Z</time>
      </trkpt>
      <trkpt lat="43.77391" lon="6.70231">
        <ele>1117.961</ele>
        <time>2014-08-25T13:07:44Z</time>
      </trkpt>
      <trkpt lat="43.77391" lon="6.70176">
        <ele>1115.992</ele>
        <time>2014-08-25T13:07:50Z</time>
      </trkpt>
      <trkpt lat="43.77382" lon="6.7013">
        <ele>1110.305</ele>
        <time>2014-08-25T13:07:55Z</time>
      </trkpt>
      <trkpt lat="43.77373" lon="6.7009">
        <ele>1106.56</ele>
        <time>2014-08-25T13:08:00Z</time>
      </trkpt>
      <trkpt lat="43.77363" lon="6.70054">
        <ele>1104.907</ele>
        <time>2014-08-25T13:08:07Z</time>
      </trkpt>
      <trkpt lat="43.77356" lon="6.70013">
        <ele>1103.334</ele>
        <time>2014-08-25T13:08:13Z</time>
      </trkpt>
      <trkpt lat="43.77354" lon="6.69999">
        <ele>1102.534</ele>
        <time>2014-08-25T13:08:15Z</time>
      </trkpt>
      <trkpt lat="43.77351" lon="6.69976">
        <ele>1100.49</ele>
        <time>2014-08-25T13:08:19Z</time>
      </trkpt>
      <trkpt lat="43.77341" lon="6.69976">
        <ele>1099.922</ele>
        <time>2014-08-25T13:08:21Z</time>
      </trkpt>
      <trkpt lat="43.77338" lon="6.69991">
        <ele>1100.387</ele>
        <time>2014-08-25T13:08:24Z</time>
      </trkpt>
      <trkpt lat="43.77334" lon="6.70014">
        <ele>1105.717</ele>
        <time>2014-08-25T13:08:28Z</time>
      </trkpt>
      <trkpt lat="43.77334" lon="6.70033">
        <ele>1111</ele>
        <time>2014-08-25T13:08:32Z</time>
      </trkpt>
      <trkpt lat="43.77338" lon="6.70036">
        <ele>1109.638</ele>
        <time>2014-08-25T13:08:35Z</time>
      </trkpt>
      <trkpt lat="43.77339" lon="6.70037">
        <ele>1108.738</ele>
        <time>2014-08-25T13:08:38Z</time>
      </trkpt>
    </trkseg>
  </trk>
</gpx>